<?xml version="1.0" encoding="UTF-8" standalone="no" ?>
<gpx xmlns="http://www.topografix.com/GPX/1/1" xmlns:xsi="http://www.w3.org/2001/XMLSchema-instance" xsi:schemaLocation="http://www.topografix.com/GPX/1/1 http://www.topografix.com/GPX/1/1/gpx.xsd" version="1.1" creator="VisuGPX - https://www.visugpx.com">
  <metadata>
    <name>2017-11-22 Bike ride-Amberieux-Savigneux O 33</name>
    <desc><![CDATA[2017-11-22 Bike ride-Amberieux-Savigneux O 33]]></desc>
  </metadata>
  <wpt lat="45.92457" lon="4.73715">
    <ele>174</ele>
    <name><![CDATA[2017-11-22 10:33 (Start)]]></name>
  </wpt>
  <wpt lat="45.92464" lon="4.7371">
    <ele>174</ele>
    <name><![CDATA[2017-11-22 10:33 (End)]]></name>
    <desc><![CDATA[Created by Google My Tracks on Android  Name: 2017-11-22 10:33 Activity type: biking Description: - Total distance: 32.88 km (20.4 mi) Total time: 1:54:17 Moving time: 1:53:32 Average speed: 17.26 km/h (10.7 mi/h) Average moving speed: 17.37 km/h (10.8 mi/h) Max speed: 43.52 km/h (27.0 mi/h) Average pace: 3:29 min/km (5:36 min/mi) Average moving pace: 3:27 min/km (5:33 min/mi) Fastest pace: 1:23 min/km (2:13 min/mi) Max elevation: 338 m (1108 ft) Min elevation: 215 m (705 ft) Elevation gain: 319 m (1048 ft) Max grade: 18 % Min grade: -9 % Recorded: 22/11/2017 10:33]]></desc>
  </wpt>
  <trk>
    <name><![CDATA[2017-11-22 10:33]]></name>
    <trkseg>
      <trkpt lat="45.92457" lon="4.73715">
        <ele>174</ele>
        <time>2017-11-22T09:33:42.314Z</time>
      </trkpt>
      <trkpt lat="45.92456" lon="4.73718">
        <ele>174</ele>
        <time>2017-11-22T09:33:44.459Z</time>
      </trkpt>
      <trkpt lat="45.9247" lon="4.73727">
        <ele>174</ele>
        <time>2017-11-22T09:33:45Z</time>
      </trkpt>
      <trkpt lat="45.92466" lon="4.73716">
        <ele>174</ele>
        <time>2017-11-22T09:33:50Z</time>
      </trkpt>
      <trkpt lat="45.92467" lon="4.73715">
        <ele>174</ele>
        <time>2017-11-22T09:33:51Z</time>
      </trkpt>
      <trkpt lat="45.92472" lon="4.73706">
        <ele>174</ele>
        <time>2017-11-22T09:34:20Z</time>
      </trkpt>
      <trkpt lat="45.92472" lon="4.73703">
        <ele>174</ele>
        <time>2017-11-22T09:34:21Z</time>
      </trkpt>
      <trkpt lat="45.92473" lon="4.73693">
        <ele>174</ele>
        <time>2017-11-22T09:34:25Z</time>
      </trkpt>
      <trkpt lat="45.92473" lon="4.73689">
        <ele>174</ele>
        <time>2017-11-22T09:34:26Z</time>
      </trkpt>
      <trkpt lat="45.92473" lon="4.73678">
        <ele>174</ele>
        <time>2017-11-22T09:34:29Z</time>
      </trkpt>
      <trkpt lat="45.92473" lon="4.73674">
        <ele>174</ele>
        <time>2017-11-22T09:34:30Z</time>
      </trkpt>
      <trkpt lat="45.92474" lon="4.73661">
        <ele>174</ele>
        <time>2017-11-22T09:34:33Z</time>
      </trkpt>
      <trkpt lat="45.92475" lon="4.73656">
        <ele>174</ele>
        <time>2017-11-22T09:34:34Z</time>
      </trkpt>
      <trkpt lat="45.92478" lon="4.73648">
        <ele>174</ele>
        <time>2017-11-22T09:34:36Z</time>
      </trkpt>
      <trkpt lat="45.92481" lon="4.73645">
        <ele>174</ele>
        <time>2017-11-22T09:34:37Z</time>
      </trkpt>
      <trkpt lat="45.92487" lon="4.73642">
        <ele>174</ele>
        <time>2017-11-22T09:34:39Z</time>
      </trkpt>
      <trkpt lat="45.92491" lon="4.73641">
        <ele>174</ele>
        <time>2017-11-22T09:34:40Z</time>
      </trkpt>
      <trkpt lat="45.92499" lon="4.73642">
        <ele>174</ele>
        <time>2017-11-22T09:34:42Z</time>
      </trkpt>
      <trkpt lat="45.92502" lon="4.73643">
        <ele>174</ele>
        <time>2017-11-22T09:34:43Z</time>
      </trkpt>
      <trkpt lat="45.92511" lon="4.73642">
        <ele>174</ele>
        <time>2017-11-22T09:34:45Z</time>
      </trkpt>
      <trkpt lat="45.92516" lon="4.73641">
        <ele>174</ele>
        <time>2017-11-22T09:34:46Z</time>
      </trkpt>
      <trkpt lat="45.92521" lon="4.73641">
        <ele>173</ele>
        <time>2017-11-22T09:34:47Z</time>
      </trkpt>
      <trkpt lat="45.92525" lon="4.73641">
        <ele>173</ele>
        <time>2017-11-22T09:34:48Z</time>
      </trkpt>
      <trkpt lat="45.92531" lon="4.73641">
        <ele>173</ele>
        <time>2017-11-22T09:34:49Z</time>
      </trkpt>
      <trkpt lat="45.92535" lon="4.73641">
        <ele>173</ele>
        <time>2017-11-22T09:34:50Z</time>
      </trkpt>
      <trkpt lat="45.92539" lon="4.7364">
        <ele>173</ele>
        <time>2017-11-22T09:34:51Z</time>
      </trkpt>
      <trkpt lat="45.92544" lon="4.73637">
        <ele>173</ele>
        <time>2017-11-22T09:34:52Z</time>
      </trkpt>
      <trkpt lat="45.92552" lon="4.73634">
        <ele>173</ele>
        <time>2017-11-22T09:34:54Z</time>
      </trkpt>
      <trkpt lat="45.92556" lon="4.73634">
        <ele>173</ele>
        <time>2017-11-22T09:34:55Z</time>
      </trkpt>
      <trkpt lat="45.92565" lon="4.73632">
        <ele>173</ele>
        <time>2017-11-22T09:34:57Z</time>
      </trkpt>
      <trkpt lat="45.92569" lon="4.73632">
        <ele>173</ele>
        <time>2017-11-22T09:34:58Z</time>
      </trkpt>
      <trkpt lat="45.92574" lon="4.7363">
        <ele>173</ele>
        <time>2017-11-22T09:34:59Z</time>
      </trkpt>
      <trkpt lat="45.92578" lon="4.73629">
        <ele>173</ele>
        <time>2017-11-22T09:35:00Z</time>
      </trkpt>
      <trkpt lat="45.92587" lon="4.73627">
        <ele>172</ele>
        <time>2017-11-22T09:35:02Z</time>
      </trkpt>
      <trkpt lat="45.92591" lon="4.73626">
        <ele>172</ele>
        <time>2017-11-22T09:35:03Z</time>
      </trkpt>
      <trkpt lat="45.92596" lon="4.73625">
        <ele>173</ele>
        <time>2017-11-22T09:35:04Z</time>
      </trkpt>
      <trkpt lat="45.92601" lon="4.73624">
        <ele>173</ele>
        <time>2017-11-22T09:35:05Z</time>
      </trkpt>
      <trkpt lat="45.92605" lon="4.73623">
        <ele>173</ele>
        <time>2017-11-22T09:35:06Z</time>
      </trkpt>
      <trkpt lat="45.92611" lon="4.73625">
        <ele>173</ele>
        <time>2017-11-22T09:35:07Z</time>
      </trkpt>
      <trkpt lat="45.92615" lon="4.73628">
        <ele>173</ele>
        <time>2017-11-22T09:35:08Z</time>
      </trkpt>
      <trkpt lat="45.92619" lon="4.73631">
        <ele>173</ele>
        <time>2017-11-22T09:35:09Z</time>
      </trkpt>
      <trkpt lat="45.92623" lon="4.73641">
        <ele>173</ele>
        <time>2017-11-22T09:35:11Z</time>
      </trkpt>
      <trkpt lat="45.92626" lon="4.73647">
        <ele>173</ele>
        <time>2017-11-22T09:35:12Z</time>
      </trkpt>
      <trkpt lat="45.92628" lon="4.73653">
        <ele>173</ele>
        <time>2017-11-22T09:35:13Z</time>
      </trkpt>
      <trkpt lat="45.92631" lon="4.7366">
        <ele>173</ele>
        <time>2017-11-22T09:35:14Z</time>
      </trkpt>
      <trkpt lat="45.92633" lon="4.73667">
        <ele>173</ele>
        <time>2017-11-22T09:35:15Z</time>
      </trkpt>
      <trkpt lat="45.92635" lon="4.73672">
        <ele>173</ele>
        <time>2017-11-22T09:35:16Z</time>
      </trkpt>
      <trkpt lat="45.92638" lon="4.73678">
        <ele>173</ele>
        <time>2017-11-22T09:35:17Z</time>
      </trkpt>
      <trkpt lat="45.92641" lon="4.73684">
        <ele>173</ele>
        <time>2017-11-22T09:35:18Z</time>
      </trkpt>
      <trkpt lat="45.92645" lon="4.73688">
        <ele>173</ele>
        <time>2017-11-22T09:35:19Z</time>
      </trkpt>
      <trkpt lat="45.92649" lon="4.73691">
        <ele>173</ele>
        <time>2017-11-22T09:35:20Z</time>
      </trkpt>
      <trkpt lat="45.92654" lon="4.73696">
        <ele>173</ele>
        <time>2017-11-22T09:35:21Z</time>
      </trkpt>
      <trkpt lat="45.92659" lon="4.73699">
        <ele>173</ele>
        <time>2017-11-22T09:35:22Z</time>
      </trkpt>
      <trkpt lat="45.92664" lon="4.73703">
        <ele>173</ele>
        <time>2017-11-22T09:35:23Z</time>
      </trkpt>
      <trkpt lat="45.92668" lon="4.73706">
        <ele>174</ele>
        <time>2017-11-22T09:35:24Z</time>
      </trkpt>
      <trkpt lat="45.92672" lon="4.73709">
        <ele>174</ele>
        <time>2017-11-22T09:35:25Z</time>
      </trkpt>
      <trkpt lat="45.92678" lon="4.73712">
        <ele>173</ele>
        <time>2017-11-22T09:35:26Z</time>
      </trkpt>
      <trkpt lat="45.92683" lon="4.73714">
        <ele>173</ele>
        <time>2017-11-22T09:35:27Z</time>
      </trkpt>
      <trkpt lat="45.92689" lon="4.73715">
        <ele>173</ele>
        <time>2017-11-22T09:35:28Z</time>
      </trkpt>
      <trkpt lat="45.92694" lon="4.73717">
        <ele>173</ele>
        <time>2017-11-22T09:35:29Z</time>
      </trkpt>
      <trkpt lat="45.92699" lon="4.73718">
        <ele>173</ele>
        <time>2017-11-22T09:35:30Z</time>
      </trkpt>
      <trkpt lat="45.92704" lon="4.7372">
        <ele>173</ele>
        <time>2017-11-22T09:35:31Z</time>
      </trkpt>
      <trkpt lat="45.9271" lon="4.73723">
        <ele>173</ele>
        <time>2017-11-22T09:35:32Z</time>
      </trkpt>
      <trkpt lat="45.92715" lon="4.73726">
        <ele>173</ele>
        <time>2017-11-22T09:35:33Z</time>
      </trkpt>
      <trkpt lat="45.92722" lon="4.73727">
        <ele>173</ele>
        <time>2017-11-22T09:35:34Z</time>
      </trkpt>
      <trkpt lat="45.92727" lon="4.73727">
        <ele>173</ele>
        <time>2017-11-22T09:35:35Z</time>
      </trkpt>
      <trkpt lat="45.92731" lon="4.73729">
        <ele>173</ele>
        <time>2017-11-22T09:35:36Z</time>
      </trkpt>
      <trkpt lat="45.92735" lon="4.7373">
        <ele>173</ele>
        <time>2017-11-22T09:35:37Z</time>
      </trkpt>
      <trkpt lat="45.9274" lon="4.73732">
        <ele>173</ele>
        <time>2017-11-22T09:35:38Z</time>
      </trkpt>
      <trkpt lat="45.92745" lon="4.73733">
        <ele>173</ele>
        <time>2017-11-22T09:35:39Z</time>
      </trkpt>
      <trkpt lat="45.92749" lon="4.73734">
        <ele>173</ele>
        <time>2017-11-22T09:35:40Z</time>
      </trkpt>
      <trkpt lat="45.92754" lon="4.73735">
        <ele>173</ele>
        <time>2017-11-22T09:35:41Z</time>
      </trkpt>
      <trkpt lat="45.92759" lon="4.73737">
        <ele>173</ele>
        <time>2017-11-22T09:35:42Z</time>
      </trkpt>
      <trkpt lat="45.92766" lon="4.73739">
        <ele>172</ele>
        <time>2017-11-22T09:35:44Z</time>
      </trkpt>
      <trkpt lat="45.92769" lon="4.7374">
        <ele>172</ele>
        <time>2017-11-22T09:35:45Z</time>
      </trkpt>
      <trkpt lat="45.92776" lon="4.73743">
        <ele>172</ele>
        <time>2017-11-22T09:35:47Z</time>
      </trkpt>
      <trkpt lat="45.92779" lon="4.73745">
        <ele>172</ele>
        <time>2017-11-22T09:35:48Z</time>
      </trkpt>
      <trkpt lat="45.92784" lon="4.73751">
        <ele>173</ele>
        <time>2017-11-22T09:35:52Z</time>
      </trkpt>
      <trkpt lat="45.92787" lon="4.73752">
        <ele>173</ele>
        <time>2017-11-22T09:35:53Z</time>
      </trkpt>
      <trkpt lat="45.92791" lon="4.73755">
        <ele>173</ele>
        <time>2017-11-22T09:35:54Z</time>
      </trkpt>
      <trkpt lat="45.92796" lon="4.73756">
        <ele>173</ele>
        <time>2017-11-22T09:35:55Z</time>
      </trkpt>
      <trkpt lat="45.92798" lon="4.7376">
        <ele>173</ele>
        <time>2017-11-22T09:35:56Z</time>
      </trkpt>
      <trkpt lat="45.92804" lon="4.73764">
        <ele>173</ele>
        <time>2017-11-22T09:35:57Z</time>
      </trkpt>
      <trkpt lat="45.92809" lon="4.73767">
        <ele>173</ele>
        <time>2017-11-22T09:35:58Z</time>
      </trkpt>
      <trkpt lat="45.92813" lon="4.7377">
        <ele>173</ele>
        <time>2017-11-22T09:35:59Z</time>
      </trkpt>
      <trkpt lat="45.92819" lon="4.73773">
        <ele>173</ele>
        <time>2017-11-22T09:36:00Z</time>
      </trkpt>
      <trkpt lat="45.92824" lon="4.73777">
        <ele>173</ele>
        <time>2017-11-22T09:36:01Z</time>
      </trkpt>
      <trkpt lat="45.92829" lon="4.73781">
        <ele>173</ele>
        <time>2017-11-22T09:36:02Z</time>
      </trkpt>
      <trkpt lat="45.92834" lon="4.73785">
        <ele>173</ele>
        <time>2017-11-22T09:36:03Z</time>
      </trkpt>
      <trkpt lat="45.9284" lon="4.73788">
        <ele>173</ele>
        <time>2017-11-22T09:36:04Z</time>
      </trkpt>
      <trkpt lat="45.92845" lon="4.73792">
        <ele>173</ele>
        <time>2017-11-22T09:36:05Z</time>
      </trkpt>
      <trkpt lat="45.92849" lon="4.73797">
        <ele>173</ele>
        <time>2017-11-22T09:36:06Z</time>
      </trkpt>
      <trkpt lat="45.92853" lon="4.73803">
        <ele>173</ele>
        <time>2017-11-22T09:36:07Z</time>
      </trkpt>
      <trkpt lat="45.92856" lon="4.7381">
        <ele>173</ele>
        <time>2017-11-22T09:36:08Z</time>
      </trkpt>
      <trkpt lat="45.92858" lon="4.73817">
        <ele>173</ele>
        <time>2017-11-22T09:36:09Z</time>
      </trkpt>
      <trkpt lat="45.9286" lon="4.73825">
        <ele>173</ele>
        <time>2017-11-22T09:36:10Z</time>
      </trkpt>
      <trkpt lat="45.92861" lon="4.73831">
        <ele>173</ele>
        <time>2017-11-22T09:36:11Z</time>
      </trkpt>
      <trkpt lat="45.92863" lon="4.73838">
        <ele>173</ele>
        <time>2017-11-22T09:36:12Z</time>
      </trkpt>
      <trkpt lat="45.92864" lon="4.73846">
        <ele>173</ele>
        <time>2017-11-22T09:36:13Z</time>
      </trkpt>
      <trkpt lat="45.92866" lon="4.73852">
        <ele>173</ele>
        <time>2017-11-22T09:36:14Z</time>
      </trkpt>
      <trkpt lat="45.92868" lon="4.73859">
        <ele>173</ele>
        <time>2017-11-22T09:36:15Z</time>
      </trkpt>
      <trkpt lat="45.9287" lon="4.73866">
        <ele>173</ele>
        <time>2017-11-22T09:36:16Z</time>
      </trkpt>
      <trkpt lat="45.92871" lon="4.73874">
        <ele>173</ele>
        <time>2017-11-22T09:36:17Z</time>
      </trkpt>
      <trkpt lat="45.92873" lon="4.73881">
        <ele>173</ele>
        <time>2017-11-22T09:36:18Z</time>
      </trkpt>
      <trkpt lat="45.92875" lon="4.73888">
        <ele>173</ele>
        <time>2017-11-22T09:36:19Z</time>
      </trkpt>
      <trkpt lat="45.92877" lon="4.73896">
        <ele>173</ele>
        <time>2017-11-22T09:36:20Z</time>
      </trkpt>
      <trkpt lat="45.92877" lon="4.73904">
        <ele>173</ele>
        <time>2017-11-22T09:36:21Z</time>
      </trkpt>
      <trkpt lat="45.92879" lon="4.73912">
        <ele>173</ele>
        <time>2017-11-22T09:36:22Z</time>
      </trkpt>
      <trkpt lat="45.9288" lon="4.73918">
        <ele>172</ele>
        <time>2017-11-22T09:36:23Z</time>
      </trkpt>
      <trkpt lat="45.9288" lon="4.73925">
        <ele>172</ele>
        <time>2017-11-22T09:36:24Z</time>
      </trkpt>
      <trkpt lat="45.9288" lon="4.73933">
        <ele>172</ele>
        <time>2017-11-22T09:36:25Z</time>
      </trkpt>
      <trkpt lat="45.92881" lon="4.7394">
        <ele>172</ele>
        <time>2017-11-22T09:36:26Z</time>
      </trkpt>
      <trkpt lat="45.92881" lon="4.73947">
        <ele>172</ele>
        <time>2017-11-22T09:36:27Z</time>
      </trkpt>
      <trkpt lat="45.92882" lon="4.73954">
        <ele>172</ele>
        <time>2017-11-22T09:36:28Z</time>
      </trkpt>
      <trkpt lat="45.92881" lon="4.73961">
        <ele>172</ele>
        <time>2017-11-22T09:36:29Z</time>
      </trkpt>
      <trkpt lat="45.92881" lon="4.73968">
        <ele>172</ele>
        <time>2017-11-22T09:36:30Z</time>
      </trkpt>
      <trkpt lat="45.92881" lon="4.73975">
        <ele>172</ele>
        <time>2017-11-22T09:36:31Z</time>
      </trkpt>
      <trkpt lat="45.9288" lon="4.73986">
        <ele>172</ele>
        <time>2017-11-22T09:36:33Z</time>
      </trkpt>
      <trkpt lat="45.92879" lon="4.73991">
        <ele>172</ele>
        <time>2017-11-22T09:36:34Z</time>
      </trkpt>
      <trkpt lat="45.92877" lon="4.73997">
        <ele>172</ele>
        <time>2017-11-22T09:36:35Z</time>
      </trkpt>
      <trkpt lat="45.92875" lon="4.74003">
        <ele>172</ele>
        <time>2017-11-22T09:36:36Z</time>
      </trkpt>
      <trkpt lat="45.92874" lon="4.7401">
        <ele>172</ele>
        <time>2017-11-22T09:36:37Z</time>
      </trkpt>
      <trkpt lat="45.92873" lon="4.74018">
        <ele>172</ele>
        <time>2017-11-22T09:36:38Z</time>
      </trkpt>
      <trkpt lat="45.92871" lon="4.74025">
        <ele>172</ele>
        <time>2017-11-22T09:36:39Z</time>
      </trkpt>
      <trkpt lat="45.9287" lon="4.74032">
        <ele>172</ele>
        <time>2017-11-22T09:36:40Z</time>
      </trkpt>
      <trkpt lat="45.92867" lon="4.74039">
        <ele>172</ele>
        <time>2017-11-22T09:36:41Z</time>
      </trkpt>
      <trkpt lat="45.92863" lon="4.74045">
        <ele>172</ele>
        <time>2017-11-22T09:36:42Z</time>
      </trkpt>
      <trkpt lat="45.9286" lon="4.74051">
        <ele>172</ele>
        <time>2017-11-22T09:36:43Z</time>
      </trkpt>
      <trkpt lat="45.92855" lon="4.74054">
        <ele>172</ele>
        <time>2017-11-22T09:36:44Z</time>
      </trkpt>
      <trkpt lat="45.92852" lon="4.7406">
        <ele>172</ele>
        <time>2017-11-22T09:36:45Z</time>
      </trkpt>
      <trkpt lat="45.92847" lon="4.74065">
        <ele>172</ele>
        <time>2017-11-22T09:36:46Z</time>
      </trkpt>
      <trkpt lat="45.92844" lon="4.7407">
        <ele>172</ele>
        <time>2017-11-22T09:36:47Z</time>
      </trkpt>
      <trkpt lat="45.9284" lon="4.74075">
        <ele>171</ele>
        <time>2017-11-22T09:36:48Z</time>
      </trkpt>
      <trkpt lat="45.92837" lon="4.7408">
        <ele>171</ele>
        <time>2017-11-22T09:36:49Z</time>
      </trkpt>
      <trkpt lat="45.92831" lon="4.74086">
        <ele>171</ele>
        <time>2017-11-22T09:36:50Z</time>
      </trkpt>
      <trkpt lat="45.92827" lon="4.74092">
        <ele>171</ele>
        <time>2017-11-22T09:36:51Z</time>
      </trkpt>
      <trkpt lat="45.92822" lon="4.74097">
        <ele>171</ele>
        <time>2017-11-22T09:36:52Z</time>
      </trkpt>
      <trkpt lat="45.92819" lon="4.741">
        <ele>171</ele>
        <time>2017-11-22T09:36:53Z</time>
      </trkpt>
      <trkpt lat="45.92814" lon="4.74105">
        <ele>172</ele>
        <time>2017-11-22T09:36:54Z</time>
      </trkpt>
      <trkpt lat="45.9281" lon="4.74111">
        <ele>172</ele>
        <time>2017-11-22T09:36:55Z</time>
      </trkpt>
      <trkpt lat="45.92806" lon="4.74116">
        <ele>172</ele>
        <time>2017-11-22T09:36:56Z</time>
      </trkpt>
      <trkpt lat="45.92801" lon="4.7412">
        <ele>172</ele>
        <time>2017-11-22T09:36:57Z</time>
      </trkpt>
      <trkpt lat="45.92797" lon="4.74126">
        <ele>172</ele>
        <time>2017-11-22T09:36:58Z</time>
      </trkpt>
      <trkpt lat="45.92791" lon="4.7413">
        <ele>172</ele>
        <time>2017-11-22T09:36:59Z</time>
      </trkpt>
      <trkpt lat="45.92787" lon="4.74134">
        <ele>172</ele>
        <time>2017-11-22T09:37:00Z</time>
      </trkpt>
      <trkpt lat="45.92782" lon="4.74137">
        <ele>172</ele>
        <time>2017-11-22T09:37:01Z</time>
      </trkpt>
      <trkpt lat="45.92779" lon="4.74142">
        <ele>172</ele>
        <time>2017-11-22T09:37:02Z</time>
      </trkpt>
      <trkpt lat="45.92774" lon="4.74146">
        <ele>172</ele>
        <time>2017-11-22T09:37:03Z</time>
      </trkpt>
      <trkpt lat="45.9277" lon="4.74151">
        <ele>172</ele>
        <time>2017-11-22T09:37:04Z</time>
      </trkpt>
      <trkpt lat="45.92767" lon="4.74155">
        <ele>172</ele>
        <time>2017-11-22T09:37:05Z</time>
      </trkpt>
      <trkpt lat="45.92762" lon="4.7416">
        <ele>172</ele>
        <time>2017-11-22T09:37:06Z</time>
      </trkpt>
      <trkpt lat="45.92758" lon="4.74165">
        <ele>172</ele>
        <time>2017-11-22T09:37:07Z</time>
      </trkpt>
      <trkpt lat="45.92753" lon="4.7417">
        <ele>172</ele>
        <time>2017-11-22T09:37:08Z</time>
      </trkpt>
      <trkpt lat="45.9275" lon="4.74174">
        <ele>172</ele>
        <time>2017-11-22T09:37:09Z</time>
      </trkpt>
      <trkpt lat="45.92745" lon="4.74179">
        <ele>172</ele>
        <time>2017-11-22T09:37:10Z</time>
      </trkpt>
      <trkpt lat="45.92741" lon="4.74185">
        <ele>172</ele>
        <time>2017-11-22T09:37:11Z</time>
      </trkpt>
      <trkpt lat="45.92737" lon="4.7419">
        <ele>171</ele>
        <time>2017-11-22T09:37:12Z</time>
      </trkpt>
      <trkpt lat="45.92733" lon="4.74196">
        <ele>171</ele>
        <time>2017-11-22T09:37:13Z</time>
      </trkpt>
      <trkpt lat="45.92729" lon="4.74202">
        <ele>171</ele>
        <time>2017-11-22T09:37:14Z</time>
      </trkpt>
      <trkpt lat="45.92725" lon="4.74208">
        <ele>171</ele>
        <time>2017-11-22T09:37:15Z</time>
      </trkpt>
      <trkpt lat="45.9272" lon="4.74213">
        <ele>171</ele>
        <time>2017-11-22T09:37:16Z</time>
      </trkpt>
      <trkpt lat="45.92717" lon="4.7422">
        <ele>171</ele>
        <time>2017-11-22T09:37:17Z</time>
      </trkpt>
      <trkpt lat="45.92713" lon="4.74225">
        <ele>171</ele>
        <time>2017-11-22T09:37:18Z</time>
      </trkpt>
      <trkpt lat="45.92709" lon="4.7423">
        <ele>171</ele>
        <time>2017-11-22T09:37:19Z</time>
      </trkpt>
      <trkpt lat="45.92706" lon="4.74236">
        <ele>171</ele>
        <time>2017-11-22T09:37:20Z</time>
      </trkpt>
      <trkpt lat="45.92703" lon="4.74241">
        <ele>171</ele>
        <time>2017-11-22T09:37:21Z</time>
      </trkpt>
      <trkpt lat="45.92698" lon="4.74248">
        <ele>171</ele>
        <time>2017-11-22T09:37:22Z</time>
      </trkpt>
      <trkpt lat="45.92695" lon="4.74252">
        <ele>171</ele>
        <time>2017-11-22T09:37:23Z</time>
      </trkpt>
      <trkpt lat="45.92692" lon="4.74259">
        <ele>171</ele>
        <time>2017-11-22T09:37:24Z</time>
      </trkpt>
      <trkpt lat="45.92688" lon="4.74266">
        <ele>171</ele>
        <time>2017-11-22T09:37:25Z</time>
      </trkpt>
      <trkpt lat="45.92685" lon="4.74271">
        <ele>171</ele>
        <time>2017-11-22T09:37:26Z</time>
      </trkpt>
      <trkpt lat="45.92682" lon="4.74278">
        <ele>171</ele>
        <time>2017-11-22T09:37:27Z</time>
      </trkpt>
      <trkpt lat="45.92679" lon="4.74285">
        <ele>171</ele>
        <time>2017-11-22T09:37:28Z</time>
      </trkpt>
      <trkpt lat="45.92676" lon="4.74291">
        <ele>171</ele>
        <time>2017-11-22T09:37:29Z</time>
      </trkpt>
      <trkpt lat="45.92673" lon="4.74296">
        <ele>171</ele>
        <time>2017-11-22T09:37:30Z</time>
      </trkpt>
      <trkpt lat="45.92669" lon="4.74302">
        <ele>171</ele>
        <time>2017-11-22T09:37:31Z</time>
      </trkpt>
      <trkpt lat="45.92664" lon="4.74309">
        <ele>171</ele>
        <time>2017-11-22T09:37:32Z</time>
      </trkpt>
      <trkpt lat="45.9266" lon="4.74317">
        <ele>171</ele>
        <time>2017-11-22T09:37:33Z</time>
      </trkpt>
      <trkpt lat="45.92657" lon="4.74323">
        <ele>171</ele>
        <time>2017-11-22T09:37:34Z</time>
      </trkpt>
      <trkpt lat="45.92653" lon="4.74329">
        <ele>171</ele>
        <time>2017-11-22T09:37:35Z</time>
      </trkpt>
      <trkpt lat="45.9265" lon="4.74337">
        <ele>171</ele>
        <time>2017-11-22T09:37:36Z</time>
      </trkpt>
      <trkpt lat="45.92646" lon="4.74343">
        <ele>171</ele>
        <time>2017-11-22T09:37:37Z</time>
      </trkpt>
      <trkpt lat="45.92642" lon="4.74349">
        <ele>171</ele>
        <time>2017-11-22T09:37:38Z</time>
      </trkpt>
      <trkpt lat="45.92639" lon="4.74356">
        <ele>171</ele>
        <time>2017-11-22T09:37:39Z</time>
      </trkpt>
      <trkpt lat="45.92635" lon="4.74365">
        <ele>171</ele>
        <time>2017-11-22T09:37:40Z</time>
      </trkpt>
      <trkpt lat="45.92632" lon="4.74373">
        <ele>171</ele>
        <time>2017-11-22T09:37:41Z</time>
      </trkpt>
      <trkpt lat="45.92629" lon="4.7438">
        <ele>170</ele>
        <time>2017-11-22T09:37:42Z</time>
      </trkpt>
      <trkpt lat="45.92624" lon="4.74386">
        <ele>170</ele>
        <time>2017-11-22T09:37:43Z</time>
      </trkpt>
      <trkpt lat="45.92621" lon="4.74392">
        <ele>170</ele>
        <time>2017-11-22T09:37:44Z</time>
      </trkpt>
      <trkpt lat="45.92617" lon="4.74399">
        <ele>170</ele>
        <time>2017-11-22T09:37:45Z</time>
      </trkpt>
      <trkpt lat="45.92614" lon="4.74406">
        <ele>170</ele>
        <time>2017-11-22T09:37:46Z</time>
      </trkpt>
      <trkpt lat="45.9261" lon="4.74411">
        <ele>170</ele>
        <time>2017-11-22T09:37:47Z</time>
      </trkpt>
      <trkpt lat="45.92607" lon="4.74417">
        <ele>170</ele>
        <time>2017-11-22T09:37:48Z</time>
      </trkpt>
      <trkpt lat="45.92604" lon="4.74423">
        <ele>170</ele>
        <time>2017-11-22T09:37:49Z</time>
      </trkpt>
      <trkpt lat="45.926" lon="4.74429">
        <ele>170</ele>
        <time>2017-11-22T09:37:50Z</time>
      </trkpt>
      <trkpt lat="45.92596" lon="4.74435">
        <ele>170</ele>
        <time>2017-11-22T09:37:51Z</time>
      </trkpt>
      <trkpt lat="45.92593" lon="4.74439">
        <ele>170</ele>
        <time>2017-11-22T09:37:52Z</time>
      </trkpt>
      <trkpt lat="45.92589" lon="4.74445">
        <ele>170</ele>
        <time>2017-11-22T09:37:53Z</time>
      </trkpt>
      <trkpt lat="45.92585" lon="4.74453">
        <ele>170</ele>
        <time>2017-11-22T09:37:54Z</time>
      </trkpt>
      <trkpt lat="45.92582" lon="4.74458">
        <ele>170</ele>
        <time>2017-11-22T09:37:55Z</time>
      </trkpt>
      <trkpt lat="45.92578" lon="4.74465">
        <ele>170</ele>
        <time>2017-11-22T09:37:56Z</time>
      </trkpt>
      <trkpt lat="45.92575" lon="4.74472">
        <ele>170</ele>
        <time>2017-11-22T09:37:57Z</time>
      </trkpt>
      <trkpt lat="45.92571" lon="4.7448">
        <ele>170</ele>
        <time>2017-11-22T09:37:58Z</time>
      </trkpt>
      <trkpt lat="45.92568" lon="4.74486">
        <ele>170</ele>
        <time>2017-11-22T09:37:59Z</time>
      </trkpt>
      <trkpt lat="45.92564" lon="4.74492">
        <ele>170</ele>
        <time>2017-11-22T09:38:00Z</time>
      </trkpt>
      <trkpt lat="45.92561" lon="4.74498">
        <ele>170</ele>
        <time>2017-11-22T09:38:01Z</time>
      </trkpt>
      <trkpt lat="45.92558" lon="4.74506">
        <ele>170</ele>
        <time>2017-11-22T09:38:02Z</time>
      </trkpt>
      <trkpt lat="45.92555" lon="4.74513">
        <ele>170</ele>
        <time>2017-11-22T09:38:03Z</time>
      </trkpt>
      <trkpt lat="45.92551" lon="4.74519">
        <ele>170</ele>
        <time>2017-11-22T09:38:04Z</time>
      </trkpt>
      <trkpt lat="45.92547" lon="4.74525">
        <ele>170</ele>
        <time>2017-11-22T09:38:05Z</time>
      </trkpt>
      <trkpt lat="45.92543" lon="4.74532">
        <ele>170</ele>
        <time>2017-11-22T09:38:06Z</time>
      </trkpt>
      <trkpt lat="45.9254" lon="4.7454">
        <ele>171</ele>
        <time>2017-11-22T09:38:07Z</time>
      </trkpt>
      <trkpt lat="45.92535" lon="4.74545">
        <ele>171</ele>
        <time>2017-11-22T09:38:08Z</time>
      </trkpt>
      <trkpt lat="45.92531" lon="4.74549">
        <ele>171</ele>
        <time>2017-11-22T09:38:09Z</time>
      </trkpt>
      <trkpt lat="45.92526" lon="4.74554">
        <ele>171</ele>
        <time>2017-11-22T09:38:10Z</time>
      </trkpt>
      <trkpt lat="45.92523" lon="4.74559">
        <ele>171</ele>
        <time>2017-11-22T09:38:11Z</time>
      </trkpt>
      <trkpt lat="45.92519" lon="4.74563">
        <ele>171</ele>
        <time>2017-11-22T09:38:12Z</time>
      </trkpt>
      <trkpt lat="45.92515" lon="4.74568">
        <ele>171</ele>
        <time>2017-11-22T09:38:13Z</time>
      </trkpt>
      <trkpt lat="45.92509" lon="4.74574">
        <ele>171</ele>
        <time>2017-11-22T09:38:14Z</time>
      </trkpt>
      <trkpt lat="45.92505" lon="4.7458">
        <ele>171</ele>
        <time>2017-11-22T09:38:15Z</time>
      </trkpt>
      <trkpt lat="45.925" lon="4.74585">
        <ele>171</ele>
        <time>2017-11-22T09:38:16Z</time>
      </trkpt>
      <trkpt lat="45.92496" lon="4.7459">
        <ele>171</ele>
        <time>2017-11-22T09:38:17Z</time>
      </trkpt>
      <trkpt lat="45.92492" lon="4.74594">
        <ele>171</ele>
        <time>2017-11-22T09:38:18Z</time>
      </trkpt>
      <trkpt lat="45.92488" lon="4.746">
        <ele>171</ele>
        <time>2017-11-22T09:38:19Z</time>
      </trkpt>
      <trkpt lat="45.92485" lon="4.74605">
        <ele>171</ele>
        <time>2017-11-22T09:38:20Z</time>
      </trkpt>
      <trkpt lat="45.92481" lon="4.74611">
        <ele>171</ele>
        <time>2017-11-22T09:38:21Z</time>
      </trkpt>
      <trkpt lat="45.92478" lon="4.74618">
        <ele>171</ele>
        <time>2017-11-22T09:38:22Z</time>
      </trkpt>
      <trkpt lat="45.92473" lon="4.74624">
        <ele>171</ele>
        <time>2017-11-22T09:38:23Z</time>
      </trkpt>
      <trkpt lat="45.92469" lon="4.7463">
        <ele>171</ele>
        <time>2017-11-22T09:38:24Z</time>
      </trkpt>
      <trkpt lat="45.92465" lon="4.74636">
        <ele>171</ele>
        <time>2017-11-22T09:38:25Z</time>
      </trkpt>
      <trkpt lat="45.92461" lon="4.74643">
        <ele>171</ele>
        <time>2017-11-22T09:38:26Z</time>
      </trkpt>
      <trkpt lat="45.92457" lon="4.7465">
        <ele>171</ele>
        <time>2017-11-22T09:38:27Z</time>
      </trkpt>
      <trkpt lat="45.92453" lon="4.74656">
        <ele>171</ele>
        <time>2017-11-22T09:38:28Z</time>
      </trkpt>
      <trkpt lat="45.9245" lon="4.74662">
        <ele>171</ele>
        <time>2017-11-22T09:38:29Z</time>
      </trkpt>
      <trkpt lat="45.92447" lon="4.74669">
        <ele>171</ele>
        <time>2017-11-22T09:38:30Z</time>
      </trkpt>
      <trkpt lat="45.92445" lon="4.74677">
        <ele>171</ele>
        <time>2017-11-22T09:38:31Z</time>
      </trkpt>
      <trkpt lat="45.92442" lon="4.74685">
        <ele>171</ele>
        <time>2017-11-22T09:38:32Z</time>
      </trkpt>
      <trkpt lat="45.9244" lon="4.74693">
        <ele>171</ele>
        <time>2017-11-22T09:38:33Z</time>
      </trkpt>
      <trkpt lat="45.92436" lon="4.74701">
        <ele>171</ele>
        <time>2017-11-22T09:38:34Z</time>
      </trkpt>
      <trkpt lat="45.92433" lon="4.74708">
        <ele>171</ele>
        <time>2017-11-22T09:38:35Z</time>
      </trkpt>
      <trkpt lat="45.9243" lon="4.74716">
        <ele>171</ele>
        <time>2017-11-22T09:38:36Z</time>
      </trkpt>
      <trkpt lat="45.92428" lon="4.74723">
        <ele>171</ele>
        <time>2017-11-22T09:38:37Z</time>
      </trkpt>
      <trkpt lat="45.92425" lon="4.7473">
        <ele>171</ele>
        <time>2017-11-22T09:38:38Z</time>
      </trkpt>
      <trkpt lat="45.92423" lon="4.74737">
        <ele>171</ele>
        <time>2017-11-22T09:38:39Z</time>
      </trkpt>
      <trkpt lat="45.92421" lon="4.74744">
        <ele>172</ele>
        <time>2017-11-22T09:38:40Z</time>
      </trkpt>
      <trkpt lat="45.92418" lon="4.7475">
        <ele>172</ele>
        <time>2017-11-22T09:38:41Z</time>
      </trkpt>
      <trkpt lat="45.92416" lon="4.74757">
        <ele>172</ele>
        <time>2017-11-22T09:38:42Z</time>
      </trkpt>
      <trkpt lat="45.92414" lon="4.74764">
        <ele>172</ele>
        <time>2017-11-22T09:38:43Z</time>
      </trkpt>
      <trkpt lat="45.92412" lon="4.74773">
        <ele>172</ele>
        <time>2017-11-22T09:38:44Z</time>
      </trkpt>
      <trkpt lat="45.92411" lon="4.74781">
        <ele>171</ele>
        <time>2017-11-22T09:38:45Z</time>
      </trkpt>
      <trkpt lat="45.92409" lon="4.74788">
        <ele>171</ele>
        <time>2017-11-22T09:38:46Z</time>
      </trkpt>
      <trkpt lat="45.92407" lon="4.74796">
        <ele>171</ele>
        <time>2017-11-22T09:38:47Z</time>
      </trkpt>
      <trkpt lat="45.92405" lon="4.74805">
        <ele>171</ele>
        <time>2017-11-22T09:38:48Z</time>
      </trkpt>
      <trkpt lat="45.92404" lon="4.74815">
        <ele>171</ele>
        <time>2017-11-22T09:38:49Z</time>
      </trkpt>
      <trkpt lat="45.92402" lon="4.74823">
        <ele>171</ele>
        <time>2017-11-22T09:38:50Z</time>
      </trkpt>
      <trkpt lat="45.924" lon="4.74831">
        <ele>171</ele>
        <time>2017-11-22T09:38:51Z</time>
      </trkpt>
      <trkpt lat="45.92397" lon="4.7484">
        <ele>171</ele>
        <time>2017-11-22T09:38:52Z</time>
      </trkpt>
      <trkpt lat="45.92394" lon="4.74848">
        <ele>171</ele>
        <time>2017-11-22T09:38:53Z</time>
      </trkpt>
      <trkpt lat="45.92392" lon="4.74858">
        <ele>171</ele>
        <time>2017-11-22T09:38:54Z</time>
      </trkpt>
      <trkpt lat="45.92389" lon="4.74867">
        <ele>171</ele>
        <time>2017-11-22T09:38:55Z</time>
      </trkpt>
      <trkpt lat="45.92386" lon="4.74874">
        <ele>171</ele>
        <time>2017-11-22T09:38:56Z</time>
      </trkpt>
      <trkpt lat="45.92383" lon="4.74882">
        <ele>171</ele>
        <time>2017-11-22T09:38:57Z</time>
      </trkpt>
      <trkpt lat="45.9238" lon="4.74889">
        <ele>171</ele>
        <time>2017-11-22T09:38:58Z</time>
      </trkpt>
      <trkpt lat="45.92377" lon="4.74897">
        <ele>171</ele>
        <time>2017-11-22T09:38:59Z</time>
      </trkpt>
      <trkpt lat="45.92375" lon="4.74903">
        <ele>171</ele>
        <time>2017-11-22T09:39:00Z</time>
      </trkpt>
      <trkpt lat="45.92373" lon="4.74911">
        <ele>171</ele>
        <time>2017-11-22T09:39:01Z</time>
      </trkpt>
      <trkpt lat="45.92371" lon="4.74918">
        <ele>170</ele>
        <time>2017-11-22T09:39:02Z</time>
      </trkpt>
      <trkpt lat="45.92368" lon="4.74925">
        <ele>170</ele>
        <time>2017-11-22T09:39:03Z</time>
      </trkpt>
      <trkpt lat="45.92365" lon="4.74933">
        <ele>170</ele>
        <time>2017-11-22T09:39:04Z</time>
      </trkpt>
      <trkpt lat="45.92361" lon="4.74939">
        <ele>170</ele>
        <time>2017-11-22T09:39:05Z</time>
      </trkpt>
      <trkpt lat="45.92358" lon="4.74947">
        <ele>170</ele>
        <time>2017-11-22T09:39:06Z</time>
      </trkpt>
      <trkpt lat="45.92356" lon="4.74954">
        <ele>170</ele>
        <time>2017-11-22T09:39:07Z</time>
      </trkpt>
      <trkpt lat="45.92353" lon="4.7496">
        <ele>170</ele>
        <time>2017-11-22T09:39:08Z</time>
      </trkpt>
      <trkpt lat="45.9235" lon="4.74968">
        <ele>170</ele>
        <time>2017-11-22T09:39:09Z</time>
      </trkpt>
      <trkpt lat="45.92347" lon="4.74975">
        <ele>170</ele>
        <time>2017-11-22T09:39:10Z</time>
      </trkpt>
      <trkpt lat="45.92345" lon="4.74983">
        <ele>170</ele>
        <time>2017-11-22T09:39:11Z</time>
      </trkpt>
      <trkpt lat="45.92342" lon="4.7499">
        <ele>170</ele>
        <time>2017-11-22T09:39:12Z</time>
      </trkpt>
      <trkpt lat="45.92339" lon="4.74998">
        <ele>170</ele>
        <time>2017-11-22T09:39:13Z</time>
      </trkpt>
      <trkpt lat="45.92335" lon="4.75005">
        <ele>170</ele>
        <time>2017-11-22T09:39:14Z</time>
      </trkpt>
      <trkpt lat="45.92333" lon="4.75012">
        <ele>171</ele>
        <time>2017-11-22T09:39:15Z</time>
      </trkpt>
      <trkpt lat="45.9233" lon="4.75019">
        <ele>171</ele>
        <time>2017-11-22T09:39:16Z</time>
      </trkpt>
      <trkpt lat="45.92327" lon="4.75026">
        <ele>171</ele>
        <time>2017-11-22T09:39:17Z</time>
      </trkpt>
      <trkpt lat="45.92324" lon="4.75033">
        <ele>171</ele>
        <time>2017-11-22T09:39:18Z</time>
      </trkpt>
      <trkpt lat="45.9232" lon="4.75039">
        <ele>171</ele>
        <time>2017-11-22T09:39:19Z</time>
      </trkpt>
      <trkpt lat="45.92317" lon="4.75044">
        <ele>172</ele>
        <time>2017-11-22T09:39:20Z</time>
      </trkpt>
      <trkpt lat="45.92314" lon="4.7505">
        <ele>172</ele>
        <time>2017-11-22T09:39:21Z</time>
      </trkpt>
      <trkpt lat="45.92308" lon="4.75055">
        <ele>172</ele>
        <time>2017-11-22T09:39:22Z</time>
      </trkpt>
      <trkpt lat="45.92304" lon="4.7506">
        <ele>172</ele>
        <time>2017-11-22T09:39:23Z</time>
      </trkpt>
      <trkpt lat="45.923" lon="4.75065">
        <ele>172</ele>
        <time>2017-11-22T09:39:24Z</time>
      </trkpt>
      <trkpt lat="45.92296" lon="4.7507">
        <ele>172</ele>
        <time>2017-11-22T09:39:25Z</time>
      </trkpt>
      <trkpt lat="45.9229" lon="4.75074">
        <ele>172</ele>
        <time>2017-11-22T09:39:26Z</time>
      </trkpt>
      <trkpt lat="45.92286" lon="4.75079">
        <ele>172</ele>
        <time>2017-11-22T09:39:27Z</time>
      </trkpt>
      <trkpt lat="45.9228" lon="4.75084">
        <ele>173</ele>
        <time>2017-11-22T09:39:28Z</time>
      </trkpt>
      <trkpt lat="45.92276" lon="4.75089">
        <ele>173</ele>
        <time>2017-11-22T09:39:29Z</time>
      </trkpt>
      <trkpt lat="45.92272" lon="4.75094">
        <ele>173</ele>
        <time>2017-11-22T09:39:30Z</time>
      </trkpt>
      <trkpt lat="45.92267" lon="4.75098">
        <ele>173</ele>
        <time>2017-11-22T09:39:31Z</time>
      </trkpt>
      <trkpt lat="45.92263" lon="4.75102">
        <ele>173</ele>
        <time>2017-11-22T09:39:32Z</time>
      </trkpt>
      <trkpt lat="45.92259" lon="4.75108">
        <ele>174</ele>
        <time>2017-11-22T09:39:33Z</time>
      </trkpt>
      <trkpt lat="45.92256" lon="4.75113">
        <ele>174</ele>
        <time>2017-11-22T09:39:34Z</time>
      </trkpt>
      <trkpt lat="45.92252" lon="4.75118">
        <ele>174</ele>
        <time>2017-11-22T09:39:35Z</time>
      </trkpt>
      <trkpt lat="45.92249" lon="4.75123">
        <ele>174</ele>
        <time>2017-11-22T09:39:36Z</time>
      </trkpt>
      <trkpt lat="45.92245" lon="4.75127">
        <ele>174</ele>
        <time>2017-11-22T09:39:37Z</time>
      </trkpt>
      <trkpt lat="45.92242" lon="4.75132">
        <ele>174</ele>
        <time>2017-11-22T09:39:38Z</time>
      </trkpt>
      <trkpt lat="45.92239" lon="4.75138">
        <ele>174</ele>
        <time>2017-11-22T09:39:39Z</time>
      </trkpt>
      <trkpt lat="45.92235" lon="4.75143">
        <ele>174</ele>
        <time>2017-11-22T09:39:40Z</time>
      </trkpt>
      <trkpt lat="45.92232" lon="4.75149">
        <ele>174</ele>
        <time>2017-11-22T09:39:41Z</time>
      </trkpt>
      <trkpt lat="45.9223" lon="4.75156">
        <ele>174</ele>
        <time>2017-11-22T09:39:42Z</time>
      </trkpt>
      <trkpt lat="45.92227" lon="4.75163">
        <ele>174</ele>
        <time>2017-11-22T09:39:43Z</time>
      </trkpt>
      <trkpt lat="45.92226" lon="4.75169">
        <ele>175</ele>
        <time>2017-11-22T09:39:44Z</time>
      </trkpt>
      <trkpt lat="45.92223" lon="4.75174">
        <ele>175</ele>
        <time>2017-11-22T09:39:45Z</time>
      </trkpt>
      <trkpt lat="45.92221" lon="4.75181">
        <ele>175</ele>
        <time>2017-11-22T09:39:46Z</time>
      </trkpt>
      <trkpt lat="45.92219" lon="4.75187">
        <ele>175</ele>
        <time>2017-11-22T09:39:47Z</time>
      </trkpt>
      <trkpt lat="45.92217" lon="4.75193">
        <ele>175</ele>
        <time>2017-11-22T09:39:48Z</time>
      </trkpt>
      <trkpt lat="45.92216" lon="4.752">
        <ele>175</ele>
        <time>2017-11-22T09:39:49Z</time>
      </trkpt>
      <trkpt lat="45.92215" lon="4.75206">
        <ele>175</ele>
        <time>2017-11-22T09:39:50Z</time>
      </trkpt>
      <trkpt lat="45.92214" lon="4.75212">
        <ele>175</ele>
        <time>2017-11-22T09:39:51Z</time>
      </trkpt>
      <trkpt lat="45.92213" lon="4.75219">
        <ele>175</ele>
        <time>2017-11-22T09:39:52Z</time>
      </trkpt>
      <trkpt lat="45.92212" lon="4.75226">
        <ele>175</ele>
        <time>2017-11-22T09:39:53Z</time>
      </trkpt>
      <trkpt lat="45.92211" lon="4.75233">
        <ele>175</ele>
        <time>2017-11-22T09:39:54Z</time>
      </trkpt>
      <trkpt lat="45.92211" lon="4.75239">
        <ele>175</ele>
        <time>2017-11-22T09:39:55Z</time>
      </trkpt>
      <trkpt lat="45.92211" lon="4.75246">
        <ele>175</ele>
        <time>2017-11-22T09:39:56Z</time>
      </trkpt>
      <trkpt lat="45.92211" lon="4.75258">
        <ele>175</ele>
        <time>2017-11-22T09:39:58Z</time>
      </trkpt>
      <trkpt lat="45.92211" lon="4.75264">
        <ele>176</ele>
        <time>2017-11-22T09:39:59Z</time>
      </trkpt>
      <trkpt lat="45.92211" lon="4.75272">
        <ele>176</ele>
        <time>2017-11-22T09:40:00Z</time>
      </trkpt>
      <trkpt lat="45.9221" lon="4.75279">
        <ele>176</ele>
        <time>2017-11-22T09:40:01Z</time>
      </trkpt>
      <trkpt lat="45.9221" lon="4.75286">
        <ele>176</ele>
        <time>2017-11-22T09:40:02Z</time>
      </trkpt>
      <trkpt lat="45.9221" lon="4.75294">
        <ele>176</ele>
        <time>2017-11-22T09:40:03Z</time>
      </trkpt>
      <trkpt lat="45.9221" lon="4.75301">
        <ele>176</ele>
        <time>2017-11-22T09:40:04Z</time>
      </trkpt>
      <trkpt lat="45.92209" lon="4.75308">
        <ele>176</ele>
        <time>2017-11-22T09:40:05Z</time>
      </trkpt>
      <trkpt lat="45.92209" lon="4.75316">
        <ele>176</ele>
        <time>2017-11-22T09:40:06Z</time>
      </trkpt>
      <trkpt lat="45.92208" lon="4.75322">
        <ele>176</ele>
        <time>2017-11-22T09:40:07Z</time>
      </trkpt>
      <trkpt lat="45.92206" lon="4.75329">
        <ele>176</ele>
        <time>2017-11-22T09:40:08Z</time>
      </trkpt>
      <trkpt lat="45.92205" lon="4.75337">
        <ele>177</ele>
        <time>2017-11-22T09:40:09Z</time>
      </trkpt>
      <trkpt lat="45.92202" lon="4.75345">
        <ele>177</ele>
        <time>2017-11-22T09:40:10Z</time>
      </trkpt>
      <trkpt lat="45.922" lon="4.75352">
        <ele>177</ele>
        <time>2017-11-22T09:40:11Z</time>
      </trkpt>
      <trkpt lat="45.92198" lon="4.7536">
        <ele>177</ele>
        <time>2017-11-22T09:40:12Z</time>
      </trkpt>
      <trkpt lat="45.92195" lon="4.75367">
        <ele>177</ele>
        <time>2017-11-22T09:40:13Z</time>
      </trkpt>
      <trkpt lat="45.92193" lon="4.75373">
        <ele>177</ele>
        <time>2017-11-22T09:40:14Z</time>
      </trkpt>
      <trkpt lat="45.9219" lon="4.75379">
        <ele>177</ele>
        <time>2017-11-22T09:40:15Z</time>
      </trkpt>
      <trkpt lat="45.92187" lon="4.75386">
        <ele>177</ele>
        <time>2017-11-22T09:40:16Z</time>
      </trkpt>
      <trkpt lat="45.92184" lon="4.75392">
        <ele>177</ele>
        <time>2017-11-22T09:40:17Z</time>
      </trkpt>
      <trkpt lat="45.92182" lon="4.75404">
        <ele>177</ele>
        <time>2017-11-22T09:40:19Z</time>
      </trkpt>
      <trkpt lat="45.9218" lon="4.75411">
        <ele>177</ele>
        <time>2017-11-22T09:40:20Z</time>
      </trkpt>
      <trkpt lat="45.92178" lon="4.75418">
        <ele>177</ele>
        <time>2017-11-22T09:40:21Z</time>
      </trkpt>
      <trkpt lat="45.92175" lon="4.75425">
        <ele>177</ele>
        <time>2017-11-22T09:40:22Z</time>
      </trkpt>
      <trkpt lat="45.92172" lon="4.75431">
        <ele>177</ele>
        <time>2017-11-22T09:40:23Z</time>
      </trkpt>
      <trkpt lat="45.9217" lon="4.75439">
        <ele>177</ele>
        <time>2017-11-22T09:40:24Z</time>
      </trkpt>
      <trkpt lat="45.92168" lon="4.75446">
        <ele>176</ele>
        <time>2017-11-22T09:40:25Z</time>
      </trkpt>
      <trkpt lat="45.92165" lon="4.75451">
        <ele>176</ele>
        <time>2017-11-22T09:40:26Z</time>
      </trkpt>
      <trkpt lat="45.92161" lon="4.75458">
        <ele>176</ele>
        <time>2017-11-22T09:40:27Z</time>
      </trkpt>
      <trkpt lat="45.92158" lon="4.75467">
        <ele>176</ele>
        <time>2017-11-22T09:40:28Z</time>
      </trkpt>
      <trkpt lat="45.92154" lon="4.75473">
        <ele>176</ele>
        <time>2017-11-22T09:40:29Z</time>
      </trkpt>
      <trkpt lat="45.92151" lon="4.75481">
        <ele>176</ele>
        <time>2017-11-22T09:40:30Z</time>
      </trkpt>
      <trkpt lat="45.92148" lon="4.75487">
        <ele>176</ele>
        <time>2017-11-22T09:40:31Z</time>
      </trkpt>
      <trkpt lat="45.92144" lon="4.75493">
        <ele>176</ele>
        <time>2017-11-22T09:40:32Z</time>
      </trkpt>
      <trkpt lat="45.92142" lon="4.755">
        <ele>175</ele>
        <time>2017-11-22T09:40:33Z</time>
      </trkpt>
      <trkpt lat="45.92139" lon="4.75507">
        <ele>174</ele>
        <time>2017-11-22T09:40:34Z</time>
      </trkpt>
      <trkpt lat="45.92135" lon="4.75515">
        <ele>174</ele>
        <time>2017-11-22T09:40:35Z</time>
      </trkpt>
      <trkpt lat="45.92133" lon="4.75522">
        <ele>174</ele>
        <time>2017-11-22T09:40:36Z</time>
      </trkpt>
      <trkpt lat="45.9213" lon="4.75529">
        <ele>174</ele>
        <time>2017-11-22T09:40:37Z</time>
      </trkpt>
      <trkpt lat="45.92127" lon="4.75537">
        <ele>174</ele>
        <time>2017-11-22T09:40:38Z</time>
      </trkpt>
      <trkpt lat="45.92123" lon="4.75542">
        <ele>174</ele>
        <time>2017-11-22T09:40:39Z</time>
      </trkpt>
      <trkpt lat="45.9212" lon="4.75548">
        <ele>174</ele>
        <time>2017-11-22T09:40:40Z</time>
      </trkpt>
      <trkpt lat="45.92118" lon="4.75555">
        <ele>174</ele>
        <time>2017-11-22T09:40:41Z</time>
      </trkpt>
      <trkpt lat="45.92114" lon="4.75562">
        <ele>174</ele>
        <time>2017-11-22T09:40:42Z</time>
      </trkpt>
      <trkpt lat="45.92113" lon="4.75568">
        <ele>174</ele>
        <time>2017-11-22T09:40:43Z</time>
      </trkpt>
      <trkpt lat="45.92112" lon="4.75575">
        <ele>174</ele>
        <time>2017-11-22T09:40:44Z</time>
      </trkpt>
      <trkpt lat="45.92113" lon="4.75586">
        <ele>174</ele>
        <time>2017-11-22T09:40:46Z</time>
      </trkpt>
      <trkpt lat="45.92116" lon="4.75591">
        <ele>174</ele>
        <time>2017-11-22T09:40:47Z</time>
      </trkpt>
      <trkpt lat="45.9212" lon="4.75595">
        <ele>174</ele>
        <time>2017-11-22T09:40:48Z</time>
      </trkpt>
      <trkpt lat="45.92124" lon="4.75599">
        <ele>174</ele>
        <time>2017-11-22T09:40:49Z</time>
      </trkpt>
      <trkpt lat="45.92128" lon="4.75603">
        <ele>174</ele>
        <time>2017-11-22T09:40:50Z</time>
      </trkpt>
      <trkpt lat="45.92132" lon="4.75607">
        <ele>174</ele>
        <time>2017-11-22T09:40:51Z</time>
      </trkpt>
      <trkpt lat="45.92136" lon="4.7561">
        <ele>174</ele>
        <time>2017-11-22T09:40:52Z</time>
      </trkpt>
      <trkpt lat="45.92143" lon="4.75618">
        <ele>174</ele>
        <time>2017-11-22T09:40:53Z</time>
      </trkpt>
      <trkpt lat="45.92148" lon="4.75622">
        <ele>174</ele>
        <time>2017-11-22T09:40:54Z</time>
      </trkpt>
      <trkpt lat="45.92153" lon="4.75627">
        <ele>174</ele>
        <time>2017-11-22T09:40:55Z</time>
      </trkpt>
      <trkpt lat="45.92157" lon="4.75631">
        <ele>174</ele>
        <time>2017-11-22T09:40:56Z</time>
      </trkpt>
      <trkpt lat="45.92161" lon="4.75635">
        <ele>174</ele>
        <time>2017-11-22T09:40:57Z</time>
      </trkpt>
      <trkpt lat="45.92165" lon="4.75639">
        <ele>174</ele>
        <time>2017-11-22T09:40:58Z</time>
      </trkpt>
      <trkpt lat="45.9217" lon="4.75644">
        <ele>174</ele>
        <time>2017-11-22T09:40:59Z</time>
      </trkpt>
      <trkpt lat="45.92175" lon="4.7565">
        <ele>174</ele>
        <time>2017-11-22T09:41:00Z</time>
      </trkpt>
      <trkpt lat="45.9218" lon="4.75655">
        <ele>174</ele>
        <time>2017-11-22T09:41:01Z</time>
      </trkpt>
      <trkpt lat="45.92184" lon="4.75661">
        <ele>174</ele>
        <time>2017-11-22T09:41:02Z</time>
      </trkpt>
      <trkpt lat="45.92188" lon="4.75666">
        <ele>174</ele>
        <time>2017-11-22T09:41:03Z</time>
      </trkpt>
      <trkpt lat="45.92193" lon="4.75671">
        <ele>174</ele>
        <time>2017-11-22T09:41:04Z</time>
      </trkpt>
      <trkpt lat="45.92198" lon="4.75675">
        <ele>174</ele>
        <time>2017-11-22T09:41:05Z</time>
      </trkpt>
      <trkpt lat="45.92202" lon="4.75678">
        <ele>174</ele>
        <time>2017-11-22T09:41:06Z</time>
      </trkpt>
      <trkpt lat="45.92206" lon="4.75682">
        <ele>174</ele>
        <time>2017-11-22T09:41:07Z</time>
      </trkpt>
      <trkpt lat="45.9221" lon="4.75686">
        <ele>174</ele>
        <time>2017-11-22T09:41:08Z</time>
      </trkpt>
      <trkpt lat="45.92214" lon="4.75691">
        <ele>174</ele>
        <time>2017-11-22T09:41:09Z</time>
      </trkpt>
      <trkpt lat="45.92221" lon="4.75698">
        <ele>174</ele>
        <time>2017-11-22T09:41:11Z</time>
      </trkpt>
      <trkpt lat="45.92224" lon="4.75703">
        <ele>174</ele>
        <time>2017-11-22T09:41:12Z</time>
      </trkpt>
      <trkpt lat="45.92228" lon="4.75708">
        <ele>174</ele>
        <time>2017-11-22T09:41:13Z</time>
      </trkpt>
      <trkpt lat="45.92232" lon="4.75711">
        <ele>174</ele>
        <time>2017-11-22T09:41:14Z</time>
      </trkpt>
      <trkpt lat="45.92235" lon="4.75717">
        <ele>174</ele>
        <time>2017-11-22T09:41:15Z</time>
      </trkpt>
      <trkpt lat="45.92237" lon="4.75724">
        <ele>174</ele>
        <time>2017-11-22T09:41:16Z</time>
      </trkpt>
      <trkpt lat="45.9224" lon="4.75729">
        <ele>174</ele>
        <time>2017-11-22T09:41:17Z</time>
      </trkpt>
      <trkpt lat="45.92242" lon="4.75736">
        <ele>174</ele>
        <time>2017-11-22T09:41:18Z</time>
      </trkpt>
      <trkpt lat="45.92243" lon="4.75742">
        <ele>174</ele>
        <time>2017-11-22T09:41:19Z</time>
      </trkpt>
      <trkpt lat="45.92245" lon="4.75749">
        <ele>174</ele>
        <time>2017-11-22T09:41:20Z</time>
      </trkpt>
      <trkpt lat="45.92246" lon="4.75756">
        <ele>174</ele>
        <time>2017-11-22T09:41:21Z</time>
      </trkpt>
      <trkpt lat="45.92247" lon="4.75763">
        <ele>174</ele>
        <time>2017-11-22T09:41:22Z</time>
      </trkpt>
      <trkpt lat="45.92248" lon="4.75769">
        <ele>174</ele>
        <time>2017-11-22T09:41:23Z</time>
      </trkpt>
      <trkpt lat="45.9225" lon="4.75775">
        <ele>174</ele>
        <time>2017-11-22T09:41:24Z</time>
      </trkpt>
      <trkpt lat="45.92251" lon="4.75782">
        <ele>174</ele>
        <time>2017-11-22T09:41:25Z</time>
      </trkpt>
      <trkpt lat="45.92253" lon="4.75789">
        <ele>174</ele>
        <time>2017-11-22T09:41:26Z</time>
      </trkpt>
      <trkpt lat="45.92254" lon="4.75795">
        <ele>174</ele>
        <time>2017-11-22T09:41:27Z</time>
      </trkpt>
      <trkpt lat="45.92257" lon="4.75802">
        <ele>174</ele>
        <time>2017-11-22T09:41:28Z</time>
      </trkpt>
      <trkpt lat="45.9226" lon="4.75807">
        <ele>174</ele>
        <time>2017-11-22T09:41:29Z</time>
      </trkpt>
      <trkpt lat="45.92263" lon="4.75813">
        <ele>174</ele>
        <time>2017-11-22T09:41:30Z</time>
      </trkpt>
      <trkpt lat="45.92266" lon="4.75819">
        <ele>174</ele>
        <time>2017-11-22T09:41:31Z</time>
      </trkpt>
      <trkpt lat="45.9227" lon="4.75826">
        <ele>174</ele>
        <time>2017-11-22T09:41:32Z</time>
      </trkpt>
      <trkpt lat="45.92275" lon="4.7583">
        <ele>174</ele>
        <time>2017-11-22T09:41:33Z</time>
      </trkpt>
      <trkpt lat="45.92279" lon="4.75834">
        <ele>173</ele>
        <time>2017-11-22T09:41:34Z</time>
      </trkpt>
      <trkpt lat="45.92284" lon="4.75837">
        <ele>173</ele>
        <time>2017-11-22T09:41:35Z</time>
      </trkpt>
      <trkpt lat="45.92288" lon="4.75839">
        <ele>173</ele>
        <time>2017-11-22T09:41:36Z</time>
      </trkpt>
      <trkpt lat="45.92294" lon="4.75843">
        <ele>173</ele>
        <time>2017-11-22T09:41:37Z</time>
      </trkpt>
      <trkpt lat="45.92298" lon="4.75845">
        <ele>173</ele>
        <time>2017-11-22T09:41:38Z</time>
      </trkpt>
      <trkpt lat="45.92303" lon="4.75848">
        <ele>173</ele>
        <time>2017-11-22T09:41:39Z</time>
      </trkpt>
      <trkpt lat="45.92308" lon="4.7585">
        <ele>173</ele>
        <time>2017-11-22T09:41:40Z</time>
      </trkpt>
      <trkpt lat="45.92313" lon="4.75854">
        <ele>173</ele>
        <time>2017-11-22T09:41:41Z</time>
      </trkpt>
      <trkpt lat="45.92318" lon="4.75857">
        <ele>173</ele>
        <time>2017-11-22T09:41:42Z</time>
      </trkpt>
      <trkpt lat="45.92323" lon="4.75861">
        <ele>173</ele>
        <time>2017-11-22T09:41:43Z</time>
      </trkpt>
      <trkpt lat="45.92327" lon="4.75864">
        <ele>173</ele>
        <time>2017-11-22T09:41:44Z</time>
      </trkpt>
      <trkpt lat="45.92333" lon="4.75867">
        <ele>173</ele>
        <time>2017-11-22T09:41:45Z</time>
      </trkpt>
      <trkpt lat="45.92339" lon="4.75869">
        <ele>173</ele>
        <time>2017-11-22T09:41:46Z</time>
      </trkpt>
      <trkpt lat="45.92343" lon="4.75872">
        <ele>173</ele>
        <time>2017-11-22T09:41:47Z</time>
      </trkpt>
      <trkpt lat="45.92348" lon="4.75876">
        <ele>173</ele>
        <time>2017-11-22T09:41:48Z</time>
      </trkpt>
      <trkpt lat="45.92353" lon="4.75879">
        <ele>173</ele>
        <time>2017-11-22T09:41:49Z</time>
      </trkpt>
      <trkpt lat="45.92359" lon="4.75882">
        <ele>173</ele>
        <time>2017-11-22T09:41:50Z</time>
      </trkpt>
      <trkpt lat="45.92364" lon="4.75886">
        <ele>173</ele>
        <time>2017-11-22T09:41:51Z</time>
      </trkpt>
      <trkpt lat="45.92368" lon="4.75889">
        <ele>173</ele>
        <time>2017-11-22T09:41:52Z</time>
      </trkpt>
      <trkpt lat="45.92373" lon="4.75892">
        <ele>173</ele>
        <time>2017-11-22T09:41:53Z</time>
      </trkpt>
      <trkpt lat="45.92379" lon="4.75896">
        <ele>173</ele>
        <time>2017-11-22T09:41:54Z</time>
      </trkpt>
      <trkpt lat="45.92383" lon="4.75899">
        <ele>173</ele>
        <time>2017-11-22T09:41:55Z</time>
      </trkpt>
      <trkpt lat="45.92388" lon="4.75902">
        <ele>173</ele>
        <time>2017-11-22T09:41:56Z</time>
      </trkpt>
      <trkpt lat="45.92392" lon="4.75906">
        <ele>173</ele>
        <time>2017-11-22T09:41:57Z</time>
      </trkpt>
      <trkpt lat="45.92397" lon="4.75909">
        <ele>173</ele>
        <time>2017-11-22T09:41:58Z</time>
      </trkpt>
      <trkpt lat="45.92402" lon="4.75913">
        <ele>172</ele>
        <time>2017-11-22T09:41:59Z</time>
      </trkpt>
      <trkpt lat="45.92406" lon="4.75915">
        <ele>172</ele>
        <time>2017-11-22T09:42:00Z</time>
      </trkpt>
      <trkpt lat="45.92411" lon="4.75919">
        <ele>172</ele>
        <time>2017-11-22T09:42:01Z</time>
      </trkpt>
      <trkpt lat="45.92416" lon="4.75922">
        <ele>172</ele>
        <time>2017-11-22T09:42:02Z</time>
      </trkpt>
      <trkpt lat="45.92421" lon="4.75926">
        <ele>172</ele>
        <time>2017-11-22T09:42:03Z</time>
      </trkpt>
      <trkpt lat="45.92425" lon="4.75931">
        <ele>172</ele>
        <time>2017-11-22T09:42:04Z</time>
      </trkpt>
      <trkpt lat="45.9243" lon="4.75934">
        <ele>172</ele>
        <time>2017-11-22T09:42:05Z</time>
      </trkpt>
      <trkpt lat="45.92435" lon="4.75938">
        <ele>172</ele>
        <time>2017-11-22T09:42:06Z</time>
      </trkpt>
      <trkpt lat="45.9244" lon="4.75942">
        <ele>172</ele>
        <time>2017-11-22T09:42:07Z</time>
      </trkpt>
      <trkpt lat="45.92444" lon="4.75946">
        <ele>172</ele>
        <time>2017-11-22T09:42:08Z</time>
      </trkpt>
      <trkpt lat="45.92449" lon="4.75949">
        <ele>172</ele>
        <time>2017-11-22T09:42:09Z</time>
      </trkpt>
      <trkpt lat="45.92455" lon="4.75952">
        <ele>172</ele>
        <time>2017-11-22T09:42:10Z</time>
      </trkpt>
      <trkpt lat="45.92459" lon="4.75956">
        <ele>172</ele>
        <time>2017-11-22T09:42:11Z</time>
      </trkpt>
      <trkpt lat="45.92463" lon="4.75959">
        <ele>172</ele>
        <time>2017-11-22T09:42:12Z</time>
      </trkpt>
      <trkpt lat="45.92467" lon="4.75963">
        <ele>172</ele>
        <time>2017-11-22T09:42:13Z</time>
      </trkpt>
      <trkpt lat="45.92472" lon="4.75966">
        <ele>172</ele>
        <time>2017-11-22T09:42:14Z</time>
      </trkpt>
      <trkpt lat="45.92479" lon="4.75972">
        <ele>172</ele>
        <time>2017-11-22T09:42:16Z</time>
      </trkpt>
      <trkpt lat="45.92483" lon="4.75975">
        <ele>172</ele>
        <time>2017-11-22T09:42:17Z</time>
      </trkpt>
      <trkpt lat="45.92487" lon="4.75978">
        <ele>172</ele>
        <time>2017-11-22T09:42:18Z</time>
      </trkpt>
      <trkpt lat="45.92491" lon="4.75981">
        <ele>172</ele>
        <time>2017-11-22T09:42:19Z</time>
      </trkpt>
      <trkpt lat="45.92496" lon="4.75984">
        <ele>172</ele>
        <time>2017-11-22T09:42:20Z</time>
      </trkpt>
      <trkpt lat="45.925" lon="4.75988">
        <ele>172</ele>
        <time>2017-11-22T09:42:21Z</time>
      </trkpt>
      <trkpt lat="45.92506" lon="4.75993">
        <ele>172</ele>
        <time>2017-11-22T09:42:23Z</time>
      </trkpt>
      <trkpt lat="45.9251" lon="4.75997">
        <ele>172</ele>
        <time>2017-11-22T09:42:24Z</time>
      </trkpt>
      <trkpt lat="45.92518" lon="4.76002">
        <ele>172</ele>
        <time>2017-11-22T09:42:26Z</time>
      </trkpt>
      <trkpt lat="45.92522" lon="4.76004">
        <ele>172</ele>
        <time>2017-11-22T09:42:27Z</time>
      </trkpt>
      <trkpt lat="45.92527" lon="4.76008">
        <ele>172</ele>
        <time>2017-11-22T09:42:28Z</time>
      </trkpt>
      <trkpt lat="45.9253" lon="4.76011">
        <ele>172</ele>
        <time>2017-11-22T09:42:29Z</time>
      </trkpt>
      <trkpt lat="45.92535" lon="4.76014">
        <ele>172</ele>
        <time>2017-11-22T09:42:30Z</time>
      </trkpt>
      <trkpt lat="45.92539" lon="4.76016">
        <ele>172</ele>
        <time>2017-11-22T09:42:31Z</time>
      </trkpt>
      <trkpt lat="45.92546" lon="4.76022">
        <ele>172</ele>
        <time>2017-11-22T09:42:33Z</time>
      </trkpt>
      <trkpt lat="45.92551" lon="4.76026">
        <ele>172</ele>
        <time>2017-11-22T09:42:34Z</time>
      </trkpt>
      <trkpt lat="45.92558" lon="4.76032">
        <ele>172</ele>
        <time>2017-11-22T09:42:36Z</time>
      </trkpt>
      <trkpt lat="45.92562" lon="4.76035">
        <ele>172</ele>
        <time>2017-11-22T09:42:37Z</time>
      </trkpt>
      <trkpt lat="45.9257" lon="4.76041">
        <ele>172</ele>
        <time>2017-11-22T09:42:39Z</time>
      </trkpt>
      <trkpt lat="45.92574" lon="4.76044">
        <ele>171</ele>
        <time>2017-11-22T09:42:40Z</time>
      </trkpt>
      <trkpt lat="45.92578" lon="4.76047">
        <ele>171</ele>
        <time>2017-11-22T09:42:41Z</time>
      </trkpt>
      <trkpt lat="45.92583" lon="4.76051">
        <ele>171</ele>
        <time>2017-11-22T09:42:42Z</time>
      </trkpt>
      <trkpt lat="45.92589" lon="4.76055">
        <ele>171</ele>
        <time>2017-11-22T09:42:43Z</time>
      </trkpt>
      <trkpt lat="45.92593" lon="4.76058">
        <ele>171</ele>
        <time>2017-11-22T09:42:44Z</time>
      </trkpt>
      <trkpt lat="45.92599" lon="4.76062">
        <ele>171</ele>
        <time>2017-11-22T09:42:45Z</time>
      </trkpt>
      <trkpt lat="45.92604" lon="4.76066">
        <ele>171</ele>
        <time>2017-11-22T09:42:46Z</time>
      </trkpt>
      <trkpt lat="45.9261" lon="4.7607">
        <ele>171</ele>
        <time>2017-11-22T09:42:47Z</time>
      </trkpt>
      <trkpt lat="45.92616" lon="4.76074">
        <ele>171</ele>
        <time>2017-11-22T09:42:48Z</time>
      </trkpt>
      <trkpt lat="45.92622" lon="4.76078">
        <ele>171</ele>
        <time>2017-11-22T09:42:49Z</time>
      </trkpt>
      <trkpt lat="45.92629" lon="4.76084">
        <ele>170</ele>
        <time>2017-11-22T09:42:50Z</time>
      </trkpt>
      <trkpt lat="45.92635" lon="4.76088">
        <ele>170</ele>
        <time>2017-11-22T09:42:51Z</time>
      </trkpt>
      <trkpt lat="45.92641" lon="4.76093">
        <ele>170</ele>
        <time>2017-11-22T09:42:52Z</time>
      </trkpt>
      <trkpt lat="45.92648" lon="4.76099">
        <ele>170</ele>
        <time>2017-11-22T09:42:53Z</time>
      </trkpt>
      <trkpt lat="45.92655" lon="4.76102">
        <ele>170</ele>
        <time>2017-11-22T09:42:54Z</time>
      </trkpt>
      <trkpt lat="45.92662" lon="4.76106">
        <ele>170</ele>
        <time>2017-11-22T09:42:55Z</time>
      </trkpt>
      <trkpt lat="45.92668" lon="4.7611">
        <ele>169</ele>
        <time>2017-11-22T09:42:56Z</time>
      </trkpt>
      <trkpt lat="45.92676" lon="4.76115">
        <ele>169</ele>
        <time>2017-11-22T09:42:57Z</time>
      </trkpt>
      <trkpt lat="45.92684" lon="4.76119">
        <ele>169</ele>
        <time>2017-11-22T09:42:58Z</time>
      </trkpt>
      <trkpt lat="45.9269" lon="4.76124">
        <ele>169</ele>
        <time>2017-11-22T09:42:59Z</time>
      </trkpt>
      <trkpt lat="45.92698" lon="4.76128">
        <ele>169</ele>
        <time>2017-11-22T09:43:00Z</time>
      </trkpt>
      <trkpt lat="45.92705" lon="4.76132">
        <ele>169</ele>
        <time>2017-11-22T09:43:01Z</time>
      </trkpt>
      <trkpt lat="45.92712" lon="4.76137">
        <ele>168</ele>
        <time>2017-11-22T09:43:02Z</time>
      </trkpt>
      <trkpt lat="45.92719" lon="4.76141">
        <ele>168</ele>
        <time>2017-11-22T09:43:03Z</time>
      </trkpt>
      <trkpt lat="45.92725" lon="4.76145">
        <ele>168</ele>
        <time>2017-11-22T09:43:04Z</time>
      </trkpt>
      <trkpt lat="45.92732" lon="4.76149">
        <ele>168</ele>
        <time>2017-11-22T09:43:05Z</time>
      </trkpt>
      <trkpt lat="45.92738" lon="4.76153">
        <ele>168</ele>
        <time>2017-11-22T09:43:06Z</time>
      </trkpt>
      <trkpt lat="45.92745" lon="4.76157">
        <ele>168</ele>
        <time>2017-11-22T09:43:07Z</time>
      </trkpt>
      <trkpt lat="45.9275" lon="4.76161">
        <ele>167</ele>
        <time>2017-11-22T09:43:08Z</time>
      </trkpt>
      <trkpt lat="45.92756" lon="4.76166">
        <ele>167</ele>
        <time>2017-11-22T09:43:09Z</time>
      </trkpt>
      <trkpt lat="45.92762" lon="4.7617">
        <ele>167</ele>
        <time>2017-11-22T09:43:10Z</time>
      </trkpt>
      <trkpt lat="45.92766" lon="4.76175">
        <ele>167</ele>
        <time>2017-11-22T09:43:11Z</time>
      </trkpt>
      <trkpt lat="45.92771" lon="4.76181">
        <ele>167</ele>
        <time>2017-11-22T09:43:12Z</time>
      </trkpt>
      <trkpt lat="45.92777" lon="4.76186">
        <ele>168</ele>
        <time>2017-11-22T09:43:13Z</time>
      </trkpt>
      <trkpt lat="45.92781" lon="4.76191">
        <ele>168</ele>
        <time>2017-11-22T09:43:14Z</time>
      </trkpt>
      <trkpt lat="45.92785" lon="4.76195">
        <ele>168</ele>
        <time>2017-11-22T09:43:15Z</time>
      </trkpt>
      <trkpt lat="45.92788" lon="4.76198">
        <ele>168</ele>
        <time>2017-11-22T09:43:16Z</time>
      </trkpt>
      <trkpt lat="45.92792" lon="4.76202">
        <ele>168</ele>
        <time>2017-11-22T09:43:17Z</time>
      </trkpt>
      <trkpt lat="45.92796" lon="4.76206">
        <ele>168</ele>
        <time>2017-11-22T09:43:18Z</time>
      </trkpt>
      <trkpt lat="45.92802" lon="4.76212">
        <ele>168</ele>
        <time>2017-11-22T09:43:20Z</time>
      </trkpt>
      <trkpt lat="45.92806" lon="4.76215">
        <ele>168</ele>
        <time>2017-11-22T09:43:21Z</time>
      </trkpt>
      <trkpt lat="45.92812" lon="4.76221">
        <ele>168</ele>
        <time>2017-11-22T09:43:23Z</time>
      </trkpt>
      <trkpt lat="45.92814" lon="4.76224">
        <ele>168</ele>
        <time>2017-11-22T09:43:24Z</time>
      </trkpt>
      <trkpt lat="45.9282" lon="4.7623">
        <ele>168</ele>
        <time>2017-11-22T09:43:26Z</time>
      </trkpt>
      <trkpt lat="45.92823" lon="4.76233">
        <ele>168</ele>
        <time>2017-11-22T09:43:27Z</time>
      </trkpt>
      <trkpt lat="45.92827" lon="4.76236">
        <ele>168</ele>
        <time>2017-11-22T09:43:28Z</time>
      </trkpt>
      <trkpt lat="45.92832" lon="4.7624">
        <ele>169</ele>
        <time>2017-11-22T09:43:29Z</time>
      </trkpt>
      <trkpt lat="45.92835" lon="4.76244">
        <ele>169</ele>
        <time>2017-11-22T09:43:30Z</time>
      </trkpt>
      <trkpt lat="45.92839" lon="4.76249">
        <ele>169</ele>
        <time>2017-11-22T09:43:31Z</time>
      </trkpt>
      <trkpt lat="45.92843" lon="4.76253">
        <ele>169</ele>
        <time>2017-11-22T09:43:32Z</time>
      </trkpt>
      <trkpt lat="45.92847" lon="4.76257">
        <ele>169</ele>
        <time>2017-11-22T09:43:33Z</time>
      </trkpt>
      <trkpt lat="45.9285" lon="4.7626">
        <ele>169</ele>
        <time>2017-11-22T09:43:34Z</time>
      </trkpt>
      <trkpt lat="45.92854" lon="4.76264">
        <ele>169</ele>
        <time>2017-11-22T09:43:35Z</time>
      </trkpt>
      <trkpt lat="45.9286" lon="4.76272">
        <ele>169</ele>
        <time>2017-11-22T09:43:37Z</time>
      </trkpt>
      <trkpt lat="45.92863" lon="4.76276">
        <ele>169</ele>
        <time>2017-11-22T09:43:38Z</time>
      </trkpt>
      <trkpt lat="45.92867" lon="4.7628">
        <ele>169</ele>
        <time>2017-11-22T09:43:39Z</time>
      </trkpt>
      <trkpt lat="45.92872" lon="4.76284">
        <ele>169</ele>
        <time>2017-11-22T09:43:40Z</time>
      </trkpt>
      <trkpt lat="45.92876" lon="4.76288">
        <ele>169</ele>
        <time>2017-11-22T09:43:41Z</time>
      </trkpt>
      <trkpt lat="45.9288" lon="4.76292">
        <ele>169</ele>
        <time>2017-11-22T09:43:42Z</time>
      </trkpt>
      <trkpt lat="45.92885" lon="4.76298">
        <ele>169</ele>
        <time>2017-11-22T09:43:43Z</time>
      </trkpt>
      <trkpt lat="45.92889" lon="4.76301">
        <ele>169</ele>
        <time>2017-11-22T09:43:44Z</time>
      </trkpt>
      <trkpt lat="45.92894" lon="4.76306">
        <ele>169</ele>
        <time>2017-11-22T09:43:45Z</time>
      </trkpt>
      <trkpt lat="45.92897" lon="4.7631">
        <ele>169</ele>
        <time>2017-11-22T09:43:46Z</time>
      </trkpt>
      <trkpt lat="45.92904" lon="4.76317">
        <ele>169</ele>
        <time>2017-11-22T09:43:48Z</time>
      </trkpt>
      <trkpt lat="45.92908" lon="4.7632">
        <ele>169</ele>
        <time>2017-11-22T09:43:49Z</time>
      </trkpt>
      <trkpt lat="45.92915" lon="4.76325">
        <ele>169</ele>
        <time>2017-11-22T09:43:51Z</time>
      </trkpt>
      <trkpt lat="45.92919" lon="4.7633">
        <ele>169</ele>
        <time>2017-11-22T09:43:52Z</time>
      </trkpt>
      <trkpt lat="45.92923" lon="4.76334">
        <ele>169</ele>
        <time>2017-11-22T09:43:53Z</time>
      </trkpt>
      <trkpt lat="45.92927" lon="4.76338">
        <ele>169</ele>
        <time>2017-11-22T09:43:54Z</time>
      </trkpt>
      <trkpt lat="45.92932" lon="4.76343">
        <ele>169</ele>
        <time>2017-11-22T09:43:55Z</time>
      </trkpt>
      <trkpt lat="45.92935" lon="4.76346">
        <ele>169</ele>
        <time>2017-11-22T09:43:56Z</time>
      </trkpt>
      <trkpt lat="45.9294" lon="4.76351">
        <ele>169</ele>
        <time>2017-11-22T09:43:57Z</time>
      </trkpt>
      <trkpt lat="45.92944" lon="4.76355">
        <ele>169</ele>
        <time>2017-11-22T09:43:58Z</time>
      </trkpt>
      <trkpt lat="45.92949" lon="4.76359">
        <ele>169</ele>
        <time>2017-11-22T09:43:59Z</time>
      </trkpt>
      <trkpt lat="45.92953" lon="4.76363">
        <ele>169</ele>
        <time>2017-11-22T09:44:00Z</time>
      </trkpt>
      <trkpt lat="45.92957" lon="4.76367">
        <ele>169</ele>
        <time>2017-11-22T09:44:01Z</time>
      </trkpt>
      <trkpt lat="45.92962" lon="4.76371">
        <ele>169</ele>
        <time>2017-11-22T09:44:02Z</time>
      </trkpt>
      <trkpt lat="45.92968" lon="4.7638">
        <ele>169</ele>
        <time>2017-11-22T09:44:04Z</time>
      </trkpt>
      <trkpt lat="45.92973" lon="4.76384">
        <ele>169</ele>
        <time>2017-11-22T09:44:05Z</time>
      </trkpt>
      <trkpt lat="45.92976" lon="4.76387">
        <ele>169</ele>
        <time>2017-11-22T09:44:06Z</time>
      </trkpt>
      <trkpt lat="45.92981" lon="4.76391">
        <ele>169</ele>
        <time>2017-11-22T09:44:07Z</time>
      </trkpt>
      <trkpt lat="45.92985" lon="4.76395">
        <ele>169</ele>
        <time>2017-11-22T09:44:08Z</time>
      </trkpt>
      <trkpt lat="45.9299" lon="4.764">
        <ele>169</ele>
        <time>2017-11-22T09:44:09Z</time>
      </trkpt>
      <trkpt lat="45.92995" lon="4.76404">
        <ele>169</ele>
        <time>2017-11-22T09:44:10Z</time>
      </trkpt>
      <trkpt lat="45.92998" lon="4.76409">
        <ele>169</ele>
        <time>2017-11-22T09:44:11Z</time>
      </trkpt>
      <trkpt lat="45.93004" lon="4.76413">
        <ele>169</ele>
        <time>2017-11-22T09:44:12Z</time>
      </trkpt>
      <trkpt lat="45.93009" lon="4.76417">
        <ele>169</ele>
        <time>2017-11-22T09:44:13Z</time>
      </trkpt>
      <trkpt lat="45.93014" lon="4.76422">
        <ele>169</ele>
        <time>2017-11-22T09:44:14Z</time>
      </trkpt>
      <trkpt lat="45.93019" lon="4.76426">
        <ele>169</ele>
        <time>2017-11-22T09:44:15Z</time>
      </trkpt>
      <trkpt lat="45.93023" lon="4.76429">
        <ele>169</ele>
        <time>2017-11-22T09:44:16Z</time>
      </trkpt>
      <trkpt lat="45.93028" lon="4.76434">
        <ele>169</ele>
        <time>2017-11-22T09:44:17Z</time>
      </trkpt>
      <trkpt lat="45.93032" lon="4.76438">
        <ele>169</ele>
        <time>2017-11-22T09:44:18Z</time>
      </trkpt>
      <trkpt lat="45.93037" lon="4.76442">
        <ele>169</ele>
        <time>2017-11-22T09:44:19Z</time>
      </trkpt>
      <trkpt lat="45.93041" lon="4.76448">
        <ele>169</ele>
        <time>2017-11-22T09:44:20Z</time>
      </trkpt>
      <trkpt lat="45.93045" lon="4.76451">
        <ele>169</ele>
        <time>2017-11-22T09:44:21Z</time>
      </trkpt>
      <trkpt lat="45.9305" lon="4.76455">
        <ele>169</ele>
        <time>2017-11-22T09:44:22Z</time>
      </trkpt>
      <trkpt lat="45.93054" lon="4.76459">
        <ele>169</ele>
        <time>2017-11-22T09:44:23Z</time>
      </trkpt>
      <trkpt lat="45.93058" lon="4.76463">
        <ele>169</ele>
        <time>2017-11-22T09:44:24Z</time>
      </trkpt>
      <trkpt lat="45.93063" lon="4.76466">
        <ele>169</ele>
        <time>2017-11-22T09:44:25Z</time>
      </trkpt>
      <trkpt lat="45.93067" lon="4.7647">
        <ele>169</ele>
        <time>2017-11-22T09:44:26Z</time>
      </trkpt>
      <trkpt lat="45.93072" lon="4.76474">
        <ele>169</ele>
        <time>2017-11-22T09:44:27Z</time>
      </trkpt>
      <trkpt lat="45.93076" lon="4.76479">
        <ele>169</ele>
        <time>2017-11-22T09:44:28Z</time>
      </trkpt>
      <trkpt lat="45.9308" lon="4.76483">
        <ele>169</ele>
        <time>2017-11-22T09:44:29Z</time>
      </trkpt>
      <trkpt lat="45.93085" lon="4.76488">
        <ele>170</ele>
        <time>2017-11-22T09:44:30Z</time>
      </trkpt>
      <trkpt lat="45.93089" lon="4.76492">
        <ele>170</ele>
        <time>2017-11-22T09:44:31Z</time>
      </trkpt>
      <trkpt lat="45.93093" lon="4.76495">
        <ele>170</ele>
        <time>2017-11-22T09:44:32Z</time>
      </trkpt>
      <trkpt lat="45.93097" lon="4.76499">
        <ele>170</ele>
        <time>2017-11-22T09:44:33Z</time>
      </trkpt>
      <trkpt lat="45.931" lon="4.76503">
        <ele>170</ele>
        <time>2017-11-22T09:44:34Z</time>
      </trkpt>
      <trkpt lat="45.93104" lon="4.76509">
        <ele>170</ele>
        <time>2017-11-22T09:44:35Z</time>
      </trkpt>
      <trkpt lat="45.93108" lon="4.76513">
        <ele>170</ele>
        <time>2017-11-22T09:44:36Z</time>
      </trkpt>
      <trkpt lat="45.93113" lon="4.76517">
        <ele>170</ele>
        <time>2017-11-22T09:44:37Z</time>
      </trkpt>
      <trkpt lat="45.93117" lon="4.76521">
        <ele>170</ele>
        <time>2017-11-22T09:44:38Z</time>
      </trkpt>
      <trkpt lat="45.93122" lon="4.76526">
        <ele>170</ele>
        <time>2017-11-22T09:44:39Z</time>
      </trkpt>
      <trkpt lat="45.93127" lon="4.7653">
        <ele>170</ele>
        <time>2017-11-22T09:44:40Z</time>
      </trkpt>
      <trkpt lat="45.93131" lon="4.76534">
        <ele>170</ele>
        <time>2017-11-22T09:44:41Z</time>
      </trkpt>
      <trkpt lat="45.93135" lon="4.76538">
        <ele>170</ele>
        <time>2017-11-22T09:44:42Z</time>
      </trkpt>
      <trkpt lat="45.93139" lon="4.76541">
        <ele>170</ele>
        <time>2017-11-22T09:44:43Z</time>
      </trkpt>
      <trkpt lat="45.93142" lon="4.76546">
        <ele>170</ele>
        <time>2017-11-22T09:44:44Z</time>
      </trkpt>
      <trkpt lat="45.93146" lon="4.76551">
        <ele>170</ele>
        <time>2017-11-22T09:44:45Z</time>
      </trkpt>
      <trkpt lat="45.9315" lon="4.76556">
        <ele>170</ele>
        <time>2017-11-22T09:44:46Z</time>
      </trkpt>
      <trkpt lat="45.93153" lon="4.7656">
        <ele>170</ele>
        <time>2017-11-22T09:44:47Z</time>
      </trkpt>
      <trkpt lat="45.93157" lon="4.76564">
        <ele>170</ele>
        <time>2017-11-22T09:44:48Z</time>
      </trkpt>
      <trkpt lat="45.93161" lon="4.76569">
        <ele>170</ele>
        <time>2017-11-22T09:44:49Z</time>
      </trkpt>
      <trkpt lat="45.93165" lon="4.76572">
        <ele>170</ele>
        <time>2017-11-22T09:44:50Z</time>
      </trkpt>
      <trkpt lat="45.93169" lon="4.76576">
        <ele>170</ele>
        <time>2017-11-22T09:44:51Z</time>
      </trkpt>
      <trkpt lat="45.93173" lon="4.76579">
        <ele>170</ele>
        <time>2017-11-22T09:44:52Z</time>
      </trkpt>
      <trkpt lat="45.93176" lon="4.76583">
        <ele>170</ele>
        <time>2017-11-22T09:44:53Z</time>
      </trkpt>
      <trkpt lat="45.93183" lon="4.7659">
        <ele>171</ele>
        <time>2017-11-22T09:44:55Z</time>
      </trkpt>
      <trkpt lat="45.93185" lon="4.76592">
        <ele>171</ele>
        <time>2017-11-22T09:44:56Z</time>
      </trkpt>
      <trkpt lat="45.93191" lon="4.76601">
        <ele>170</ele>
        <time>2017-11-22T09:45:35Z</time>
      </trkpt>
      <trkpt lat="45.93193" lon="4.76601">
        <ele>170</ele>
        <time>2017-11-22T09:45:36Z</time>
      </trkpt>
      <trkpt lat="45.93199" lon="4.76605">
        <ele>170</ele>
        <time>2017-11-22T09:45:40Z</time>
      </trkpt>
      <trkpt lat="45.93202" lon="4.76607">
        <ele>170</ele>
        <time>2017-11-22T09:45:41Z</time>
      </trkpt>
      <trkpt lat="45.93207" lon="4.76612">
        <ele>170</ele>
        <time>2017-11-22T09:45:43Z</time>
      </trkpt>
      <trkpt lat="45.9321" lon="4.76615">
        <ele>170</ele>
        <time>2017-11-22T09:45:44Z</time>
      </trkpt>
      <trkpt lat="45.93216" lon="4.76622">
        <ele>170</ele>
        <time>2017-11-22T09:45:46Z</time>
      </trkpt>
      <trkpt lat="45.93219" lon="4.76625">
        <ele>170</ele>
        <time>2017-11-22T09:45:47Z</time>
      </trkpt>
      <trkpt lat="45.93226" lon="4.76632">
        <ele>170</ele>
        <time>2017-11-22T09:45:49Z</time>
      </trkpt>
      <trkpt lat="45.93231" lon="4.76636">
        <ele>171</ele>
        <time>2017-11-22T09:45:50Z</time>
      </trkpt>
      <trkpt lat="45.93238" lon="4.76643">
        <ele>171</ele>
        <time>2017-11-22T09:45:52Z</time>
      </trkpt>
      <trkpt lat="45.93243" lon="4.76647">
        <ele>171</ele>
        <time>2017-11-22T09:45:53Z</time>
      </trkpt>
      <trkpt lat="45.93247" lon="4.76651">
        <ele>171</ele>
        <time>2017-11-22T09:45:54Z</time>
      </trkpt>
      <trkpt lat="45.93252" lon="4.76655">
        <ele>171</ele>
        <time>2017-11-22T09:45:55Z</time>
      </trkpt>
      <trkpt lat="45.93256" lon="4.7666">
        <ele>171</ele>
        <time>2017-11-22T09:45:56Z</time>
      </trkpt>
      <trkpt lat="45.9326" lon="4.76663">
        <ele>171</ele>
        <time>2017-11-22T09:45:57Z</time>
      </trkpt>
      <trkpt lat="45.93264" lon="4.76668">
        <ele>172</ele>
        <time>2017-11-22T09:45:58Z</time>
      </trkpt>
      <trkpt lat="45.93269" lon="4.76674">
        <ele>172</ele>
        <time>2017-11-22T09:45:59Z</time>
      </trkpt>
      <trkpt lat="45.93273" lon="4.76678">
        <ele>172</ele>
        <time>2017-11-22T09:46:00Z</time>
      </trkpt>
      <trkpt lat="45.93277" lon="4.76681">
        <ele>172</ele>
        <time>2017-11-22T09:46:01Z</time>
      </trkpt>
      <trkpt lat="45.93283" lon="4.76689">
        <ele>172</ele>
        <time>2017-11-22T09:46:03Z</time>
      </trkpt>
      <trkpt lat="45.93287" lon="4.76693">
        <ele>172</ele>
        <time>2017-11-22T09:46:04Z</time>
      </trkpt>
      <trkpt lat="45.93291" lon="4.76698">
        <ele>172</ele>
        <time>2017-11-22T09:46:05Z</time>
      </trkpt>
      <trkpt lat="45.93295" lon="4.76704">
        <ele>172</ele>
        <time>2017-11-22T09:46:06Z</time>
      </trkpt>
      <trkpt lat="45.933" lon="4.76708">
        <ele>172</ele>
        <time>2017-11-22T09:46:07Z</time>
      </trkpt>
      <trkpt lat="45.93304" lon="4.76712">
        <ele>172</ele>
        <time>2017-11-22T09:46:08Z</time>
      </trkpt>
      <trkpt lat="45.9331" lon="4.76718">
        <ele>172</ele>
        <time>2017-11-22T09:46:09Z</time>
      </trkpt>
      <trkpt lat="45.93315" lon="4.76722">
        <ele>172</ele>
        <time>2017-11-22T09:46:10Z</time>
      </trkpt>
      <trkpt lat="45.9332" lon="4.76728">
        <ele>172</ele>
        <time>2017-11-22T09:46:11Z</time>
      </trkpt>
      <trkpt lat="45.93324" lon="4.76732">
        <ele>172</ele>
        <time>2017-11-22T09:46:12Z</time>
      </trkpt>
      <trkpt lat="45.93328" lon="4.76737">
        <ele>172</ele>
        <time>2017-11-22T09:46:13Z</time>
      </trkpt>
      <trkpt lat="45.93333" lon="4.7674">
        <ele>173</ele>
        <time>2017-11-22T09:46:14Z</time>
      </trkpt>
      <trkpt lat="45.93338" lon="4.76744">
        <ele>173</ele>
        <time>2017-11-22T09:46:15Z</time>
      </trkpt>
      <trkpt lat="45.93342" lon="4.7675">
        <ele>173</ele>
        <time>2017-11-22T09:46:16Z</time>
      </trkpt>
      <trkpt lat="45.93346" lon="4.76753">
        <ele>172</ele>
        <time>2017-11-22T09:46:17Z</time>
      </trkpt>
      <trkpt lat="45.9335" lon="4.76757">
        <ele>172</ele>
        <time>2017-11-22T09:46:18Z</time>
      </trkpt>
      <trkpt lat="45.93355" lon="4.76762">
        <ele>172</ele>
        <time>2017-11-22T09:46:19Z</time>
      </trkpt>
      <trkpt lat="45.93359" lon="4.76766">
        <ele>172</ele>
        <time>2017-11-22T09:46:20Z</time>
      </trkpt>
      <trkpt lat="45.93363" lon="4.7677">
        <ele>172</ele>
        <time>2017-11-22T09:46:21Z</time>
      </trkpt>
      <trkpt lat="45.93368" lon="4.76774">
        <ele>172</ele>
        <time>2017-11-22T09:46:22Z</time>
      </trkpt>
      <trkpt lat="45.93373" lon="4.76778">
        <ele>172</ele>
        <time>2017-11-22T09:46:23Z</time>
      </trkpt>
      <trkpt lat="45.93377" lon="4.76782">
        <ele>172</ele>
        <time>2017-11-22T09:46:24Z</time>
      </trkpt>
      <trkpt lat="45.93383" lon="4.76788">
        <ele>172</ele>
        <time>2017-11-22T09:46:25Z</time>
      </trkpt>
      <trkpt lat="45.93387" lon="4.76793">
        <ele>172</ele>
        <time>2017-11-22T09:46:26Z</time>
      </trkpt>
      <trkpt lat="45.93391" lon="4.76797">
        <ele>172</ele>
        <time>2017-11-22T09:46:27Z</time>
      </trkpt>
      <trkpt lat="45.93395" lon="4.76805">
        <ele>172</ele>
        <time>2017-11-22T09:46:28Z</time>
      </trkpt>
      <trkpt lat="45.93398" lon="4.7681">
        <ele>172</ele>
        <time>2017-11-22T09:46:29Z</time>
      </trkpt>
      <trkpt lat="45.93401" lon="4.76814">
        <ele>172</ele>
        <time>2017-11-22T09:46:30Z</time>
      </trkpt>
      <trkpt lat="45.93405" lon="4.76818">
        <ele>172</ele>
        <time>2017-11-22T09:46:31Z</time>
      </trkpt>
      <trkpt lat="45.93409" lon="4.76824">
        <ele>172</ele>
        <time>2017-11-22T09:46:32Z</time>
      </trkpt>
      <trkpt lat="45.93411" lon="4.7683">
        <ele>172</ele>
        <time>2017-11-22T09:46:33Z</time>
      </trkpt>
      <trkpt lat="45.93414" lon="4.76836">
        <ele>172</ele>
        <time>2017-11-22T09:46:34Z</time>
      </trkpt>
      <trkpt lat="45.93417" lon="4.76843">
        <ele>171</ele>
        <time>2017-11-22T09:46:35Z</time>
      </trkpt>
      <trkpt lat="45.9342" lon="4.76848">
        <ele>171</ele>
        <time>2017-11-22T09:46:36Z</time>
      </trkpt>
      <trkpt lat="45.93423" lon="4.76854">
        <ele>171</ele>
        <time>2017-11-22T09:46:37Z</time>
      </trkpt>
      <trkpt lat="45.93426" lon="4.7686">
        <ele>171</ele>
        <time>2017-11-22T09:46:38Z</time>
      </trkpt>
      <trkpt lat="45.93429" lon="4.76867">
        <ele>171</ele>
        <time>2017-11-22T09:46:39Z</time>
      </trkpt>
      <trkpt lat="45.93431" lon="4.76874">
        <ele>171</ele>
        <time>2017-11-22T09:46:40Z</time>
      </trkpt>
      <trkpt lat="45.93434" lon="4.76881">
        <ele>171</ele>
        <time>2017-11-22T09:46:41Z</time>
      </trkpt>
      <trkpt lat="45.93436" lon="4.76889">
        <ele>171</ele>
        <time>2017-11-22T09:46:42Z</time>
      </trkpt>
      <trkpt lat="45.93439" lon="4.76896">
        <ele>170</ele>
        <time>2017-11-22T09:46:43Z</time>
      </trkpt>
      <trkpt lat="45.9344" lon="4.76904">
        <ele>170</ele>
        <time>2017-11-22T09:46:44Z</time>
      </trkpt>
      <trkpt lat="45.93442" lon="4.76911">
        <ele>170</ele>
        <time>2017-11-22T09:46:45Z</time>
      </trkpt>
      <trkpt lat="45.93445" lon="4.76919">
        <ele>170</ele>
        <time>2017-11-22T09:46:46Z</time>
      </trkpt>
      <trkpt lat="45.93446" lon="4.76927">
        <ele>170</ele>
        <time>2017-11-22T09:46:47Z</time>
      </trkpt>
      <trkpt lat="45.93447" lon="4.76935">
        <ele>170</ele>
        <time>2017-11-22T09:46:48Z</time>
      </trkpt>
      <trkpt lat="45.93447" lon="4.76943">
        <ele>170</ele>
        <time>2017-11-22T09:46:49Z</time>
      </trkpt>
      <trkpt lat="45.93449" lon="4.76951">
        <ele>170</ele>
        <time>2017-11-22T09:46:50Z</time>
      </trkpt>
      <trkpt lat="45.93451" lon="4.76959">
        <ele>170</ele>
        <time>2017-11-22T09:46:51Z</time>
      </trkpt>
      <trkpt lat="45.93453" lon="4.76967">
        <ele>170</ele>
        <time>2017-11-22T09:46:52Z</time>
      </trkpt>
      <trkpt lat="45.93454" lon="4.76975">
        <ele>170</ele>
        <time>2017-11-22T09:46:53Z</time>
      </trkpt>
      <trkpt lat="45.93455" lon="4.76983">
        <ele>170</ele>
        <time>2017-11-22T09:46:54Z</time>
      </trkpt>
      <trkpt lat="45.93457" lon="4.76991">
        <ele>170</ele>
        <time>2017-11-22T09:46:55Z</time>
      </trkpt>
      <trkpt lat="45.93459" lon="4.77">
        <ele>170</ele>
        <time>2017-11-22T09:46:56Z</time>
      </trkpt>
      <trkpt lat="45.9346" lon="4.77007">
        <ele>170</ele>
        <time>2017-11-22T09:46:57Z</time>
      </trkpt>
      <trkpt lat="45.93461" lon="4.77015">
        <ele>170</ele>
        <time>2017-11-22T09:46:58Z</time>
      </trkpt>
      <trkpt lat="45.93463" lon="4.77022">
        <ele>170</ele>
        <time>2017-11-22T09:46:59Z</time>
      </trkpt>
      <trkpt lat="45.93464" lon="4.7703">
        <ele>170</ele>
        <time>2017-11-22T09:47:00Z</time>
      </trkpt>
      <trkpt lat="45.93465" lon="4.77038">
        <ele>170</ele>
        <time>2017-11-22T09:47:01Z</time>
      </trkpt>
      <trkpt lat="45.93466" lon="4.77045">
        <ele>170</ele>
        <time>2017-11-22T09:47:02Z</time>
      </trkpt>
      <trkpt lat="45.93467" lon="4.77053">
        <ele>170</ele>
        <time>2017-11-22T09:47:03Z</time>
      </trkpt>
      <trkpt lat="45.93468" lon="4.7706">
        <ele>170</ele>
        <time>2017-11-22T09:47:04Z</time>
      </trkpt>
      <trkpt lat="45.93469" lon="4.77068">
        <ele>170</ele>
        <time>2017-11-22T09:47:05Z</time>
      </trkpt>
      <trkpt lat="45.9347" lon="4.77077">
        <ele>170</ele>
        <time>2017-11-22T09:47:06Z</time>
      </trkpt>
      <trkpt lat="45.93472" lon="4.77085">
        <ele>169</ele>
        <time>2017-11-22T09:47:07Z</time>
      </trkpt>
      <trkpt lat="45.93473" lon="4.77092">
        <ele>169</ele>
        <time>2017-11-22T09:47:08Z</time>
      </trkpt>
      <trkpt lat="45.93474" lon="4.77098">
        <ele>169</ele>
        <time>2017-11-22T09:47:09Z</time>
      </trkpt>
      <trkpt lat="45.93476" lon="4.77105">
        <ele>169</ele>
        <time>2017-11-22T09:47:10Z</time>
      </trkpt>
      <trkpt lat="45.93477" lon="4.77112">
        <ele>169</ele>
        <time>2017-11-22T09:47:11Z</time>
      </trkpt>
      <trkpt lat="45.93478" lon="4.77118">
        <ele>169</ele>
        <time>2017-11-22T09:47:12Z</time>
      </trkpt>
      <trkpt lat="45.93479" lon="4.7713">
        <ele>169</ele>
        <time>2017-11-22T09:47:14Z</time>
      </trkpt>
      <trkpt lat="45.93481" lon="4.77138">
        <ele>169</ele>
        <time>2017-11-22T09:47:15Z</time>
      </trkpt>
      <trkpt lat="45.93483" lon="4.77145">
        <ele>169</ele>
        <time>2017-11-22T09:47:16Z</time>
      </trkpt>
      <trkpt lat="45.93484" lon="4.77152">
        <ele>169</ele>
        <time>2017-11-22T09:47:17Z</time>
      </trkpt>
      <trkpt lat="45.93486" lon="4.77159">
        <ele>169</ele>
        <time>2017-11-22T09:47:18Z</time>
      </trkpt>
      <trkpt lat="45.93487" lon="4.77165">
        <ele>169</ele>
        <time>2017-11-22T09:47:19Z</time>
      </trkpt>
      <trkpt lat="45.93488" lon="4.77173">
        <ele>169</ele>
        <time>2017-11-22T09:47:20Z</time>
      </trkpt>
      <trkpt lat="45.9349" lon="4.7718">
        <ele>169</ele>
        <time>2017-11-22T09:47:21Z</time>
      </trkpt>
      <trkpt lat="45.93492" lon="4.77187">
        <ele>169</ele>
        <time>2017-11-22T09:47:22Z</time>
      </trkpt>
      <trkpt lat="45.93494" lon="4.77195">
        <ele>169</ele>
        <time>2017-11-22T09:47:23Z</time>
      </trkpt>
      <trkpt lat="45.93495" lon="4.77204">
        <ele>169</ele>
        <time>2017-11-22T09:47:24Z</time>
      </trkpt>
      <trkpt lat="45.93497" lon="4.77212">
        <ele>169</ele>
        <time>2017-11-22T09:47:25Z</time>
      </trkpt>
      <trkpt lat="45.93498" lon="4.77219">
        <ele>169</ele>
        <time>2017-11-22T09:47:26Z</time>
      </trkpt>
      <trkpt lat="45.935" lon="4.77226">
        <ele>170</ele>
        <time>2017-11-22T09:47:27Z</time>
      </trkpt>
      <trkpt lat="45.93501" lon="4.77234">
        <ele>169</ele>
        <time>2017-11-22T09:47:28Z</time>
      </trkpt>
      <trkpt lat="45.93503" lon="4.77242">
        <ele>170</ele>
        <time>2017-11-22T09:47:29Z</time>
      </trkpt>
      <trkpt lat="45.93504" lon="4.77249">
        <ele>170</ele>
        <time>2017-11-22T09:47:30Z</time>
      </trkpt>
      <trkpt lat="45.93505" lon="4.77258">
        <ele>170</ele>
        <time>2017-11-22T09:47:31Z</time>
      </trkpt>
      <trkpt lat="45.93507" lon="4.77264">
        <ele>170</ele>
        <time>2017-11-22T09:47:32Z</time>
      </trkpt>
      <trkpt lat="45.93509" lon="4.77272">
        <ele>170</ele>
        <time>2017-11-22T09:47:33Z</time>
      </trkpt>
      <trkpt lat="45.9351" lon="4.77279">
        <ele>170</ele>
        <time>2017-11-22T09:47:34Z</time>
      </trkpt>
      <trkpt lat="45.93512" lon="4.77286">
        <ele>170</ele>
        <time>2017-11-22T09:47:35Z</time>
      </trkpt>
      <trkpt lat="45.93513" lon="4.77293">
        <ele>170</ele>
        <time>2017-11-22T09:47:36Z</time>
      </trkpt>
      <trkpt lat="45.93516" lon="4.77299">
        <ele>170</ele>
        <time>2017-11-22T09:47:37Z</time>
      </trkpt>
      <trkpt lat="45.93518" lon="4.77306">
        <ele>170</ele>
        <time>2017-11-22T09:47:38Z</time>
      </trkpt>
      <trkpt lat="45.93519" lon="4.77314">
        <ele>170</ele>
        <time>2017-11-22T09:47:39Z</time>
      </trkpt>
      <trkpt lat="45.93522" lon="4.77322">
        <ele>170</ele>
        <time>2017-11-22T09:47:40Z</time>
      </trkpt>
      <trkpt lat="45.93523" lon="4.77328">
        <ele>170</ele>
        <time>2017-11-22T09:47:41Z</time>
      </trkpt>
      <trkpt lat="45.93524" lon="4.77335">
        <ele>170</ele>
        <time>2017-11-22T09:47:42Z</time>
      </trkpt>
      <trkpt lat="45.93525" lon="4.77343">
        <ele>170</ele>
        <time>2017-11-22T09:47:43Z</time>
      </trkpt>
      <trkpt lat="45.93527" lon="4.7735">
        <ele>170</ele>
        <time>2017-11-22T09:47:44Z</time>
      </trkpt>
      <trkpt lat="45.93529" lon="4.77357">
        <ele>170</ele>
        <time>2017-11-22T09:47:45Z</time>
      </trkpt>
      <trkpt lat="45.9353" lon="4.77365">
        <ele>170</ele>
        <time>2017-11-22T09:47:46Z</time>
      </trkpt>
      <trkpt lat="45.93531" lon="4.7737">
        <ele>170</ele>
        <time>2017-11-22T09:47:47Z</time>
      </trkpt>
      <trkpt lat="45.93532" lon="4.77377">
        <ele>170</ele>
        <time>2017-11-22T09:47:48Z</time>
      </trkpt>
      <trkpt lat="45.93535" lon="4.77385">
        <ele>170</ele>
        <time>2017-11-22T09:47:49Z</time>
      </trkpt>
      <trkpt lat="45.93537" lon="4.77394">
        <ele>170</ele>
        <time>2017-11-22T09:47:50Z</time>
      </trkpt>
      <trkpt lat="45.93539" lon="4.77401">
        <ele>170</ele>
        <time>2017-11-22T09:47:51Z</time>
      </trkpt>
      <trkpt lat="45.93541" lon="4.77408">
        <ele>170</ele>
        <time>2017-11-22T09:47:52Z</time>
      </trkpt>
      <trkpt lat="45.93543" lon="4.77415">
        <ele>170</ele>
        <time>2017-11-22T09:47:53Z</time>
      </trkpt>
      <trkpt lat="45.93545" lon="4.77424">
        <ele>170</ele>
        <time>2017-11-22T09:47:54Z</time>
      </trkpt>
      <trkpt lat="45.93547" lon="4.77433">
        <ele>169</ele>
        <time>2017-11-22T09:47:55Z</time>
      </trkpt>
      <trkpt lat="45.93548" lon="4.77442">
        <ele>169</ele>
        <time>2017-11-22T09:47:56Z</time>
      </trkpt>
      <trkpt lat="45.93551" lon="4.77448">
        <ele>169</ele>
        <time>2017-11-22T09:47:57Z</time>
      </trkpt>
      <trkpt lat="45.93553" lon="4.77456">
        <ele>169</ele>
        <time>2017-11-22T09:47:58Z</time>
      </trkpt>
      <trkpt lat="45.93554" lon="4.77463">
        <ele>169</ele>
        <time>2017-11-22T09:47:59Z</time>
      </trkpt>
      <trkpt lat="45.93556" lon="4.77469">
        <ele>169</ele>
        <time>2017-11-22T09:48:00Z</time>
      </trkpt>
      <trkpt lat="45.93557" lon="4.77477">
        <ele>169</ele>
        <time>2017-11-22T09:48:01Z</time>
      </trkpt>
      <trkpt lat="45.93559" lon="4.77484">
        <ele>169</ele>
        <time>2017-11-22T09:48:02Z</time>
      </trkpt>
      <trkpt lat="45.9356" lon="4.7749">
        <ele>169</ele>
        <time>2017-11-22T09:48:03Z</time>
      </trkpt>
      <trkpt lat="45.93563" lon="4.77497">
        <ele>169</ele>
        <time>2017-11-22T09:48:04Z</time>
      </trkpt>
      <trkpt lat="45.93564" lon="4.77504">
        <ele>169</ele>
        <time>2017-11-22T09:48:05Z</time>
      </trkpt>
      <trkpt lat="45.93565" lon="4.77511">
        <ele>169</ele>
        <time>2017-11-22T09:48:06Z</time>
      </trkpt>
      <trkpt lat="45.93567" lon="4.77516">
        <ele>169</ele>
        <time>2017-11-22T09:48:07Z</time>
      </trkpt>
      <trkpt lat="45.93568" lon="4.77522">
        <ele>169</ele>
        <time>2017-11-22T09:48:08Z</time>
      </trkpt>
      <trkpt lat="45.93569" lon="4.77528">
        <ele>169</ele>
        <time>2017-11-22T09:48:09Z</time>
      </trkpt>
      <trkpt lat="45.93571" lon="4.7754">
        <ele>169</ele>
        <time>2017-11-22T09:48:11Z</time>
      </trkpt>
      <trkpt lat="45.93574" lon="4.77545">
        <ele>169</ele>
        <time>2017-11-22T09:48:12Z</time>
      </trkpt>
      <trkpt lat="45.93575" lon="4.77552">
        <ele>169</ele>
        <time>2017-11-22T09:48:13Z</time>
      </trkpt>
      <trkpt lat="45.93578" lon="4.77558">
        <ele>169</ele>
        <time>2017-11-22T09:48:14Z</time>
      </trkpt>
      <trkpt lat="45.93578" lon="4.77564">
        <ele>169</ele>
        <time>2017-11-22T09:48:15Z</time>
      </trkpt>
      <trkpt lat="45.9358" lon="4.77571">
        <ele>170</ele>
        <time>2017-11-22T09:48:16Z</time>
      </trkpt>
      <trkpt lat="45.93583" lon="4.77578">
        <ele>170</ele>
        <time>2017-11-22T09:48:17Z</time>
      </trkpt>
      <trkpt lat="45.93585" lon="4.77583">
        <ele>170</ele>
        <time>2017-11-22T09:48:18Z</time>
      </trkpt>
      <trkpt lat="45.93588" lon="4.77591">
        <ele>170</ele>
        <time>2017-11-22T09:48:19Z</time>
      </trkpt>
      <trkpt lat="45.9359" lon="4.77598">
        <ele>170</ele>
        <time>2017-11-22T09:48:20Z</time>
      </trkpt>
      <trkpt lat="45.93592" lon="4.77606">
        <ele>170</ele>
        <time>2017-11-22T09:48:21Z</time>
      </trkpt>
      <trkpt lat="45.93594" lon="4.77614">
        <ele>170</ele>
        <time>2017-11-22T09:48:22Z</time>
      </trkpt>
      <trkpt lat="45.93597" lon="4.77621">
        <ele>170</ele>
        <time>2017-11-22T09:48:23Z</time>
      </trkpt>
      <trkpt lat="45.93599" lon="4.77627">
        <ele>169</ele>
        <time>2017-11-22T09:48:24Z</time>
      </trkpt>
      <trkpt lat="45.93601" lon="4.77634">
        <ele>169</ele>
        <time>2017-11-22T09:48:25Z</time>
      </trkpt>
      <trkpt lat="45.93604" lon="4.77641">
        <ele>169</ele>
        <time>2017-11-22T09:48:26Z</time>
      </trkpt>
      <trkpt lat="45.93607" lon="4.77646">
        <ele>169</ele>
        <time>2017-11-22T09:48:27Z</time>
      </trkpt>
      <trkpt lat="45.9361" lon="4.77653">
        <ele>169</ele>
        <time>2017-11-22T09:48:28Z</time>
      </trkpt>
      <trkpt lat="45.93613" lon="4.77659">
        <ele>169</ele>
        <time>2017-11-22T09:48:29Z</time>
      </trkpt>
      <trkpt lat="45.93615" lon="4.77665">
        <ele>169</ele>
        <time>2017-11-22T09:48:30Z</time>
      </trkpt>
      <trkpt lat="45.93619" lon="4.77671">
        <ele>169</ele>
        <time>2017-11-22T09:48:31Z</time>
      </trkpt>
      <trkpt lat="45.93621" lon="4.77676">
        <ele>169</ele>
        <time>2017-11-22T09:48:32Z</time>
      </trkpt>
      <trkpt lat="45.93623" lon="4.77682">
        <ele>169</ele>
        <time>2017-11-22T09:48:33Z</time>
      </trkpt>
      <trkpt lat="45.93626" lon="4.77687">
        <ele>169</ele>
        <time>2017-11-22T09:48:34Z</time>
      </trkpt>
      <trkpt lat="45.93629" lon="4.77693">
        <ele>169</ele>
        <time>2017-11-22T09:48:35Z</time>
      </trkpt>
      <trkpt lat="45.93632" lon="4.77698">
        <ele>169</ele>
        <time>2017-11-22T09:48:36Z</time>
      </trkpt>
      <trkpt lat="45.93638" lon="4.77707">
        <ele>170</ele>
        <time>2017-11-22T09:48:38Z</time>
      </trkpt>
      <trkpt lat="45.93641" lon="4.77712">
        <ele>170</ele>
        <time>2017-11-22T09:48:39Z</time>
      </trkpt>
      <trkpt lat="45.93645" lon="4.77721">
        <ele>170</ele>
        <time>2017-11-22T09:48:41Z</time>
      </trkpt>
      <trkpt lat="45.93647" lon="4.77725">
        <ele>170</ele>
        <time>2017-11-22T09:48:42Z</time>
      </trkpt>
      <trkpt lat="45.93652" lon="4.77734">
        <ele>170</ele>
        <time>2017-11-22T09:48:44Z</time>
      </trkpt>
      <trkpt lat="45.93654" lon="4.77738">
        <ele>170</ele>
        <time>2017-11-22T09:48:45Z</time>
      </trkpt>
      <trkpt lat="45.9366" lon="4.77746">
        <ele>171</ele>
        <time>2017-11-22T09:48:47Z</time>
      </trkpt>
      <trkpt lat="45.93663" lon="4.7775">
        <ele>171</ele>
        <time>2017-11-22T09:48:48Z</time>
      </trkpt>
      <trkpt lat="45.93668" lon="4.77758">
        <ele>171</ele>
        <time>2017-11-22T09:48:50Z</time>
      </trkpt>
      <trkpt lat="45.93671" lon="4.77761">
        <ele>170</ele>
        <time>2017-11-22T09:48:51Z</time>
      </trkpt>
      <trkpt lat="45.93675" lon="4.77769">
        <ele>170</ele>
        <time>2017-11-22T09:48:53Z</time>
      </trkpt>
      <trkpt lat="45.93678" lon="4.77773">
        <ele>170</ele>
        <time>2017-11-22T09:48:54Z</time>
      </trkpt>
      <trkpt lat="45.93683" lon="4.77781">
        <ele>170</ele>
        <time>2017-11-22T09:48:56Z</time>
      </trkpt>
      <trkpt lat="45.93686" lon="4.77785">
        <ele>170</ele>
        <time>2017-11-22T09:48:57Z</time>
      </trkpt>
      <trkpt lat="45.93691" lon="4.77792">
        <ele>169</ele>
        <time>2017-11-22T09:48:59Z</time>
      </trkpt>
      <trkpt lat="45.93694" lon="4.77796">
        <ele>169</ele>
        <time>2017-11-22T09:49:00Z</time>
      </trkpt>
      <trkpt lat="45.93699" lon="4.77803">
        <ele>169</ele>
        <time>2017-11-22T09:49:02Z</time>
      </trkpt>
      <trkpt lat="45.93702" lon="4.77807">
        <ele>169</ele>
        <time>2017-11-22T09:49:03Z</time>
      </trkpt>
      <trkpt lat="45.93708" lon="4.77814">
        <ele>169</ele>
        <time>2017-11-22T09:49:05Z</time>
      </trkpt>
      <trkpt lat="45.93711" lon="4.77818">
        <ele>169</ele>
        <time>2017-11-22T09:49:06Z</time>
      </trkpt>
      <trkpt lat="45.93717" lon="4.77824">
        <ele>169</ele>
        <time>2017-11-22T09:49:08Z</time>
      </trkpt>
      <trkpt lat="45.9372" lon="4.77828">
        <ele>168</ele>
        <time>2017-11-22T09:49:09Z</time>
      </trkpt>
      <trkpt lat="45.93725" lon="4.77835">
        <ele>167</ele>
        <time>2017-11-22T09:49:11Z</time>
      </trkpt>
      <trkpt lat="45.93727" lon="4.77839">
        <ele>167</ele>
        <time>2017-11-22T09:49:12Z</time>
      </trkpt>
      <trkpt lat="45.93733" lon="4.77845">
        <ele>167</ele>
        <time>2017-11-22T09:49:14Z</time>
      </trkpt>
      <trkpt lat="45.93735" lon="4.77849">
        <ele>167</ele>
        <time>2017-11-22T09:49:15Z</time>
      </trkpt>
      <trkpt lat="45.93741" lon="4.77856">
        <ele>167</ele>
        <time>2017-11-22T09:49:17Z</time>
      </trkpt>
      <trkpt lat="45.93744" lon="4.7786">
        <ele>167</ele>
        <time>2017-11-22T09:49:18Z</time>
      </trkpt>
      <trkpt lat="45.93749" lon="4.77867">
        <ele>167</ele>
        <time>2017-11-22T09:49:20Z</time>
      </trkpt>
      <trkpt lat="45.93752" lon="4.7787">
        <ele>166</ele>
        <time>2017-11-22T09:49:21Z</time>
      </trkpt>
      <trkpt lat="45.93755" lon="4.77874">
        <ele>166</ele>
        <time>2017-11-22T09:49:22Z</time>
      </trkpt>
      <trkpt lat="45.93761" lon="4.7788">
        <ele>166</ele>
        <time>2017-11-22T09:49:23Z</time>
      </trkpt>
      <trkpt lat="45.93764" lon="4.77885">
        <ele>166</ele>
        <time>2017-11-22T09:49:24Z</time>
      </trkpt>
      <trkpt lat="45.93767" lon="4.77889">
        <ele>166</ele>
        <time>2017-11-22T09:49:25Z</time>
      </trkpt>
      <trkpt lat="45.93774" lon="4.77898">
        <ele>166</ele>
        <time>2017-11-22T09:49:27Z</time>
      </trkpt>
      <trkpt lat="45.93776" lon="4.77902">
        <ele>166</ele>
        <time>2017-11-22T09:49:28Z</time>
      </trkpt>
      <trkpt lat="45.93781" lon="4.77909">
        <ele>166</ele>
        <time>2017-11-22T09:49:30Z</time>
      </trkpt>
      <trkpt lat="45.93784" lon="4.77913">
        <ele>166</ele>
        <time>2017-11-22T09:49:31Z</time>
      </trkpt>
      <trkpt lat="45.93787" lon="4.77917">
        <ele>168</ele>
        <time>2017-11-22T09:49:32Z</time>
      </trkpt>
      <trkpt lat="45.93791" lon="4.77923">
        <ele>168</ele>
        <time>2017-11-22T09:49:33Z</time>
      </trkpt>
      <trkpt lat="45.93797" lon="4.77931">
        <ele>168</ele>
        <time>2017-11-22T09:49:35Z</time>
      </trkpt>
      <trkpt lat="45.938" lon="4.77935">
        <ele>168</ele>
        <time>2017-11-22T09:49:36Z</time>
      </trkpt>
      <trkpt lat="45.93803" lon="4.7794">
        <ele>169</ele>
        <time>2017-11-22T09:49:37Z</time>
      </trkpt>
      <trkpt lat="45.93807" lon="4.77946">
        <ele>169</ele>
        <time>2017-11-22T09:49:38Z</time>
      </trkpt>
      <trkpt lat="45.9381" lon="4.7795">
        <ele>169</ele>
        <time>2017-11-22T09:49:39Z</time>
      </trkpt>
      <trkpt lat="45.93814" lon="4.77954">
        <ele>170</ele>
        <time>2017-11-22T09:49:40Z</time>
      </trkpt>
      <trkpt lat="45.93818" lon="4.77959">
        <ele>170</ele>
        <time>2017-11-22T09:49:41Z</time>
      </trkpt>
      <trkpt lat="45.93822" lon="4.77963">
        <ele>171</ele>
        <time>2017-11-22T09:49:42Z</time>
      </trkpt>
      <trkpt lat="45.93826" lon="4.77969">
        <ele>172</ele>
        <time>2017-11-22T09:49:43Z</time>
      </trkpt>
      <trkpt lat="45.93829" lon="4.77974">
        <ele>172</ele>
        <time>2017-11-22T09:49:44Z</time>
      </trkpt>
      <trkpt lat="45.93833" lon="4.77981">
        <ele>178</ele>
        <time>2017-11-22T09:49:45Z</time>
      </trkpt>
      <trkpt lat="45.93837" lon="4.77987">
        <ele>179</ele>
        <time>2017-11-22T09:49:46Z</time>
      </trkpt>
      <trkpt lat="45.93841" lon="4.77997">
        <ele>179</ele>
        <time>2017-11-22T09:49:48Z</time>
      </trkpt>
      <trkpt lat="45.93842" lon="4.78003">
        <ele>180</ele>
        <time>2017-11-22T09:49:49Z</time>
      </trkpt>
      <trkpt lat="45.93842" lon="4.78012">
        <ele>181</ele>
        <time>2017-11-22T09:49:50Z</time>
      </trkpt>
      <trkpt lat="45.93844" lon="4.7802">
        <ele>182</ele>
        <time>2017-11-22T09:49:51Z</time>
      </trkpt>
      <trkpt lat="45.93845" lon="4.78027">
        <ele>182</ele>
        <time>2017-11-22T09:49:52Z</time>
      </trkpt>
      <trkpt lat="45.93846" lon="4.78033">
        <ele>182</ele>
        <time>2017-11-22T09:49:53Z</time>
      </trkpt>
      <trkpt lat="45.93848" lon="4.78041">
        <ele>182</ele>
        <time>2017-11-22T09:49:54Z</time>
      </trkpt>
      <trkpt lat="45.93848" lon="4.78048">
        <ele>183</ele>
        <time>2017-11-22T09:49:55Z</time>
      </trkpt>
      <trkpt lat="45.93847" lon="4.78055">
        <ele>182</ele>
        <time>2017-11-22T09:49:56Z</time>
      </trkpt>
      <trkpt lat="45.93845" lon="4.78063">
        <ele>182</ele>
        <time>2017-11-22T09:49:57Z</time>
      </trkpt>
      <trkpt lat="45.93844" lon="4.78068">
        <ele>182</ele>
        <time>2017-11-22T09:49:58Z</time>
      </trkpt>
      <trkpt lat="45.93844" lon="4.78075">
        <ele>182</ele>
        <time>2017-11-22T09:49:59Z</time>
      </trkpt>
      <trkpt lat="45.93842" lon="4.78088">
        <ele>182</ele>
        <time>2017-11-22T09:50:01Z</time>
      </trkpt>
      <trkpt lat="45.93841" lon="4.78095">
        <ele>183</ele>
        <time>2017-11-22T09:50:02Z</time>
      </trkpt>
      <trkpt lat="45.93841" lon="4.78102">
        <ele>183</ele>
        <time>2017-11-22T09:50:03Z</time>
      </trkpt>
      <trkpt lat="45.9384" lon="4.78109">
        <ele>184</ele>
        <time>2017-11-22T09:50:04Z</time>
      </trkpt>
      <trkpt lat="45.93838" lon="4.78121">
        <ele>184</ele>
        <time>2017-11-22T09:50:06Z</time>
      </trkpt>
      <trkpt lat="45.93836" lon="4.78127">
        <ele>184</ele>
        <time>2017-11-22T09:50:07Z</time>
      </trkpt>
      <trkpt lat="45.93833" lon="4.78138">
        <ele>180</ele>
        <time>2017-11-22T09:50:09Z</time>
      </trkpt>
      <trkpt lat="45.93831" lon="4.78144">
        <ele>180</ele>
        <time>2017-11-22T09:50:10Z</time>
      </trkpt>
      <trkpt lat="45.9383" lon="4.7815">
        <ele>180</ele>
        <time>2017-11-22T09:50:11Z</time>
      </trkpt>
      <trkpt lat="45.93829" lon="4.78157">
        <ele>181</ele>
        <time>2017-11-22T09:50:12Z</time>
      </trkpt>
      <trkpt lat="45.93826" lon="4.78167">
        <ele>182</ele>
        <time>2017-11-22T09:50:14Z</time>
      </trkpt>
      <trkpt lat="45.93824" lon="4.78174">
        <ele>182</ele>
        <time>2017-11-22T09:50:15Z</time>
      </trkpt>
      <trkpt lat="45.9382" lon="4.7818">
        <ele>182</ele>
        <time>2017-11-22T09:50:16Z</time>
      </trkpt>
      <trkpt lat="45.93818" lon="4.78185">
        <ele>182</ele>
        <time>2017-11-22T09:50:17Z</time>
      </trkpt>
      <trkpt lat="45.93815" lon="4.78196">
        <ele>182</ele>
        <time>2017-11-22T09:50:19Z</time>
      </trkpt>
      <trkpt lat="45.93813" lon="4.78202">
        <ele>182</ele>
        <time>2017-11-22T09:50:20Z</time>
      </trkpt>
      <trkpt lat="45.93811" lon="4.78213">
        <ele>182</ele>
        <time>2017-11-22T09:50:22Z</time>
      </trkpt>
      <trkpt lat="45.93809" lon="4.78218">
        <ele>182</ele>
        <time>2017-11-22T09:50:23Z</time>
      </trkpt>
      <trkpt lat="45.93805" lon="4.78228">
        <ele>182</ele>
        <time>2017-11-22T09:50:25Z</time>
      </trkpt>
      <trkpt lat="45.93803" lon="4.78233">
        <ele>182</ele>
        <time>2017-11-22T09:50:26Z</time>
      </trkpt>
      <trkpt lat="45.93798" lon="4.78243">
        <ele>182</ele>
        <time>2017-11-22T09:50:28Z</time>
      </trkpt>
      <trkpt lat="45.93796" lon="4.78247">
        <ele>182</ele>
        <time>2017-11-22T09:50:29Z</time>
      </trkpt>
      <trkpt lat="45.93793" lon="4.78258">
        <ele>183</ele>
        <time>2017-11-22T09:50:31Z</time>
      </trkpt>
      <trkpt lat="45.93792" lon="4.78264">
        <ele>183</ele>
        <time>2017-11-22T09:50:32Z</time>
      </trkpt>
      <trkpt lat="45.9379" lon="4.78276">
        <ele>183</ele>
        <time>2017-11-22T09:50:34Z</time>
      </trkpt>
      <trkpt lat="45.93789" lon="4.78281">
        <ele>183</ele>
        <time>2017-11-22T09:50:35Z</time>
      </trkpt>
      <trkpt lat="45.93788" lon="4.7829">
        <ele>183</ele>
        <time>2017-11-22T09:50:37Z</time>
      </trkpt>
      <trkpt lat="45.93787" lon="4.78294">
        <ele>183</ele>
        <time>2017-11-22T09:50:38Z</time>
      </trkpt>
      <trkpt lat="45.93784" lon="4.78304">
        <ele>183</ele>
        <time>2017-11-22T09:50:40Z</time>
      </trkpt>
      <trkpt lat="45.93783" lon="4.7831">
        <ele>183</ele>
        <time>2017-11-22T09:50:41Z</time>
      </trkpt>
      <trkpt lat="45.93781" lon="4.78316">
        <ele>183</ele>
        <time>2017-11-22T09:50:42Z</time>
      </trkpt>
      <trkpt lat="45.9378" lon="4.78323">
        <ele>183</ele>
        <time>2017-11-22T09:50:43Z</time>
      </trkpt>
      <trkpt lat="45.93778" lon="4.7833">
        <ele>183</ele>
        <time>2017-11-22T09:50:44Z</time>
      </trkpt>
      <trkpt lat="45.93776" lon="4.78336">
        <ele>183</ele>
        <time>2017-11-22T09:50:45Z</time>
      </trkpt>
      <trkpt lat="45.93776" lon="4.78346">
        <ele>183</ele>
        <time>2017-11-22T09:50:46Z</time>
      </trkpt>
      <trkpt lat="45.93773" lon="4.78354">
        <ele>183</ele>
        <time>2017-11-22T09:50:47Z</time>
      </trkpt>
      <trkpt lat="45.93772" lon="4.78362">
        <ele>183</ele>
        <time>2017-11-22T09:50:48Z</time>
      </trkpt>
      <trkpt lat="45.9377" lon="4.7837">
        <ele>183</ele>
        <time>2017-11-22T09:50:49Z</time>
      </trkpt>
      <trkpt lat="45.93768" lon="4.78382">
        <ele>183</ele>
        <time>2017-11-22T09:50:51Z</time>
      </trkpt>
      <trkpt lat="45.93767" lon="4.78389">
        <ele>183</ele>
        <time>2017-11-22T09:50:52Z</time>
      </trkpt>
      <trkpt lat="45.93766" lon="4.78396">
        <ele>183</ele>
        <time>2017-11-22T09:50:53Z</time>
      </trkpt>
      <trkpt lat="45.93763" lon="4.78403">
        <ele>183</ele>
        <time>2017-11-22T09:50:54Z</time>
      </trkpt>
      <trkpt lat="45.93761" lon="4.7841">
        <ele>182</ele>
        <time>2017-11-22T09:50:55Z</time>
      </trkpt>
      <trkpt lat="45.93759" lon="4.78418">
        <ele>182</ele>
        <time>2017-11-22T09:50:56Z</time>
      </trkpt>
      <trkpt lat="45.93757" lon="4.78427">
        <ele>183</ele>
        <time>2017-11-22T09:50:57Z</time>
      </trkpt>
      <trkpt lat="45.93755" lon="4.78436">
        <ele>183</ele>
        <time>2017-11-22T09:50:58Z</time>
      </trkpt>
      <trkpt lat="45.93753" lon="4.78442">
        <ele>183</ele>
        <time>2017-11-22T09:50:59Z</time>
      </trkpt>
      <trkpt lat="45.9375" lon="4.78449">
        <ele>184</ele>
        <time>2017-11-22T09:51:00Z</time>
      </trkpt>
      <trkpt lat="45.93748" lon="4.78455">
        <ele>180</ele>
        <time>2017-11-22T09:51:01Z</time>
      </trkpt>
      <trkpt lat="45.93746" lon="4.78461">
        <ele>180</ele>
        <time>2017-11-22T09:51:02Z</time>
      </trkpt>
      <trkpt lat="45.93743" lon="4.78468">
        <ele>180</ele>
        <time>2017-11-22T09:51:03Z</time>
      </trkpt>
      <trkpt lat="45.93741" lon="4.78474">
        <ele>180</ele>
        <time>2017-11-22T09:51:04Z</time>
      </trkpt>
      <trkpt lat="45.93739" lon="4.7848">
        <ele>180</ele>
        <time>2017-11-22T09:51:05Z</time>
      </trkpt>
      <trkpt lat="45.93736" lon="4.78488">
        <ele>180</ele>
        <time>2017-11-22T09:51:06Z</time>
      </trkpt>
      <trkpt lat="45.93734" lon="4.78494">
        <ele>180</ele>
        <time>2017-11-22T09:51:07Z</time>
      </trkpt>
      <trkpt lat="45.93733" lon="4.78501">
        <ele>179</ele>
        <time>2017-11-22T09:51:08Z</time>
      </trkpt>
      <trkpt lat="45.93731" lon="4.78509">
        <ele>179</ele>
        <time>2017-11-22T09:51:09Z</time>
      </trkpt>
      <trkpt lat="45.9373" lon="4.78516">
        <ele>179</ele>
        <time>2017-11-22T09:51:10Z</time>
      </trkpt>
      <trkpt lat="45.93729" lon="4.78523">
        <ele>179</ele>
        <time>2017-11-22T09:51:11Z</time>
      </trkpt>
      <trkpt lat="45.93727" lon="4.78529">
        <ele>178</ele>
        <time>2017-11-22T09:51:12Z</time>
      </trkpt>
      <trkpt lat="45.93725" lon="4.78536">
        <ele>178</ele>
        <time>2017-11-22T09:51:13Z</time>
      </trkpt>
      <trkpt lat="45.93723" lon="4.78543">
        <ele>178</ele>
        <time>2017-11-22T09:51:14Z</time>
      </trkpt>
      <trkpt lat="45.93722" lon="4.78551">
        <ele>178</ele>
        <time>2017-11-22T09:51:15Z</time>
      </trkpt>
      <trkpt lat="45.9372" lon="4.78556">
        <ele>178</ele>
        <time>2017-11-22T09:51:16Z</time>
      </trkpt>
      <trkpt lat="45.93717" lon="4.78566">
        <ele>178</ele>
        <time>2017-11-22T09:51:18Z</time>
      </trkpt>
      <trkpt lat="45.93716" lon="4.7857">
        <ele>178</ele>
        <time>2017-11-22T09:51:19Z</time>
      </trkpt>
      <trkpt lat="45.93714" lon="4.78581">
        <ele>178</ele>
        <time>2017-11-22T09:51:22Z</time>
      </trkpt>
      <trkpt lat="45.93712" lon="4.78585">
        <ele>177</ele>
        <time>2017-11-22T09:51:23Z</time>
      </trkpt>
      <trkpt lat="45.93711" lon="4.78597">
        <ele>176</ele>
        <time>2017-11-22T09:51:27Z</time>
      </trkpt>
      <trkpt lat="45.9371" lon="4.786">
        <ele>176</ele>
        <time>2017-11-22T09:51:28Z</time>
      </trkpt>
      <trkpt lat="45.93707" lon="4.7861">
        <ele>176</ele>
        <time>2017-11-22T09:51:31Z</time>
      </trkpt>
      <trkpt lat="45.93704" lon="4.78613">
        <ele>176</ele>
        <time>2017-11-22T09:51:32Z</time>
      </trkpt>
      <trkpt lat="45.937" lon="4.78623">
        <ele>176</ele>
        <time>2017-11-22T09:51:34Z</time>
      </trkpt>
      <trkpt lat="45.93701" lon="4.78628">
        <ele>176</ele>
        <time>2017-11-22T09:51:35Z</time>
      </trkpt>
      <trkpt lat="45.93708" lon="4.78635">
        <ele>176</ele>
        <time>2017-11-22T09:51:37Z</time>
      </trkpt>
      <trkpt lat="45.93713" lon="4.78634">
        <ele>176</ele>
        <time>2017-11-22T09:51:38Z</time>
      </trkpt>
      <trkpt lat="45.93717" lon="4.78632">
        <ele>176</ele>
        <time>2017-11-22T09:51:39Z</time>
      </trkpt>
      <trkpt lat="45.93721" lon="4.78631">
        <ele>177</ele>
        <time>2017-11-22T09:51:40Z</time>
      </trkpt>
      <trkpt lat="45.93726" lon="4.78629">
        <ele>177</ele>
        <time>2017-11-22T09:51:41Z</time>
      </trkpt>
      <trkpt lat="45.9373" lon="4.78628">
        <ele>177</ele>
        <time>2017-11-22T09:51:42Z</time>
      </trkpt>
      <trkpt lat="45.93739" lon="4.78625">
        <ele>177</ele>
        <time>2017-11-22T09:51:44Z</time>
      </trkpt>
      <trkpt lat="45.93743" lon="4.78625">
        <ele>177</ele>
        <time>2017-11-22T09:51:45Z</time>
      </trkpt>
      <trkpt lat="45.9375" lon="4.78623">
        <ele>177</ele>
        <time>2017-11-22T09:51:47Z</time>
      </trkpt>
      <trkpt lat="45.93754" lon="4.78622">
        <ele>181</ele>
        <time>2017-11-22T09:51:48Z</time>
      </trkpt>
      <trkpt lat="45.93761" lon="4.7862">
        <ele>181</ele>
        <time>2017-11-22T09:51:50Z</time>
      </trkpt>
      <trkpt lat="45.93764" lon="4.78619">
        <ele>181</ele>
        <time>2017-11-22T09:51:51Z</time>
      </trkpt>
      <trkpt lat="45.93771" lon="4.78617">
        <ele>181</ele>
        <time>2017-11-22T09:51:53Z</time>
      </trkpt>
      <trkpt lat="45.93774" lon="4.78616">
        <ele>181</ele>
        <time>2017-11-22T09:51:54Z</time>
      </trkpt>
      <trkpt lat="45.9378" lon="4.78614">
        <ele>181</ele>
        <time>2017-11-22T09:51:56Z</time>
      </trkpt>
      <trkpt lat="45.93784" lon="4.78613">
        <ele>182</ele>
        <time>2017-11-22T09:51:57Z</time>
      </trkpt>
      <trkpt lat="45.93791" lon="4.78611">
        <ele>182</ele>
        <time>2017-11-22T09:51:59Z</time>
      </trkpt>
      <trkpt lat="45.93794" lon="4.7861">
        <ele>182</ele>
        <time>2017-11-22T09:52:00Z</time>
      </trkpt>
      <trkpt lat="45.93801" lon="4.78607">
        <ele>183</ele>
        <time>2017-11-22T09:52:02Z</time>
      </trkpt>
      <trkpt lat="45.93805" lon="4.78606">
        <ele>183</ele>
        <time>2017-11-22T09:52:03Z</time>
      </trkpt>
      <trkpt lat="45.93812" lon="4.78604">
        <ele>183</ele>
        <time>2017-11-22T09:52:05Z</time>
      </trkpt>
      <trkpt lat="45.93816" lon="4.78603">
        <ele>184</ele>
        <time>2017-11-22T09:52:06Z</time>
      </trkpt>
      <trkpt lat="45.93823" lon="4.78601">
        <ele>184</ele>
        <time>2017-11-22T09:52:08Z</time>
      </trkpt>
      <trkpt lat="45.93826" lon="4.786">
        <ele>184</ele>
        <time>2017-11-22T09:52:09Z</time>
      </trkpt>
      <trkpt lat="45.93832" lon="4.78598">
        <ele>185</ele>
        <time>2017-11-22T09:52:11Z</time>
      </trkpt>
      <trkpt lat="45.93835" lon="4.78598">
        <ele>187</ele>
        <time>2017-11-22T09:52:12Z</time>
      </trkpt>
      <trkpt lat="45.93843" lon="4.78597">
        <ele>188</ele>
        <time>2017-11-22T09:52:15Z</time>
      </trkpt>
      <trkpt lat="45.93846" lon="4.78596">
        <ele>188</ele>
        <time>2017-11-22T09:52:16Z</time>
      </trkpt>
      <trkpt lat="45.93854" lon="4.78594">
        <ele>188</ele>
        <time>2017-11-22T09:52:19Z</time>
      </trkpt>
      <trkpt lat="45.93857" lon="4.78593">
        <ele>188</ele>
        <time>2017-11-22T09:52:20Z</time>
      </trkpt>
      <trkpt lat="45.93863" lon="4.78593">
        <ele>188</ele>
        <time>2017-11-22T09:52:23Z</time>
      </trkpt>
      <trkpt lat="45.93866" lon="4.78593">
        <ele>188</ele>
        <time>2017-11-22T09:52:24Z</time>
      </trkpt>
      <trkpt lat="45.93874" lon="4.78592">
        <ele>189</ele>
        <time>2017-11-22T09:52:27Z</time>
      </trkpt>
      <trkpt lat="45.93877" lon="4.78592">
        <ele>189</ele>
        <time>2017-11-22T09:52:28Z</time>
      </trkpt>
      <trkpt lat="45.93885" lon="4.78591">
        <ele>189</ele>
        <time>2017-11-22T09:52:31Z</time>
      </trkpt>
      <trkpt lat="45.93887" lon="4.7859">
        <ele>190</ele>
        <time>2017-11-22T09:52:32Z</time>
      </trkpt>
      <trkpt lat="45.93895" lon="4.78587">
        <ele>190</ele>
        <time>2017-11-22T09:52:36Z</time>
      </trkpt>
      <trkpt lat="45.93897" lon="4.78586">
        <ele>190</ele>
        <time>2017-11-22T09:52:37Z</time>
      </trkpt>
      <trkpt lat="45.93905" lon="4.78582">
        <ele>192</ele>
        <time>2017-11-22T09:52:41Z</time>
      </trkpt>
      <trkpt lat="45.93907" lon="4.78581">
        <ele>192</ele>
        <time>2017-11-22T09:52:42Z</time>
      </trkpt>
      <trkpt lat="45.93914" lon="4.78574">
        <ele>193</ele>
        <time>2017-11-22T09:52:46Z</time>
      </trkpt>
      <trkpt lat="45.93916" lon="4.78571">
        <ele>192</ele>
        <time>2017-11-22T09:52:47Z</time>
      </trkpt>
      <trkpt lat="45.93923" lon="4.78565">
        <ele>196</ele>
        <time>2017-11-22T09:52:51Z</time>
      </trkpt>
      <trkpt lat="45.93925" lon="4.78565">
        <ele>196</ele>
        <time>2017-11-22T09:52:52Z</time>
      </trkpt>
      <trkpt lat="45.9393" lon="4.78573">
        <ele>196</ele>
        <time>2017-11-22T09:52:55Z</time>
      </trkpt>
      <trkpt lat="45.93931" lon="4.78578">
        <ele>195</ele>
        <time>2017-11-22T09:52:56Z</time>
      </trkpt>
      <trkpt lat="45.9393" lon="4.78587">
        <ele>195</ele>
        <time>2017-11-22T09:52:58Z</time>
      </trkpt>
      <trkpt lat="45.93931" lon="4.78592">
        <ele>195</ele>
        <time>2017-11-22T09:52:59Z</time>
      </trkpt>
      <trkpt lat="45.93931" lon="4.78602">
        <ele>195</ele>
        <time>2017-11-22T09:53:01Z</time>
      </trkpt>
      <trkpt lat="45.93932" lon="4.78607">
        <ele>195</ele>
        <time>2017-11-22T09:53:02Z</time>
      </trkpt>
      <trkpt lat="45.93932" lon="4.78616">
        <ele>195</ele>
        <time>2017-11-22T09:53:04Z</time>
      </trkpt>
      <trkpt lat="45.93932" lon="4.78622">
        <ele>195</ele>
        <time>2017-11-22T09:53:05Z</time>
      </trkpt>
      <trkpt lat="45.93932" lon="4.78632">
        <ele>195</ele>
        <time>2017-11-22T09:53:07Z</time>
      </trkpt>
      <trkpt lat="45.93932" lon="4.78637">
        <ele>195</ele>
        <time>2017-11-22T09:53:08Z</time>
      </trkpt>
      <trkpt lat="45.93933" lon="4.78644">
        <ele>194</ele>
        <time>2017-11-22T09:53:09Z</time>
      </trkpt>
      <trkpt lat="45.93933" lon="4.7865">
        <ele>194</ele>
        <time>2017-11-22T09:53:10Z</time>
      </trkpt>
      <trkpt lat="45.93933" lon="4.78662">
        <ele>193</ele>
        <time>2017-11-22T09:53:12Z</time>
      </trkpt>
      <trkpt lat="45.93932" lon="4.78668">
        <ele>193</ele>
        <time>2017-11-22T09:53:13Z</time>
      </trkpt>
      <trkpt lat="45.93932" lon="4.78679">
        <ele>193</ele>
        <time>2017-11-22T09:53:15Z</time>
      </trkpt>
      <trkpt lat="45.93932" lon="4.78684">
        <ele>193</ele>
        <time>2017-11-22T09:53:16Z</time>
      </trkpt>
      <trkpt lat="45.93932" lon="4.78693">
        <ele>194</ele>
        <time>2017-11-22T09:53:18Z</time>
      </trkpt>
      <trkpt lat="45.93932" lon="4.78698">
        <ele>194</ele>
        <time>2017-11-22T09:53:19Z</time>
      </trkpt>
      <trkpt lat="45.93935" lon="4.78709">
        <ele>194</ele>
        <time>2017-11-22T09:53:21Z</time>
      </trkpt>
      <trkpt lat="45.93937" lon="4.78718">
        <ele>194</ele>
        <time>2017-11-22T09:53:22Z</time>
      </trkpt>
      <trkpt lat="45.93937" lon="4.78729">
        <ele>194</ele>
        <time>2017-11-22T09:53:24Z</time>
      </trkpt>
      <trkpt lat="45.93938" lon="4.78737">
        <ele>193</ele>
        <time>2017-11-22T09:53:25Z</time>
      </trkpt>
      <trkpt lat="45.93938" lon="4.78749">
        <ele>193</ele>
        <time>2017-11-22T09:53:27Z</time>
      </trkpt>
      <trkpt lat="45.93938" lon="4.78755">
        <ele>193</ele>
        <time>2017-11-22T09:53:28Z</time>
      </trkpt>
      <trkpt lat="45.93938" lon="4.78766">
        <ele>193</ele>
        <time>2017-11-22T09:53:30Z</time>
      </trkpt>
      <trkpt lat="45.93938" lon="4.78772">
        <ele>194</ele>
        <time>2017-11-22T09:53:31Z</time>
      </trkpt>
      <trkpt lat="45.93938" lon="4.78784">
        <ele>194</ele>
        <time>2017-11-22T09:53:33Z</time>
      </trkpt>
      <trkpt lat="45.93938" lon="4.7879">
        <ele>194</ele>
        <time>2017-11-22T09:53:34Z</time>
      </trkpt>
      <trkpt lat="45.93939" lon="4.78803">
        <ele>194</ele>
        <time>2017-11-22T09:53:36Z</time>
      </trkpt>
      <trkpt lat="45.93939" lon="4.78809">
        <ele>194</ele>
        <time>2017-11-22T09:53:37Z</time>
      </trkpt>
      <trkpt lat="45.93938" lon="4.78822">
        <ele>194</ele>
        <time>2017-11-22T09:53:39Z</time>
      </trkpt>
      <trkpt lat="45.93938" lon="4.78826">
        <ele>193</ele>
        <time>2017-11-22T09:53:40Z</time>
      </trkpt>
      <trkpt lat="45.93939" lon="4.78833">
        <ele>194</ele>
        <time>2017-11-22T09:53:41Z</time>
      </trkpt>
      <trkpt lat="45.9394" lon="4.78839">
        <ele>193</ele>
        <time>2017-11-22T09:53:42Z</time>
      </trkpt>
      <trkpt lat="45.93938" lon="4.78851">
        <ele>193</ele>
        <time>2017-11-22T09:53:44Z</time>
      </trkpt>
      <trkpt lat="45.93937" lon="4.78858">
        <ele>193</ele>
        <time>2017-11-22T09:53:45Z</time>
      </trkpt>
      <trkpt lat="45.93938" lon="4.7887">
        <ele>194</ele>
        <time>2017-11-22T09:53:47Z</time>
      </trkpt>
      <trkpt lat="45.93938" lon="4.78877">
        <ele>194</ele>
        <time>2017-11-22T09:53:48Z</time>
      </trkpt>
      <trkpt lat="45.93938" lon="4.78888">
        <ele>193</ele>
        <time>2017-11-22T09:53:50Z</time>
      </trkpt>
      <trkpt lat="45.93938" lon="4.78893">
        <ele>193</ele>
        <time>2017-11-22T09:53:51Z</time>
      </trkpt>
      <trkpt lat="45.93939" lon="4.78903">
        <ele>193</ele>
        <time>2017-11-22T09:53:53Z</time>
      </trkpt>
      <trkpt lat="45.9394" lon="4.78908">
        <ele>193</ele>
        <time>2017-11-22T09:53:54Z</time>
      </trkpt>
      <trkpt lat="45.9394" lon="4.78919">
        <ele>193</ele>
        <time>2017-11-22T09:53:56Z</time>
      </trkpt>
      <trkpt lat="45.9394" lon="4.78925">
        <ele>193</ele>
        <time>2017-11-22T09:53:57Z</time>
      </trkpt>
      <trkpt lat="45.9394" lon="4.78936">
        <ele>193</ele>
        <time>2017-11-22T09:53:59Z</time>
      </trkpt>
      <trkpt lat="45.93941" lon="4.78941">
        <ele>194</ele>
        <time>2017-11-22T09:54:00Z</time>
      </trkpt>
      <trkpt lat="45.93941" lon="4.78952">
        <ele>194</ele>
        <time>2017-11-22T09:54:02Z</time>
      </trkpt>
      <trkpt lat="45.93941" lon="4.78958">
        <ele>194</ele>
        <time>2017-11-22T09:54:03Z</time>
      </trkpt>
      <trkpt lat="45.93942" lon="4.7897">
        <ele>194</ele>
        <time>2017-11-22T09:54:05Z</time>
      </trkpt>
      <trkpt lat="45.93943" lon="4.78976">
        <ele>194</ele>
        <time>2017-11-22T09:54:06Z</time>
      </trkpt>
      <trkpt lat="45.93944" lon="4.78987">
        <ele>194</ele>
        <time>2017-11-22T09:54:08Z</time>
      </trkpt>
      <trkpt lat="45.93944" lon="4.78993">
        <ele>194</ele>
        <time>2017-11-22T09:54:09Z</time>
      </trkpt>
      <trkpt lat="45.93945" lon="4.79005">
        <ele>195</ele>
        <time>2017-11-22T09:54:11Z</time>
      </trkpt>
      <trkpt lat="45.93946" lon="4.7901">
        <ele>195</ele>
        <time>2017-11-22T09:54:12Z</time>
      </trkpt>
      <trkpt lat="45.93946" lon="4.7902">
        <ele>195</ele>
        <time>2017-11-22T09:54:14Z</time>
      </trkpt>
      <trkpt lat="45.93946" lon="4.79025">
        <ele>195</ele>
        <time>2017-11-22T09:54:15Z</time>
      </trkpt>
      <trkpt lat="45.93946" lon="4.79036">
        <ele>195</ele>
        <time>2017-11-22T09:54:17Z</time>
      </trkpt>
      <trkpt lat="45.93946" lon="4.79041">
        <ele>195</ele>
        <time>2017-11-22T09:54:18Z</time>
      </trkpt>
      <trkpt lat="45.93947" lon="4.79052">
        <ele>196</ele>
        <time>2017-11-22T09:54:20Z</time>
      </trkpt>
      <trkpt lat="45.93947" lon="4.79057">
        <ele>196</ele>
        <time>2017-11-22T09:54:21Z</time>
      </trkpt>
      <trkpt lat="45.93948" lon="4.79068">
        <ele>196</ele>
        <time>2017-11-22T09:54:23Z</time>
      </trkpt>
      <trkpt lat="45.93948" lon="4.79073">
        <ele>196</ele>
        <time>2017-11-22T09:54:24Z</time>
      </trkpt>
      <trkpt lat="45.93948" lon="4.79083">
        <ele>196</ele>
        <time>2017-11-22T09:54:26Z</time>
      </trkpt>
      <trkpt lat="45.93948" lon="4.79089">
        <ele>196</ele>
        <time>2017-11-22T09:54:27Z</time>
      </trkpt>
      <trkpt lat="45.93948" lon="4.79099">
        <ele>196</ele>
        <time>2017-11-22T09:54:29Z</time>
      </trkpt>
      <trkpt lat="45.93948" lon="4.79105">
        <ele>196</ele>
        <time>2017-11-22T09:54:30Z</time>
      </trkpt>
      <trkpt lat="45.93949" lon="4.79116">
        <ele>197</ele>
        <time>2017-11-22T09:54:32Z</time>
      </trkpt>
      <trkpt lat="45.93948" lon="4.79121">
        <ele>197</ele>
        <time>2017-11-22T09:54:33Z</time>
      </trkpt>
      <trkpt lat="45.93949" lon="4.79132">
        <ele>197</ele>
        <time>2017-11-22T09:54:35Z</time>
      </trkpt>
      <trkpt lat="45.93949" lon="4.79138">
        <ele>197</ele>
        <time>2017-11-22T09:54:36Z</time>
      </trkpt>
      <trkpt lat="45.9395" lon="4.79149">
        <ele>197</ele>
        <time>2017-11-22T09:54:38Z</time>
      </trkpt>
      <trkpt lat="45.9395" lon="4.79155">
        <ele>197</ele>
        <time>2017-11-22T09:54:39Z</time>
      </trkpt>
      <trkpt lat="45.93951" lon="4.79166">
        <ele>197</ele>
        <time>2017-11-22T09:54:41Z</time>
      </trkpt>
      <trkpt lat="45.93951" lon="4.79172">
        <ele>197</ele>
        <time>2017-11-22T09:54:42Z</time>
      </trkpt>
      <trkpt lat="45.93951" lon="4.79184">
        <ele>197</ele>
        <time>2017-11-22T09:54:44Z</time>
      </trkpt>
      <trkpt lat="45.93951" lon="4.7919">
        <ele>197</ele>
        <time>2017-11-22T09:54:45Z</time>
      </trkpt>
      <trkpt lat="45.93951" lon="4.792">
        <ele>197</ele>
        <time>2017-11-22T09:54:47Z</time>
      </trkpt>
      <trkpt lat="45.93951" lon="4.79206">
        <ele>197</ele>
        <time>2017-11-22T09:54:48Z</time>
      </trkpt>
      <trkpt lat="45.93952" lon="4.79216">
        <ele>197</ele>
        <time>2017-11-22T09:54:50Z</time>
      </trkpt>
      <trkpt lat="45.93952" lon="4.79222">
        <ele>197</ele>
        <time>2017-11-22T09:54:51Z</time>
      </trkpt>
      <trkpt lat="45.93952" lon="4.79233">
        <ele>197</ele>
        <time>2017-11-22T09:54:53Z</time>
      </trkpt>
      <trkpt lat="45.93952" lon="4.7924">
        <ele>197</ele>
        <time>2017-11-22T09:54:54Z</time>
      </trkpt>
      <trkpt lat="45.93951" lon="4.79252">
        <ele>198</ele>
        <time>2017-11-22T09:54:56Z</time>
      </trkpt>
      <trkpt lat="45.93952" lon="4.79258">
        <ele>198</ele>
        <time>2017-11-22T09:54:57Z</time>
      </trkpt>
      <trkpt lat="45.93951" lon="4.7927">
        <ele>198</ele>
        <time>2017-11-22T09:54:59Z</time>
      </trkpt>
      <trkpt lat="45.93951" lon="4.79275">
        <ele>198</ele>
        <time>2017-11-22T09:55:00Z</time>
      </trkpt>
      <trkpt lat="45.93951" lon="4.79285">
        <ele>198</ele>
        <time>2017-11-22T09:55:02Z</time>
      </trkpt>
      <trkpt lat="45.93951" lon="4.7929">
        <ele>198</ele>
        <time>2017-11-22T09:55:03Z</time>
      </trkpt>
      <trkpt lat="45.93952" lon="4.79302">
        <ele>198</ele>
        <time>2017-11-22T09:55:05Z</time>
      </trkpt>
      <trkpt lat="45.93952" lon="4.79307">
        <ele>198</ele>
        <time>2017-11-22T09:55:06Z</time>
      </trkpt>
      <trkpt lat="45.93952" lon="4.79318">
        <ele>199</ele>
        <time>2017-11-22T09:55:08Z</time>
      </trkpt>
      <trkpt lat="45.93953" lon="4.79323">
        <ele>199</ele>
        <time>2017-11-22T09:55:09Z</time>
      </trkpt>
      <trkpt lat="45.93953" lon="4.79334">
        <ele>200</ele>
        <time>2017-11-22T09:55:11Z</time>
      </trkpt>
      <trkpt lat="45.93953" lon="4.7934">
        <ele>200</ele>
        <time>2017-11-22T09:55:12Z</time>
      </trkpt>
      <trkpt lat="45.93954" lon="4.79351">
        <ele>200</ele>
        <time>2017-11-22T09:55:14Z</time>
      </trkpt>
      <trkpt lat="45.93954" lon="4.79356">
        <ele>201</ele>
        <time>2017-11-22T09:55:15Z</time>
      </trkpt>
      <trkpt lat="45.93954" lon="4.79367">
        <ele>201</ele>
        <time>2017-11-22T09:55:17Z</time>
      </trkpt>
      <trkpt lat="45.93954" lon="4.79373">
        <ele>201</ele>
        <time>2017-11-22T09:55:18Z</time>
      </trkpt>
      <trkpt lat="45.93953" lon="4.79383">
        <ele>201</ele>
        <time>2017-11-22T09:55:20Z</time>
      </trkpt>
      <trkpt lat="45.93953" lon="4.79387">
        <ele>201</ele>
        <time>2017-11-22T09:55:21Z</time>
      </trkpt>
      <trkpt lat="45.93953" lon="4.79397">
        <ele>201</ele>
        <time>2017-11-22T09:55:23Z</time>
      </trkpt>
      <trkpt lat="45.93953" lon="4.79402">
        <ele>201</ele>
        <time>2017-11-22T09:55:24Z</time>
      </trkpt>
      <trkpt lat="45.93953" lon="4.79412">
        <ele>201</ele>
        <time>2017-11-22T09:55:26Z</time>
      </trkpt>
      <trkpt lat="45.93953" lon="4.79416">
        <ele>201</ele>
        <time>2017-11-22T09:55:27Z</time>
      </trkpt>
      <trkpt lat="45.93952" lon="4.79425">
        <ele>202</ele>
        <time>2017-11-22T09:55:29Z</time>
      </trkpt>
      <trkpt lat="45.93952" lon="4.7943">
        <ele>202</ele>
        <time>2017-11-22T09:55:30Z</time>
      </trkpt>
      <trkpt lat="45.93952" lon="4.7944">
        <ele>202</ele>
        <time>2017-11-22T09:55:32Z</time>
      </trkpt>
      <trkpt lat="45.93953" lon="4.79445">
        <ele>202</ele>
        <time>2017-11-22T09:55:33Z</time>
      </trkpt>
      <trkpt lat="45.93954" lon="4.79454">
        <ele>203</ele>
        <time>2017-11-22T09:55:35Z</time>
      </trkpt>
      <trkpt lat="45.93954" lon="4.79458">
        <ele>203</ele>
        <time>2017-11-22T09:55:36Z</time>
      </trkpt>
      <trkpt lat="45.93954" lon="4.79467">
        <ele>203</ele>
        <time>2017-11-22T09:55:38Z</time>
      </trkpt>
      <trkpt lat="45.93955" lon="4.79472">
        <ele>203</ele>
        <time>2017-11-22T09:55:39Z</time>
      </trkpt>
      <trkpt lat="45.93955" lon="4.79481">
        <ele>203</ele>
        <time>2017-11-22T09:55:41Z</time>
      </trkpt>
      <trkpt lat="45.93954" lon="4.79486">
        <ele>203</ele>
        <time>2017-11-22T09:55:42Z</time>
      </trkpt>
      <trkpt lat="45.93955" lon="4.79496">
        <ele>203</ele>
        <time>2017-11-22T09:55:44Z</time>
      </trkpt>
      <trkpt lat="45.93955" lon="4.795">
        <ele>204</ele>
        <time>2017-11-22T09:55:45Z</time>
      </trkpt>
      <trkpt lat="45.93956" lon="4.7951">
        <ele>204</ele>
        <time>2017-11-22T09:55:47Z</time>
      </trkpt>
      <trkpt lat="45.93956" lon="4.79515">
        <ele>204</ele>
        <time>2017-11-22T09:55:48Z</time>
      </trkpt>
      <trkpt lat="45.93956" lon="4.79527">
        <ele>205</ele>
        <time>2017-11-22T09:55:51Z</time>
      </trkpt>
      <trkpt lat="45.93956" lon="4.79531">
        <ele>205</ele>
        <time>2017-11-22T09:55:52Z</time>
      </trkpt>
      <trkpt lat="45.93956" lon="4.7954">
        <ele>205</ele>
        <time>2017-11-22T09:55:54Z</time>
      </trkpt>
      <trkpt lat="45.93957" lon="4.79544">
        <ele>205</ele>
        <time>2017-11-22T09:55:55Z</time>
      </trkpt>
      <trkpt lat="45.93958" lon="4.79553">
        <ele>205</ele>
        <time>2017-11-22T09:55:57Z</time>
      </trkpt>
      <trkpt lat="45.93958" lon="4.79558">
        <ele>205</ele>
        <time>2017-11-22T09:55:58Z</time>
      </trkpt>
      <trkpt lat="45.93958" lon="4.79567">
        <ele>205</ele>
        <time>2017-11-22T09:56:00Z</time>
      </trkpt>
      <trkpt lat="45.93958" lon="4.79572">
        <ele>205</ele>
        <time>2017-11-22T09:56:01Z</time>
      </trkpt>
      <trkpt lat="45.93959" lon="4.79581">
        <ele>206</ele>
        <time>2017-11-22T09:56:03Z</time>
      </trkpt>
      <trkpt lat="45.93959" lon="4.79585">
        <ele>207</ele>
        <time>2017-11-22T09:56:04Z</time>
      </trkpt>
      <trkpt lat="45.9396" lon="4.79594">
        <ele>207</ele>
        <time>2017-11-22T09:56:06Z</time>
      </trkpt>
      <trkpt lat="45.93961" lon="4.79598">
        <ele>207</ele>
        <time>2017-11-22T09:56:07Z</time>
      </trkpt>
      <trkpt lat="45.93962" lon="4.79608">
        <ele>207</ele>
        <time>2017-11-22T09:56:09Z</time>
      </trkpt>
      <trkpt lat="45.93962" lon="4.79613">
        <ele>207</ele>
        <time>2017-11-22T09:56:10Z</time>
      </trkpt>
      <trkpt lat="45.93963" lon="4.79623">
        <ele>207</ele>
        <time>2017-11-22T09:56:12Z</time>
      </trkpt>
      <trkpt lat="45.93963" lon="4.79628">
        <ele>207</ele>
        <time>2017-11-22T09:56:13Z</time>
      </trkpt>
      <trkpt lat="45.93964" lon="4.79637">
        <ele>207</ele>
        <time>2017-11-22T09:56:15Z</time>
      </trkpt>
      <trkpt lat="45.93964" lon="4.79642">
        <ele>207</ele>
        <time>2017-11-22T09:56:16Z</time>
      </trkpt>
      <trkpt lat="45.93965" lon="4.79652">
        <ele>207</ele>
        <time>2017-11-22T09:56:18Z</time>
      </trkpt>
      <trkpt lat="45.93965" lon="4.79657">
        <ele>207</ele>
        <time>2017-11-22T09:56:19Z</time>
      </trkpt>
      <trkpt lat="45.93966" lon="4.79667">
        <ele>207</ele>
        <time>2017-11-22T09:56:21Z</time>
      </trkpt>
      <trkpt lat="45.93967" lon="4.79671">
        <ele>207</ele>
        <time>2017-11-22T09:56:22Z</time>
      </trkpt>
      <trkpt lat="45.93967" lon="4.79684">
        <ele>207</ele>
        <time>2017-11-22T09:56:25Z</time>
      </trkpt>
      <trkpt lat="45.93967" lon="4.79689">
        <ele>207</ele>
        <time>2017-11-22T09:56:26Z</time>
      </trkpt>
      <trkpt lat="45.93967" lon="4.79698">
        <ele>207</ele>
        <time>2017-11-22T09:56:28Z</time>
      </trkpt>
      <trkpt lat="45.93968" lon="4.79703">
        <ele>207</ele>
        <time>2017-11-22T09:56:29Z</time>
      </trkpt>
      <trkpt lat="45.93969" lon="4.79713">
        <ele>207</ele>
        <time>2017-11-22T09:56:31Z</time>
      </trkpt>
      <trkpt lat="45.93969" lon="4.79718">
        <ele>207</ele>
        <time>2017-11-22T09:56:32Z</time>
      </trkpt>
      <trkpt lat="45.9397" lon="4.79729">
        <ele>207</ele>
        <time>2017-11-22T09:56:34Z</time>
      </trkpt>
      <trkpt lat="45.9397" lon="4.79734">
        <ele>207</ele>
        <time>2017-11-22T09:56:35Z</time>
      </trkpt>
      <trkpt lat="45.93971" lon="4.79745">
        <ele>207</ele>
        <time>2017-11-22T09:56:37Z</time>
      </trkpt>
      <trkpt lat="45.93972" lon="4.79751">
        <ele>206</ele>
        <time>2017-11-22T09:56:38Z</time>
      </trkpt>
      <trkpt lat="45.93973" lon="4.79762">
        <ele>206</ele>
        <time>2017-11-22T09:56:40Z</time>
      </trkpt>
      <trkpt lat="45.93974" lon="4.79768">
        <ele>206</ele>
        <time>2017-11-22T09:56:41Z</time>
      </trkpt>
      <trkpt lat="45.93974" lon="4.79779">
        <ele>206</ele>
        <time>2017-11-22T09:56:43Z</time>
      </trkpt>
      <trkpt lat="45.93973" lon="4.79785">
        <ele>206</ele>
        <time>2017-11-22T09:56:44Z</time>
      </trkpt>
      <trkpt lat="45.93972" lon="4.79795">
        <ele>206</ele>
        <time>2017-11-22T09:56:46Z</time>
      </trkpt>
      <trkpt lat="45.93971" lon="4.798">
        <ele>206</ele>
        <time>2017-11-22T09:56:47Z</time>
      </trkpt>
      <trkpt lat="45.9397" lon="4.7981">
        <ele>207</ele>
        <time>2017-11-22T09:56:49Z</time>
      </trkpt>
      <trkpt lat="45.93969" lon="4.79815">
        <ele>207</ele>
        <time>2017-11-22T09:56:50Z</time>
      </trkpt>
      <trkpt lat="45.93968" lon="4.79827">
        <ele>207</ele>
        <time>2017-11-22T09:56:52Z</time>
      </trkpt>
      <trkpt lat="45.93967" lon="4.79833">
        <ele>207</ele>
        <time>2017-11-22T09:56:53Z</time>
      </trkpt>
      <trkpt lat="45.93964" lon="4.79845">
        <ele>206</ele>
        <time>2017-11-22T09:56:55Z</time>
      </trkpt>
      <trkpt lat="45.93962" lon="4.79852">
        <ele>206</ele>
        <time>2017-11-22T09:56:56Z</time>
      </trkpt>
      <trkpt lat="45.93961" lon="4.79859">
        <ele>206</ele>
        <time>2017-11-22T09:56:57Z</time>
      </trkpt>
      <trkpt lat="45.9396" lon="4.79864">
        <ele>206</ele>
        <time>2017-11-22T09:56:58Z</time>
      </trkpt>
      <trkpt lat="45.93958" lon="4.79876">
        <ele>206</ele>
        <time>2017-11-22T09:57:00Z</time>
      </trkpt>
      <trkpt lat="45.93957" lon="4.79881">
        <ele>206</ele>
        <time>2017-11-22T09:57:01Z</time>
      </trkpt>
      <trkpt lat="45.93955" lon="4.79892">
        <ele>205</ele>
        <time>2017-11-22T09:57:03Z</time>
      </trkpt>
      <trkpt lat="45.93954" lon="4.79897">
        <ele>205</ele>
        <time>2017-11-22T09:57:04Z</time>
      </trkpt>
      <trkpt lat="45.93951" lon="4.79908">
        <ele>205</ele>
        <time>2017-11-22T09:57:06Z</time>
      </trkpt>
      <trkpt lat="45.9395" lon="4.79914">
        <ele>205</ele>
        <time>2017-11-22T09:57:07Z</time>
      </trkpt>
      <trkpt lat="45.93948" lon="4.79926">
        <ele>205</ele>
        <time>2017-11-22T09:57:09Z</time>
      </trkpt>
      <trkpt lat="45.93948" lon="4.79932">
        <ele>205</ele>
        <time>2017-11-22T09:57:10Z</time>
      </trkpt>
      <trkpt lat="45.93947" lon="4.79939">
        <ele>205</ele>
        <time>2017-11-22T09:57:11Z</time>
      </trkpt>
      <trkpt lat="45.93946" lon="4.79945">
        <ele>205</ele>
        <time>2017-11-22T09:57:12Z</time>
      </trkpt>
      <trkpt lat="45.93943" lon="4.79956">
        <ele>205</ele>
        <time>2017-11-22T09:57:14Z</time>
      </trkpt>
      <trkpt lat="45.93942" lon="4.79961">
        <ele>205</ele>
        <time>2017-11-22T09:57:15Z</time>
      </trkpt>
      <trkpt lat="45.9394" lon="4.79973">
        <ele>205</ele>
        <time>2017-11-22T09:57:17Z</time>
      </trkpt>
      <trkpt lat="45.9394" lon="4.79978">
        <ele>204</ele>
        <time>2017-11-22T09:57:18Z</time>
      </trkpt>
      <trkpt lat="45.93939" lon="4.79984">
        <ele>204</ele>
        <time>2017-11-22T09:57:19Z</time>
      </trkpt>
      <trkpt lat="45.93939" lon="4.79991">
        <ele>204</ele>
        <time>2017-11-22T09:57:20Z</time>
      </trkpt>
      <trkpt lat="45.93938" lon="4.80003">
        <ele>205</ele>
        <time>2017-11-22T09:57:22Z</time>
      </trkpt>
      <trkpt lat="45.93938" lon="4.80008">
        <ele>205</ele>
        <time>2017-11-22T09:57:23Z</time>
      </trkpt>
      <trkpt lat="45.93936" lon="4.8002">
        <ele>206</ele>
        <time>2017-11-22T09:57:25Z</time>
      </trkpt>
      <trkpt lat="45.93935" lon="4.80026">
        <ele>206</ele>
        <time>2017-11-22T09:57:26Z</time>
      </trkpt>
      <trkpt lat="45.93934" lon="4.80038">
        <ele>207</ele>
        <time>2017-11-22T09:57:28Z</time>
      </trkpt>
      <trkpt lat="45.93934" lon="4.80044">
        <ele>207</ele>
        <time>2017-11-22T09:57:29Z</time>
      </trkpt>
      <trkpt lat="45.93934" lon="4.80056">
        <ele>207</ele>
        <time>2017-11-22T09:57:31Z</time>
      </trkpt>
      <trkpt lat="45.93934" lon="4.80061">
        <ele>207</ele>
        <time>2017-11-22T09:57:32Z</time>
      </trkpt>
      <trkpt lat="45.93934" lon="4.80072">
        <ele>207</ele>
        <time>2017-11-22T09:57:34Z</time>
      </trkpt>
      <trkpt lat="45.93934" lon="4.80077">
        <ele>207</ele>
        <time>2017-11-22T09:57:35Z</time>
      </trkpt>
      <trkpt lat="45.93936" lon="4.80088">
        <ele>208</ele>
        <time>2017-11-22T09:57:37Z</time>
      </trkpt>
      <trkpt lat="45.93936" lon="4.80094">
        <ele>208</ele>
        <time>2017-11-22T09:57:38Z</time>
      </trkpt>
      <trkpt lat="45.93939" lon="4.80101">
        <ele>208</ele>
        <time>2017-11-22T09:57:39Z</time>
      </trkpt>
      <trkpt lat="45.9394" lon="4.80107">
        <ele>208</ele>
        <time>2017-11-22T09:57:40Z</time>
      </trkpt>
      <trkpt lat="45.93941" lon="4.80119">
        <ele>209</ele>
        <time>2017-11-22T09:57:42Z</time>
      </trkpt>
      <trkpt lat="45.93942" lon="4.80125">
        <ele>209</ele>
        <time>2017-11-22T09:57:43Z</time>
      </trkpt>
      <trkpt lat="45.93944" lon="4.80136">
        <ele>208</ele>
        <time>2017-11-22T09:57:45Z</time>
      </trkpt>
      <trkpt lat="45.93944" lon="4.80141">
        <ele>208</ele>
        <time>2017-11-22T09:57:46Z</time>
      </trkpt>
      <trkpt lat="45.93945" lon="4.80151">
        <ele>208</ele>
        <time>2017-11-22T09:57:48Z</time>
      </trkpt>
      <trkpt lat="45.93946" lon="4.80156">
        <ele>208</ele>
        <time>2017-11-22T09:57:49Z</time>
      </trkpt>
      <trkpt lat="45.93947" lon="4.80165">
        <ele>208</ele>
        <time>2017-11-22T09:57:51Z</time>
      </trkpt>
      <trkpt lat="45.93949" lon="4.80172">
        <ele>206</ele>
        <time>2017-11-22T09:57:52Z</time>
      </trkpt>
      <trkpt lat="45.93951" lon="4.80184">
        <ele>206</ele>
        <time>2017-11-22T09:57:54Z</time>
      </trkpt>
      <trkpt lat="45.93952" lon="4.80191">
        <ele>206</ele>
        <time>2017-11-22T09:57:55Z</time>
      </trkpt>
      <trkpt lat="45.93954" lon="4.80198">
        <ele>205</ele>
        <time>2017-11-22T09:57:56Z</time>
      </trkpt>
      <trkpt lat="45.93956" lon="4.80205">
        <ele>205</ele>
        <time>2017-11-22T09:57:57Z</time>
      </trkpt>
      <trkpt lat="45.93957" lon="4.80211">
        <ele>205</ele>
        <time>2017-11-22T09:57:58Z</time>
      </trkpt>
      <trkpt lat="45.93959" lon="4.80217">
        <ele>205</ele>
        <time>2017-11-22T09:57:59Z</time>
      </trkpt>
      <trkpt lat="45.9396" lon="4.80223">
        <ele>205</ele>
        <time>2017-11-22T09:58:00Z</time>
      </trkpt>
      <trkpt lat="45.93962" lon="4.8023">
        <ele>205</ele>
        <time>2017-11-22T09:58:01Z</time>
      </trkpt>
      <trkpt lat="45.93964" lon="4.80241">
        <ele>204</ele>
        <time>2017-11-22T09:58:03Z</time>
      </trkpt>
      <trkpt lat="45.93966" lon="4.80245">
        <ele>204</ele>
        <time>2017-11-22T09:58:04Z</time>
      </trkpt>
      <trkpt lat="45.93968" lon="4.80255">
        <ele>202</ele>
        <time>2017-11-22T09:58:06Z</time>
      </trkpt>
      <trkpt lat="45.9397" lon="4.80261">
        <ele>202</ele>
        <time>2017-11-22T09:58:07Z</time>
      </trkpt>
      <trkpt lat="45.93972" lon="4.80269">
        <ele>202</ele>
        <time>2017-11-22T09:58:08Z</time>
      </trkpt>
      <trkpt lat="45.93973" lon="4.80275">
        <ele>202</ele>
        <time>2017-11-22T09:58:09Z</time>
      </trkpt>
      <trkpt lat="45.93976" lon="4.80284">
        <ele>203</ele>
        <time>2017-11-22T09:58:11Z</time>
      </trkpt>
      <trkpt lat="45.93977" lon="4.8029">
        <ele>203</ele>
        <time>2017-11-22T09:58:12Z</time>
      </trkpt>
      <trkpt lat="45.9398" lon="4.803">
        <ele>203</ele>
        <time>2017-11-22T09:58:14Z</time>
      </trkpt>
      <trkpt lat="45.93981" lon="4.80304">
        <ele>203</ele>
        <time>2017-11-22T09:58:15Z</time>
      </trkpt>
      <trkpt lat="45.93983" lon="4.80314">
        <ele>203</ele>
        <time>2017-11-22T09:58:17Z</time>
      </trkpt>
      <trkpt lat="45.93985" lon="4.80318">
        <ele>204</ele>
        <time>2017-11-22T09:58:18Z</time>
      </trkpt>
      <trkpt lat="45.93987" lon="4.80326">
        <ele>204</ele>
        <time>2017-11-22T09:58:20Z</time>
      </trkpt>
      <trkpt lat="45.93988" lon="4.8033">
        <ele>204</ele>
        <time>2017-11-22T09:58:21Z</time>
      </trkpt>
      <trkpt lat="45.9399" lon="4.80338">
        <ele>206</ele>
        <time>2017-11-22T09:58:23Z</time>
      </trkpt>
      <trkpt lat="45.93991" lon="4.80342">
        <ele>206</ele>
        <time>2017-11-22T09:58:24Z</time>
      </trkpt>
      <trkpt lat="45.93993" lon="4.80351">
        <ele>206</ele>
        <time>2017-11-22T09:58:26Z</time>
      </trkpt>
      <trkpt lat="45.93995" lon="4.80355">
        <ele>206</ele>
        <time>2017-11-22T09:58:27Z</time>
      </trkpt>
      <trkpt lat="45.93998" lon="4.80365">
        <ele>207</ele>
        <time>2017-11-22T09:58:30Z</time>
      </trkpt>
      <trkpt lat="45.93999" lon="4.80368">
        <ele>207</ele>
        <time>2017-11-22T09:58:31Z</time>
      </trkpt>
      <trkpt lat="45.94003" lon="4.8038">
        <ele>216</ele>
        <time>2017-11-22T09:58:34Z</time>
      </trkpt>
      <trkpt lat="45.94004" lon="4.80383">
        <ele>217</ele>
        <time>2017-11-22T09:58:35Z</time>
      </trkpt>
      <trkpt lat="45.94007" lon="4.80393">
        <ele>217</ele>
        <time>2017-11-22T09:58:38Z</time>
      </trkpt>
      <trkpt lat="45.94008" lon="4.80397">
        <ele>217</ele>
        <time>2017-11-22T09:58:39Z</time>
      </trkpt>
      <trkpt lat="45.94011" lon="4.80407">
        <ele>217</ele>
        <time>2017-11-22T09:58:42Z</time>
      </trkpt>
      <trkpt lat="45.94012" lon="4.8041">
        <ele>217</ele>
        <time>2017-11-22T09:58:43Z</time>
      </trkpt>
      <trkpt lat="45.94015" lon="4.80419">
        <ele>220</ele>
        <time>2017-11-22T09:58:46Z</time>
      </trkpt>
      <trkpt lat="45.94016" lon="4.80422">
        <ele>221</ele>
        <time>2017-11-22T09:58:47Z</time>
      </trkpt>
      <trkpt lat="45.94017" lon="4.80433">
        <ele>222</ele>
        <time>2017-11-22T09:58:50Z</time>
      </trkpt>
      <trkpt lat="45.94017" lon="4.80436">
        <ele>222</ele>
        <time>2017-11-22T09:58:51Z</time>
      </trkpt>
      <trkpt lat="45.94018" lon="4.80449">
        <ele>223</ele>
        <time>2017-11-22T09:58:54Z</time>
      </trkpt>
      <trkpt lat="45.94018" lon="4.80453">
        <ele>223</ele>
        <time>2017-11-22T09:58:55Z</time>
      </trkpt>
      <trkpt lat="45.9402" lon="4.80465">
        <ele>223</ele>
        <time>2017-11-22T09:58:58Z</time>
      </trkpt>
      <trkpt lat="45.9402" lon="4.80469">
        <ele>223</ele>
        <time>2017-11-22T09:58:59Z</time>
      </trkpt>
      <trkpt lat="45.94021" lon="4.8048">
        <ele>223</ele>
        <time>2017-11-22T09:59:02Z</time>
      </trkpt>
      <trkpt lat="45.94022" lon="4.80483">
        <ele>223</ele>
        <time>2017-11-22T09:59:03Z</time>
      </trkpt>
      <trkpt lat="45.94021" lon="4.80495">
        <ele>223</ele>
        <time>2017-11-22T09:59:06Z</time>
      </trkpt>
      <trkpt lat="45.94021" lon="4.80499">
        <ele>223</ele>
        <time>2017-11-22T09:59:07Z</time>
      </trkpt>
      <trkpt lat="45.94021" lon="4.80508">
        <ele>223</ele>
        <time>2017-11-22T09:59:09Z</time>
      </trkpt>
      <trkpt lat="45.94021" lon="4.80513">
        <ele>224</ele>
        <time>2017-11-22T09:59:10Z</time>
      </trkpt>
      <trkpt lat="45.9402" lon="4.80524">
        <ele>224</ele>
        <time>2017-11-22T09:59:13Z</time>
      </trkpt>
      <trkpt lat="45.9402" lon="4.80526">
        <ele>224</ele>
        <time>2017-11-22T09:59:14Z</time>
      </trkpt>
      <trkpt lat="45.9402" lon="4.80537">
        <ele>225</ele>
        <time>2017-11-22T09:59:17Z</time>
      </trkpt>
      <trkpt lat="45.94021" lon="4.80541">
        <ele>225</ele>
        <time>2017-11-22T09:59:18Z</time>
      </trkpt>
      <trkpt lat="45.94022" lon="4.80552">
        <ele>225</ele>
        <time>2017-11-22T09:59:21Z</time>
      </trkpt>
      <trkpt lat="45.94022" lon="4.80556">
        <ele>225</ele>
        <time>2017-11-22T09:59:22Z</time>
      </trkpt>
      <trkpt lat="45.94022" lon="4.80568">
        <ele>224</ele>
        <time>2017-11-22T09:59:26Z</time>
      </trkpt>
      <trkpt lat="45.94023" lon="4.80572">
        <ele>224</ele>
        <time>2017-11-22T09:59:27Z</time>
      </trkpt>
      <trkpt lat="45.94024" lon="4.80583">
        <ele>224</ele>
        <time>2017-11-22T09:59:30Z</time>
      </trkpt>
      <trkpt lat="45.94025" lon="4.80587">
        <ele>224</ele>
        <time>2017-11-22T09:59:31Z</time>
      </trkpt>
      <trkpt lat="45.94027" lon="4.80596">
        <ele>224</ele>
        <time>2017-11-22T09:59:33Z</time>
      </trkpt>
      <trkpt lat="45.94028" lon="4.806">
        <ele>225</ele>
        <time>2017-11-22T09:59:34Z</time>
      </trkpt>
      <trkpt lat="45.94029" lon="4.80611">
        <ele>225</ele>
        <time>2017-11-22T09:59:37Z</time>
      </trkpt>
      <trkpt lat="45.94029" lon="4.80615">
        <ele>225</ele>
        <time>2017-11-22T09:59:38Z</time>
      </trkpt>
      <trkpt lat="45.94029" lon="4.80627">
        <ele>225</ele>
        <time>2017-11-22T09:59:42Z</time>
      </trkpt>
      <trkpt lat="45.94029" lon="4.8063">
        <ele>225</ele>
        <time>2017-11-22T09:59:43Z</time>
      </trkpt>
      <trkpt lat="45.9403" lon="4.80642">
        <ele>225</ele>
        <time>2017-11-22T09:59:47Z</time>
      </trkpt>
      <trkpt lat="45.9403" lon="4.80646">
        <ele>225</ele>
        <time>2017-11-22T09:59:48Z</time>
      </trkpt>
      <trkpt lat="45.94032" lon="4.80657">
        <ele>225</ele>
        <time>2017-11-22T09:59:51Z</time>
      </trkpt>
      <trkpt lat="45.94032" lon="4.8066">
        <ele>225</ele>
        <time>2017-11-22T09:59:52Z</time>
      </trkpt>
      <trkpt lat="45.94033" lon="4.80671">
        <ele>225</ele>
        <time>2017-11-22T09:59:55Z</time>
      </trkpt>
      <trkpt lat="45.94033" lon="4.80675">
        <ele>225</ele>
        <time>2017-11-22T09:59:56Z</time>
      </trkpt>
      <trkpt lat="45.94034" lon="4.80685">
        <ele>225</ele>
        <time>2017-11-22T09:59:59Z</time>
      </trkpt>
      <trkpt lat="45.94034" lon="4.80689">
        <ele>225</ele>
        <time>2017-11-22T10:00:00Z</time>
      </trkpt>
      <trkpt lat="45.94035" lon="4.807">
        <ele>226</ele>
        <time>2017-11-22T10:00:03Z</time>
      </trkpt>
      <trkpt lat="45.94036" lon="4.80704">
        <ele>226</ele>
        <time>2017-11-22T10:00:04Z</time>
      </trkpt>
      <trkpt lat="45.94038" lon="4.80716">
        <ele>226</ele>
        <time>2017-11-22T10:00:07Z</time>
      </trkpt>
      <trkpt lat="45.94038" lon="4.8072">
        <ele>226</ele>
        <time>2017-11-22T10:00:08Z</time>
      </trkpt>
      <trkpt lat="45.9404" lon="4.8073">
        <ele>227</ele>
        <time>2017-11-22T10:00:11Z</time>
      </trkpt>
      <trkpt lat="45.94041" lon="4.80733">
        <ele>227</ele>
        <time>2017-11-22T10:00:12Z</time>
      </trkpt>
      <trkpt lat="45.94043" lon="4.80745">
        <ele>227</ele>
        <time>2017-11-22T10:00:15Z</time>
      </trkpt>
      <trkpt lat="45.94043" lon="4.80748">
        <ele>227</ele>
        <time>2017-11-22T10:00:16Z</time>
      </trkpt>
      <trkpt lat="45.94044" lon="4.80758">
        <ele>228</ele>
        <time>2017-11-22T10:00:19Z</time>
      </trkpt>
      <trkpt lat="45.94044" lon="4.80762">
        <ele>228</ele>
        <time>2017-11-22T10:00:20Z</time>
      </trkpt>
      <trkpt lat="45.94046" lon="4.80773">
        <ele>229</ele>
        <time>2017-11-22T10:00:23Z</time>
      </trkpt>
      <trkpt lat="45.94047" lon="4.80776">
        <ele>229</ele>
        <time>2017-11-22T10:00:24Z</time>
      </trkpt>
      <trkpt lat="45.94048" lon="4.80786">
        <ele>229</ele>
        <time>2017-11-22T10:00:27Z</time>
      </trkpt>
      <trkpt lat="45.94048" lon="4.8079">
        <ele>229</ele>
        <time>2017-11-22T10:00:28Z</time>
      </trkpt>
      <trkpt lat="45.9405" lon="4.808">
        <ele>229</ele>
        <time>2017-11-22T10:00:31Z</time>
      </trkpt>
      <trkpt lat="45.9405" lon="4.80803">
        <ele>229</ele>
        <time>2017-11-22T10:00:32Z</time>
      </trkpt>
      <trkpt lat="45.94052" lon="4.80816">
        <ele>230</ele>
        <time>2017-11-22T10:00:36Z</time>
      </trkpt>
      <trkpt lat="45.94052" lon="4.80819">
        <ele>230</ele>
        <time>2017-11-22T10:00:37Z</time>
      </trkpt>
      <trkpt lat="45.94052" lon="4.80829">
        <ele>230</ele>
        <time>2017-11-22T10:00:40Z</time>
      </trkpt>
      <trkpt lat="45.94053" lon="4.80832">
        <ele>230</ele>
        <time>2017-11-22T10:00:41Z</time>
      </trkpt>
      <trkpt lat="45.94054" lon="4.80845">
        <ele>231</ele>
        <time>2017-11-22T10:00:45Z</time>
      </trkpt>
      <trkpt lat="45.94054" lon="4.80848">
        <ele>231</ele>
        <time>2017-11-22T10:00:46Z</time>
      </trkpt>
      <trkpt lat="45.94055" lon="4.80858">
        <ele>230</ele>
        <time>2017-11-22T10:00:49Z</time>
      </trkpt>
      <trkpt lat="45.94055" lon="4.80862">
        <ele>230</ele>
        <time>2017-11-22T10:00:50Z</time>
      </trkpt>
      <trkpt lat="45.94056" lon="4.80873">
        <ele>230</ele>
        <time>2017-11-22T10:00:53Z</time>
      </trkpt>
      <trkpt lat="45.94057" lon="4.80877">
        <ele>230</ele>
        <time>2017-11-22T10:00:54Z</time>
      </trkpt>
      <trkpt lat="45.94059" lon="4.80887">
        <ele>231</ele>
        <time>2017-11-22T10:00:57Z</time>
      </trkpt>
      <trkpt lat="45.9406" lon="4.80891">
        <ele>231</ele>
        <time>2017-11-22T10:00:58Z</time>
      </trkpt>
      <trkpt lat="45.9406" lon="4.80902">
        <ele>232</ele>
        <time>2017-11-22T10:01:01Z</time>
      </trkpt>
      <trkpt lat="45.9406" lon="4.80906">
        <ele>232</ele>
        <time>2017-11-22T10:01:02Z</time>
      </trkpt>
      <trkpt lat="45.94061" lon="4.80918">
        <ele>233</ele>
        <time>2017-11-22T10:01:05Z</time>
      </trkpt>
      <trkpt lat="45.94061" lon="4.80921">
        <ele>233</ele>
        <time>2017-11-22T10:01:06Z</time>
      </trkpt>
      <trkpt lat="45.94062" lon="4.80933">
        <ele>232</ele>
        <time>2017-11-22T10:01:09Z</time>
      </trkpt>
      <trkpt lat="45.94063" lon="4.80937">
        <ele>232</ele>
        <time>2017-11-22T10:01:10Z</time>
      </trkpt>
      <trkpt lat="45.94065" lon="4.80949">
        <ele>232</ele>
        <time>2017-11-22T10:01:13Z</time>
      </trkpt>
      <trkpt lat="45.94065" lon="4.80953">
        <ele>232</ele>
        <time>2017-11-22T10:01:14Z</time>
      </trkpt>
      <trkpt lat="45.94066" lon="4.80965">
        <ele>232</ele>
        <time>2017-11-22T10:01:17Z</time>
      </trkpt>
      <trkpt lat="45.94067" lon="4.8097">
        <ele>233</ele>
        <time>2017-11-22T10:01:18Z</time>
      </trkpt>
      <trkpt lat="45.94069" lon="4.80981">
        <ele>234</ele>
        <time>2017-11-22T10:01:21Z</time>
      </trkpt>
      <trkpt lat="45.94069" lon="4.80984">
        <ele>234</ele>
        <time>2017-11-22T10:01:22Z</time>
      </trkpt>
      <trkpt lat="45.9407" lon="4.80996">
        <ele>236</ele>
        <time>2017-11-22T10:01:25Z</time>
      </trkpt>
      <trkpt lat="45.94071" lon="4.80999">
        <ele>236</ele>
        <time>2017-11-22T10:01:26Z</time>
      </trkpt>
      <trkpt lat="45.94074" lon="4.81011">
        <ele>236</ele>
        <time>2017-11-22T10:01:29Z</time>
      </trkpt>
      <trkpt lat="45.94075" lon="4.81015">
        <ele>235</ele>
        <time>2017-11-22T10:01:30Z</time>
      </trkpt>
      <trkpt lat="45.94078" lon="4.81026">
        <ele>234</ele>
        <time>2017-11-22T10:01:33Z</time>
      </trkpt>
      <trkpt lat="45.94079" lon="4.8103">
        <ele>234</ele>
        <time>2017-11-22T10:01:34Z</time>
      </trkpt>
      <trkpt lat="45.94082" lon="4.81038">
        <ele>234</ele>
        <time>2017-11-22T10:01:36Z</time>
      </trkpt>
      <trkpt lat="45.94083" lon="4.81042">
        <ele>234</ele>
        <time>2017-11-22T10:01:37Z</time>
      </trkpt>
      <trkpt lat="45.94087" lon="4.81053">
        <ele>243</ele>
        <time>2017-11-22T10:01:40Z</time>
      </trkpt>
      <trkpt lat="45.94089" lon="4.81056">
        <ele>243</ele>
        <time>2017-11-22T10:01:41Z</time>
      </trkpt>
      <trkpt lat="45.94092" lon="4.81063">
        <ele>242</ele>
        <time>2017-11-22T10:01:44Z</time>
      </trkpt>
      <trkpt lat="45.94094" lon="4.81066">
        <ele>242</ele>
        <time>2017-11-22T10:01:45Z</time>
      </trkpt>
      <trkpt lat="45.94098" lon="4.81076">
        <ele>242</ele>
        <time>2017-11-22T10:01:48Z</time>
      </trkpt>
      <trkpt lat="45.941" lon="4.81079">
        <ele>242</ele>
        <time>2017-11-22T10:01:49Z</time>
      </trkpt>
      <trkpt lat="45.94105" lon="4.81088">
        <ele>241</ele>
        <time>2017-11-22T10:01:52Z</time>
      </trkpt>
      <trkpt lat="45.94107" lon="4.81091">
        <ele>242</ele>
        <time>2017-11-22T10:01:53Z</time>
      </trkpt>
      <trkpt lat="45.94113" lon="4.811">
        <ele>242</ele>
        <time>2017-11-22T10:01:56Z</time>
      </trkpt>
      <trkpt lat="45.94114" lon="4.81104">
        <ele>242</ele>
        <time>2017-11-22T10:01:57Z</time>
      </trkpt>
      <trkpt lat="45.94118" lon="4.81111">
        <ele>243</ele>
        <time>2017-11-22T10:01:59Z</time>
      </trkpt>
      <trkpt lat="45.94119" lon="4.81115">
        <ele>243</ele>
        <time>2017-11-22T10:02:00Z</time>
      </trkpt>
      <trkpt lat="45.94123" lon="4.81124">
        <ele>243</ele>
        <time>2017-11-22T10:02:04Z</time>
      </trkpt>
      <trkpt lat="45.94124" lon="4.81127">
        <ele>243</ele>
        <time>2017-11-22T10:02:05Z</time>
      </trkpt>
      <trkpt lat="45.94129" lon="4.81135">
        <ele>243</ele>
        <time>2017-11-22T10:02:08Z</time>
      </trkpt>
      <trkpt lat="45.94131" lon="4.81139">
        <ele>243</ele>
        <time>2017-11-22T10:02:09Z</time>
      </trkpt>
      <trkpt lat="45.94134" lon="4.81146">
        <ele>244</ele>
        <time>2017-11-22T10:02:11Z</time>
      </trkpt>
      <trkpt lat="45.94136" lon="4.8115">
        <ele>244</ele>
        <time>2017-11-22T10:02:12Z</time>
      </trkpt>
      <trkpt lat="45.94141" lon="4.81159">
        <ele>244</ele>
        <time>2017-11-22T10:02:15Z</time>
      </trkpt>
      <trkpt lat="45.94142" lon="4.81163">
        <ele>245</ele>
        <time>2017-11-22T10:02:16Z</time>
      </trkpt>
      <trkpt lat="45.94146" lon="4.81173">
        <ele>245</ele>
        <time>2017-11-22T10:02:19Z</time>
      </trkpt>
      <trkpt lat="45.94148" lon="4.81176">
        <ele>245</ele>
        <time>2017-11-22T10:02:20Z</time>
      </trkpt>
      <trkpt lat="45.94152" lon="4.81187">
        <ele>245</ele>
        <time>2017-11-22T10:02:23Z</time>
      </trkpt>
      <trkpt lat="45.94154" lon="4.81191">
        <ele>245</ele>
        <time>2017-11-22T10:02:24Z</time>
      </trkpt>
      <trkpt lat="45.94157" lon="4.81201">
        <ele>245</ele>
        <time>2017-11-22T10:02:27Z</time>
      </trkpt>
      <trkpt lat="45.94157" lon="4.81204">
        <ele>245</ele>
        <time>2017-11-22T10:02:28Z</time>
      </trkpt>
      <trkpt lat="45.9416" lon="4.81215">
        <ele>245</ele>
        <time>2017-11-22T10:02:31Z</time>
      </trkpt>
      <trkpt lat="45.94161" lon="4.81219">
        <ele>245</ele>
        <time>2017-11-22T10:02:32Z</time>
      </trkpt>
      <trkpt lat="45.94162" lon="4.8123">
        <ele>246</ele>
        <time>2017-11-22T10:02:35Z</time>
      </trkpt>
      <trkpt lat="45.94163" lon="4.81233">
        <ele>246</ele>
        <time>2017-11-22T10:02:36Z</time>
      </trkpt>
      <trkpt lat="45.94164" lon="4.81244">
        <ele>248</ele>
        <time>2017-11-22T10:02:39Z</time>
      </trkpt>
      <trkpt lat="45.94165" lon="4.81248">
        <ele>249</ele>
        <time>2017-11-22T10:02:40Z</time>
      </trkpt>
      <trkpt lat="45.94167" lon="4.8126">
        <ele>248</ele>
        <time>2017-11-22T10:02:43Z</time>
      </trkpt>
      <trkpt lat="45.94167" lon="4.81265">
        <ele>253</ele>
        <time>2017-11-22T10:02:44Z</time>
      </trkpt>
      <trkpt lat="45.94169" lon="4.81277">
        <ele>255</ele>
        <time>2017-11-22T10:02:47Z</time>
      </trkpt>
      <trkpt lat="45.94169" lon="4.8128">
        <ele>255</ele>
        <time>2017-11-22T10:02:48Z</time>
      </trkpt>
      <trkpt lat="45.94169" lon="4.81291">
        <ele>255</ele>
        <time>2017-11-22T10:02:51Z</time>
      </trkpt>
      <trkpt lat="45.94169" lon="4.81296">
        <ele>255</ele>
        <time>2017-11-22T10:02:52Z</time>
      </trkpt>
      <trkpt lat="45.9417" lon="4.81306">
        <ele>255</ele>
        <time>2017-11-22T10:02:55Z</time>
      </trkpt>
      <trkpt lat="45.9417" lon="4.81309">
        <ele>255</ele>
        <time>2017-11-22T10:02:56Z</time>
      </trkpt>
      <trkpt lat="45.94168" lon="4.81322">
        <ele>254</ele>
        <time>2017-11-22T10:03:00Z</time>
      </trkpt>
      <trkpt lat="45.94168" lon="4.81325">
        <ele>254</ele>
        <time>2017-11-22T10:03:01Z</time>
      </trkpt>
      <trkpt lat="45.94168" lon="4.81337">
        <ele>253</ele>
        <time>2017-11-22T10:03:04Z</time>
      </trkpt>
      <trkpt lat="45.94168" lon="4.8134">
        <ele>254</ele>
        <time>2017-11-22T10:03:05Z</time>
      </trkpt>
      <trkpt lat="45.94167" lon="4.81349">
        <ele>251</ele>
        <time>2017-11-22T10:03:07Z</time>
      </trkpt>
      <trkpt lat="45.94167" lon="4.81353">
        <ele>251</ele>
        <time>2017-11-22T10:03:08Z</time>
      </trkpt>
      <trkpt lat="45.94166" lon="4.81363">
        <ele>251</ele>
        <time>2017-11-22T10:03:11Z</time>
      </trkpt>
      <trkpt lat="45.94166" lon="4.81367">
        <ele>251</ele>
        <time>2017-11-22T10:03:12Z</time>
      </trkpt>
      <trkpt lat="45.94165" lon="4.81376">
        <ele>251</ele>
        <time>2017-11-22T10:03:14Z</time>
      </trkpt>
      <trkpt lat="45.94165" lon="4.8138">
        <ele>251</ele>
        <time>2017-11-22T10:03:15Z</time>
      </trkpt>
      <trkpt lat="45.94164" lon="4.8139">
        <ele>252</ele>
        <time>2017-11-22T10:03:18Z</time>
      </trkpt>
      <trkpt lat="45.94165" lon="4.81395">
        <ele>252</ele>
        <time>2017-11-22T10:03:19Z</time>
      </trkpt>
      <trkpt lat="45.94165" lon="4.81407">
        <ele>254</ele>
        <time>2017-11-22T10:03:21Z</time>
      </trkpt>
      <trkpt lat="45.94165" lon="4.81411">
        <ele>254</ele>
        <time>2017-11-22T10:03:22Z</time>
      </trkpt>
      <trkpt lat="45.94164" lon="4.81422">
        <ele>256</ele>
        <time>2017-11-22T10:03:25Z</time>
      </trkpt>
      <trkpt lat="45.94164" lon="4.81425">
        <ele>256</ele>
        <time>2017-11-22T10:03:26Z</time>
      </trkpt>
      <trkpt lat="45.94163" lon="4.81437">
        <ele>256</ele>
        <time>2017-11-22T10:03:30Z</time>
      </trkpt>
      <trkpt lat="45.94163" lon="4.81441">
        <ele>256</ele>
        <time>2017-11-22T10:03:31Z</time>
      </trkpt>
      <trkpt lat="45.94162" lon="4.81453">
        <ele>257</ele>
        <time>2017-11-22T10:03:34Z</time>
      </trkpt>
      <trkpt lat="45.94162" lon="4.81457">
        <ele>257</ele>
        <time>2017-11-22T10:03:35Z</time>
      </trkpt>
      <trkpt lat="45.9416" lon="4.81467">
        <ele>258</ele>
        <time>2017-11-22T10:03:38Z</time>
      </trkpt>
      <trkpt lat="45.9416" lon="4.8147">
        <ele>258</ele>
        <time>2017-11-22T10:03:39Z</time>
      </trkpt>
      <trkpt lat="45.94159" lon="4.81481">
        <ele>259</ele>
        <time>2017-11-22T10:03:42Z</time>
      </trkpt>
      <trkpt lat="45.9416" lon="4.81485">
        <ele>260</ele>
        <time>2017-11-22T10:03:43Z</time>
      </trkpt>
      <trkpt lat="45.9416" lon="4.81497">
        <ele>261</ele>
        <time>2017-11-22T10:03:46Z</time>
      </trkpt>
      <trkpt lat="45.94161" lon="4.81502">
        <ele>263</ele>
        <time>2017-11-22T10:03:47Z</time>
      </trkpt>
      <trkpt lat="45.94161" lon="4.81512">
        <ele>263</ele>
        <time>2017-11-22T10:03:49Z</time>
      </trkpt>
      <trkpt lat="45.94161" lon="4.81516">
        <ele>263</ele>
        <time>2017-11-22T10:03:50Z</time>
      </trkpt>
      <trkpt lat="45.94158" lon="4.81527">
        <ele>264</ele>
        <time>2017-11-22T10:03:53Z</time>
      </trkpt>
      <trkpt lat="45.94158" lon="4.81531">
        <ele>264</ele>
        <time>2017-11-22T10:03:54Z</time>
      </trkpt>
      <trkpt lat="45.94158" lon="4.81541">
        <ele>264</ele>
        <time>2017-11-22T10:03:57Z</time>
      </trkpt>
      <trkpt lat="45.94158" lon="4.81545">
        <ele>264</ele>
        <time>2017-11-22T10:03:58Z</time>
      </trkpt>
      <trkpt lat="45.94159" lon="4.81556">
        <ele>265</ele>
        <time>2017-11-22T10:04:00Z</time>
      </trkpt>
      <trkpt lat="45.9416" lon="4.8156">
        <ele>265</ele>
        <time>2017-11-22T10:04:01Z</time>
      </trkpt>
      <trkpt lat="45.94162" lon="4.81568">
        <ele>265</ele>
        <time>2017-11-22T10:04:03Z</time>
      </trkpt>
      <trkpt lat="45.94163" lon="4.81572">
        <ele>266</ele>
        <time>2017-11-22T10:04:04Z</time>
      </trkpt>
      <trkpt lat="45.94164" lon="4.81582">
        <ele>267</ele>
        <time>2017-11-22T10:04:06Z</time>
      </trkpt>
      <trkpt lat="45.94164" lon="4.81586">
        <ele>267</ele>
        <time>2017-11-22T10:04:07Z</time>
      </trkpt>
      <trkpt lat="45.94165" lon="4.81597">
        <ele>267</ele>
        <time>2017-11-22T10:04:10Z</time>
      </trkpt>
      <trkpt lat="45.94166" lon="4.816">
        <ele>267</ele>
        <time>2017-11-22T10:04:11Z</time>
      </trkpt>
      <trkpt lat="45.94167" lon="4.81613">
        <ele>267</ele>
        <time>2017-11-22T10:04:14Z</time>
      </trkpt>
      <trkpt lat="45.94168" lon="4.81617">
        <ele>267</ele>
        <time>2017-11-22T10:04:15Z</time>
      </trkpt>
      <trkpt lat="45.94169" lon="4.81626">
        <ele>267</ele>
        <time>2017-11-22T10:04:17Z</time>
      </trkpt>
      <trkpt lat="45.9417" lon="4.8163">
        <ele>267</ele>
        <time>2017-11-22T10:04:18Z</time>
      </trkpt>
      <trkpt lat="45.94171" lon="4.81639">
        <ele>268</ele>
        <time>2017-11-22T10:04:20Z</time>
      </trkpt>
      <trkpt lat="45.94172" lon="4.81644">
        <ele>268</ele>
        <time>2017-11-22T10:04:21Z</time>
      </trkpt>
      <trkpt lat="45.94174" lon="4.81653">
        <ele>268</ele>
        <time>2017-11-22T10:04:23Z</time>
      </trkpt>
      <trkpt lat="45.94175" lon="4.81658">
        <ele>268</ele>
        <time>2017-11-22T10:04:24Z</time>
      </trkpt>
      <trkpt lat="45.94178" lon="4.81668">
        <ele>268</ele>
        <time>2017-11-22T10:04:26Z</time>
      </trkpt>
      <trkpt lat="45.94179" lon="4.81673">
        <ele>268</ele>
        <time>2017-11-22T10:04:27Z</time>
      </trkpt>
      <trkpt lat="45.94181" lon="4.81683">
        <ele>267</ele>
        <time>2017-11-22T10:04:29Z</time>
      </trkpt>
      <trkpt lat="45.94182" lon="4.81687">
        <ele>267</ele>
        <time>2017-11-22T10:04:30Z</time>
      </trkpt>
      <trkpt lat="45.94185" lon="4.81696">
        <ele>267</ele>
        <time>2017-11-22T10:04:32Z</time>
      </trkpt>
      <trkpt lat="45.94186" lon="4.81701">
        <ele>267</ele>
        <time>2017-11-22T10:04:33Z</time>
      </trkpt>
      <trkpt lat="45.94188" lon="4.8171">
        <ele>267</ele>
        <time>2017-11-22T10:04:35Z</time>
      </trkpt>
      <trkpt lat="45.94189" lon="4.81715">
        <ele>267</ele>
        <time>2017-11-22T10:04:36Z</time>
      </trkpt>
      <trkpt lat="45.94189" lon="4.81725">
        <ele>267</ele>
        <time>2017-11-22T10:04:38Z</time>
      </trkpt>
      <trkpt lat="45.94188" lon="4.81731">
        <ele>267</ele>
        <time>2017-11-22T10:04:39Z</time>
      </trkpt>
      <trkpt lat="45.9419" lon="4.81742">
        <ele>267</ele>
        <time>2017-11-22T10:04:41Z</time>
      </trkpt>
      <trkpt lat="45.94191" lon="4.81747">
        <ele>267</ele>
        <time>2017-11-22T10:04:42Z</time>
      </trkpt>
      <trkpt lat="45.94195" lon="4.81756">
        <ele>266</ele>
        <time>2017-11-22T10:04:44Z</time>
      </trkpt>
      <trkpt lat="45.94197" lon="4.81761">
        <ele>266</ele>
        <time>2017-11-22T10:04:45Z</time>
      </trkpt>
      <trkpt lat="45.942" lon="4.81772">
        <ele>266</ele>
        <time>2017-11-22T10:04:47Z</time>
      </trkpt>
      <trkpt lat="45.942" lon="4.81777">
        <ele>266</ele>
        <time>2017-11-22T10:04:48Z</time>
      </trkpt>
      <trkpt lat="45.94201" lon="4.8179">
        <ele>266</ele>
        <time>2017-11-22T10:04:50Z</time>
      </trkpt>
      <trkpt lat="45.94201" lon="4.81795">
        <ele>266</ele>
        <time>2017-11-22T10:04:51Z</time>
      </trkpt>
      <trkpt lat="45.94201" lon="4.81805">
        <ele>266</ele>
        <time>2017-11-22T10:04:53Z</time>
      </trkpt>
      <trkpt lat="45.94201" lon="4.81809">
        <ele>266</ele>
        <time>2017-11-22T10:04:54Z</time>
      </trkpt>
      <trkpt lat="45.94203" lon="4.8182">
        <ele>266</ele>
        <time>2017-11-22T10:04:56Z</time>
      </trkpt>
      <trkpt lat="45.94204" lon="4.81825">
        <ele>266</ele>
        <time>2017-11-22T10:04:57Z</time>
      </trkpt>
      <trkpt lat="45.94206" lon="4.81834">
        <ele>266</ele>
        <time>2017-11-22T10:04:59Z</time>
      </trkpt>
      <trkpt lat="45.94207" lon="4.81839">
        <ele>266</ele>
        <time>2017-11-22T10:05:00Z</time>
      </trkpt>
      <trkpt lat="45.94208" lon="4.8185">
        <ele>265</ele>
        <time>2017-11-22T10:05:02Z</time>
      </trkpt>
      <trkpt lat="45.94209" lon="4.81856">
        <ele>265</ele>
        <time>2017-11-22T10:05:03Z</time>
      </trkpt>
      <trkpt lat="45.94211" lon="4.81868">
        <ele>265</ele>
        <time>2017-11-22T10:05:05Z</time>
      </trkpt>
      <trkpt lat="45.94212" lon="4.81874">
        <ele>265</ele>
        <time>2017-11-22T10:05:06Z</time>
      </trkpt>
      <trkpt lat="45.94214" lon="4.81884">
        <ele>265</ele>
        <time>2017-11-22T10:05:08Z</time>
      </trkpt>
      <trkpt lat="45.94214" lon="4.8189">
        <ele>265</ele>
        <time>2017-11-22T10:05:09Z</time>
      </trkpt>
      <trkpt lat="45.94216" lon="4.819">
        <ele>265</ele>
        <time>2017-11-22T10:05:11Z</time>
      </trkpt>
      <trkpt lat="45.94217" lon="4.81905">
        <ele>265</ele>
        <time>2017-11-22T10:05:12Z</time>
      </trkpt>
      <trkpt lat="45.94219" lon="4.81915">
        <ele>264</ele>
        <time>2017-11-22T10:05:14Z</time>
      </trkpt>
      <trkpt lat="45.9422" lon="4.8192">
        <ele>264</ele>
        <time>2017-11-22T10:05:15Z</time>
      </trkpt>
      <trkpt lat="45.94223" lon="4.81932">
        <ele>264</ele>
        <time>2017-11-22T10:05:17Z</time>
      </trkpt>
      <trkpt lat="45.94225" lon="4.81938">
        <ele>264</ele>
        <time>2017-11-22T10:05:18Z</time>
      </trkpt>
      <trkpt lat="45.94227" lon="4.8195">
        <ele>264</ele>
        <time>2017-11-22T10:05:20Z</time>
      </trkpt>
      <trkpt lat="45.94229" lon="4.81956">
        <ele>264</ele>
        <time>2017-11-22T10:05:21Z</time>
      </trkpt>
      <trkpt lat="45.9423" lon="4.81966">
        <ele>264</ele>
        <time>2017-11-22T10:05:23Z</time>
      </trkpt>
      <trkpt lat="45.94232" lon="4.81972">
        <ele>264</ele>
        <time>2017-11-22T10:05:24Z</time>
      </trkpt>
      <trkpt lat="45.94234" lon="4.81984">
        <ele>263</ele>
        <time>2017-11-22T10:05:26Z</time>
      </trkpt>
      <trkpt lat="45.94235" lon="4.81991">
        <ele>263</ele>
        <time>2017-11-22T10:05:27Z</time>
      </trkpt>
      <trkpt lat="45.94237" lon="4.82002">
        <ele>263</ele>
        <time>2017-11-22T10:05:29Z</time>
      </trkpt>
      <trkpt lat="45.94239" lon="4.82008">
        <ele>263</ele>
        <time>2017-11-22T10:05:30Z</time>
      </trkpt>
      <trkpt lat="45.94241" lon="4.82019">
        <ele>263</ele>
        <time>2017-11-22T10:05:32Z</time>
      </trkpt>
      <trkpt lat="45.94242" lon="4.82024">
        <ele>263</ele>
        <time>2017-11-22T10:05:33Z</time>
      </trkpt>
      <trkpt lat="45.94243" lon="4.82036">
        <ele>263</ele>
        <time>2017-11-22T10:05:35Z</time>
      </trkpt>
      <trkpt lat="45.94243" lon="4.8204">
        <ele>263</ele>
        <time>2017-11-22T10:05:36Z</time>
      </trkpt>
      <trkpt lat="45.94246" lon="4.82051">
        <ele>263</ele>
        <time>2017-11-22T10:05:38Z</time>
      </trkpt>
      <trkpt lat="45.94248" lon="4.82056">
        <ele>263</ele>
        <time>2017-11-22T10:05:39Z</time>
      </trkpt>
      <trkpt lat="45.94252" lon="4.82068">
        <ele>262</ele>
        <time>2017-11-22T10:05:41Z</time>
      </trkpt>
      <trkpt lat="45.94254" lon="4.82076">
        <ele>262</ele>
        <time>2017-11-22T10:05:42Z</time>
      </trkpt>
      <trkpt lat="45.94255" lon="4.82082">
        <ele>262</ele>
        <time>2017-11-22T10:05:43Z</time>
      </trkpt>
      <trkpt lat="45.94256" lon="4.82089">
        <ele>262</ele>
        <time>2017-11-22T10:05:44Z</time>
      </trkpt>
      <trkpt lat="45.94258" lon="4.82101">
        <ele>262</ele>
        <time>2017-11-22T10:05:46Z</time>
      </trkpt>
      <trkpt lat="45.94261" lon="4.82112">
        <ele>263</ele>
        <time>2017-11-22T10:05:47Z</time>
      </trkpt>
      <trkpt lat="45.94262" lon="4.8212">
        <ele>263</ele>
        <time>2017-11-22T10:05:48Z</time>
      </trkpt>
      <trkpt lat="45.94263" lon="4.82127">
        <ele>263</ele>
        <time>2017-11-22T10:05:49Z</time>
      </trkpt>
      <trkpt lat="45.94265" lon="4.82133">
        <ele>263</ele>
        <time>2017-11-22T10:05:50Z</time>
      </trkpt>
      <trkpt lat="45.94266" lon="4.82139">
        <ele>263</ele>
        <time>2017-11-22T10:05:51Z</time>
      </trkpt>
      <trkpt lat="45.94268" lon="4.82145">
        <ele>263</ele>
        <time>2017-11-22T10:05:52Z</time>
      </trkpt>
      <trkpt lat="45.94269" lon="4.82152">
        <ele>263</ele>
        <time>2017-11-22T10:05:53Z</time>
      </trkpt>
      <trkpt lat="45.9427" lon="4.82157">
        <ele>263</ele>
        <time>2017-11-22T10:05:54Z</time>
      </trkpt>
      <trkpt lat="45.94272" lon="4.82165">
        <ele>263</ele>
        <time>2017-11-22T10:05:55Z</time>
      </trkpt>
      <trkpt lat="45.94274" lon="4.82171">
        <ele>264</ele>
        <time>2017-11-22T10:05:56Z</time>
      </trkpt>
      <trkpt lat="45.94275" lon="4.82179">
        <ele>264</ele>
        <time>2017-11-22T10:05:57Z</time>
      </trkpt>
      <trkpt lat="45.94277" lon="4.82187">
        <ele>264</ele>
        <time>2017-11-22T10:05:58Z</time>
      </trkpt>
      <trkpt lat="45.94279" lon="4.82194">
        <ele>264</ele>
        <time>2017-11-22T10:05:59Z</time>
      </trkpt>
      <trkpt lat="45.9428" lon="4.82201">
        <ele>264</ele>
        <time>2017-11-22T10:06:00Z</time>
      </trkpt>
      <trkpt lat="45.94282" lon="4.82208">
        <ele>264</ele>
        <time>2017-11-22T10:06:01Z</time>
      </trkpt>
      <trkpt lat="45.94282" lon="4.8222">
        <ele>264</ele>
        <time>2017-11-22T10:06:03Z</time>
      </trkpt>
      <trkpt lat="45.94282" lon="4.82226">
        <ele>264</ele>
        <time>2017-11-22T10:06:04Z</time>
      </trkpt>
      <trkpt lat="45.94282" lon="4.82238">
        <ele>264</ele>
        <time>2017-11-22T10:06:06Z</time>
      </trkpt>
      <trkpt lat="45.94282" lon="4.82245">
        <ele>264</ele>
        <time>2017-11-22T10:06:07Z</time>
      </trkpt>
      <trkpt lat="45.94282" lon="4.82252">
        <ele>265</ele>
        <time>2017-11-22T10:06:08Z</time>
      </trkpt>
      <trkpt lat="45.94283" lon="4.8226">
        <ele>265</ele>
        <time>2017-11-22T10:06:09Z</time>
      </trkpt>
      <trkpt lat="45.94283" lon="4.82267">
        <ele>265</ele>
        <time>2017-11-22T10:06:10Z</time>
      </trkpt>
      <trkpt lat="45.94282" lon="4.82275">
        <ele>265</ele>
        <time>2017-11-22T10:06:11Z</time>
      </trkpt>
      <trkpt lat="45.94282" lon="4.82282">
        <ele>265</ele>
        <time>2017-11-22T10:06:12Z</time>
      </trkpt>
      <trkpt lat="45.94282" lon="4.82289">
        <ele>265</ele>
        <time>2017-11-22T10:06:13Z</time>
      </trkpt>
      <trkpt lat="45.94283" lon="4.82295">
        <ele>265</ele>
        <time>2017-11-22T10:06:14Z</time>
      </trkpt>
      <trkpt lat="45.94283" lon="4.82303">
        <ele>265</ele>
        <time>2017-11-22T10:06:15Z</time>
      </trkpt>
      <trkpt lat="45.94284" lon="4.82309">
        <ele>265</ele>
        <time>2017-11-22T10:06:16Z</time>
      </trkpt>
      <trkpt lat="45.94284" lon="4.82316">
        <ele>265</ele>
        <time>2017-11-22T10:06:17Z</time>
      </trkpt>
      <trkpt lat="45.94284" lon="4.82324">
        <ele>265</ele>
        <time>2017-11-22T10:06:18Z</time>
      </trkpt>
      <trkpt lat="45.94285" lon="4.82331">
        <ele>265</ele>
        <time>2017-11-22T10:06:19Z</time>
      </trkpt>
      <trkpt lat="45.94285" lon="4.82337">
        <ele>264</ele>
        <time>2017-11-22T10:06:20Z</time>
      </trkpt>
      <trkpt lat="45.94285" lon="4.82344">
        <ele>264</ele>
        <time>2017-11-22T10:06:21Z</time>
      </trkpt>
      <trkpt lat="45.94286" lon="4.82357">
        <ele>264</ele>
        <time>2017-11-22T10:06:23Z</time>
      </trkpt>
      <trkpt lat="45.94286" lon="4.82363">
        <ele>264</ele>
        <time>2017-11-22T10:06:24Z</time>
      </trkpt>
      <trkpt lat="45.94286" lon="4.82375">
        <ele>264</ele>
        <time>2017-11-22T10:06:26Z</time>
      </trkpt>
      <trkpt lat="45.94286" lon="4.82381">
        <ele>264</ele>
        <time>2017-11-22T10:06:27Z</time>
      </trkpt>
      <trkpt lat="45.94286" lon="4.82388">
        <ele>264</ele>
        <time>2017-11-22T10:06:28Z</time>
      </trkpt>
      <trkpt lat="45.94287" lon="4.82395">
        <ele>264</ele>
        <time>2017-11-22T10:06:29Z</time>
      </trkpt>
      <trkpt lat="45.94287" lon="4.82401">
        <ele>264</ele>
        <time>2017-11-22T10:06:30Z</time>
      </trkpt>
      <trkpt lat="45.94288" lon="4.82408">
        <ele>264</ele>
        <time>2017-11-22T10:06:31Z</time>
      </trkpt>
      <trkpt lat="45.94288" lon="4.82414">
        <ele>264</ele>
        <time>2017-11-22T10:06:32Z</time>
      </trkpt>
      <trkpt lat="45.94288" lon="4.82421">
        <ele>264</ele>
        <time>2017-11-22T10:06:33Z</time>
      </trkpt>
      <trkpt lat="45.94288" lon="4.82428">
        <ele>264</ele>
        <time>2017-11-22T10:06:34Z</time>
      </trkpt>
      <trkpt lat="45.94289" lon="4.82435">
        <ele>264</ele>
        <time>2017-11-22T10:06:35Z</time>
      </trkpt>
      <trkpt lat="45.94289" lon="4.82447">
        <ele>264</ele>
        <time>2017-11-22T10:06:37Z</time>
      </trkpt>
      <trkpt lat="45.94289" lon="4.82455">
        <ele>264</ele>
        <time>2017-11-22T10:06:38Z</time>
      </trkpt>
      <trkpt lat="45.9429" lon="4.82462">
        <ele>264</ele>
        <time>2017-11-22T10:06:39Z</time>
      </trkpt>
      <trkpt lat="45.9429" lon="4.82468">
        <ele>264</ele>
        <time>2017-11-22T10:06:40Z</time>
      </trkpt>
      <trkpt lat="45.9429" lon="4.82481">
        <ele>264</ele>
        <time>2017-11-22T10:06:42Z</time>
      </trkpt>
      <trkpt lat="45.94289" lon="4.82486">
        <ele>264</ele>
        <time>2017-11-22T10:06:43Z</time>
      </trkpt>
      <trkpt lat="45.94288" lon="4.82499">
        <ele>264</ele>
        <time>2017-11-22T10:06:45Z</time>
      </trkpt>
      <trkpt lat="45.94288" lon="4.82507">
        <ele>264</ele>
        <time>2017-11-22T10:06:46Z</time>
      </trkpt>
      <trkpt lat="45.94289" lon="4.82519">
        <ele>264</ele>
        <time>2017-11-22T10:06:48Z</time>
      </trkpt>
      <trkpt lat="45.9429" lon="4.82525">
        <ele>264</ele>
        <time>2017-11-22T10:06:49Z</time>
      </trkpt>
      <trkpt lat="45.94291" lon="4.82535">
        <ele>264</ele>
        <time>2017-11-22T10:06:51Z</time>
      </trkpt>
      <trkpt lat="45.9429" lon="4.82542">
        <ele>264</ele>
        <time>2017-11-22T10:06:52Z</time>
      </trkpt>
      <trkpt lat="45.94291" lon="4.82553">
        <ele>264</ele>
        <time>2017-11-22T10:06:54Z</time>
      </trkpt>
      <trkpt lat="45.94291" lon="4.82559">
        <ele>264</ele>
        <time>2017-11-22T10:06:55Z</time>
      </trkpt>
      <trkpt lat="45.94291" lon="4.82571">
        <ele>265</ele>
        <time>2017-11-22T10:06:57Z</time>
      </trkpt>
      <trkpt lat="45.94291" lon="4.82578">
        <ele>265</ele>
        <time>2017-11-22T10:06:58Z</time>
      </trkpt>
      <trkpt lat="45.9429" lon="4.82585">
        <ele>265</ele>
        <time>2017-11-22T10:06:59Z</time>
      </trkpt>
      <trkpt lat="45.9429" lon="4.82591">
        <ele>265</ele>
        <time>2017-11-22T10:07:00Z</time>
      </trkpt>
      <trkpt lat="45.9429" lon="4.82598">
        <ele>265</ele>
        <time>2017-11-22T10:07:01Z</time>
      </trkpt>
      <trkpt lat="45.9429" lon="4.82605">
        <ele>265</ele>
        <time>2017-11-22T10:07:02Z</time>
      </trkpt>
      <trkpt lat="45.9429" lon="4.82612">
        <ele>265</ele>
        <time>2017-11-22T10:07:03Z</time>
      </trkpt>
      <trkpt lat="45.94291" lon="4.82619">
        <ele>265</ele>
        <time>2017-11-22T10:07:04Z</time>
      </trkpt>
      <trkpt lat="45.94291" lon="4.82625">
        <ele>265</ele>
        <time>2017-11-22T10:07:05Z</time>
      </trkpt>
      <trkpt lat="45.94291" lon="4.82633">
        <ele>265</ele>
        <time>2017-11-22T10:07:06Z</time>
      </trkpt>
      <trkpt lat="45.94291" lon="4.82645">
        <ele>265</ele>
        <time>2017-11-22T10:07:08Z</time>
      </trkpt>
      <trkpt lat="45.94291" lon="4.82651">
        <ele>265</ele>
        <time>2017-11-22T10:07:09Z</time>
      </trkpt>
      <trkpt lat="45.94291" lon="4.82661">
        <ele>265</ele>
        <time>2017-11-22T10:07:11Z</time>
      </trkpt>
      <trkpt lat="45.94291" lon="4.82668">
        <ele>265</ele>
        <time>2017-11-22T10:07:12Z</time>
      </trkpt>
      <trkpt lat="45.94291" lon="4.8268">
        <ele>265</ele>
        <time>2017-11-22T10:07:14Z</time>
      </trkpt>
      <trkpt lat="45.9429" lon="4.82686">
        <ele>265</ele>
        <time>2017-11-22T10:07:15Z</time>
      </trkpt>
      <trkpt lat="45.9429" lon="4.82692">
        <ele>265</ele>
        <time>2017-11-22T10:07:16Z</time>
      </trkpt>
      <trkpt lat="45.9429" lon="4.827">
        <ele>265</ele>
        <time>2017-11-22T10:07:17Z</time>
      </trkpt>
      <trkpt lat="45.9429" lon="4.82707">
        <ele>265</ele>
        <time>2017-11-22T10:07:18Z</time>
      </trkpt>
      <trkpt lat="45.9429" lon="4.82714">
        <ele>265</ele>
        <time>2017-11-22T10:07:19Z</time>
      </trkpt>
      <trkpt lat="45.9429" lon="4.82721">
        <ele>265</ele>
        <time>2017-11-22T10:07:20Z</time>
      </trkpt>
      <trkpt lat="45.94291" lon="4.8273">
        <ele>265</ele>
        <time>2017-11-22T10:07:21Z</time>
      </trkpt>
      <trkpt lat="45.94291" lon="4.82738">
        <ele>265</ele>
        <time>2017-11-22T10:07:22Z</time>
      </trkpt>
      <trkpt lat="45.94291" lon="4.82745">
        <ele>265</ele>
        <time>2017-11-22T10:07:23Z</time>
      </trkpt>
      <trkpt lat="45.94291" lon="4.82754">
        <ele>265</ele>
        <time>2017-11-22T10:07:24Z</time>
      </trkpt>
      <trkpt lat="45.9429" lon="4.82762">
        <ele>265</ele>
        <time>2017-11-22T10:07:25Z</time>
      </trkpt>
      <trkpt lat="45.94289" lon="4.8277">
        <ele>265</ele>
        <time>2017-11-22T10:07:26Z</time>
      </trkpt>
      <trkpt lat="45.94289" lon="4.82777">
        <ele>265</ele>
        <time>2017-11-22T10:07:27Z</time>
      </trkpt>
      <trkpt lat="45.94289" lon="4.82784">
        <ele>265</ele>
        <time>2017-11-22T10:07:28Z</time>
      </trkpt>
      <trkpt lat="45.94289" lon="4.8279">
        <ele>265</ele>
        <time>2017-11-22T10:07:29Z</time>
      </trkpt>
      <trkpt lat="45.94288" lon="4.82801">
        <ele>265</ele>
        <time>2017-11-22T10:07:31Z</time>
      </trkpt>
      <trkpt lat="45.94288" lon="4.82807">
        <ele>265</ele>
        <time>2017-11-22T10:07:32Z</time>
      </trkpt>
      <trkpt lat="45.94288" lon="4.82818">
        <ele>265</ele>
        <time>2017-11-22T10:07:34Z</time>
      </trkpt>
      <trkpt lat="45.94288" lon="4.82826">
        <ele>265</ele>
        <time>2017-11-22T10:07:35Z</time>
      </trkpt>
      <trkpt lat="45.94288" lon="4.82832">
        <ele>265</ele>
        <time>2017-11-22T10:07:36Z</time>
      </trkpt>
      <trkpt lat="45.94288" lon="4.82839">
        <ele>265</ele>
        <time>2017-11-22T10:07:37Z</time>
      </trkpt>
      <trkpt lat="45.94287" lon="4.82852">
        <ele>265</ele>
        <time>2017-11-22T10:07:39Z</time>
      </trkpt>
      <trkpt lat="45.94287" lon="4.82858">
        <ele>265</ele>
        <time>2017-11-22T10:07:40Z</time>
      </trkpt>
      <trkpt lat="45.94287" lon="4.82869">
        <ele>265</ele>
        <time>2017-11-22T10:07:42Z</time>
      </trkpt>
      <trkpt lat="45.94286" lon="4.82875">
        <ele>265</ele>
        <time>2017-11-22T10:07:43Z</time>
      </trkpt>
      <trkpt lat="45.94286" lon="4.82887">
        <ele>265</ele>
        <time>2017-11-22T10:07:45Z</time>
      </trkpt>
      <trkpt lat="45.94285" lon="4.82893">
        <ele>265</ele>
        <time>2017-11-22T10:07:46Z</time>
      </trkpt>
      <trkpt lat="45.94284" lon="4.829">
        <ele>265</ele>
        <time>2017-11-22T10:07:47Z</time>
      </trkpt>
      <trkpt lat="45.94283" lon="4.82906">
        <ele>265</ele>
        <time>2017-11-22T10:07:48Z</time>
      </trkpt>
      <trkpt lat="45.94281" lon="4.82919">
        <ele>265</ele>
        <time>2017-11-22T10:07:50Z</time>
      </trkpt>
      <trkpt lat="45.94281" lon="4.82925">
        <ele>265</ele>
        <time>2017-11-22T10:07:51Z</time>
      </trkpt>
      <trkpt lat="45.94281" lon="4.82932">
        <ele>265</ele>
        <time>2017-11-22T10:07:52Z</time>
      </trkpt>
      <trkpt lat="45.9428" lon="4.82939">
        <ele>265</ele>
        <time>2017-11-22T10:07:53Z</time>
      </trkpt>
      <trkpt lat="45.9428" lon="4.82951">
        <ele>265</ele>
        <time>2017-11-22T10:07:55Z</time>
      </trkpt>
      <trkpt lat="45.94282" lon="4.82957">
        <ele>265</ele>
        <time>2017-11-22T10:07:56Z</time>
      </trkpt>
      <trkpt lat="45.94284" lon="4.82963">
        <ele>265</ele>
        <time>2017-11-22T10:07:57Z</time>
      </trkpt>
      <trkpt lat="45.94286" lon="4.82971">
        <ele>265</ele>
        <time>2017-11-22T10:07:58Z</time>
      </trkpt>
      <trkpt lat="45.94288" lon="4.82978">
        <ele>265</ele>
        <time>2017-11-22T10:07:59Z</time>
      </trkpt>
      <trkpt lat="45.9429" lon="4.82984">
        <ele>265</ele>
        <time>2017-11-22T10:08:00Z</time>
      </trkpt>
      <trkpt lat="45.94291" lon="4.8299">
        <ele>265</ele>
        <time>2017-11-22T10:08:01Z</time>
      </trkpt>
      <trkpt lat="45.94292" lon="4.82997">
        <ele>265</ele>
        <time>2017-11-22T10:08:02Z</time>
      </trkpt>
      <trkpt lat="45.94292" lon="4.83004">
        <ele>266</ele>
        <time>2017-11-22T10:08:03Z</time>
      </trkpt>
      <trkpt lat="45.94294" lon="4.83011">
        <ele>266</ele>
        <time>2017-11-22T10:08:04Z</time>
      </trkpt>
      <trkpt lat="45.94296" lon="4.83023">
        <ele>266</ele>
        <time>2017-11-22T10:08:06Z</time>
      </trkpt>
      <trkpt lat="45.94298" lon="4.83029">
        <ele>266</ele>
        <time>2017-11-22T10:08:07Z</time>
      </trkpt>
      <trkpt lat="45.94299" lon="4.83036">
        <ele>266</ele>
        <time>2017-11-22T10:08:08Z</time>
      </trkpt>
      <trkpt lat="45.943" lon="4.83043">
        <ele>266</ele>
        <time>2017-11-22T10:08:09Z</time>
      </trkpt>
      <trkpt lat="45.94302" lon="4.8305">
        <ele>266</ele>
        <time>2017-11-22T10:08:10Z</time>
      </trkpt>
      <trkpt lat="45.94303" lon="4.83057">
        <ele>266</ele>
        <time>2017-11-22T10:08:11Z</time>
      </trkpt>
      <trkpt lat="45.94305" lon="4.83069">
        <ele>266</ele>
        <time>2017-11-22T10:08:13Z</time>
      </trkpt>
      <trkpt lat="45.94306" lon="4.83075">
        <ele>266</ele>
        <time>2017-11-22T10:08:14Z</time>
      </trkpt>
      <trkpt lat="45.94309" lon="4.83085">
        <ele>266</ele>
        <time>2017-11-22T10:08:16Z</time>
      </trkpt>
      <trkpt lat="45.9431" lon="4.83091">
        <ele>266</ele>
        <time>2017-11-22T10:08:17Z</time>
      </trkpt>
      <trkpt lat="45.94314" lon="4.83101">
        <ele>266</ele>
        <time>2017-11-22T10:08:19Z</time>
      </trkpt>
      <trkpt lat="45.94316" lon="4.83106">
        <ele>266</ele>
        <time>2017-11-22T10:08:20Z</time>
      </trkpt>
      <trkpt lat="45.94318" lon="4.83113">
        <ele>266</ele>
        <time>2017-11-22T10:08:21Z</time>
      </trkpt>
      <trkpt lat="45.9432" lon="4.83119">
        <ele>266</ele>
        <time>2017-11-22T10:08:22Z</time>
      </trkpt>
      <trkpt lat="45.94323" lon="4.83128">
        <ele>266</ele>
        <time>2017-11-22T10:08:24Z</time>
      </trkpt>
      <trkpt lat="45.94325" lon="4.83133">
        <ele>266</ele>
        <time>2017-11-22T10:08:25Z</time>
      </trkpt>
      <trkpt lat="45.94328" lon="4.83144">
        <ele>266</ele>
        <time>2017-11-22T10:08:27Z</time>
      </trkpt>
      <trkpt lat="45.9433" lon="4.8315">
        <ele>266</ele>
        <time>2017-11-22T10:08:28Z</time>
      </trkpt>
      <trkpt lat="45.94333" lon="4.83157">
        <ele>266</ele>
        <time>2017-11-22T10:08:29Z</time>
      </trkpt>
      <trkpt lat="45.94335" lon="4.83163">
        <ele>266</ele>
        <time>2017-11-22T10:08:30Z</time>
      </trkpt>
      <trkpt lat="45.94336" lon="4.8317">
        <ele>266</ele>
        <time>2017-11-22T10:08:31Z</time>
      </trkpt>
      <trkpt lat="45.94339" lon="4.83177">
        <ele>266</ele>
        <time>2017-11-22T10:08:32Z</time>
      </trkpt>
      <trkpt lat="45.94341" lon="4.83185">
        <ele>266</ele>
        <time>2017-11-22T10:08:33Z</time>
      </trkpt>
      <trkpt lat="45.94344" lon="4.83193">
        <ele>266</ele>
        <time>2017-11-22T10:08:34Z</time>
      </trkpt>
      <trkpt lat="45.94346" lon="4.83199">
        <ele>266</ele>
        <time>2017-11-22T10:08:35Z</time>
      </trkpt>
      <trkpt lat="45.94348" lon="4.83205">
        <ele>266</ele>
        <time>2017-11-22T10:08:36Z</time>
      </trkpt>
      <trkpt lat="45.94351" lon="4.83212">
        <ele>266</ele>
        <time>2017-11-22T10:08:37Z</time>
      </trkpt>
      <trkpt lat="45.94353" lon="4.83219">
        <ele>266</ele>
        <time>2017-11-22T10:08:38Z</time>
      </trkpt>
      <trkpt lat="45.94358" lon="4.8323">
        <ele>266</ele>
        <time>2017-11-22T10:08:40Z</time>
      </trkpt>
      <trkpt lat="45.94361" lon="4.83235">
        <ele>265</ele>
        <time>2017-11-22T10:08:41Z</time>
      </trkpt>
      <trkpt lat="45.94363" lon="4.83241">
        <ele>265</ele>
        <time>2017-11-22T10:08:42Z</time>
      </trkpt>
      <trkpt lat="45.94365" lon="4.83248">
        <ele>265</ele>
        <time>2017-11-22T10:08:43Z</time>
      </trkpt>
      <trkpt lat="45.94367" lon="4.83256">
        <ele>265</ele>
        <time>2017-11-22T10:08:44Z</time>
      </trkpt>
      <trkpt lat="45.9437" lon="4.83263">
        <ele>264</ele>
        <time>2017-11-22T10:08:45Z</time>
      </trkpt>
      <trkpt lat="45.94372" lon="4.8327">
        <ele>264</ele>
        <time>2017-11-22T10:08:46Z</time>
      </trkpt>
      <trkpt lat="45.94374" lon="4.83276">
        <ele>264</ele>
        <time>2017-11-22T10:08:47Z</time>
      </trkpt>
      <trkpt lat="45.94377" lon="4.83282">
        <ele>264</ele>
        <time>2017-11-22T10:08:48Z</time>
      </trkpt>
      <trkpt lat="45.9438" lon="4.83288">
        <ele>264</ele>
        <time>2017-11-22T10:08:49Z</time>
      </trkpt>
      <trkpt lat="45.94382" lon="4.83294">
        <ele>264</ele>
        <time>2017-11-22T10:08:50Z</time>
      </trkpt>
      <trkpt lat="45.94385" lon="4.833">
        <ele>264</ele>
        <time>2017-11-22T10:08:51Z</time>
      </trkpt>
      <trkpt lat="45.94387" lon="4.83307">
        <ele>264</ele>
        <time>2017-11-22T10:08:52Z</time>
      </trkpt>
      <trkpt lat="45.9439" lon="4.83313">
        <ele>264</ele>
        <time>2017-11-22T10:08:53Z</time>
      </trkpt>
      <trkpt lat="45.94393" lon="4.83319">
        <ele>264</ele>
        <time>2017-11-22T10:08:54Z</time>
      </trkpt>
      <trkpt lat="45.94395" lon="4.83326">
        <ele>264</ele>
        <time>2017-11-22T10:08:55Z</time>
      </trkpt>
      <trkpt lat="45.94397" lon="4.83332">
        <ele>264</ele>
        <time>2017-11-22T10:08:56Z</time>
      </trkpt>
      <trkpt lat="45.94399" lon="4.8334">
        <ele>263</ele>
        <time>2017-11-22T10:08:57Z</time>
      </trkpt>
      <trkpt lat="45.94402" lon="4.83347">
        <ele>263</ele>
        <time>2017-11-22T10:08:58Z</time>
      </trkpt>
      <trkpt lat="45.94405" lon="4.83354">
        <ele>263</ele>
        <time>2017-11-22T10:08:59Z</time>
      </trkpt>
      <trkpt lat="45.94408" lon="4.8336">
        <ele>264</ele>
        <time>2017-11-22T10:09:00Z</time>
      </trkpt>
      <trkpt lat="45.94412" lon="4.83368">
        <ele>264</ele>
        <time>2017-11-22T10:09:01Z</time>
      </trkpt>
      <trkpt lat="45.94415" lon="4.83376">
        <ele>264</ele>
        <time>2017-11-22T10:09:02Z</time>
      </trkpt>
      <trkpt lat="45.94418" lon="4.83383">
        <ele>264</ele>
        <time>2017-11-22T10:09:03Z</time>
      </trkpt>
      <trkpt lat="45.94421" lon="4.8339">
        <ele>264</ele>
        <time>2017-11-22T10:09:04Z</time>
      </trkpt>
      <trkpt lat="45.94425" lon="4.83398">
        <ele>264</ele>
        <time>2017-11-22T10:09:05Z</time>
      </trkpt>
      <trkpt lat="45.94428" lon="4.83405">
        <ele>264</ele>
        <time>2017-11-22T10:09:06Z</time>
      </trkpt>
      <trkpt lat="45.94431" lon="4.83411">
        <ele>264</ele>
        <time>2017-11-22T10:09:07Z</time>
      </trkpt>
      <trkpt lat="45.94434" lon="4.83419">
        <ele>264</ele>
        <time>2017-11-22T10:09:08Z</time>
      </trkpt>
      <trkpt lat="45.94436" lon="4.83425">
        <ele>264</ele>
        <time>2017-11-22T10:09:09Z</time>
      </trkpt>
      <trkpt lat="45.94439" lon="4.83431">
        <ele>264</ele>
        <time>2017-11-22T10:09:10Z</time>
      </trkpt>
      <trkpt lat="45.94442" lon="4.83437">
        <ele>263</ele>
        <time>2017-11-22T10:09:11Z</time>
      </trkpt>
      <trkpt lat="45.94445" lon="4.83442">
        <ele>263</ele>
        <time>2017-11-22T10:09:12Z</time>
      </trkpt>
      <trkpt lat="45.94448" lon="4.83446">
        <ele>263</ele>
        <time>2017-11-22T10:09:13Z</time>
      </trkpt>
      <trkpt lat="45.94452" lon="4.83452">
        <ele>263</ele>
        <time>2017-11-22T10:09:14Z</time>
      </trkpt>
      <trkpt lat="45.94453" lon="4.83457">
        <ele>263</ele>
        <time>2017-11-22T10:09:15Z</time>
      </trkpt>
      <trkpt lat="45.94457" lon="4.83464">
        <ele>263</ele>
        <time>2017-11-22T10:09:16Z</time>
      </trkpt>
      <trkpt lat="45.9446" lon="4.83469">
        <ele>263</ele>
        <time>2017-11-22T10:09:17Z</time>
      </trkpt>
      <trkpt lat="45.94463" lon="4.83474">
        <ele>263</ele>
        <time>2017-11-22T10:09:18Z</time>
      </trkpt>
      <trkpt lat="45.94467" lon="4.8348">
        <ele>263</ele>
        <time>2017-11-22T10:09:19Z</time>
      </trkpt>
      <trkpt lat="45.94471" lon="4.83487">
        <ele>263</ele>
        <time>2017-11-22T10:09:20Z</time>
      </trkpt>
      <trkpt lat="45.94475" lon="4.83493">
        <ele>263</ele>
        <time>2017-11-22T10:09:21Z</time>
      </trkpt>
      <trkpt lat="45.94479" lon="4.835">
        <ele>263</ele>
        <time>2017-11-22T10:09:22Z</time>
      </trkpt>
      <trkpt lat="45.94483" lon="4.83506">
        <ele>262</ele>
        <time>2017-11-22T10:09:23Z</time>
      </trkpt>
      <trkpt lat="45.94487" lon="4.83512">
        <ele>262</ele>
        <time>2017-11-22T10:09:24Z</time>
      </trkpt>
      <trkpt lat="45.94491" lon="4.83517">
        <ele>262</ele>
        <time>2017-11-22T10:09:25Z</time>
      </trkpt>
      <trkpt lat="45.94494" lon="4.83523">
        <ele>262</ele>
        <time>2017-11-22T10:09:26Z</time>
      </trkpt>
      <trkpt lat="45.94497" lon="4.83529">
        <ele>262</ele>
        <time>2017-11-22T10:09:27Z</time>
      </trkpt>
      <trkpt lat="45.94501" lon="4.83535">
        <ele>262</ele>
        <time>2017-11-22T10:09:28Z</time>
      </trkpt>
      <trkpt lat="45.94504" lon="4.8354">
        <ele>262</ele>
        <time>2017-11-22T10:09:29Z</time>
      </trkpt>
      <trkpt lat="45.94507" lon="4.83545">
        <ele>261</ele>
        <time>2017-11-22T10:09:30Z</time>
      </trkpt>
      <trkpt lat="45.94511" lon="4.83551">
        <ele>261</ele>
        <time>2017-11-22T10:09:31Z</time>
      </trkpt>
      <trkpt lat="45.94514" lon="4.83556">
        <ele>261</ele>
        <time>2017-11-22T10:09:32Z</time>
      </trkpt>
      <trkpt lat="45.94517" lon="4.83561">
        <ele>261</ele>
        <time>2017-11-22T10:09:33Z</time>
      </trkpt>
      <trkpt lat="45.94521" lon="4.83567">
        <ele>261</ele>
        <time>2017-11-22T10:09:34Z</time>
      </trkpt>
      <trkpt lat="45.94525" lon="4.83573">
        <ele>261</ele>
        <time>2017-11-22T10:09:35Z</time>
      </trkpt>
      <trkpt lat="45.94528" lon="4.83578">
        <ele>261</ele>
        <time>2017-11-22T10:09:36Z</time>
      </trkpt>
      <trkpt lat="45.94533" lon="4.83583">
        <ele>261</ele>
        <time>2017-11-22T10:09:37Z</time>
      </trkpt>
      <trkpt lat="45.94537" lon="4.8359">
        <ele>261</ele>
        <time>2017-11-22T10:09:38Z</time>
      </trkpt>
      <trkpt lat="45.94541" lon="4.83595">
        <ele>261</ele>
        <time>2017-11-22T10:09:39Z</time>
      </trkpt>
      <trkpt lat="45.94545" lon="4.836">
        <ele>261</ele>
        <time>2017-11-22T10:09:40Z</time>
      </trkpt>
      <trkpt lat="45.94549" lon="4.83606">
        <ele>261</ele>
        <time>2017-11-22T10:09:41Z</time>
      </trkpt>
      <trkpt lat="45.94554" lon="4.83611">
        <ele>261</ele>
        <time>2017-11-22T10:09:42Z</time>
      </trkpt>
      <trkpt lat="45.94559" lon="4.83616">
        <ele>261</ele>
        <time>2017-11-22T10:09:43Z</time>
      </trkpt>
      <trkpt lat="45.94564" lon="4.8362">
        <ele>261</ele>
        <time>2017-11-22T10:09:44Z</time>
      </trkpt>
      <trkpt lat="45.94569" lon="4.83624">
        <ele>261</ele>
        <time>2017-11-22T10:09:45Z</time>
      </trkpt>
      <trkpt lat="45.94573" lon="4.83629">
        <ele>261</ele>
        <time>2017-11-22T10:09:46Z</time>
      </trkpt>
      <trkpt lat="45.94578" lon="4.83633">
        <ele>261</ele>
        <time>2017-11-22T10:09:47Z</time>
      </trkpt>
      <trkpt lat="45.94582" lon="4.83638">
        <ele>261</ele>
        <time>2017-11-22T10:09:48Z</time>
      </trkpt>
      <trkpt lat="45.94586" lon="4.83642">
        <ele>260</ele>
        <time>2017-11-22T10:09:49Z</time>
      </trkpt>
      <trkpt lat="45.94591" lon="4.83648">
        <ele>260</ele>
        <time>2017-11-22T10:09:50Z</time>
      </trkpt>
      <trkpt lat="45.94596" lon="4.83652">
        <ele>260</ele>
        <time>2017-11-22T10:09:51Z</time>
      </trkpt>
      <trkpt lat="45.94601" lon="4.83656">
        <ele>260</ele>
        <time>2017-11-22T10:09:52Z</time>
      </trkpt>
      <trkpt lat="45.94605" lon="4.83661">
        <ele>260</ele>
        <time>2017-11-22T10:09:53Z</time>
      </trkpt>
      <trkpt lat="45.94609" lon="4.83665">
        <ele>260</ele>
        <time>2017-11-22T10:09:54Z</time>
      </trkpt>
      <trkpt lat="45.94613" lon="4.83669">
        <ele>261</ele>
        <time>2017-11-22T10:09:55Z</time>
      </trkpt>
      <trkpt lat="45.94618" lon="4.83673">
        <ele>261</ele>
        <time>2017-11-22T10:09:56Z</time>
      </trkpt>
      <trkpt lat="45.94622" lon="4.83676">
        <ele>261</ele>
        <time>2017-11-22T10:09:57Z</time>
      </trkpt>
      <trkpt lat="45.94626" lon="4.8368">
        <ele>261</ele>
        <time>2017-11-22T10:09:58Z</time>
      </trkpt>
      <trkpt lat="45.94631" lon="4.83684">
        <ele>261</ele>
        <time>2017-11-22T10:09:59Z</time>
      </trkpt>
      <trkpt lat="45.94636" lon="4.83689">
        <ele>261</ele>
        <time>2017-11-22T10:10:00Z</time>
      </trkpt>
      <trkpt lat="45.94641" lon="4.83694">
        <ele>261</ele>
        <time>2017-11-22T10:10:01Z</time>
      </trkpt>
      <trkpt lat="45.94646" lon="4.83699">
        <ele>261</ele>
        <time>2017-11-22T10:10:02Z</time>
      </trkpt>
      <trkpt lat="45.94651" lon="4.83704">
        <ele>261</ele>
        <time>2017-11-22T10:10:03Z</time>
      </trkpt>
      <trkpt lat="45.94656" lon="4.83709">
        <ele>261</ele>
        <time>2017-11-22T10:10:04Z</time>
      </trkpt>
      <trkpt lat="45.94661" lon="4.83714">
        <ele>261</ele>
        <time>2017-11-22T10:10:05Z</time>
      </trkpt>
      <trkpt lat="45.94666" lon="4.8372">
        <ele>261</ele>
        <time>2017-11-22T10:10:06Z</time>
      </trkpt>
      <trkpt lat="45.9467" lon="4.83724">
        <ele>261</ele>
        <time>2017-11-22T10:10:07Z</time>
      </trkpt>
      <trkpt lat="45.94675" lon="4.83728">
        <ele>261</ele>
        <time>2017-11-22T10:10:08Z</time>
      </trkpt>
      <trkpt lat="45.94679" lon="4.83732">
        <ele>262</ele>
        <time>2017-11-22T10:10:09Z</time>
      </trkpt>
      <trkpt lat="45.94684" lon="4.83736">
        <ele>262</ele>
        <time>2017-11-22T10:10:10Z</time>
      </trkpt>
      <trkpt lat="45.94688" lon="4.8374">
        <ele>262</ele>
        <time>2017-11-22T10:10:11Z</time>
      </trkpt>
      <trkpt lat="45.94692" lon="4.83744">
        <ele>262</ele>
        <time>2017-11-22T10:10:12Z</time>
      </trkpt>
      <trkpt lat="45.94695" lon="4.83748">
        <ele>262</ele>
        <time>2017-11-22T10:10:13Z</time>
      </trkpt>
      <trkpt lat="45.94699" lon="4.83753">
        <ele>263</ele>
        <time>2017-11-22T10:10:14Z</time>
      </trkpt>
      <trkpt lat="45.94703" lon="4.83759">
        <ele>263</ele>
        <time>2017-11-22T10:10:15Z</time>
      </trkpt>
      <trkpt lat="45.94707" lon="4.83763">
        <ele>263</ele>
        <time>2017-11-22T10:10:16Z</time>
      </trkpt>
      <trkpt lat="45.94712" lon="4.83768">
        <ele>263</ele>
        <time>2017-11-22T10:10:17Z</time>
      </trkpt>
      <trkpt lat="45.94716" lon="4.83772">
        <ele>263</ele>
        <time>2017-11-22T10:10:18Z</time>
      </trkpt>
      <trkpt lat="45.9472" lon="4.83778">
        <ele>263</ele>
        <time>2017-11-22T10:10:19Z</time>
      </trkpt>
      <trkpt lat="45.94724" lon="4.83783">
        <ele>263</ele>
        <time>2017-11-22T10:10:20Z</time>
      </trkpt>
      <trkpt lat="45.94728" lon="4.83787">
        <ele>263</ele>
        <time>2017-11-22T10:10:21Z</time>
      </trkpt>
      <trkpt lat="45.94732" lon="4.83791">
        <ele>263</ele>
        <time>2017-11-22T10:10:22Z</time>
      </trkpt>
      <trkpt lat="45.94736" lon="4.83796">
        <ele>264</ele>
        <time>2017-11-22T10:10:23Z</time>
      </trkpt>
      <trkpt lat="45.9474" lon="4.83802">
        <ele>264</ele>
        <time>2017-11-22T10:10:24Z</time>
      </trkpt>
      <trkpt lat="45.94744" lon="4.83806">
        <ele>264</ele>
        <time>2017-11-22T10:10:25Z</time>
      </trkpt>
      <trkpt lat="45.94748" lon="4.83811">
        <ele>264</ele>
        <time>2017-11-22T10:10:26Z</time>
      </trkpt>
      <trkpt lat="45.94751" lon="4.83816">
        <ele>264</ele>
        <time>2017-11-22T10:10:27Z</time>
      </trkpt>
      <trkpt lat="45.94754" lon="4.8382">
        <ele>264</ele>
        <time>2017-11-22T10:10:28Z</time>
      </trkpt>
      <trkpt lat="45.94757" lon="4.83825">
        <ele>264</ele>
        <time>2017-11-22T10:10:29Z</time>
      </trkpt>
      <trkpt lat="45.94764" lon="4.83833">
        <ele>264</ele>
        <time>2017-11-22T10:10:31Z</time>
      </trkpt>
      <trkpt lat="45.94768" lon="4.83837">
        <ele>265</ele>
        <time>2017-11-22T10:10:32Z</time>
      </trkpt>
      <trkpt lat="45.94775" lon="4.83846">
        <ele>265</ele>
        <time>2017-11-22T10:10:34Z</time>
      </trkpt>
      <trkpt lat="45.94777" lon="4.83849">
        <ele>265</ele>
        <time>2017-11-22T10:10:35Z</time>
      </trkpt>
      <trkpt lat="45.94781" lon="4.83858">
        <ele>265</ele>
        <time>2017-11-22T10:10:37Z</time>
      </trkpt>
      <trkpt lat="45.94783" lon="4.83863">
        <ele>265</ele>
        <time>2017-11-22T10:10:38Z</time>
      </trkpt>
      <trkpt lat="45.94788" lon="4.83871">
        <ele>265</ele>
        <time>2017-11-22T10:10:40Z</time>
      </trkpt>
      <trkpt lat="45.9479" lon="4.83875">
        <ele>266</ele>
        <time>2017-11-22T10:10:41Z</time>
      </trkpt>
      <trkpt lat="45.94795" lon="4.83884">
        <ele>266</ele>
        <time>2017-11-22T10:10:43Z</time>
      </trkpt>
      <trkpt lat="45.94798" lon="4.83888">
        <ele>266</ele>
        <time>2017-11-22T10:10:44Z</time>
      </trkpt>
      <trkpt lat="45.94802" lon="4.83897">
        <ele>266</ele>
        <time>2017-11-22T10:10:46Z</time>
      </trkpt>
      <trkpt lat="45.94805" lon="4.83901">
        <ele>265</ele>
        <time>2017-11-22T10:10:47Z</time>
      </trkpt>
      <trkpt lat="45.9481" lon="4.83911">
        <ele>265</ele>
        <time>2017-11-22T10:10:49Z</time>
      </trkpt>
      <trkpt lat="45.94813" lon="4.83916">
        <ele>265</ele>
        <time>2017-11-22T10:10:50Z</time>
      </trkpt>
      <trkpt lat="45.94818" lon="4.83926">
        <ele>266</ele>
        <time>2017-11-22T10:10:52Z</time>
      </trkpt>
      <trkpt lat="45.9482" lon="4.83931">
        <ele>266</ele>
        <time>2017-11-22T10:10:53Z</time>
      </trkpt>
      <trkpt lat="45.94825" lon="4.8394">
        <ele>266</ele>
        <time>2017-11-22T10:10:55Z</time>
      </trkpt>
      <trkpt lat="45.94828" lon="4.83944">
        <ele>266</ele>
        <time>2017-11-22T10:10:56Z</time>
      </trkpt>
      <trkpt lat="45.94832" lon="4.83953">
        <ele>266</ele>
        <time>2017-11-22T10:10:58Z</time>
      </trkpt>
      <trkpt lat="45.94835" lon="4.83958">
        <ele>265</ele>
        <time>2017-11-22T10:10:59Z</time>
      </trkpt>
      <trkpt lat="45.9484" lon="4.83968">
        <ele>265</ele>
        <time>2017-11-22T10:11:01Z</time>
      </trkpt>
      <trkpt lat="45.94842" lon="4.83973">
        <ele>265</ele>
        <time>2017-11-22T10:11:02Z</time>
      </trkpt>
      <trkpt lat="45.94843" lon="4.83979">
        <ele>265</ele>
        <time>2017-11-22T10:11:03Z</time>
      </trkpt>
      <trkpt lat="45.94846" lon="4.83985">
        <ele>265</ele>
        <time>2017-11-22T10:11:04Z</time>
      </trkpt>
      <trkpt lat="45.9485" lon="4.83997">
        <ele>265</ele>
        <time>2017-11-22T10:11:06Z</time>
      </trkpt>
      <trkpt lat="45.94853" lon="4.84005">
        <ele>266</ele>
        <time>2017-11-22T10:11:07Z</time>
      </trkpt>
      <trkpt lat="45.94855" lon="4.84011">
        <ele>266</ele>
        <time>2017-11-22T10:11:08Z</time>
      </trkpt>
      <trkpt lat="45.94858" lon="4.84016">
        <ele>266</ele>
        <time>2017-11-22T10:11:09Z</time>
      </trkpt>
      <trkpt lat="45.9486" lon="4.84023">
        <ele>266</ele>
        <time>2017-11-22T10:11:10Z</time>
      </trkpt>
      <trkpt lat="45.94862" lon="4.84029">
        <ele>266</ele>
        <time>2017-11-22T10:11:11Z</time>
      </trkpt>
      <trkpt lat="45.94865" lon="4.84038">
        <ele>266</ele>
        <time>2017-11-22T10:11:13Z</time>
      </trkpt>
      <trkpt lat="45.94867" lon="4.84044">
        <ele>266</ele>
        <time>2017-11-22T10:11:14Z</time>
      </trkpt>
      <trkpt lat="45.9487" lon="4.84055">
        <ele>267</ele>
        <time>2017-11-22T10:11:16Z</time>
      </trkpt>
      <trkpt lat="45.94872" lon="4.8406">
        <ele>267</ele>
        <time>2017-11-22T10:11:17Z</time>
      </trkpt>
      <trkpt lat="45.94875" lon="4.84065">
        <ele>267</ele>
        <time>2017-11-22T10:11:18Z</time>
      </trkpt>
      <trkpt lat="45.94878" lon="4.84072">
        <ele>267</ele>
        <time>2017-11-22T10:11:19Z</time>
      </trkpt>
      <trkpt lat="45.94881" lon="4.84083">
        <ele>267</ele>
        <time>2017-11-22T10:11:21Z</time>
      </trkpt>
      <trkpt lat="45.94885" lon="4.84089">
        <ele>267</ele>
        <time>2017-11-22T10:11:22Z</time>
      </trkpt>
      <trkpt lat="45.94887" lon="4.84096">
        <ele>267</ele>
        <time>2017-11-22T10:11:23Z</time>
      </trkpt>
      <trkpt lat="45.9489" lon="4.84102">
        <ele>267</ele>
        <time>2017-11-22T10:11:24Z</time>
      </trkpt>
      <trkpt lat="45.94893" lon="4.84109">
        <ele>267</ele>
        <time>2017-11-22T10:11:25Z</time>
      </trkpt>
      <trkpt lat="45.94896" lon="4.84114">
        <ele>267</ele>
        <time>2017-11-22T10:11:26Z</time>
      </trkpt>
      <trkpt lat="45.94899" lon="4.84119">
        <ele>267</ele>
        <time>2017-11-22T10:11:27Z</time>
      </trkpt>
      <trkpt lat="45.94902" lon="4.84124">
        <ele>267</ele>
        <time>2017-11-22T10:11:28Z</time>
      </trkpt>
      <trkpt lat="45.94905" lon="4.84132">
        <ele>267</ele>
        <time>2017-11-22T10:11:29Z</time>
      </trkpt>
      <trkpt lat="45.94908" lon="4.84137">
        <ele>268</ele>
        <time>2017-11-22T10:11:30Z</time>
      </trkpt>
      <trkpt lat="45.9491" lon="4.84141">
        <ele>268</ele>
        <time>2017-11-22T10:11:31Z</time>
      </trkpt>
      <trkpt lat="45.94914" lon="4.84148">
        <ele>268</ele>
        <time>2017-11-22T10:11:32Z</time>
      </trkpt>
      <trkpt lat="45.94916" lon="4.84153">
        <ele>268</ele>
        <time>2017-11-22T10:11:33Z</time>
      </trkpt>
      <trkpt lat="45.9492" lon="4.84158">
        <ele>268</ele>
        <time>2017-11-22T10:11:34Z</time>
      </trkpt>
      <trkpt lat="45.94926" lon="4.84167">
        <ele>268</ele>
        <time>2017-11-22T10:11:36Z</time>
      </trkpt>
      <trkpt lat="45.94929" lon="4.84171">
        <ele>268</ele>
        <time>2017-11-22T10:11:37Z</time>
      </trkpt>
      <trkpt lat="45.94932" lon="4.84176">
        <ele>267</ele>
        <time>2017-11-22T10:11:38Z</time>
      </trkpt>
      <trkpt lat="45.94936" lon="4.8418">
        <ele>267</ele>
        <time>2017-11-22T10:11:39Z</time>
      </trkpt>
      <trkpt lat="45.9494" lon="4.84185">
        <ele>267</ele>
        <time>2017-11-22T10:11:40Z</time>
      </trkpt>
      <trkpt lat="45.94944" lon="4.84191">
        <ele>267</ele>
        <time>2017-11-22T10:11:41Z</time>
      </trkpt>
      <trkpt lat="45.94947" lon="4.84196">
        <ele>267</ele>
        <time>2017-11-22T10:11:42Z</time>
      </trkpt>
      <trkpt lat="45.94951" lon="4.84201">
        <ele>267</ele>
        <time>2017-11-22T10:11:43Z</time>
      </trkpt>
      <trkpt lat="45.94954" lon="4.84207">
        <ele>267</ele>
        <time>2017-11-22T10:11:44Z</time>
      </trkpt>
      <trkpt lat="45.94957" lon="4.84212">
        <ele>267</ele>
        <time>2017-11-22T10:11:45Z</time>
      </trkpt>
      <trkpt lat="45.9496" lon="4.84218">
        <ele>267</ele>
        <time>2017-11-22T10:11:46Z</time>
      </trkpt>
      <trkpt lat="45.94964" lon="4.84223">
        <ele>267</ele>
        <time>2017-11-22T10:11:47Z</time>
      </trkpt>
      <trkpt lat="45.94967" lon="4.84227">
        <ele>267</ele>
        <time>2017-11-22T10:11:48Z</time>
      </trkpt>
      <trkpt lat="45.94971" lon="4.84232">
        <ele>267</ele>
        <time>2017-11-22T10:11:49Z</time>
      </trkpt>
      <trkpt lat="45.94976" lon="4.8424">
        <ele>267</ele>
        <time>2017-11-22T10:11:51Z</time>
      </trkpt>
      <trkpt lat="45.94978" lon="4.84245">
        <ele>267</ele>
        <time>2017-11-22T10:11:52Z</time>
      </trkpt>
      <trkpt lat="45.94984" lon="4.84253">
        <ele>267</ele>
        <time>2017-11-22T10:11:54Z</time>
      </trkpt>
      <trkpt lat="45.94987" lon="4.8426">
        <ele>267</ele>
        <time>2017-11-22T10:11:55Z</time>
      </trkpt>
      <trkpt lat="45.94993" lon="4.84268">
        <ele>267</ele>
        <time>2017-11-22T10:11:57Z</time>
      </trkpt>
      <trkpt lat="45.94996" lon="4.84272">
        <ele>267</ele>
        <time>2017-11-22T10:11:58Z</time>
      </trkpt>
      <trkpt lat="45.95" lon="4.84281">
        <ele>267</ele>
        <time>2017-11-22T10:12:00Z</time>
      </trkpt>
      <trkpt lat="45.95003" lon="4.84286">
        <ele>267</ele>
        <time>2017-11-22T10:12:01Z</time>
      </trkpt>
      <trkpt lat="45.95008" lon="4.84295">
        <ele>267</ele>
        <time>2017-11-22T10:12:03Z</time>
      </trkpt>
      <trkpt lat="45.95011" lon="4.84301">
        <ele>267</ele>
        <time>2017-11-22T10:12:04Z</time>
      </trkpt>
      <trkpt lat="45.95014" lon="4.84306">
        <ele>267</ele>
        <time>2017-11-22T10:12:05Z</time>
      </trkpt>
      <trkpt lat="45.95016" lon="4.84312">
        <ele>267</ele>
        <time>2017-11-22T10:12:06Z</time>
      </trkpt>
      <trkpt lat="45.95022" lon="4.84321">
        <ele>267</ele>
        <time>2017-11-22T10:12:08Z</time>
      </trkpt>
      <trkpt lat="45.95025" lon="4.84325">
        <ele>267</ele>
        <time>2017-11-22T10:12:09Z</time>
      </trkpt>
      <trkpt lat="45.9503" lon="4.84332">
        <ele>267</ele>
        <time>2017-11-22T10:12:11Z</time>
      </trkpt>
      <trkpt lat="45.95033" lon="4.84338">
        <ele>267</ele>
        <time>2017-11-22T10:12:12Z</time>
      </trkpt>
      <trkpt lat="45.95038" lon="4.84348">
        <ele>267</ele>
        <time>2017-11-22T10:12:14Z</time>
      </trkpt>
      <trkpt lat="45.9504" lon="4.84351">
        <ele>267</ele>
        <time>2017-11-22T10:12:15Z</time>
      </trkpt>
      <trkpt lat="45.95046" lon="4.84359">
        <ele>267</ele>
        <time>2017-11-22T10:12:17Z</time>
      </trkpt>
      <trkpt lat="45.9505" lon="4.84364">
        <ele>267</ele>
        <time>2017-11-22T10:12:18Z</time>
      </trkpt>
      <trkpt lat="45.95053" lon="4.8437">
        <ele>267</ele>
        <time>2017-11-22T10:12:19Z</time>
      </trkpt>
      <trkpt lat="45.95057" lon="4.84375">
        <ele>267</ele>
        <time>2017-11-22T10:12:20Z</time>
      </trkpt>
      <trkpt lat="45.95061" lon="4.84381">
        <ele>267</ele>
        <time>2017-11-22T10:12:21Z</time>
      </trkpt>
      <trkpt lat="45.95064" lon="4.84386">
        <ele>267</ele>
        <time>2017-11-22T10:12:22Z</time>
      </trkpt>
      <trkpt lat="45.95069" lon="4.84391">
        <ele>267</ele>
        <time>2017-11-22T10:12:23Z</time>
      </trkpt>
      <trkpt lat="45.95074" lon="4.84397">
        <ele>267</ele>
        <time>2017-11-22T10:12:24Z</time>
      </trkpt>
      <trkpt lat="45.95079" lon="4.84403">
        <ele>267</ele>
        <time>2017-11-22T10:12:25Z</time>
      </trkpt>
      <trkpt lat="45.95084" lon="4.84407">
        <ele>267</ele>
        <time>2017-11-22T10:12:26Z</time>
      </trkpt>
      <trkpt lat="45.95089" lon="4.84411">
        <ele>267</ele>
        <time>2017-11-22T10:12:27Z</time>
      </trkpt>
      <trkpt lat="45.95094" lon="4.84416">
        <ele>267</ele>
        <time>2017-11-22T10:12:28Z</time>
      </trkpt>
      <trkpt lat="45.95098" lon="4.84421">
        <ele>267</ele>
        <time>2017-11-22T10:12:29Z</time>
      </trkpt>
      <trkpt lat="45.95103" lon="4.84427">
        <ele>267</ele>
        <time>2017-11-22T10:12:30Z</time>
      </trkpt>
      <trkpt lat="45.95108" lon="4.84432">
        <ele>267</ele>
        <time>2017-11-22T10:12:31Z</time>
      </trkpt>
      <trkpt lat="45.95113" lon="4.84436">
        <ele>267</ele>
        <time>2017-11-22T10:12:32Z</time>
      </trkpt>
      <trkpt lat="45.95118" lon="4.84441">
        <ele>267</ele>
        <time>2017-11-22T10:12:33Z</time>
      </trkpt>
      <trkpt lat="45.95123" lon="4.84446">
        <ele>267</ele>
        <time>2017-11-22T10:12:34Z</time>
      </trkpt>
      <trkpt lat="45.95128" lon="4.84451">
        <ele>267</ele>
        <time>2017-11-22T10:12:35Z</time>
      </trkpt>
      <trkpt lat="45.95132" lon="4.84456">
        <ele>267</ele>
        <time>2017-11-22T10:12:36Z</time>
      </trkpt>
      <trkpt lat="45.95137" lon="4.84461">
        <ele>266</ele>
        <time>2017-11-22T10:12:37Z</time>
      </trkpt>
      <trkpt lat="45.95142" lon="4.84466">
        <ele>266</ele>
        <time>2017-11-22T10:12:38Z</time>
      </trkpt>
      <trkpt lat="45.95146" lon="4.84471">
        <ele>266</ele>
        <time>2017-11-22T10:12:39Z</time>
      </trkpt>
      <trkpt lat="45.95151" lon="4.84477">
        <ele>266</ele>
        <time>2017-11-22T10:12:40Z</time>
      </trkpt>
      <trkpt lat="45.95156" lon="4.84484">
        <ele>266</ele>
        <time>2017-11-22T10:12:41Z</time>
      </trkpt>
      <trkpt lat="45.95161" lon="4.84489">
        <ele>266</ele>
        <time>2017-11-22T10:12:42Z</time>
      </trkpt>
      <trkpt lat="45.95166" lon="4.84495">
        <ele>266</ele>
        <time>2017-11-22T10:12:43Z</time>
      </trkpt>
      <trkpt lat="45.95171" lon="4.84501">
        <ele>266</ele>
        <time>2017-11-22T10:12:44Z</time>
      </trkpt>
      <trkpt lat="45.95176" lon="4.84507">
        <ele>265</ele>
        <time>2017-11-22T10:12:45Z</time>
      </trkpt>
      <trkpt lat="45.95181" lon="4.84513">
        <ele>265</ele>
        <time>2017-11-22T10:12:46Z</time>
      </trkpt>
      <trkpt lat="45.95186" lon="4.84519">
        <ele>265</ele>
        <time>2017-11-22T10:12:47Z</time>
      </trkpt>
      <trkpt lat="45.95191" lon="4.84524">
        <ele>265</ele>
        <time>2017-11-22T10:12:48Z</time>
      </trkpt>
      <trkpt lat="45.95196" lon="4.8453">
        <ele>265</ele>
        <time>2017-11-22T10:12:49Z</time>
      </trkpt>
      <trkpt lat="45.952" lon="4.84536">
        <ele>265</ele>
        <time>2017-11-22T10:12:50Z</time>
      </trkpt>
      <trkpt lat="45.95204" lon="4.84542">
        <ele>265</ele>
        <time>2017-11-22T10:12:51Z</time>
      </trkpt>
      <trkpt lat="45.95209" lon="4.84549">
        <ele>264</ele>
        <time>2017-11-22T10:12:52Z</time>
      </trkpt>
      <trkpt lat="45.95214" lon="4.84554">
        <ele>264</ele>
        <time>2017-11-22T10:12:53Z</time>
      </trkpt>
      <trkpt lat="45.95218" lon="4.8456">
        <ele>264</ele>
        <time>2017-11-22T10:12:54Z</time>
      </trkpt>
      <trkpt lat="45.95222" lon="4.84564">
        <ele>264</ele>
        <time>2017-11-22T10:12:55Z</time>
      </trkpt>
      <trkpt lat="45.95227" lon="4.8457">
        <ele>264</ele>
        <time>2017-11-22T10:12:56Z</time>
      </trkpt>
      <trkpt lat="45.95231" lon="4.84575">
        <ele>264</ele>
        <time>2017-11-22T10:12:57Z</time>
      </trkpt>
      <trkpt lat="45.95235" lon="4.8458">
        <ele>264</ele>
        <time>2017-11-22T10:12:58Z</time>
      </trkpt>
      <trkpt lat="45.95239" lon="4.84584">
        <ele>264</ele>
        <time>2017-11-22T10:12:59Z</time>
      </trkpt>
      <trkpt lat="45.95243" lon="4.84589">
        <ele>264</ele>
        <time>2017-11-22T10:13:00Z</time>
      </trkpt>
      <trkpt lat="45.95247" lon="4.84594">
        <ele>264</ele>
        <time>2017-11-22T10:13:01Z</time>
      </trkpt>
      <trkpt lat="45.95251" lon="4.84599">
        <ele>264</ele>
        <time>2017-11-22T10:13:02Z</time>
      </trkpt>
      <trkpt lat="45.95255" lon="4.84603">
        <ele>264</ele>
        <time>2017-11-22T10:13:03Z</time>
      </trkpt>
      <trkpt lat="45.95258" lon="4.84607">
        <ele>264</ele>
        <time>2017-11-22T10:13:04Z</time>
      </trkpt>
      <trkpt lat="45.95263" lon="4.84614">
        <ele>264</ele>
        <time>2017-11-22T10:13:06Z</time>
      </trkpt>
      <trkpt lat="45.95267" lon="4.84618">
        <ele>264</ele>
        <time>2017-11-22T10:13:07Z</time>
      </trkpt>
      <trkpt lat="45.95272" lon="4.84623">
        <ele>264</ele>
        <time>2017-11-22T10:13:08Z</time>
      </trkpt>
      <trkpt lat="45.95276" lon="4.84628">
        <ele>264</ele>
        <time>2017-11-22T10:13:09Z</time>
      </trkpt>
      <trkpt lat="45.95281" lon="4.84632">
        <ele>264</ele>
        <time>2017-11-22T10:13:10Z</time>
      </trkpt>
      <trkpt lat="45.95285" lon="4.84636">
        <ele>264</ele>
        <time>2017-11-22T10:13:11Z</time>
      </trkpt>
      <trkpt lat="45.95289" lon="4.84641">
        <ele>264</ele>
        <time>2017-11-22T10:13:12Z</time>
      </trkpt>
      <trkpt lat="45.95293" lon="4.84645">
        <ele>264</ele>
        <time>2017-11-22T10:13:13Z</time>
      </trkpt>
      <trkpt lat="45.95297" lon="4.84648">
        <ele>264</ele>
        <time>2017-11-22T10:13:14Z</time>
      </trkpt>
      <trkpt lat="45.95301" lon="4.84652">
        <ele>264</ele>
        <time>2017-11-22T10:13:15Z</time>
      </trkpt>
      <trkpt lat="45.95308" lon="4.84659">
        <ele>265</ele>
        <time>2017-11-22T10:13:17Z</time>
      </trkpt>
      <trkpt lat="45.95312" lon="4.84663">
        <ele>265</ele>
        <time>2017-11-22T10:13:18Z</time>
      </trkpt>
      <trkpt lat="45.9532" lon="4.84668">
        <ele>265</ele>
        <time>2017-11-22T10:13:20Z</time>
      </trkpt>
      <trkpt lat="45.95324" lon="4.84673">
        <ele>265</ele>
        <time>2017-11-22T10:13:21Z</time>
      </trkpt>
      <trkpt lat="45.95329" lon="4.84675">
        <ele>265</ele>
        <time>2017-11-22T10:13:22Z</time>
      </trkpt>
      <trkpt lat="45.95333" lon="4.84679">
        <ele>265</ele>
        <time>2017-11-22T10:13:23Z</time>
      </trkpt>
      <trkpt lat="45.95336" lon="4.84683">
        <ele>265</ele>
        <time>2017-11-22T10:13:24Z</time>
      </trkpt>
      <trkpt lat="45.95341" lon="4.84686">
        <ele>266</ele>
        <time>2017-11-22T10:13:25Z</time>
      </trkpt>
      <trkpt lat="45.95345" lon="4.84689">
        <ele>266</ele>
        <time>2017-11-22T10:13:26Z</time>
      </trkpt>
      <trkpt lat="45.95349" lon="4.84693">
        <ele>266</ele>
        <time>2017-11-22T10:13:27Z</time>
      </trkpt>
      <trkpt lat="45.95352" lon="4.84697">
        <ele>266</ele>
        <time>2017-11-22T10:13:28Z</time>
      </trkpt>
      <trkpt lat="45.95357" lon="4.847">
        <ele>266</ele>
        <time>2017-11-22T10:13:29Z</time>
      </trkpt>
      <trkpt lat="45.9536" lon="4.84704">
        <ele>266</ele>
        <time>2017-11-22T10:13:30Z</time>
      </trkpt>
      <trkpt lat="45.95365" lon="4.84707">
        <ele>266</ele>
        <time>2017-11-22T10:13:31Z</time>
      </trkpt>
      <trkpt lat="45.95369" lon="4.8471">
        <ele>266</ele>
        <time>2017-11-22T10:13:32Z</time>
      </trkpt>
      <trkpt lat="45.95373" lon="4.84714">
        <ele>266</ele>
        <time>2017-11-22T10:13:33Z</time>
      </trkpt>
      <trkpt lat="45.95377" lon="4.84717">
        <ele>266</ele>
        <time>2017-11-22T10:13:34Z</time>
      </trkpt>
      <trkpt lat="45.95381" lon="4.84721">
        <ele>266</ele>
        <time>2017-11-22T10:13:35Z</time>
      </trkpt>
      <trkpt lat="45.95385" lon="4.84725">
        <ele>266</ele>
        <time>2017-11-22T10:13:36Z</time>
      </trkpt>
      <trkpt lat="45.95389" lon="4.84728">
        <ele>266</ele>
        <time>2017-11-22T10:13:37Z</time>
      </trkpt>
      <trkpt lat="45.95396" lon="4.84735">
        <ele>266</ele>
        <time>2017-11-22T10:13:39Z</time>
      </trkpt>
      <trkpt lat="45.954" lon="4.84738">
        <ele>266</ele>
        <time>2017-11-22T10:13:40Z</time>
      </trkpt>
      <trkpt lat="45.95408" lon="4.84744">
        <ele>267</ele>
        <time>2017-11-22T10:13:42Z</time>
      </trkpt>
      <trkpt lat="45.95411" lon="4.84747">
        <ele>267</ele>
        <time>2017-11-22T10:13:43Z</time>
      </trkpt>
      <trkpt lat="45.95418" lon="4.84755">
        <ele>267</ele>
        <time>2017-11-22T10:13:45Z</time>
      </trkpt>
      <trkpt lat="45.95422" lon="4.84758">
        <ele>267</ele>
        <time>2017-11-22T10:13:46Z</time>
      </trkpt>
      <trkpt lat="45.95426" lon="4.84762">
        <ele>267</ele>
        <time>2017-11-22T10:13:47Z</time>
      </trkpt>
      <trkpt lat="45.95429" lon="4.84765">
        <ele>267</ele>
        <time>2017-11-22T10:13:48Z</time>
      </trkpt>
      <trkpt lat="45.95437" lon="4.84773">
        <ele>267</ele>
        <time>2017-11-22T10:13:50Z</time>
      </trkpt>
      <trkpt lat="45.9544" lon="4.84777">
        <ele>267</ele>
        <time>2017-11-22T10:13:51Z</time>
      </trkpt>
      <trkpt lat="45.95445" lon="4.84784">
        <ele>267</ele>
        <time>2017-11-22T10:13:53Z</time>
      </trkpt>
      <trkpt lat="45.95449" lon="4.84788">
        <ele>267</ele>
        <time>2017-11-22T10:13:54Z</time>
      </trkpt>
      <trkpt lat="45.95455" lon="4.84796">
        <ele>267</ele>
        <time>2017-11-22T10:13:56Z</time>
      </trkpt>
      <trkpt lat="45.95459" lon="4.848">
        <ele>267</ele>
        <time>2017-11-22T10:13:57Z</time>
      </trkpt>
      <trkpt lat="45.95465" lon="4.84807">
        <ele>267</ele>
        <time>2017-11-22T10:13:59Z</time>
      </trkpt>
      <trkpt lat="45.95468" lon="4.84811">
        <ele>267</ele>
        <time>2017-11-22T10:14:00Z</time>
      </trkpt>
      <trkpt lat="45.95475" lon="4.84819">
        <ele>267</ele>
        <time>2017-11-22T10:14:02Z</time>
      </trkpt>
      <trkpt lat="45.95478" lon="4.84823">
        <ele>267</ele>
        <time>2017-11-22T10:14:03Z</time>
      </trkpt>
      <trkpt lat="45.95484" lon="4.8483">
        <ele>267</ele>
        <time>2017-11-22T10:14:05Z</time>
      </trkpt>
      <trkpt lat="45.95487" lon="4.84834">
        <ele>268</ele>
        <time>2017-11-22T10:14:06Z</time>
      </trkpt>
      <trkpt lat="45.95494" lon="4.84842">
        <ele>267</ele>
        <time>2017-11-22T10:14:08Z</time>
      </trkpt>
      <trkpt lat="45.95497" lon="4.84845">
        <ele>267</ele>
        <time>2017-11-22T10:14:09Z</time>
      </trkpt>
      <trkpt lat="45.95501" lon="4.84849">
        <ele>267</ele>
        <time>2017-11-22T10:14:10Z</time>
      </trkpt>
      <trkpt lat="45.95505" lon="4.84854">
        <ele>268</ele>
        <time>2017-11-22T10:14:11Z</time>
      </trkpt>
      <trkpt lat="45.95511" lon="4.84861">
        <ele>268</ele>
        <time>2017-11-22T10:14:13Z</time>
      </trkpt>
      <trkpt lat="45.95515" lon="4.84864">
        <ele>268</ele>
        <time>2017-11-22T10:14:14Z</time>
      </trkpt>
      <trkpt lat="45.95521" lon="4.8487">
        <ele>268</ele>
        <time>2017-11-22T10:14:16Z</time>
      </trkpt>
      <trkpt lat="45.95524" lon="4.84874">
        <ele>268</ele>
        <time>2017-11-22T10:14:17Z</time>
      </trkpt>
      <trkpt lat="45.9553" lon="4.8488">
        <ele>268</ele>
        <time>2017-11-22T10:14:19Z</time>
      </trkpt>
      <trkpt lat="45.95533" lon="4.84883">
        <ele>268</ele>
        <time>2017-11-22T10:14:20Z</time>
      </trkpt>
      <trkpt lat="45.95541" lon="4.8489">
        <ele>268</ele>
        <time>2017-11-22T10:14:22Z</time>
      </trkpt>
      <trkpt lat="45.95544" lon="4.84892">
        <ele>268</ele>
        <time>2017-11-22T10:14:23Z</time>
      </trkpt>
      <trkpt lat="45.95551" lon="4.84898">
        <ele>268</ele>
        <time>2017-11-22T10:14:25Z</time>
      </trkpt>
      <trkpt lat="45.95555" lon="4.849">
        <ele>268</ele>
        <time>2017-11-22T10:14:26Z</time>
      </trkpt>
      <trkpt lat="45.95563" lon="4.84905">
        <ele>268</ele>
        <time>2017-11-22T10:14:28Z</time>
      </trkpt>
      <trkpt lat="45.95566" lon="4.84908">
        <ele>268</ele>
        <time>2017-11-22T10:14:29Z</time>
      </trkpt>
      <trkpt lat="45.95574" lon="4.84913">
        <ele>269</ele>
        <time>2017-11-22T10:14:31Z</time>
      </trkpt>
      <trkpt lat="45.95578" lon="4.84916">
        <ele>269</ele>
        <time>2017-11-22T10:14:32Z</time>
      </trkpt>
      <trkpt lat="45.95585" lon="4.84921">
        <ele>269</ele>
        <time>2017-11-22T10:14:34Z</time>
      </trkpt>
      <trkpt lat="45.95588" lon="4.84924">
        <ele>270</ele>
        <time>2017-11-22T10:14:35Z</time>
      </trkpt>
      <trkpt lat="45.95596" lon="4.84929">
        <ele>270</ele>
        <time>2017-11-22T10:14:37Z</time>
      </trkpt>
      <trkpt lat="45.95599" lon="4.84931">
        <ele>270</ele>
        <time>2017-11-22T10:14:38Z</time>
      </trkpt>
      <trkpt lat="45.95607" lon="4.84937">
        <ele>270</ele>
        <time>2017-11-22T10:14:40Z</time>
      </trkpt>
      <trkpt lat="45.9561" lon="4.8494">
        <ele>270</ele>
        <time>2017-11-22T10:14:41Z</time>
      </trkpt>
      <trkpt lat="45.95614" lon="4.84943">
        <ele>270</ele>
        <time>2017-11-22T10:14:42Z</time>
      </trkpt>
      <trkpt lat="45.95618" lon="4.84946">
        <ele>271</ele>
        <time>2017-11-22T10:14:43Z</time>
      </trkpt>
      <trkpt lat="45.95626" lon="4.84952">
        <ele>271</ele>
        <time>2017-11-22T10:14:45Z</time>
      </trkpt>
      <trkpt lat="45.9563" lon="4.84955">
        <ele>271</ele>
        <time>2017-11-22T10:14:46Z</time>
      </trkpt>
      <trkpt lat="45.95637" lon="4.84963">
        <ele>271</ele>
        <time>2017-11-22T10:14:48Z</time>
      </trkpt>
      <trkpt lat="45.95641" lon="4.84967">
        <ele>271</ele>
        <time>2017-11-22T10:14:49Z</time>
      </trkpt>
      <trkpt lat="45.95645" lon="4.8497">
        <ele>271</ele>
        <time>2017-11-22T10:14:50Z</time>
      </trkpt>
      <trkpt lat="45.9565" lon="4.84976">
        <ele>271</ele>
        <time>2017-11-22T10:14:51Z</time>
      </trkpt>
      <trkpt lat="45.95657" lon="4.84982">
        <ele>272</ele>
        <time>2017-11-22T10:14:53Z</time>
      </trkpt>
      <trkpt lat="45.9566" lon="4.84985">
        <ele>272</ele>
        <time>2017-11-22T10:14:54Z</time>
      </trkpt>
      <trkpt lat="45.95665" lon="4.84993">
        <ele>272</ele>
        <time>2017-11-22T10:14:56Z</time>
      </trkpt>
      <trkpt lat="45.95668" lon="4.84997">
        <ele>273</ele>
        <time>2017-11-22T10:14:57Z</time>
      </trkpt>
      <trkpt lat="45.95675" lon="4.85005">
        <ele>274</ele>
        <time>2017-11-22T10:14:59Z</time>
      </trkpt>
      <trkpt lat="45.95677" lon="4.8501">
        <ele>274</ele>
        <time>2017-11-22T10:15:00Z</time>
      </trkpt>
      <trkpt lat="45.95682" lon="4.85019">
        <ele>275</ele>
        <time>2017-11-22T10:15:02Z</time>
      </trkpt>
      <trkpt lat="45.95685" lon="4.85023">
        <ele>275</ele>
        <time>2017-11-22T10:15:03Z</time>
      </trkpt>
      <trkpt lat="45.95689" lon="4.85031">
        <ele>276</ele>
        <time>2017-11-22T10:15:05Z</time>
      </trkpt>
      <trkpt lat="45.95692" lon="4.85035">
        <ele>276</ele>
        <time>2017-11-22T10:15:06Z</time>
      </trkpt>
      <trkpt lat="45.95696" lon="4.85043">
        <ele>276</ele>
        <time>2017-11-22T10:15:08Z</time>
      </trkpt>
      <trkpt lat="45.95698" lon="4.85048">
        <ele>276</ele>
        <time>2017-11-22T10:15:09Z</time>
      </trkpt>
      <trkpt lat="45.95703" lon="4.85057">
        <ele>276</ele>
        <time>2017-11-22T10:15:11Z</time>
      </trkpt>
      <trkpt lat="45.95706" lon="4.85062">
        <ele>277</ele>
        <time>2017-11-22T10:15:12Z</time>
      </trkpt>
      <trkpt lat="45.9571" lon="4.85072">
        <ele>277</ele>
        <time>2017-11-22T10:15:14Z</time>
      </trkpt>
      <trkpt lat="45.95714" lon="4.8508">
        <ele>277</ele>
        <time>2017-11-22T10:15:15Z</time>
      </trkpt>
      <trkpt lat="45.95717" lon="4.85085">
        <ele>279</ele>
        <time>2017-11-22T10:15:16Z</time>
      </trkpt>
      <trkpt lat="45.9572" lon="4.8509">
        <ele>279</ele>
        <time>2017-11-22T10:15:17Z</time>
      </trkpt>
      <trkpt lat="45.95722" lon="4.85095">
        <ele>279</ele>
        <time>2017-11-22T10:15:18Z</time>
      </trkpt>
      <trkpt lat="45.95726" lon="4.85101">
        <ele>279</ele>
        <time>2017-11-22T10:15:19Z</time>
      </trkpt>
      <trkpt lat="45.95729" lon="4.85105">
        <ele>279</ele>
        <time>2017-11-22T10:15:20Z</time>
      </trkpt>
      <trkpt lat="45.95732" lon="4.85111">
        <ele>279</ele>
        <time>2017-11-22T10:15:21Z</time>
      </trkpt>
      <trkpt lat="45.95736" lon="4.85115">
        <ele>279</ele>
        <time>2017-11-22T10:15:22Z</time>
      </trkpt>
      <trkpt lat="45.9574" lon="4.85119">
        <ele>279</ele>
        <time>2017-11-22T10:15:23Z</time>
      </trkpt>
      <trkpt lat="45.95743" lon="4.85124">
        <ele>279</ele>
        <time>2017-11-22T10:15:24Z</time>
      </trkpt>
      <trkpt lat="45.95747" lon="4.85128">
        <ele>279</ele>
        <time>2017-11-22T10:15:25Z</time>
      </trkpt>
      <trkpt lat="45.95751" lon="4.85132">
        <ele>276</ele>
        <time>2017-11-22T10:15:26Z</time>
      </trkpt>
      <trkpt lat="45.95754" lon="4.85137">
        <ele>276</ele>
        <time>2017-11-22T10:15:27Z</time>
      </trkpt>
      <trkpt lat="45.95758" lon="4.85142">
        <ele>276</ele>
        <time>2017-11-22T10:15:28Z</time>
      </trkpt>
      <trkpt lat="45.95761" lon="4.85146">
        <ele>276</ele>
        <time>2017-11-22T10:15:29Z</time>
      </trkpt>
      <trkpt lat="45.95765" lon="4.85152">
        <ele>277</ele>
        <time>2017-11-22T10:15:30Z</time>
      </trkpt>
      <trkpt lat="45.95768" lon="4.85155">
        <ele>276</ele>
        <time>2017-11-22T10:15:31Z</time>
      </trkpt>
      <trkpt lat="45.95773" lon="4.85161">
        <ele>276</ele>
        <time>2017-11-22T10:15:33Z</time>
      </trkpt>
      <trkpt lat="45.95777" lon="4.85166">
        <ele>276</ele>
        <time>2017-11-22T10:15:34Z</time>
      </trkpt>
      <trkpt lat="45.95781" lon="4.85171">
        <ele>276</ele>
        <time>2017-11-22T10:15:35Z</time>
      </trkpt>
      <trkpt lat="45.95787" lon="4.85176">
        <ele>276</ele>
        <time>2017-11-22T10:15:36Z</time>
      </trkpt>
      <trkpt lat="45.95791" lon="4.85181">
        <ele>276</ele>
        <time>2017-11-22T10:15:37Z</time>
      </trkpt>
      <trkpt lat="45.95795" lon="4.85186">
        <ele>276</ele>
        <time>2017-11-22T10:15:38Z</time>
      </trkpt>
      <trkpt lat="45.95803" lon="4.8519">
        <ele>275</ele>
        <time>2017-11-22T10:15:39Z</time>
      </trkpt>
      <trkpt lat="45.95808" lon="4.85194">
        <ele>275</ele>
        <time>2017-11-22T10:15:40Z</time>
      </trkpt>
      <trkpt lat="45.95813" lon="4.85199">
        <ele>275</ele>
        <time>2017-11-22T10:15:41Z</time>
      </trkpt>
      <trkpt lat="45.95817" lon="4.85204">
        <ele>275</ele>
        <time>2017-11-22T10:15:42Z</time>
      </trkpt>
      <trkpt lat="45.95822" lon="4.85211">
        <ele>275</ele>
        <time>2017-11-22T10:15:43Z</time>
      </trkpt>
      <trkpt lat="45.95826" lon="4.85216">
        <ele>275</ele>
        <time>2017-11-22T10:15:44Z</time>
      </trkpt>
      <trkpt lat="45.95829" lon="4.85222">
        <ele>274</ele>
        <time>2017-11-22T10:15:45Z</time>
      </trkpt>
      <trkpt lat="45.95832" lon="4.85226">
        <ele>274</ele>
        <time>2017-11-22T10:15:46Z</time>
      </trkpt>
      <trkpt lat="45.95835" lon="4.85232">
        <ele>271</ele>
        <time>2017-11-22T10:15:47Z</time>
      </trkpt>
      <trkpt lat="45.95839" lon="4.85238">
        <ele>271</ele>
        <time>2017-11-22T10:15:48Z</time>
      </trkpt>
      <trkpt lat="45.95842" lon="4.85245">
        <ele>271</ele>
        <time>2017-11-22T10:15:49Z</time>
      </trkpt>
      <trkpt lat="45.95847" lon="4.85253">
        <ele>271</ele>
        <time>2017-11-22T10:15:50Z</time>
      </trkpt>
      <trkpt lat="45.9585" lon="4.85261">
        <ele>270</ele>
        <time>2017-11-22T10:15:51Z</time>
      </trkpt>
      <trkpt lat="45.95853" lon="4.85268">
        <ele>270</ele>
        <time>2017-11-22T10:15:52Z</time>
      </trkpt>
      <trkpt lat="45.95856" lon="4.85275">
        <ele>270</ele>
        <time>2017-11-22T10:15:53Z</time>
      </trkpt>
      <trkpt lat="45.9586" lon="4.85283">
        <ele>270</ele>
        <time>2017-11-22T10:15:54Z</time>
      </trkpt>
      <trkpt lat="45.95864" lon="4.85291">
        <ele>270</ele>
        <time>2017-11-22T10:15:55Z</time>
      </trkpt>
      <trkpt lat="45.95867" lon="4.85298">
        <ele>269</ele>
        <time>2017-11-22T10:15:56Z</time>
      </trkpt>
      <trkpt lat="45.95872" lon="4.85305">
        <ele>269</ele>
        <time>2017-11-22T10:15:57Z</time>
      </trkpt>
      <trkpt lat="45.95877" lon="4.85311">
        <ele>269</ele>
        <time>2017-11-22T10:15:58Z</time>
      </trkpt>
      <trkpt lat="45.95882" lon="4.85316">
        <ele>269</ele>
        <time>2017-11-22T10:15:59Z</time>
      </trkpt>
      <trkpt lat="45.95887" lon="4.85322">
        <ele>269</ele>
        <time>2017-11-22T10:16:00Z</time>
      </trkpt>
      <trkpt lat="45.95891" lon="4.85329">
        <ele>269</ele>
        <time>2017-11-22T10:16:01Z</time>
      </trkpt>
      <trkpt lat="45.95897" lon="4.85332">
        <ele>268</ele>
        <time>2017-11-22T10:16:02Z</time>
      </trkpt>
      <trkpt lat="45.95902" lon="4.85336">
        <ele>267</ele>
        <time>2017-11-22T10:16:03Z</time>
      </trkpt>
      <trkpt lat="45.95907" lon="4.85338">
        <ele>267</ele>
        <time>2017-11-22T10:16:04Z</time>
      </trkpt>
      <trkpt lat="45.95913" lon="4.85341">
        <ele>267</ele>
        <time>2017-11-22T10:16:05Z</time>
      </trkpt>
      <trkpt lat="45.95919" lon="4.85343">
        <ele>266</ele>
        <time>2017-11-22T10:16:06Z</time>
      </trkpt>
      <trkpt lat="45.95925" lon="4.85345">
        <ele>266</ele>
        <time>2017-11-22T10:16:07Z</time>
      </trkpt>
      <trkpt lat="45.95932" lon="4.85349">
        <ele>266</ele>
        <time>2017-11-22T10:16:08Z</time>
      </trkpt>
      <trkpt lat="45.95938" lon="4.8535">
        <ele>266</ele>
        <time>2017-11-22T10:16:09Z</time>
      </trkpt>
      <trkpt lat="45.95945" lon="4.8535">
        <ele>266</ele>
        <time>2017-11-22T10:16:10Z</time>
      </trkpt>
      <trkpt lat="45.95953" lon="4.8535">
        <ele>266</ele>
        <time>2017-11-22T10:16:11Z</time>
      </trkpt>
      <trkpt lat="45.95959" lon="4.8535">
        <ele>265</ele>
        <time>2017-11-22T10:16:12Z</time>
      </trkpt>
      <trkpt lat="45.95966" lon="4.85351">
        <ele>265</ele>
        <time>2017-11-22T10:16:13Z</time>
      </trkpt>
      <trkpt lat="45.95973" lon="4.85351">
        <ele>265</ele>
        <time>2017-11-22T10:16:14Z</time>
      </trkpt>
      <trkpt lat="45.95981" lon="4.85351">
        <ele>265</ele>
        <time>2017-11-22T10:16:15Z</time>
      </trkpt>
      <trkpt lat="45.95989" lon="4.85351">
        <ele>265</ele>
        <time>2017-11-22T10:16:16Z</time>
      </trkpt>
      <trkpt lat="45.95996" lon="4.8535">
        <ele>265</ele>
        <time>2017-11-22T10:16:17Z</time>
      </trkpt>
      <trkpt lat="45.96004" lon="4.8535">
        <ele>264</ele>
        <time>2017-11-22T10:16:18Z</time>
      </trkpt>
      <trkpt lat="45.96012" lon="4.8535">
        <ele>263</ele>
        <time>2017-11-22T10:16:19Z</time>
      </trkpt>
      <trkpt lat="45.9602" lon="4.85351">
        <ele>263</ele>
        <time>2017-11-22T10:16:20Z</time>
      </trkpt>
      <trkpt lat="45.96028" lon="4.85351">
        <ele>263</ele>
        <time>2017-11-22T10:16:21Z</time>
      </trkpt>
      <trkpt lat="45.96036" lon="4.85351">
        <ele>263</ele>
        <time>2017-11-22T10:16:22Z</time>
      </trkpt>
      <trkpt lat="45.96044" lon="4.85351">
        <ele>262</ele>
        <time>2017-11-22T10:16:23Z</time>
      </trkpt>
      <trkpt lat="45.96052" lon="4.85351">
        <ele>262</ele>
        <time>2017-11-22T10:16:24Z</time>
      </trkpt>
      <trkpt lat="45.9606" lon="4.85352">
        <ele>262</ele>
        <time>2017-11-22T10:16:25Z</time>
      </trkpt>
      <trkpt lat="45.96069" lon="4.85352">
        <ele>262</ele>
        <time>2017-11-22T10:16:26Z</time>
      </trkpt>
      <trkpt lat="45.96077" lon="4.85355">
        <ele>262</ele>
        <time>2017-11-22T10:16:27Z</time>
      </trkpt>
      <trkpt lat="45.96087" lon="4.85358">
        <ele>259</ele>
        <time>2017-11-22T10:16:28Z</time>
      </trkpt>
      <trkpt lat="45.96096" lon="4.85362">
        <ele>259</ele>
        <time>2017-11-22T10:16:29Z</time>
      </trkpt>
      <trkpt lat="45.96104" lon="4.85365">
        <ele>259</ele>
        <time>2017-11-22T10:16:30Z</time>
      </trkpt>
      <trkpt lat="45.96113" lon="4.8537">
        <ele>259</ele>
        <time>2017-11-22T10:16:31Z</time>
      </trkpt>
      <trkpt lat="45.96121" lon="4.85373">
        <ele>258</ele>
        <time>2017-11-22T10:16:32Z</time>
      </trkpt>
      <trkpt lat="45.96129" lon="4.85377">
        <ele>258</ele>
        <time>2017-11-22T10:16:33Z</time>
      </trkpt>
      <trkpt lat="45.96137" lon="4.85382">
        <ele>258</ele>
        <time>2017-11-22T10:16:34Z</time>
      </trkpt>
      <trkpt lat="45.96145" lon="4.85385">
        <ele>258</ele>
        <time>2017-11-22T10:16:35Z</time>
      </trkpt>
      <trkpt lat="45.96152" lon="4.85389">
        <ele>258</ele>
        <time>2017-11-22T10:16:36Z</time>
      </trkpt>
      <trkpt lat="45.96159" lon="4.85393">
        <ele>258</ele>
        <time>2017-11-22T10:16:37Z</time>
      </trkpt>
      <trkpt lat="45.96166" lon="4.85398">
        <ele>258</ele>
        <time>2017-11-22T10:16:38Z</time>
      </trkpt>
      <trkpt lat="45.96172" lon="4.85401">
        <ele>258</ele>
        <time>2017-11-22T10:16:39Z</time>
      </trkpt>
      <trkpt lat="45.96178" lon="4.85406">
        <ele>258</ele>
        <time>2017-11-22T10:16:40Z</time>
      </trkpt>
      <trkpt lat="45.96184" lon="4.85411">
        <ele>258</ele>
        <time>2017-11-22T10:16:41Z</time>
      </trkpt>
      <trkpt lat="45.9619" lon="4.85415">
        <ele>258</ele>
        <time>2017-11-22T10:16:42Z</time>
      </trkpt>
      <trkpt lat="45.96194" lon="4.85419">
        <ele>260</ele>
        <time>2017-11-22T10:16:43Z</time>
      </trkpt>
      <trkpt lat="45.96199" lon="4.85423">
        <ele>260</ele>
        <time>2017-11-22T10:16:44Z</time>
      </trkpt>
      <trkpt lat="45.96203" lon="4.85426">
        <ele>260</ele>
        <time>2017-11-22T10:16:45Z</time>
      </trkpt>
      <trkpt lat="45.96207" lon="4.85429">
        <ele>260</ele>
        <time>2017-11-22T10:16:46Z</time>
      </trkpt>
      <trkpt lat="45.96212" lon="4.85432">
        <ele>261</ele>
        <time>2017-11-22T10:16:47Z</time>
      </trkpt>
      <trkpt lat="45.96217" lon="4.85435">
        <ele>261</ele>
        <time>2017-11-22T10:16:48Z</time>
      </trkpt>
      <trkpt lat="45.96225" lon="4.85437">
        <ele>261</ele>
        <time>2017-11-22T10:16:50Z</time>
      </trkpt>
      <trkpt lat="45.96229" lon="4.85439">
        <ele>261</ele>
        <time>2017-11-22T10:16:51Z</time>
      </trkpt>
      <trkpt lat="45.96236" lon="4.85444">
        <ele>261</ele>
        <time>2017-11-22T10:16:53Z</time>
      </trkpt>
      <trkpt lat="45.9624" lon="4.85445">
        <ele>261</ele>
        <time>2017-11-22T10:16:54Z</time>
      </trkpt>
      <trkpt lat="45.96248" lon="4.85447">
        <ele>261</ele>
        <time>2017-11-22T10:16:56Z</time>
      </trkpt>
      <trkpt lat="45.96253" lon="4.85449">
        <ele>264</ele>
        <time>2017-11-22T10:16:57Z</time>
      </trkpt>
      <trkpt lat="45.96261" lon="4.85451">
        <ele>264</ele>
        <time>2017-11-22T10:16:59Z</time>
      </trkpt>
      <trkpt lat="45.96265" lon="4.85453">
        <ele>264</ele>
        <time>2017-11-22T10:17:00Z</time>
      </trkpt>
      <trkpt lat="45.96272" lon="4.85453">
        <ele>264</ele>
        <time>2017-11-22T10:17:02Z</time>
      </trkpt>
      <trkpt lat="45.96276" lon="4.85456">
        <ele>264</ele>
        <time>2017-11-22T10:17:03Z</time>
      </trkpt>
      <trkpt lat="45.96283" lon="4.85459">
        <ele>265</ele>
        <time>2017-11-22T10:17:05Z</time>
      </trkpt>
      <trkpt lat="45.96287" lon="4.85459">
        <ele>265</ele>
        <time>2017-11-22T10:17:06Z</time>
      </trkpt>
      <trkpt lat="45.96295" lon="4.85459">
        <ele>265</ele>
        <time>2017-11-22T10:17:08Z</time>
      </trkpt>
      <trkpt lat="45.96299" lon="4.85459">
        <ele>265</ele>
        <time>2017-11-22T10:17:09Z</time>
      </trkpt>
      <trkpt lat="45.96306" lon="4.8546">
        <ele>265</ele>
        <time>2017-11-22T10:17:11Z</time>
      </trkpt>
      <trkpt lat="45.96309" lon="4.8546">
        <ele>265</ele>
        <time>2017-11-22T10:17:12Z</time>
      </trkpt>
      <trkpt lat="45.96316" lon="4.85462">
        <ele>265</ele>
        <time>2017-11-22T10:17:14Z</time>
      </trkpt>
      <trkpt lat="45.96319" lon="4.85462">
        <ele>265</ele>
        <time>2017-11-22T10:17:15Z</time>
      </trkpt>
      <trkpt lat="45.96327" lon="4.85461">
        <ele>265</ele>
        <time>2017-11-22T10:17:18Z</time>
      </trkpt>
      <trkpt lat="45.9633" lon="4.85462">
        <ele>265</ele>
        <time>2017-11-22T10:17:19Z</time>
      </trkpt>
      <trkpt lat="45.96338" lon="4.85465">
        <ele>268</ele>
        <time>2017-11-22T10:17:22Z</time>
      </trkpt>
      <trkpt lat="45.96341" lon="4.85466">
        <ele>268</ele>
        <time>2017-11-22T10:17:23Z</time>
      </trkpt>
      <trkpt lat="45.96348" lon="4.85466">
        <ele>268</ele>
        <time>2017-11-22T10:17:25Z</time>
      </trkpt>
      <trkpt lat="45.96351" lon="4.85466">
        <ele>268</ele>
        <time>2017-11-22T10:17:26Z</time>
      </trkpt>
      <trkpt lat="45.96359" lon="4.85467">
        <ele>268</ele>
        <time>2017-11-22T10:17:28Z</time>
      </trkpt>
      <trkpt lat="45.96362" lon="4.85467">
        <ele>268</ele>
        <time>2017-11-22T10:17:29Z</time>
      </trkpt>
      <trkpt lat="45.96369" lon="4.85467">
        <ele>268</ele>
        <time>2017-11-22T10:17:31Z</time>
      </trkpt>
      <trkpt lat="45.96372" lon="4.85467">
        <ele>268</ele>
        <time>2017-11-22T10:17:32Z</time>
      </trkpt>
      <trkpt lat="45.96379" lon="4.85467">
        <ele>268</ele>
        <time>2017-11-22T10:17:34Z</time>
      </trkpt>
      <trkpt lat="45.96383" lon="4.85467">
        <ele>268</ele>
        <time>2017-11-22T10:17:35Z</time>
      </trkpt>
      <trkpt lat="45.96391" lon="4.85466">
        <ele>269</ele>
        <time>2017-11-22T10:17:37Z</time>
      </trkpt>
      <trkpt lat="45.96395" lon="4.85466">
        <ele>269</ele>
        <time>2017-11-22T10:17:38Z</time>
      </trkpt>
      <trkpt lat="45.96402" lon="4.85466">
        <ele>269</ele>
        <time>2017-11-22T10:17:40Z</time>
      </trkpt>
      <trkpt lat="45.96405" lon="4.85467">
        <ele>269</ele>
        <time>2017-11-22T10:17:41Z</time>
      </trkpt>
      <trkpt lat="45.96413" lon="4.8547">
        <ele>269</ele>
        <time>2017-11-22T10:17:43Z</time>
      </trkpt>
      <trkpt lat="45.96416" lon="4.85471">
        <ele>269</ele>
        <time>2017-11-22T10:17:44Z</time>
      </trkpt>
      <trkpt lat="45.96422" lon="4.85472">
        <ele>271</ele>
        <time>2017-11-22T10:17:46Z</time>
      </trkpt>
      <trkpt lat="45.96425" lon="4.85472">
        <ele>271</ele>
        <time>2017-11-22T10:17:47Z</time>
      </trkpt>
      <trkpt lat="45.96434" lon="4.85474">
        <ele>271</ele>
        <time>2017-11-22T10:17:50Z</time>
      </trkpt>
      <trkpt lat="45.96436" lon="4.85474">
        <ele>271</ele>
        <time>2017-11-22T10:17:51Z</time>
      </trkpt>
      <trkpt lat="45.96445" lon="4.85473">
        <ele>272</ele>
        <time>2017-11-22T10:17:54Z</time>
      </trkpt>
      <trkpt lat="45.96448" lon="4.85473">
        <ele>272</ele>
        <time>2017-11-22T10:17:55Z</time>
      </trkpt>
      <trkpt lat="45.96456" lon="4.85476">
        <ele>272</ele>
        <time>2017-11-22T10:17:57Z</time>
      </trkpt>
      <trkpt lat="45.96458" lon="4.85476">
        <ele>272</ele>
        <time>2017-11-22T10:17:58Z</time>
      </trkpt>
      <trkpt lat="45.96466" lon="4.85477">
        <ele>272</ele>
        <time>2017-11-22T10:18:01Z</time>
      </trkpt>
      <trkpt lat="45.96469" lon="4.85478">
        <ele>272</ele>
        <time>2017-11-22T10:18:02Z</time>
      </trkpt>
      <trkpt lat="45.96475" lon="4.85478">
        <ele>272</ele>
        <time>2017-11-22T10:18:04Z</time>
      </trkpt>
      <trkpt lat="45.96479" lon="4.85478">
        <ele>273</ele>
        <time>2017-11-22T10:18:05Z</time>
      </trkpt>
      <trkpt lat="45.96486" lon="4.85477">
        <ele>273</ele>
        <time>2017-11-22T10:18:07Z</time>
      </trkpt>
      <trkpt lat="45.9649" lon="4.85476">
        <ele>273</ele>
        <time>2017-11-22T10:18:08Z</time>
      </trkpt>
      <trkpt lat="45.96497" lon="4.85474">
        <ele>273</ele>
        <time>2017-11-22T10:18:10Z</time>
      </trkpt>
      <trkpt lat="45.96501" lon="4.85473">
        <ele>275</ele>
        <time>2017-11-22T10:18:11Z</time>
      </trkpt>
      <trkpt lat="45.96508" lon="4.85471">
        <ele>275</ele>
        <time>2017-11-22T10:18:13Z</time>
      </trkpt>
      <trkpt lat="45.96512" lon="4.8547">
        <ele>275</ele>
        <time>2017-11-22T10:18:14Z</time>
      </trkpt>
      <trkpt lat="45.96519" lon="4.85469">
        <ele>275</ele>
        <time>2017-11-22T10:18:16Z</time>
      </trkpt>
      <trkpt lat="45.96523" lon="4.85469">
        <ele>275</ele>
        <time>2017-11-22T10:18:17Z</time>
      </trkpt>
      <trkpt lat="45.9653" lon="4.85467">
        <ele>275</ele>
        <time>2017-11-22T10:18:19Z</time>
      </trkpt>
      <trkpt lat="45.96534" lon="4.85466">
        <ele>275</ele>
        <time>2017-11-22T10:18:20Z</time>
      </trkpt>
      <trkpt lat="45.96541" lon="4.85464">
        <ele>275</ele>
        <time>2017-11-22T10:18:22Z</time>
      </trkpt>
      <trkpt lat="45.96545" lon="4.85463">
        <ele>275</ele>
        <time>2017-11-22T10:18:23Z</time>
      </trkpt>
      <trkpt lat="45.96552" lon="4.85461">
        <ele>275</ele>
        <time>2017-11-22T10:18:25Z</time>
      </trkpt>
      <trkpt lat="45.96555" lon="4.8546">
        <ele>275</ele>
        <time>2017-11-22T10:18:26Z</time>
      </trkpt>
      <trkpt lat="45.96562" lon="4.85458">
        <ele>275</ele>
        <time>2017-11-22T10:18:28Z</time>
      </trkpt>
      <trkpt lat="45.96566" lon="4.85457">
        <ele>275</ele>
        <time>2017-11-22T10:18:29Z</time>
      </trkpt>
      <trkpt lat="45.96572" lon="4.85454">
        <ele>275</ele>
        <time>2017-11-22T10:18:31Z</time>
      </trkpt>
      <trkpt lat="45.96575" lon="4.85453">
        <ele>275</ele>
        <time>2017-11-22T10:18:32Z</time>
      </trkpt>
      <trkpt lat="45.96582" lon="4.85451">
        <ele>275</ele>
        <time>2017-11-22T10:18:34Z</time>
      </trkpt>
      <trkpt lat="45.96585" lon="4.8545">
        <ele>276</ele>
        <time>2017-11-22T10:18:35Z</time>
      </trkpt>
      <trkpt lat="45.96593" lon="4.85448">
        <ele>276</ele>
        <time>2017-11-22T10:18:37Z</time>
      </trkpt>
      <trkpt lat="45.96597" lon="4.85447">
        <ele>276</ele>
        <time>2017-11-22T10:18:38Z</time>
      </trkpt>
      <trkpt lat="45.96604" lon="4.85445">
        <ele>276</ele>
        <time>2017-11-22T10:18:40Z</time>
      </trkpt>
      <trkpt lat="45.96608" lon="4.85445">
        <ele>276</ele>
        <time>2017-11-22T10:18:41Z</time>
      </trkpt>
      <trkpt lat="45.96616" lon="4.85443">
        <ele>276</ele>
        <time>2017-11-22T10:18:43Z</time>
      </trkpt>
      <trkpt lat="45.9662" lon="4.85442">
        <ele>276</ele>
        <time>2017-11-22T10:18:44Z</time>
      </trkpt>
      <trkpt lat="45.96627" lon="4.8544">
        <ele>276</ele>
        <time>2017-11-22T10:18:46Z</time>
      </trkpt>
      <trkpt lat="45.9663" lon="4.85439">
        <ele>276</ele>
        <time>2017-11-22T10:18:47Z</time>
      </trkpt>
      <trkpt lat="45.96636" lon="4.85437">
        <ele>276</ele>
        <time>2017-11-22T10:18:49Z</time>
      </trkpt>
      <trkpt lat="45.9664" lon="4.85436">
        <ele>276</ele>
        <time>2017-11-22T10:18:50Z</time>
      </trkpt>
      <trkpt lat="45.96647" lon="4.85435">
        <ele>276</ele>
        <time>2017-11-22T10:18:52Z</time>
      </trkpt>
      <trkpt lat="45.96652" lon="4.85434">
        <ele>276</ele>
        <time>2017-11-22T10:18:53Z</time>
      </trkpt>
      <trkpt lat="45.9666" lon="4.85431">
        <ele>276</ele>
        <time>2017-11-22T10:18:55Z</time>
      </trkpt>
      <trkpt lat="45.96664" lon="4.85429">
        <ele>276</ele>
        <time>2017-11-22T10:18:56Z</time>
      </trkpt>
      <trkpt lat="45.96672" lon="4.85426">
        <ele>276</ele>
        <time>2017-11-22T10:18:58Z</time>
      </trkpt>
      <trkpt lat="45.96675" lon="4.85425">
        <ele>276</ele>
        <time>2017-11-22T10:18:59Z</time>
      </trkpt>
      <trkpt lat="45.96683" lon="4.85424">
        <ele>276</ele>
        <time>2017-11-22T10:19:01Z</time>
      </trkpt>
      <trkpt lat="45.96686" lon="4.85423">
        <ele>276</ele>
        <time>2017-11-22T10:19:02Z</time>
      </trkpt>
      <trkpt lat="45.96695" lon="4.85421">
        <ele>276</ele>
        <time>2017-11-22T10:19:04Z</time>
      </trkpt>
      <trkpt lat="45.96699" lon="4.8542">
        <ele>276</ele>
        <time>2017-11-22T10:19:05Z</time>
      </trkpt>
      <trkpt lat="45.96704" lon="4.85418">
        <ele>276</ele>
        <time>2017-11-22T10:19:06Z</time>
      </trkpt>
      <trkpt lat="45.96707" lon="4.85415">
        <ele>276</ele>
        <time>2017-11-22T10:19:07Z</time>
      </trkpt>
      <trkpt lat="45.96714" lon="4.85411">
        <ele>276</ele>
        <time>2017-11-22T10:19:09Z</time>
      </trkpt>
      <trkpt lat="45.96717" lon="4.85408">
        <ele>276</ele>
        <time>2017-11-22T10:19:10Z</time>
      </trkpt>
      <trkpt lat="45.96724" lon="4.85403">
        <ele>276</ele>
        <time>2017-11-22T10:19:12Z</time>
      </trkpt>
      <trkpt lat="45.96726" lon="4.85402">
        <ele>277</ele>
        <time>2017-11-22T10:19:13Z</time>
      </trkpt>
      <trkpt lat="45.96734" lon="4.85397">
        <ele>277</ele>
        <time>2017-11-22T10:19:15Z</time>
      </trkpt>
      <trkpt lat="45.96737" lon="4.85393">
        <ele>277</ele>
        <time>2017-11-22T10:19:16Z</time>
      </trkpt>
      <trkpt lat="45.96743" lon="4.85388">
        <ele>277</ele>
        <time>2017-11-22T10:19:18Z</time>
      </trkpt>
      <trkpt lat="45.96745" lon="4.85387">
        <ele>277</ele>
        <time>2017-11-22T10:19:19Z</time>
      </trkpt>
      <trkpt lat="45.96751" lon="4.85383">
        <ele>278</ele>
        <time>2017-11-22T10:19:21Z</time>
      </trkpt>
      <trkpt lat="45.96754" lon="4.8538">
        <ele>278</ele>
        <time>2017-11-22T10:19:22Z</time>
      </trkpt>
      <trkpt lat="45.96761" lon="4.85373">
        <ele>278</ele>
        <time>2017-11-22T10:19:24Z</time>
      </trkpt>
      <trkpt lat="45.96764" lon="4.8537">
        <ele>278</ele>
        <time>2017-11-22T10:19:25Z</time>
      </trkpt>
      <trkpt lat="45.96769" lon="4.85365">
        <ele>278</ele>
        <time>2017-11-22T10:19:27Z</time>
      </trkpt>
      <trkpt lat="45.96772" lon="4.85362">
        <ele>278</ele>
        <time>2017-11-22T10:19:28Z</time>
      </trkpt>
      <trkpt lat="45.96778" lon="4.85357">
        <ele>278</ele>
        <time>2017-11-22T10:19:30Z</time>
      </trkpt>
      <trkpt lat="45.9678" lon="4.85354">
        <ele>278</ele>
        <time>2017-11-22T10:19:31Z</time>
      </trkpt>
      <trkpt lat="45.96786" lon="4.8535">
        <ele>278</ele>
        <time>2017-11-22T10:19:33Z</time>
      </trkpt>
      <trkpt lat="45.9679" lon="4.85347">
        <ele>278</ele>
        <time>2017-11-22T10:19:34Z</time>
      </trkpt>
      <trkpt lat="45.96798" lon="4.85342">
        <ele>279</ele>
        <time>2017-11-22T10:19:36Z</time>
      </trkpt>
      <trkpt lat="45.96801" lon="4.8534">
        <ele>279</ele>
        <time>2017-11-22T10:19:37Z</time>
      </trkpt>
      <trkpt lat="45.96809" lon="4.85336">
        <ele>279</ele>
        <time>2017-11-22T10:19:39Z</time>
      </trkpt>
      <trkpt lat="45.96813" lon="4.85334">
        <ele>279</ele>
        <time>2017-11-22T10:19:40Z</time>
      </trkpt>
      <trkpt lat="45.96821" lon="4.85331">
        <ele>279</ele>
        <time>2017-11-22T10:19:42Z</time>
      </trkpt>
      <trkpt lat="45.96825" lon="4.8533">
        <ele>279</ele>
        <time>2017-11-22T10:19:43Z</time>
      </trkpt>
      <trkpt lat="45.96834" lon="4.85327">
        <ele>281</ele>
        <time>2017-11-22T10:19:45Z</time>
      </trkpt>
      <trkpt lat="45.96838" lon="4.85326">
        <ele>281</ele>
        <time>2017-11-22T10:19:46Z</time>
      </trkpt>
      <trkpt lat="45.96847" lon="4.85324">
        <ele>281</ele>
        <time>2017-11-22T10:19:48Z</time>
      </trkpt>
      <trkpt lat="45.96851" lon="4.85322">
        <ele>282</ele>
        <time>2017-11-22T10:19:49Z</time>
      </trkpt>
      <trkpt lat="45.96859" lon="4.85319">
        <ele>282</ele>
        <time>2017-11-22T10:19:51Z</time>
      </trkpt>
      <trkpt lat="45.96863" lon="4.85318">
        <ele>282</ele>
        <time>2017-11-22T10:19:52Z</time>
      </trkpt>
      <trkpt lat="45.96871" lon="4.85315">
        <ele>283</ele>
        <time>2017-11-22T10:19:54Z</time>
      </trkpt>
      <trkpt lat="45.96876" lon="4.85314">
        <ele>283</ele>
        <time>2017-11-22T10:19:55Z</time>
      </trkpt>
      <trkpt lat="45.9688" lon="4.85313">
        <ele>283</ele>
        <time>2017-11-22T10:19:56Z</time>
      </trkpt>
      <trkpt lat="45.96884" lon="4.8531">
        <ele>283</ele>
        <time>2017-11-22T10:19:57Z</time>
      </trkpt>
      <trkpt lat="45.96889" lon="4.85308">
        <ele>283</ele>
        <time>2017-11-22T10:19:58Z</time>
      </trkpt>
      <trkpt lat="45.96894" lon="4.85307">
        <ele>283</ele>
        <time>2017-11-22T10:19:59Z</time>
      </trkpt>
      <trkpt lat="45.96902" lon="4.85305">
        <ele>284</ele>
        <time>2017-11-22T10:20:01Z</time>
      </trkpt>
      <trkpt lat="45.96906" lon="4.85303">
        <ele>284</ele>
        <time>2017-11-22T10:20:02Z</time>
      </trkpt>
      <trkpt lat="45.9691" lon="4.85301">
        <ele>284</ele>
        <time>2017-11-22T10:20:03Z</time>
      </trkpt>
      <trkpt lat="45.96915" lon="4.85299">
        <ele>284</ele>
        <time>2017-11-22T10:20:04Z</time>
      </trkpt>
      <trkpt lat="45.96924" lon="4.85298">
        <ele>284</ele>
        <time>2017-11-22T10:20:06Z</time>
      </trkpt>
      <trkpt lat="45.96927" lon="4.85298">
        <ele>284</ele>
        <time>2017-11-22T10:20:07Z</time>
      </trkpt>
      <trkpt lat="45.96936" lon="4.85296">
        <ele>284</ele>
        <time>2017-11-22T10:20:09Z</time>
      </trkpt>
      <trkpt lat="45.9694" lon="4.85294">
        <ele>284</ele>
        <time>2017-11-22T10:20:10Z</time>
      </trkpt>
      <trkpt lat="45.96948" lon="4.85294">
        <ele>284</ele>
        <time>2017-11-22T10:20:12Z</time>
      </trkpt>
      <trkpt lat="45.96954" lon="4.85293">
        <ele>284</ele>
        <time>2017-11-22T10:20:13Z</time>
      </trkpt>
      <trkpt lat="45.96958" lon="4.85292">
        <ele>284</ele>
        <time>2017-11-22T10:20:14Z</time>
      </trkpt>
      <trkpt lat="45.96963" lon="4.85291">
        <ele>284</ele>
        <time>2017-11-22T10:20:15Z</time>
      </trkpt>
      <trkpt lat="45.96968" lon="4.85292">
        <ele>284</ele>
        <time>2017-11-22T10:20:16Z</time>
      </trkpt>
      <trkpt lat="45.96973" lon="4.85291">
        <ele>284</ele>
        <time>2017-11-22T10:20:17Z</time>
      </trkpt>
      <trkpt lat="45.96978" lon="4.8529">
        <ele>284</ele>
        <time>2017-11-22T10:20:18Z</time>
      </trkpt>
      <trkpt lat="45.96984" lon="4.8529">
        <ele>284</ele>
        <time>2017-11-22T10:20:19Z</time>
      </trkpt>
      <trkpt lat="45.9699" lon="4.8529">
        <ele>284</ele>
        <time>2017-11-22T10:20:20Z</time>
      </trkpt>
      <trkpt lat="45.96996" lon="4.8529">
        <ele>283</ele>
        <time>2017-11-22T10:20:21Z</time>
      </trkpt>
      <trkpt lat="45.97002" lon="4.85289">
        <ele>282</ele>
        <time>2017-11-22T10:20:22Z</time>
      </trkpt>
      <trkpt lat="45.97008" lon="4.85288">
        <ele>282</ele>
        <time>2017-11-22T10:20:23Z</time>
      </trkpt>
      <trkpt lat="45.97014" lon="4.85286">
        <ele>282</ele>
        <time>2017-11-22T10:20:24Z</time>
      </trkpt>
      <trkpt lat="45.97021" lon="4.85285">
        <ele>282</ele>
        <time>2017-11-22T10:20:25Z</time>
      </trkpt>
      <trkpt lat="45.97029" lon="4.85285">
        <ele>282</ele>
        <time>2017-11-22T10:20:26Z</time>
      </trkpt>
      <trkpt lat="45.97036" lon="4.85285">
        <ele>282</ele>
        <time>2017-11-22T10:20:27Z</time>
      </trkpt>
      <trkpt lat="45.97043" lon="4.85283">
        <ele>282</ele>
        <time>2017-11-22T10:20:28Z</time>
      </trkpt>
      <trkpt lat="45.9705" lon="4.85283">
        <ele>282</ele>
        <time>2017-11-22T10:20:29Z</time>
      </trkpt>
      <trkpt lat="45.97056" lon="4.85282">
        <ele>282</ele>
        <time>2017-11-22T10:20:30Z</time>
      </trkpt>
      <trkpt lat="45.97063" lon="4.8528">
        <ele>282</ele>
        <time>2017-11-22T10:20:31Z</time>
      </trkpt>
      <trkpt lat="45.9707" lon="4.8528">
        <ele>282</ele>
        <time>2017-11-22T10:20:32Z</time>
      </trkpt>
      <trkpt lat="45.97076" lon="4.8528">
        <ele>281</ele>
        <time>2017-11-22T10:20:33Z</time>
      </trkpt>
      <trkpt lat="45.97082" lon="4.8528">
        <ele>281</ele>
        <time>2017-11-22T10:20:34Z</time>
      </trkpt>
      <trkpt lat="45.97088" lon="4.85279">
        <ele>280</ele>
        <time>2017-11-22T10:20:35Z</time>
      </trkpt>
      <trkpt lat="45.97094" lon="4.85279">
        <ele>280</ele>
        <time>2017-11-22T10:20:36Z</time>
      </trkpt>
      <trkpt lat="45.971" lon="4.85277">
        <ele>280</ele>
        <time>2017-11-22T10:20:37Z</time>
      </trkpt>
      <trkpt lat="45.97106" lon="4.85277">
        <ele>280</ele>
        <time>2017-11-22T10:20:38Z</time>
      </trkpt>
      <trkpt lat="45.97111" lon="4.85277">
        <ele>280</ele>
        <time>2017-11-22T10:20:39Z</time>
      </trkpt>
      <trkpt lat="45.97117" lon="4.85278">
        <ele>280</ele>
        <time>2017-11-22T10:20:40Z</time>
      </trkpt>
      <trkpt lat="45.97123" lon="4.85278">
        <ele>280</ele>
        <time>2017-11-22T10:20:41Z</time>
      </trkpt>
      <trkpt lat="45.9713" lon="4.85278">
        <ele>279</ele>
        <time>2017-11-22T10:20:42Z</time>
      </trkpt>
      <trkpt lat="45.97136" lon="4.85279">
        <ele>279</ele>
        <time>2017-11-22T10:20:43Z</time>
      </trkpt>
      <trkpt lat="45.97142" lon="4.85278">
        <ele>279</ele>
        <time>2017-11-22T10:20:44Z</time>
      </trkpt>
      <trkpt lat="45.97148" lon="4.85278">
        <ele>279</ele>
        <time>2017-11-22T10:20:45Z</time>
      </trkpt>
      <trkpt lat="45.97154" lon="4.85278">
        <ele>279</ele>
        <time>2017-11-22T10:20:46Z</time>
      </trkpt>
      <trkpt lat="45.9716" lon="4.85278">
        <ele>279</ele>
        <time>2017-11-22T10:20:47Z</time>
      </trkpt>
      <trkpt lat="45.97166" lon="4.85278">
        <ele>279</ele>
        <time>2017-11-22T10:20:48Z</time>
      </trkpt>
      <trkpt lat="45.97172" lon="4.85276">
        <ele>279</ele>
        <time>2017-11-22T10:20:49Z</time>
      </trkpt>
      <trkpt lat="45.97178" lon="4.85276">
        <ele>279</ele>
        <time>2017-11-22T10:20:50Z</time>
      </trkpt>
      <trkpt lat="45.97185" lon="4.85276">
        <ele>279</ele>
        <time>2017-11-22T10:20:51Z</time>
      </trkpt>
      <trkpt lat="45.97192" lon="4.85276">
        <ele>279</ele>
        <time>2017-11-22T10:20:52Z</time>
      </trkpt>
      <trkpt lat="45.97198" lon="4.85276">
        <ele>279</ele>
        <time>2017-11-22T10:20:53Z</time>
      </trkpt>
      <trkpt lat="45.97204" lon="4.85276">
        <ele>279</ele>
        <time>2017-11-22T10:20:54Z</time>
      </trkpt>
      <trkpt lat="45.9721" lon="4.85276">
        <ele>279</ele>
        <time>2017-11-22T10:20:55Z</time>
      </trkpt>
      <trkpt lat="45.97216" lon="4.85276">
        <ele>279</ele>
        <time>2017-11-22T10:20:56Z</time>
      </trkpt>
      <trkpt lat="45.97222" lon="4.85275">
        <ele>279</ele>
        <time>2017-11-22T10:20:57Z</time>
      </trkpt>
      <trkpt lat="45.97228" lon="4.85276">
        <ele>279</ele>
        <time>2017-11-22T10:20:58Z</time>
      </trkpt>
      <trkpt lat="45.97235" lon="4.85276">
        <ele>279</ele>
        <time>2017-11-22T10:20:59Z</time>
      </trkpt>
      <trkpt lat="45.97241" lon="4.85276">
        <ele>279</ele>
        <time>2017-11-22T10:21:00Z</time>
      </trkpt>
      <trkpt lat="45.97248" lon="4.85275">
        <ele>279</ele>
        <time>2017-11-22T10:21:01Z</time>
      </trkpt>
      <trkpt lat="45.97254" lon="4.85274">
        <ele>281</ele>
        <time>2017-11-22T10:21:02Z</time>
      </trkpt>
      <trkpt lat="45.9726" lon="4.85273">
        <ele>281</ele>
        <time>2017-11-22T10:21:03Z</time>
      </trkpt>
      <trkpt lat="45.97266" lon="4.85272">
        <ele>281</ele>
        <time>2017-11-22T10:21:04Z</time>
      </trkpt>
      <trkpt lat="45.97273" lon="4.85272">
        <ele>281</ele>
        <time>2017-11-22T10:21:05Z</time>
      </trkpt>
      <trkpt lat="45.97278" lon="4.85271">
        <ele>281</ele>
        <time>2017-11-22T10:21:06Z</time>
      </trkpt>
      <trkpt lat="45.97284" lon="4.85271">
        <ele>281</ele>
        <time>2017-11-22T10:21:07Z</time>
      </trkpt>
      <trkpt lat="45.9729" lon="4.8527">
        <ele>281</ele>
        <time>2017-11-22T10:21:08Z</time>
      </trkpt>
      <trkpt lat="45.97296" lon="4.85271">
        <ele>282</ele>
        <time>2017-11-22T10:21:09Z</time>
      </trkpt>
      <trkpt lat="45.97301" lon="4.8527">
        <ele>282</ele>
        <time>2017-11-22T10:21:10Z</time>
      </trkpt>
      <trkpt lat="45.97307" lon="4.8527">
        <ele>282</ele>
        <time>2017-11-22T10:21:11Z</time>
      </trkpt>
      <trkpt lat="45.97312" lon="4.8527">
        <ele>282</ele>
        <time>2017-11-22T10:21:12Z</time>
      </trkpt>
      <trkpt lat="45.97317" lon="4.85269">
        <ele>282</ele>
        <time>2017-11-22T10:21:13Z</time>
      </trkpt>
      <trkpt lat="45.97323" lon="4.85269">
        <ele>282</ele>
        <time>2017-11-22T10:21:14Z</time>
      </trkpt>
      <trkpt lat="45.97327" lon="4.85268">
        <ele>282</ele>
        <time>2017-11-22T10:21:15Z</time>
      </trkpt>
      <trkpt lat="45.97332" lon="4.85269">
        <ele>282</ele>
        <time>2017-11-22T10:21:16Z</time>
      </trkpt>
      <trkpt lat="45.97337" lon="4.8527">
        <ele>283</ele>
        <time>2017-11-22T10:21:17Z</time>
      </trkpt>
      <trkpt lat="45.97346" lon="4.85268">
        <ele>284</ele>
        <time>2017-11-22T10:21:19Z</time>
      </trkpt>
      <trkpt lat="45.97352" lon="4.85267">
        <ele>284</ele>
        <time>2017-11-22T10:21:20Z</time>
      </trkpt>
      <trkpt lat="45.97357" lon="4.85268">
        <ele>284</ele>
        <time>2017-11-22T10:21:21Z</time>
      </trkpt>
      <trkpt lat="45.97362" lon="4.85268">
        <ele>284</ele>
        <time>2017-11-22T10:21:22Z</time>
      </trkpt>
      <trkpt lat="45.97368" lon="4.85267">
        <ele>285</ele>
        <time>2017-11-22T10:21:23Z</time>
      </trkpt>
      <trkpt lat="45.97373" lon="4.85268">
        <ele>285</ele>
        <time>2017-11-22T10:21:24Z</time>
      </trkpt>
      <trkpt lat="45.97381" lon="4.85265">
        <ele>285</ele>
        <time>2017-11-22T10:21:26Z</time>
      </trkpt>
      <trkpt lat="45.97386" lon="4.85263">
        <ele>285</ele>
        <time>2017-11-22T10:21:27Z</time>
      </trkpt>
      <trkpt lat="45.97392" lon="4.85264">
        <ele>285</ele>
        <time>2017-11-22T10:21:28Z</time>
      </trkpt>
      <trkpt lat="45.97397" lon="4.85264">
        <ele>286</ele>
        <time>2017-11-22T10:21:29Z</time>
      </trkpt>
      <trkpt lat="45.97402" lon="4.85263">
        <ele>286</ele>
        <time>2017-11-22T10:21:30Z</time>
      </trkpt>
      <trkpt lat="45.97407" lon="4.85264">
        <ele>286</ele>
        <time>2017-11-22T10:21:31Z</time>
      </trkpt>
      <trkpt lat="45.97412" lon="4.85263">
        <ele>286</ele>
        <time>2017-11-22T10:21:32Z</time>
      </trkpt>
      <trkpt lat="45.97418" lon="4.85263">
        <ele>285</ele>
        <time>2017-11-22T10:21:33Z</time>
      </trkpt>
      <trkpt lat="45.97423" lon="4.85263">
        <ele>285</ele>
        <time>2017-11-22T10:21:34Z</time>
      </trkpt>
      <trkpt lat="45.97428" lon="4.85261">
        <ele>285</ele>
        <time>2017-11-22T10:21:35Z</time>
      </trkpt>
      <trkpt lat="45.97434" lon="4.85263">
        <ele>285</ele>
        <time>2017-11-22T10:21:36Z</time>
      </trkpt>
      <trkpt lat="45.97441" lon="4.85264">
        <ele>285</ele>
        <time>2017-11-22T10:21:37Z</time>
      </trkpt>
      <trkpt lat="45.97448" lon="4.85264">
        <ele>285</ele>
        <time>2017-11-22T10:21:38Z</time>
      </trkpt>
      <trkpt lat="45.97455" lon="4.85263">
        <ele>284</ele>
        <time>2017-11-22T10:21:39Z</time>
      </trkpt>
      <trkpt lat="45.97462" lon="4.85265">
        <ele>284</ele>
        <time>2017-11-22T10:21:40Z</time>
      </trkpt>
      <trkpt lat="45.97468" lon="4.85262">
        <ele>284</ele>
        <time>2017-11-22T10:21:41Z</time>
      </trkpt>
      <trkpt lat="45.97476" lon="4.85264">
        <ele>284</ele>
        <time>2017-11-22T10:21:42Z</time>
      </trkpt>
      <trkpt lat="45.97483" lon="4.85262">
        <ele>284</ele>
        <time>2017-11-22T10:21:43Z</time>
      </trkpt>
      <trkpt lat="45.9749" lon="4.85262">
        <ele>283</ele>
        <time>2017-11-22T10:21:44Z</time>
      </trkpt>
      <trkpt lat="45.97496" lon="4.85262">
        <ele>283</ele>
        <time>2017-11-22T10:21:45Z</time>
      </trkpt>
      <trkpt lat="45.97504" lon="4.85262">
        <ele>282</ele>
        <time>2017-11-22T10:21:46Z</time>
      </trkpt>
      <trkpt lat="45.97511" lon="4.85261">
        <ele>282</ele>
        <time>2017-11-22T10:21:47Z</time>
      </trkpt>
      <trkpt lat="45.97519" lon="4.85263">
        <ele>281</ele>
        <time>2017-11-22T10:21:48Z</time>
      </trkpt>
      <trkpt lat="45.97525" lon="4.85264">
        <ele>281</ele>
        <time>2017-11-22T10:21:49Z</time>
      </trkpt>
      <trkpt lat="45.97532" lon="4.85264">
        <ele>281</ele>
        <time>2017-11-22T10:21:50Z</time>
      </trkpt>
      <trkpt lat="45.97539" lon="4.85264">
        <ele>281</ele>
        <time>2017-11-22T10:21:51Z</time>
      </trkpt>
      <trkpt lat="45.97544" lon="4.85264">
        <ele>281</ele>
        <time>2017-11-22T10:21:52Z</time>
      </trkpt>
      <trkpt lat="45.9755" lon="4.85263">
        <ele>281</ele>
        <time>2017-11-22T10:21:53Z</time>
      </trkpt>
      <trkpt lat="45.97556" lon="4.85262">
        <ele>281</ele>
        <time>2017-11-22T10:21:54Z</time>
      </trkpt>
      <trkpt lat="45.97562" lon="4.85261">
        <ele>281</ele>
        <time>2017-11-22T10:21:55Z</time>
      </trkpt>
      <trkpt lat="45.97568" lon="4.8526">
        <ele>281</ele>
        <time>2017-11-22T10:21:56Z</time>
      </trkpt>
      <trkpt lat="45.97574" lon="4.85259">
        <ele>281</ele>
        <time>2017-11-22T10:21:57Z</time>
      </trkpt>
      <trkpt lat="45.97581" lon="4.85259">
        <ele>281</ele>
        <time>2017-11-22T10:21:58Z</time>
      </trkpt>
      <trkpt lat="45.97587" lon="4.85258">
        <ele>281</ele>
        <time>2017-11-22T10:21:59Z</time>
      </trkpt>
      <trkpt lat="45.97595" lon="4.85257">
        <ele>280</ele>
        <time>2017-11-22T10:22:00Z</time>
      </trkpt>
      <trkpt lat="45.97602" lon="4.85257">
        <ele>280</ele>
        <time>2017-11-22T10:22:01Z</time>
      </trkpt>
      <trkpt lat="45.97611" lon="4.85256">
        <ele>279</ele>
        <time>2017-11-22T10:22:02Z</time>
      </trkpt>
      <trkpt lat="45.97619" lon="4.85255">
        <ele>279</ele>
        <time>2017-11-22T10:22:03Z</time>
      </trkpt>
      <trkpt lat="45.97627" lon="4.85253">
        <ele>278</ele>
        <time>2017-11-22T10:22:04Z</time>
      </trkpt>
      <trkpt lat="45.97635" lon="4.85253">
        <ele>278</ele>
        <time>2017-11-22T10:22:05Z</time>
      </trkpt>
      <trkpt lat="45.97644" lon="4.85251">
        <ele>277</ele>
        <time>2017-11-22T10:22:06Z</time>
      </trkpt>
      <trkpt lat="45.97651" lon="4.85251">
        <ele>277</ele>
        <time>2017-11-22T10:22:07Z</time>
      </trkpt>
      <trkpt lat="45.97658" lon="4.85249">
        <ele>277</ele>
        <time>2017-11-22T10:22:08Z</time>
      </trkpt>
      <trkpt lat="45.97665" lon="4.85249">
        <ele>276</ele>
        <time>2017-11-22T10:22:09Z</time>
      </trkpt>
      <trkpt lat="45.97672" lon="4.85247">
        <ele>276</ele>
        <time>2017-11-22T10:22:10Z</time>
      </trkpt>
      <trkpt lat="45.9768" lon="4.85247">
        <ele>276</ele>
        <time>2017-11-22T10:22:11Z</time>
      </trkpt>
      <trkpt lat="45.97687" lon="4.85247">
        <ele>276</ele>
        <time>2017-11-22T10:22:12Z</time>
      </trkpt>
      <trkpt lat="45.97693" lon="4.85246">
        <ele>275</ele>
        <time>2017-11-22T10:22:13Z</time>
      </trkpt>
      <trkpt lat="45.977" lon="4.85244">
        <ele>275</ele>
        <time>2017-11-22T10:22:14Z</time>
      </trkpt>
      <trkpt lat="45.97706" lon="4.85244">
        <ele>275</ele>
        <time>2017-11-22T10:22:15Z</time>
      </trkpt>
      <trkpt lat="45.97713" lon="4.85244">
        <ele>275</ele>
        <time>2017-11-22T10:22:16Z</time>
      </trkpt>
      <trkpt lat="45.97719" lon="4.85244">
        <ele>275</ele>
        <time>2017-11-22T10:22:17Z</time>
      </trkpt>
      <trkpt lat="45.97725" lon="4.85243">
        <ele>275</ele>
        <time>2017-11-22T10:22:18Z</time>
      </trkpt>
      <trkpt lat="45.9773" lon="4.85243">
        <ele>275</ele>
        <time>2017-11-22T10:22:19Z</time>
      </trkpt>
      <trkpt lat="45.97736" lon="4.85241">
        <ele>275</ele>
        <time>2017-11-22T10:22:20Z</time>
      </trkpt>
      <trkpt lat="45.97741" lon="4.85241">
        <ele>274</ele>
        <time>2017-11-22T10:22:21Z</time>
      </trkpt>
      <trkpt lat="45.97748" lon="4.85241">
        <ele>274</ele>
        <time>2017-11-22T10:22:22Z</time>
      </trkpt>
      <trkpt lat="45.97754" lon="4.85241">
        <ele>274</ele>
        <time>2017-11-22T10:22:23Z</time>
      </trkpt>
      <trkpt lat="45.9776" lon="4.8524">
        <ele>274</ele>
        <time>2017-11-22T10:22:24Z</time>
      </trkpt>
      <trkpt lat="45.97768" lon="4.85239">
        <ele>274</ele>
        <time>2017-11-22T10:22:25Z</time>
      </trkpt>
      <trkpt lat="45.97774" lon="4.85239">
        <ele>274</ele>
        <time>2017-11-22T10:22:26Z</time>
      </trkpt>
      <trkpt lat="45.97781" lon="4.85239">
        <ele>274</ele>
        <time>2017-11-22T10:22:27Z</time>
      </trkpt>
      <trkpt lat="45.97787" lon="4.85239">
        <ele>274</ele>
        <time>2017-11-22T10:22:28Z</time>
      </trkpt>
      <trkpt lat="45.97794" lon="4.85238">
        <ele>274</ele>
        <time>2017-11-22T10:22:29Z</time>
      </trkpt>
      <trkpt lat="45.97801" lon="4.85238">
        <ele>274</ele>
        <time>2017-11-22T10:22:30Z</time>
      </trkpt>
      <trkpt lat="45.97807" lon="4.85236">
        <ele>274</ele>
        <time>2017-11-22T10:22:31Z</time>
      </trkpt>
      <trkpt lat="45.97814" lon="4.85236">
        <ele>275</ele>
        <time>2017-11-22T10:22:32Z</time>
      </trkpt>
      <trkpt lat="45.9782" lon="4.85235">
        <ele>275</ele>
        <time>2017-11-22T10:22:33Z</time>
      </trkpt>
      <trkpt lat="45.97827" lon="4.85233">
        <ele>275</ele>
        <time>2017-11-22T10:22:34Z</time>
      </trkpt>
      <trkpt lat="45.97832" lon="4.85233">
        <ele>275</ele>
        <time>2017-11-22T10:22:35Z</time>
      </trkpt>
      <trkpt lat="45.97839" lon="4.85233">
        <ele>275</ele>
        <time>2017-11-22T10:22:36Z</time>
      </trkpt>
      <trkpt lat="45.97845" lon="4.85233">
        <ele>275</ele>
        <time>2017-11-22T10:22:37Z</time>
      </trkpt>
      <trkpt lat="45.97851" lon="4.85233">
        <ele>275</ele>
        <time>2017-11-22T10:22:38Z</time>
      </trkpt>
      <trkpt lat="45.97857" lon="4.85231">
        <ele>275</ele>
        <time>2017-11-22T10:22:39Z</time>
      </trkpt>
      <trkpt lat="45.97863" lon="4.85231">
        <ele>275</ele>
        <time>2017-11-22T10:22:40Z</time>
      </trkpt>
      <trkpt lat="45.97868" lon="4.85231">
        <ele>275</ele>
        <time>2017-11-22T10:22:41Z</time>
      </trkpt>
      <trkpt lat="45.97874" lon="4.8523">
        <ele>275</ele>
        <time>2017-11-22T10:22:42Z</time>
      </trkpt>
      <trkpt lat="45.97879" lon="4.8523">
        <ele>275</ele>
        <time>2017-11-22T10:22:43Z</time>
      </trkpt>
      <trkpt lat="45.97884" lon="4.8523">
        <ele>275</ele>
        <time>2017-11-22T10:22:44Z</time>
      </trkpt>
      <trkpt lat="45.9789" lon="4.8523">
        <ele>275</ele>
        <time>2017-11-22T10:22:45Z</time>
      </trkpt>
      <trkpt lat="45.97896" lon="4.85229">
        <ele>275</ele>
        <time>2017-11-22T10:22:46Z</time>
      </trkpt>
      <trkpt lat="45.97902" lon="4.85229">
        <ele>275</ele>
        <time>2017-11-22T10:22:47Z</time>
      </trkpt>
      <trkpt lat="45.97908" lon="4.85229">
        <ele>275</ele>
        <time>2017-11-22T10:22:48Z</time>
      </trkpt>
      <trkpt lat="45.97915" lon="4.85228">
        <ele>275</ele>
        <time>2017-11-22T10:22:49Z</time>
      </trkpt>
      <trkpt lat="45.97921" lon="4.85227">
        <ele>276</ele>
        <time>2017-11-22T10:22:50Z</time>
      </trkpt>
      <trkpt lat="45.97928" lon="4.85226">
        <ele>276</ele>
        <time>2017-11-22T10:22:51Z</time>
      </trkpt>
      <trkpt lat="45.97935" lon="4.85224">
        <ele>276</ele>
        <time>2017-11-22T10:22:52Z</time>
      </trkpt>
      <trkpt lat="45.97942" lon="4.85224">
        <ele>276</ele>
        <time>2017-11-22T10:22:53Z</time>
      </trkpt>
      <trkpt lat="45.97948" lon="4.85223">
        <ele>276</ele>
        <time>2017-11-22T10:22:54Z</time>
      </trkpt>
      <trkpt lat="45.97955" lon="4.85222">
        <ele>276</ele>
        <time>2017-11-22T10:22:55Z</time>
      </trkpt>
      <trkpt lat="45.97961" lon="4.85222">
        <ele>276</ele>
        <time>2017-11-22T10:22:56Z</time>
      </trkpt>
      <trkpt lat="45.97967" lon="4.85222">
        <ele>276</ele>
        <time>2017-11-22T10:22:57Z</time>
      </trkpt>
      <trkpt lat="45.97972" lon="4.85222">
        <ele>276</ele>
        <time>2017-11-22T10:22:58Z</time>
      </trkpt>
      <trkpt lat="45.97978" lon="4.85221">
        <ele>276</ele>
        <time>2017-11-22T10:22:59Z</time>
      </trkpt>
      <trkpt lat="45.97984" lon="4.85221">
        <ele>276</ele>
        <time>2017-11-22T10:23:00Z</time>
      </trkpt>
      <trkpt lat="45.97989" lon="4.85219">
        <ele>276</ele>
        <time>2017-11-22T10:23:01Z</time>
      </trkpt>
      <trkpt lat="45.97995" lon="4.85219">
        <ele>276</ele>
        <time>2017-11-22T10:23:02Z</time>
      </trkpt>
      <trkpt lat="45.98002" lon="4.85219">
        <ele>276</ele>
        <time>2017-11-22T10:23:03Z</time>
      </trkpt>
      <trkpt lat="45.98008" lon="4.85218">
        <ele>276</ele>
        <time>2017-11-22T10:23:04Z</time>
      </trkpt>
      <trkpt lat="45.98014" lon="4.85217">
        <ele>276</ele>
        <time>2017-11-22T10:23:05Z</time>
      </trkpt>
      <trkpt lat="45.9802" lon="4.85217">
        <ele>276</ele>
        <time>2017-11-22T10:23:06Z</time>
      </trkpt>
      <trkpt lat="45.98025" lon="4.85216">
        <ele>276</ele>
        <time>2017-11-22T10:23:07Z</time>
      </trkpt>
      <trkpt lat="45.98031" lon="4.85216">
        <ele>276</ele>
        <time>2017-11-22T10:23:08Z</time>
      </trkpt>
      <trkpt lat="45.98037" lon="4.85216">
        <ele>276</ele>
        <time>2017-11-22T10:23:09Z</time>
      </trkpt>
      <trkpt lat="45.98042" lon="4.85216">
        <ele>276</ele>
        <time>2017-11-22T10:23:10Z</time>
      </trkpt>
      <trkpt lat="45.98048" lon="4.85215">
        <ele>276</ele>
        <time>2017-11-22T10:23:11Z</time>
      </trkpt>
      <trkpt lat="45.98053" lon="4.85214">
        <ele>276</ele>
        <time>2017-11-22T10:23:12Z</time>
      </trkpt>
      <trkpt lat="45.98059" lon="4.85213">
        <ele>276</ele>
        <time>2017-11-22T10:23:13Z</time>
      </trkpt>
      <trkpt lat="45.98064" lon="4.85212">
        <ele>276</ele>
        <time>2017-11-22T10:23:14Z</time>
      </trkpt>
      <trkpt lat="45.98069" lon="4.85211">
        <ele>276</ele>
        <time>2017-11-22T10:23:15Z</time>
      </trkpt>
      <trkpt lat="45.98075" lon="4.85211">
        <ele>276</ele>
        <time>2017-11-22T10:23:16Z</time>
      </trkpt>
      <trkpt lat="45.9808" lon="4.8521">
        <ele>276</ele>
        <time>2017-11-22T10:23:17Z</time>
      </trkpt>
      <trkpt lat="45.98086" lon="4.8521">
        <ele>275</ele>
        <time>2017-11-22T10:23:18Z</time>
      </trkpt>
      <trkpt lat="45.98092" lon="4.85209">
        <ele>275</ele>
        <time>2017-11-22T10:23:19Z</time>
      </trkpt>
      <trkpt lat="45.98099" lon="4.85209">
        <ele>275</ele>
        <time>2017-11-22T10:23:20Z</time>
      </trkpt>
      <trkpt lat="45.98105" lon="4.8521">
        <ele>275</ele>
        <time>2017-11-22T10:23:21Z</time>
      </trkpt>
      <trkpt lat="45.98112" lon="4.85207">
        <ele>275</ele>
        <time>2017-11-22T10:23:22Z</time>
      </trkpt>
      <trkpt lat="45.98119" lon="4.85207">
        <ele>275</ele>
        <time>2017-11-22T10:23:23Z</time>
      </trkpt>
      <trkpt lat="45.98126" lon="4.85206">
        <ele>275</ele>
        <time>2017-11-22T10:23:24Z</time>
      </trkpt>
      <trkpt lat="45.98134" lon="4.85206">
        <ele>275</ele>
        <time>2017-11-22T10:23:25Z</time>
      </trkpt>
      <trkpt lat="45.98141" lon="4.85206">
        <ele>275</ele>
        <time>2017-11-22T10:23:26Z</time>
      </trkpt>
      <trkpt lat="45.98147" lon="4.85206">
        <ele>275</ele>
        <time>2017-11-22T10:23:27Z</time>
      </trkpt>
      <trkpt lat="45.98154" lon="4.85206">
        <ele>275</ele>
        <time>2017-11-22T10:23:28Z</time>
      </trkpt>
      <trkpt lat="45.9816" lon="4.85206">
        <ele>274</ele>
        <time>2017-11-22T10:23:29Z</time>
      </trkpt>
      <trkpt lat="45.98167" lon="4.85205">
        <ele>274</ele>
        <time>2017-11-22T10:23:30Z</time>
      </trkpt>
      <trkpt lat="45.98174" lon="4.85205">
        <ele>274</ele>
        <time>2017-11-22T10:23:31Z</time>
      </trkpt>
      <trkpt lat="45.98181" lon="4.85204">
        <ele>274</ele>
        <time>2017-11-22T10:23:32Z</time>
      </trkpt>
      <trkpt lat="45.98187" lon="4.85203">
        <ele>274</ele>
        <time>2017-11-22T10:23:33Z</time>
      </trkpt>
      <trkpt lat="45.98195" lon="4.85202">
        <ele>274</ele>
        <time>2017-11-22T10:23:34Z</time>
      </trkpt>
      <trkpt lat="45.98201" lon="4.852">
        <ele>274</ele>
        <time>2017-11-22T10:23:35Z</time>
      </trkpt>
      <trkpt lat="45.98208" lon="4.85199">
        <ele>274</ele>
        <time>2017-11-22T10:23:36Z</time>
      </trkpt>
      <trkpt lat="45.98214" lon="4.85198">
        <ele>274</ele>
        <time>2017-11-22T10:23:37Z</time>
      </trkpt>
      <trkpt lat="45.98221" lon="4.85197">
        <ele>274</ele>
        <time>2017-11-22T10:23:38Z</time>
      </trkpt>
      <trkpt lat="45.98228" lon="4.85196">
        <ele>274</ele>
        <time>2017-11-22T10:23:39Z</time>
      </trkpt>
      <trkpt lat="45.98235" lon="4.85195">
        <ele>274</ele>
        <time>2017-11-22T10:23:40Z</time>
      </trkpt>
      <trkpt lat="45.98243" lon="4.85194">
        <ele>274</ele>
        <time>2017-11-22T10:23:41Z</time>
      </trkpt>
      <trkpt lat="45.9825" lon="4.85194">
        <ele>274</ele>
        <time>2017-11-22T10:23:42Z</time>
      </trkpt>
      <trkpt lat="45.98257" lon="4.85194">
        <ele>274</ele>
        <time>2017-11-22T10:23:43Z</time>
      </trkpt>
      <trkpt lat="45.98265" lon="4.85194">
        <ele>274</ele>
        <time>2017-11-22T10:23:44Z</time>
      </trkpt>
      <trkpt lat="45.98272" lon="4.85193">
        <ele>274</ele>
        <time>2017-11-22T10:23:45Z</time>
      </trkpt>
      <trkpt lat="45.9828" lon="4.85192">
        <ele>274</ele>
        <time>2017-11-22T10:23:46Z</time>
      </trkpt>
      <trkpt lat="45.98288" lon="4.85191">
        <ele>274</ele>
        <time>2017-11-22T10:23:47Z</time>
      </trkpt>
      <trkpt lat="45.98296" lon="4.8519">
        <ele>274</ele>
        <time>2017-11-22T10:23:48Z</time>
      </trkpt>
      <trkpt lat="45.98304" lon="4.85188">
        <ele>274</ele>
        <time>2017-11-22T10:23:49Z</time>
      </trkpt>
      <trkpt lat="45.98313" lon="4.85188">
        <ele>274</ele>
        <time>2017-11-22T10:23:50Z</time>
      </trkpt>
      <trkpt lat="45.98321" lon="4.85187">
        <ele>274</ele>
        <time>2017-11-22T10:23:51Z</time>
      </trkpt>
      <trkpt lat="45.98329" lon="4.85187">
        <ele>274</ele>
        <time>2017-11-22T10:23:52Z</time>
      </trkpt>
      <trkpt lat="45.98337" lon="4.85186">
        <ele>275</ele>
        <time>2017-11-22T10:23:53Z</time>
      </trkpt>
      <trkpt lat="45.98345" lon="4.85186">
        <ele>275</ele>
        <time>2017-11-22T10:23:54Z</time>
      </trkpt>
      <trkpt lat="45.98353" lon="4.85186">
        <ele>275</ele>
        <time>2017-11-22T10:23:55Z</time>
      </trkpt>
      <trkpt lat="45.98361" lon="4.85185">
        <ele>275</ele>
        <time>2017-11-22T10:23:56Z</time>
      </trkpt>
      <trkpt lat="45.98369" lon="4.85185">
        <ele>275</ele>
        <time>2017-11-22T10:23:57Z</time>
      </trkpt>
      <trkpt lat="45.98377" lon="4.85184">
        <ele>275</ele>
        <time>2017-11-22T10:23:58Z</time>
      </trkpt>
      <trkpt lat="45.98385" lon="4.85182">
        <ele>275</ele>
        <time>2017-11-22T10:23:59Z</time>
      </trkpt>
      <trkpt lat="45.98393" lon="4.85181">
        <ele>275</ele>
        <time>2017-11-22T10:24:00Z</time>
      </trkpt>
      <trkpt lat="45.98401" lon="4.8518">
        <ele>275</ele>
        <time>2017-11-22T10:24:01Z</time>
      </trkpt>
      <trkpt lat="45.9841" lon="4.85179">
        <ele>276</ele>
        <time>2017-11-22T10:24:02Z</time>
      </trkpt>
      <trkpt lat="45.98418" lon="4.85179">
        <ele>275</ele>
        <time>2017-11-22T10:24:03Z</time>
      </trkpt>
      <trkpt lat="45.98426" lon="4.85178">
        <ele>275</ele>
        <time>2017-11-22T10:24:04Z</time>
      </trkpt>
      <trkpt lat="45.98434" lon="4.85178">
        <ele>275</ele>
        <time>2017-11-22T10:24:05Z</time>
      </trkpt>
      <trkpt lat="45.98442" lon="4.85178">
        <ele>275</ele>
        <time>2017-11-22T10:24:06Z</time>
      </trkpt>
      <trkpt lat="45.98449" lon="4.85176">
        <ele>275</ele>
        <time>2017-11-22T10:24:07Z</time>
      </trkpt>
      <trkpt lat="45.98456" lon="4.85176">
        <ele>275</ele>
        <time>2017-11-22T10:24:08Z</time>
      </trkpt>
      <trkpt lat="45.98464" lon="4.85175">
        <ele>275</ele>
        <time>2017-11-22T10:24:09Z</time>
      </trkpt>
      <trkpt lat="45.98471" lon="4.85174">
        <ele>275</ele>
        <time>2017-11-22T10:24:10Z</time>
      </trkpt>
      <trkpt lat="45.98478" lon="4.85174">
        <ele>275</ele>
        <time>2017-11-22T10:24:11Z</time>
      </trkpt>
      <trkpt lat="45.98486" lon="4.85174">
        <ele>275</ele>
        <time>2017-11-22T10:24:12Z</time>
      </trkpt>
      <trkpt lat="45.98493" lon="4.85173">
        <ele>275</ele>
        <time>2017-11-22T10:24:13Z</time>
      </trkpt>
      <trkpt lat="45.985" lon="4.85172">
        <ele>275</ele>
        <time>2017-11-22T10:24:14Z</time>
      </trkpt>
      <trkpt lat="45.98508" lon="4.85171">
        <ele>274</ele>
        <time>2017-11-22T10:24:15Z</time>
      </trkpt>
      <trkpt lat="45.98514" lon="4.8517">
        <ele>274</ele>
        <time>2017-11-22T10:24:16Z</time>
      </trkpt>
      <trkpt lat="45.98521" lon="4.85168">
        <ele>274</ele>
        <time>2017-11-22T10:24:17Z</time>
      </trkpt>
      <trkpt lat="45.98527" lon="4.85167">
        <ele>274</ele>
        <time>2017-11-22T10:24:18Z</time>
      </trkpt>
      <trkpt lat="45.98535" lon="4.85164">
        <ele>274</ele>
        <time>2017-11-22T10:24:19Z</time>
      </trkpt>
      <trkpt lat="45.98542" lon="4.85162">
        <ele>274</ele>
        <time>2017-11-22T10:24:20Z</time>
      </trkpt>
      <trkpt lat="45.9855" lon="4.85159">
        <ele>274</ele>
        <time>2017-11-22T10:24:21Z</time>
      </trkpt>
      <trkpt lat="45.98557" lon="4.85156">
        <ele>274</ele>
        <time>2017-11-22T10:24:22Z</time>
      </trkpt>
      <trkpt lat="45.98564" lon="4.85153">
        <ele>274</ele>
        <time>2017-11-22T10:24:23Z</time>
      </trkpt>
      <trkpt lat="45.98571" lon="4.85151">
        <ele>273</ele>
        <time>2017-11-22T10:24:24Z</time>
      </trkpt>
      <trkpt lat="45.98578" lon="4.85148">
        <ele>273</ele>
        <time>2017-11-22T10:24:25Z</time>
      </trkpt>
      <trkpt lat="45.98586" lon="4.85143">
        <ele>272</ele>
        <time>2017-11-22T10:24:26Z</time>
      </trkpt>
      <trkpt lat="45.98593" lon="4.85138">
        <ele>272</ele>
        <time>2017-11-22T10:24:27Z</time>
      </trkpt>
      <trkpt lat="45.986" lon="4.85134">
        <ele>272</ele>
        <time>2017-11-22T10:24:28Z</time>
      </trkpt>
      <trkpt lat="45.98609" lon="4.85129">
        <ele>272</ele>
        <time>2017-11-22T10:24:29Z</time>
      </trkpt>
      <trkpt lat="45.98616" lon="4.85126">
        <ele>272</ele>
        <time>2017-11-22T10:24:30Z</time>
      </trkpt>
      <trkpt lat="45.98623" lon="4.85121">
        <ele>272</ele>
        <time>2017-11-22T10:24:31Z</time>
      </trkpt>
      <trkpt lat="45.9863" lon="4.85117">
        <ele>272</ele>
        <time>2017-11-22T10:24:32Z</time>
      </trkpt>
      <trkpt lat="45.98638" lon="4.85114">
        <ele>272</ele>
        <time>2017-11-22T10:24:33Z</time>
      </trkpt>
      <trkpt lat="45.98646" lon="4.85109">
        <ele>272</ele>
        <time>2017-11-22T10:24:34Z</time>
      </trkpt>
      <trkpt lat="45.98654" lon="4.85105">
        <ele>271</ele>
        <time>2017-11-22T10:24:35Z</time>
      </trkpt>
      <trkpt lat="45.98662" lon="4.85101">
        <ele>271</ele>
        <time>2017-11-22T10:24:36Z</time>
      </trkpt>
      <trkpt lat="45.98671" lon="4.85098">
        <ele>270</ele>
        <time>2017-11-22T10:24:37Z</time>
      </trkpt>
      <trkpt lat="45.98679" lon="4.85094">
        <ele>270</ele>
        <time>2017-11-22T10:24:38Z</time>
      </trkpt>
      <trkpt lat="45.98687" lon="4.85089">
        <ele>270</ele>
        <time>2017-11-22T10:24:39Z</time>
      </trkpt>
      <trkpt lat="45.98695" lon="4.85085">
        <ele>270</ele>
        <time>2017-11-22T10:24:40Z</time>
      </trkpt>
      <trkpt lat="45.98704" lon="4.85081">
        <ele>270</ele>
        <time>2017-11-22T10:24:41Z</time>
      </trkpt>
      <trkpt lat="45.98712" lon="4.85076">
        <ele>270</ele>
        <time>2017-11-22T10:24:42Z</time>
      </trkpt>
      <trkpt lat="45.98721" lon="4.85072">
        <ele>270</ele>
        <time>2017-11-22T10:24:43Z</time>
      </trkpt>
      <trkpt lat="45.98729" lon="4.85068">
        <ele>269</ele>
        <time>2017-11-22T10:24:44Z</time>
      </trkpt>
      <trkpt lat="45.98738" lon="4.85064">
        <ele>269</ele>
        <time>2017-11-22T10:24:45Z</time>
      </trkpt>
      <trkpt lat="45.98746" lon="4.8506">
        <ele>269</ele>
        <time>2017-11-22T10:24:46Z</time>
      </trkpt>
      <trkpt lat="45.98754" lon="4.85055">
        <ele>268</ele>
        <time>2017-11-22T10:24:47Z</time>
      </trkpt>
      <trkpt lat="45.98763" lon="4.85051">
        <ele>268</ele>
        <time>2017-11-22T10:24:48Z</time>
      </trkpt>
      <trkpt lat="45.98771" lon="4.85046">
        <ele>268</ele>
        <time>2017-11-22T10:24:49Z</time>
      </trkpt>
      <trkpt lat="45.98779" lon="4.85041">
        <ele>267</ele>
        <time>2017-11-22T10:24:50Z</time>
      </trkpt>
      <trkpt lat="45.98788" lon="4.85037">
        <ele>267</ele>
        <time>2017-11-22T10:24:51Z</time>
      </trkpt>
      <trkpt lat="45.98796" lon="4.85032">
        <ele>267</ele>
        <time>2017-11-22T10:24:52Z</time>
      </trkpt>
      <trkpt lat="45.98804" lon="4.85028">
        <ele>267</ele>
        <time>2017-11-22T10:24:53Z</time>
      </trkpt>
      <trkpt lat="45.98812" lon="4.85024">
        <ele>267</ele>
        <time>2017-11-22T10:24:54Z</time>
      </trkpt>
      <trkpt lat="45.98819" lon="4.85019">
        <ele>267</ele>
        <time>2017-11-22T10:24:55Z</time>
      </trkpt>
      <trkpt lat="45.98827" lon="4.85015">
        <ele>267</ele>
        <time>2017-11-22T10:24:56Z</time>
      </trkpt>
      <trkpt lat="45.98835" lon="4.8501">
        <ele>267</ele>
        <time>2017-11-22T10:24:57Z</time>
      </trkpt>
      <trkpt lat="45.98844" lon="4.85006">
        <ele>267</ele>
        <time>2017-11-22T10:24:58Z</time>
      </trkpt>
      <trkpt lat="45.98852" lon="4.85002">
        <ele>267</ele>
        <time>2017-11-22T10:24:59Z</time>
      </trkpt>
      <trkpt lat="45.98861" lon="4.84998">
        <ele>267</ele>
        <time>2017-11-22T10:25:00Z</time>
      </trkpt>
      <trkpt lat="45.98869" lon="4.84995">
        <ele>267</ele>
        <time>2017-11-22T10:25:01Z</time>
      </trkpt>
      <trkpt lat="45.98877" lon="4.8499">
        <ele>267</ele>
        <time>2017-11-22T10:25:02Z</time>
      </trkpt>
      <trkpt lat="45.98886" lon="4.84986">
        <ele>267</ele>
        <time>2017-11-22T10:25:03Z</time>
      </trkpt>
      <trkpt lat="45.98894" lon="4.84983">
        <ele>267</ele>
        <time>2017-11-22T10:25:04Z</time>
      </trkpt>
      <trkpt lat="45.98902" lon="4.8498">
        <ele>267</ele>
        <time>2017-11-22T10:25:05Z</time>
      </trkpt>
      <trkpt lat="45.9891" lon="4.84975">
        <ele>267</ele>
        <time>2017-11-22T10:25:06Z</time>
      </trkpt>
      <trkpt lat="45.98917" lon="4.84971">
        <ele>267</ele>
        <time>2017-11-22T10:25:07Z</time>
      </trkpt>
      <trkpt lat="45.98924" lon="4.84968">
        <ele>267</ele>
        <time>2017-11-22T10:25:08Z</time>
      </trkpt>
      <trkpt lat="45.98931" lon="4.84965">
        <ele>266</ele>
        <time>2017-11-22T10:25:09Z</time>
      </trkpt>
      <trkpt lat="45.98938" lon="4.84961">
        <ele>266</ele>
        <time>2017-11-22T10:25:10Z</time>
      </trkpt>
      <trkpt lat="45.98946" lon="4.84957">
        <ele>266</ele>
        <time>2017-11-22T10:25:11Z</time>
      </trkpt>
      <trkpt lat="45.98953" lon="4.84954">
        <ele>266</ele>
        <time>2017-11-22T10:25:12Z</time>
      </trkpt>
      <trkpt lat="45.9896" lon="4.84951">
        <ele>266</ele>
        <time>2017-11-22T10:25:13Z</time>
      </trkpt>
      <trkpt lat="45.98967" lon="4.84947">
        <ele>266</ele>
        <time>2017-11-22T10:25:14Z</time>
      </trkpt>
      <trkpt lat="45.98975" lon="4.84943">
        <ele>266</ele>
        <time>2017-11-22T10:25:15Z</time>
      </trkpt>
      <trkpt lat="45.98983" lon="4.84938">
        <ele>266</ele>
        <time>2017-11-22T10:25:16Z</time>
      </trkpt>
      <trkpt lat="45.9899" lon="4.84935">
        <ele>266</ele>
        <time>2017-11-22T10:25:17Z</time>
      </trkpt>
      <trkpt lat="45.98998" lon="4.84931">
        <ele>266</ele>
        <time>2017-11-22T10:25:18Z</time>
      </trkpt>
      <trkpt lat="45.99005" lon="4.84928">
        <ele>265</ele>
        <time>2017-11-22T10:25:19Z</time>
      </trkpt>
      <trkpt lat="45.99014" lon="4.84924">
        <ele>265</ele>
        <time>2017-11-22T10:25:20Z</time>
      </trkpt>
      <trkpt lat="45.99022" lon="4.8492">
        <ele>264</ele>
        <time>2017-11-22T10:25:21Z</time>
      </trkpt>
      <trkpt lat="45.9903" lon="4.84917">
        <ele>264</ele>
        <time>2017-11-22T10:25:22Z</time>
      </trkpt>
      <trkpt lat="45.99039" lon="4.84912">
        <ele>264</ele>
        <time>2017-11-22T10:25:23Z</time>
      </trkpt>
      <trkpt lat="45.99047" lon="4.84907">
        <ele>264</ele>
        <time>2017-11-22T10:25:24Z</time>
      </trkpt>
      <trkpt lat="45.99056" lon="4.84902">
        <ele>263</ele>
        <time>2017-11-22T10:25:25Z</time>
      </trkpt>
      <trkpt lat="45.99065" lon="4.84897">
        <ele>263</ele>
        <time>2017-11-22T10:25:26Z</time>
      </trkpt>
      <trkpt lat="45.99074" lon="4.84892">
        <ele>263</ele>
        <time>2017-11-22T10:25:27Z</time>
      </trkpt>
      <trkpt lat="45.99084" lon="4.84886">
        <ele>261</ele>
        <time>2017-11-22T10:25:28Z</time>
      </trkpt>
      <trkpt lat="45.99093" lon="4.84882">
        <ele>261</ele>
        <time>2017-11-22T10:25:29Z</time>
      </trkpt>
      <trkpt lat="45.99103" lon="4.84877">
        <ele>261</ele>
        <time>2017-11-22T10:25:30Z</time>
      </trkpt>
      <trkpt lat="45.99114" lon="4.84872">
        <ele>260</ele>
        <time>2017-11-22T10:25:31Z</time>
      </trkpt>
      <trkpt lat="45.99124" lon="4.84866">
        <ele>260</ele>
        <time>2017-11-22T10:25:32Z</time>
      </trkpt>
      <trkpt lat="45.99134" lon="4.84861">
        <ele>260</ele>
        <time>2017-11-22T10:25:33Z</time>
      </trkpt>
      <trkpt lat="45.99143" lon="4.84855">
        <ele>260</ele>
        <time>2017-11-22T10:25:34Z</time>
      </trkpt>
      <trkpt lat="45.99153" lon="4.8485">
        <ele>260</ele>
        <time>2017-11-22T10:25:35Z</time>
      </trkpt>
      <trkpt lat="45.99162" lon="4.84845">
        <ele>259</ele>
        <time>2017-11-22T10:25:36Z</time>
      </trkpt>
      <trkpt lat="45.99172" lon="4.84839">
        <ele>258</ele>
        <time>2017-11-22T10:25:37Z</time>
      </trkpt>
      <trkpt lat="45.99182" lon="4.84834">
        <ele>257</ele>
        <time>2017-11-22T10:25:38Z</time>
      </trkpt>
      <trkpt lat="45.99191" lon="4.84829">
        <ele>258</ele>
        <time>2017-11-22T10:25:39Z</time>
      </trkpt>
      <trkpt lat="45.99202" lon="4.84823">
        <ele>257</ele>
        <time>2017-11-22T10:25:40Z</time>
      </trkpt>
      <trkpt lat="45.99211" lon="4.84818">
        <ele>257</ele>
        <time>2017-11-22T10:25:41Z</time>
      </trkpt>
      <trkpt lat="45.99222" lon="4.84812">
        <ele>257</ele>
        <time>2017-11-22T10:25:42Z</time>
      </trkpt>
      <trkpt lat="45.99232" lon="4.84808">
        <ele>256</ele>
        <time>2017-11-22T10:25:43Z</time>
      </trkpt>
      <trkpt lat="45.99241" lon="4.84804">
        <ele>256</ele>
        <time>2017-11-22T10:25:44Z</time>
      </trkpt>
      <trkpt lat="45.99251" lon="4.84797">
        <ele>254</ele>
        <time>2017-11-22T10:25:45Z</time>
      </trkpt>
      <trkpt lat="45.99261" lon="4.84792">
        <ele>253</ele>
        <time>2017-11-22T10:25:46Z</time>
      </trkpt>
      <trkpt lat="45.9927" lon="4.84787">
        <ele>253</ele>
        <time>2017-11-22T10:25:47Z</time>
      </trkpt>
      <trkpt lat="45.9928" lon="4.84781">
        <ele>253</ele>
        <time>2017-11-22T10:25:48Z</time>
      </trkpt>
      <trkpt lat="45.99291" lon="4.84775">
        <ele>253</ele>
        <time>2017-11-22T10:25:49Z</time>
      </trkpt>
      <trkpt lat="45.99301" lon="4.8477">
        <ele>253</ele>
        <time>2017-11-22T10:25:50Z</time>
      </trkpt>
      <trkpt lat="45.99312" lon="4.84764">
        <ele>252</ele>
        <time>2017-11-22T10:25:51Z</time>
      </trkpt>
      <trkpt lat="45.99321" lon="4.84759">
        <ele>252</ele>
        <time>2017-11-22T10:25:52Z</time>
      </trkpt>
      <trkpt lat="45.99331" lon="4.84753">
        <ele>251</ele>
        <time>2017-11-22T10:25:53Z</time>
      </trkpt>
      <trkpt lat="45.99341" lon="4.84748">
        <ele>251</ele>
        <time>2017-11-22T10:25:54Z</time>
      </trkpt>
      <trkpt lat="45.99352" lon="4.84742">
        <ele>250</ele>
        <time>2017-11-22T10:25:55Z</time>
      </trkpt>
      <trkpt lat="45.99361" lon="4.84737">
        <ele>250</ele>
        <time>2017-11-22T10:25:56Z</time>
      </trkpt>
      <trkpt lat="45.9937" lon="4.84732">
        <ele>250</ele>
        <time>2017-11-22T10:25:57Z</time>
      </trkpt>
      <trkpt lat="45.9938" lon="4.84726">
        <ele>250</ele>
        <time>2017-11-22T10:25:58Z</time>
      </trkpt>
      <trkpt lat="45.99391" lon="4.84721">
        <ele>249</ele>
        <time>2017-11-22T10:25:59Z</time>
      </trkpt>
      <trkpt lat="45.994" lon="4.84717">
        <ele>249</ele>
        <time>2017-11-22T10:26:00Z</time>
      </trkpt>
      <trkpt lat="45.99409" lon="4.84712">
        <ele>249</ele>
        <time>2017-11-22T10:26:01Z</time>
      </trkpt>
      <trkpt lat="45.99418" lon="4.84707">
        <ele>249</ele>
        <time>2017-11-22T10:26:02Z</time>
      </trkpt>
      <trkpt lat="45.99427" lon="4.84702">
        <ele>249</ele>
        <time>2017-11-22T10:26:03Z</time>
      </trkpt>
      <trkpt lat="45.99436" lon="4.84696">
        <ele>249</ele>
        <time>2017-11-22T10:26:04Z</time>
      </trkpt>
      <trkpt lat="45.99445" lon="4.84692">
        <ele>249</ele>
        <time>2017-11-22T10:26:05Z</time>
      </trkpt>
      <trkpt lat="45.99454" lon="4.84687">
        <ele>250</ele>
        <time>2017-11-22T10:26:06Z</time>
      </trkpt>
      <trkpt lat="45.99462" lon="4.84683">
        <ele>250</ele>
        <time>2017-11-22T10:26:07Z</time>
      </trkpt>
      <trkpt lat="45.9947" lon="4.8468">
        <ele>250</ele>
        <time>2017-11-22T10:26:08Z</time>
      </trkpt>
      <trkpt lat="45.99477" lon="4.84676">
        <ele>250</ele>
        <time>2017-11-22T10:26:09Z</time>
      </trkpt>
      <trkpt lat="45.99484" lon="4.84673">
        <ele>250</ele>
        <time>2017-11-22T10:26:10Z</time>
      </trkpt>
      <trkpt lat="45.99492" lon="4.8467">
        <ele>251</ele>
        <time>2017-11-22T10:26:11Z</time>
      </trkpt>
      <trkpt lat="45.995" lon="4.84668">
        <ele>251</ele>
        <time>2017-11-22T10:26:12Z</time>
      </trkpt>
      <trkpt lat="45.99507" lon="4.84667">
        <ele>251</ele>
        <time>2017-11-22T10:26:13Z</time>
      </trkpt>
      <trkpt lat="45.99514" lon="4.84666">
        <ele>250</ele>
        <time>2017-11-22T10:26:14Z</time>
      </trkpt>
      <trkpt lat="45.99522" lon="4.84665">
        <ele>250</ele>
        <time>2017-11-22T10:26:15Z</time>
      </trkpt>
      <trkpt lat="45.99528" lon="4.84664">
        <ele>250</ele>
        <time>2017-11-22T10:26:16Z</time>
      </trkpt>
      <trkpt lat="45.99535" lon="4.84662">
        <ele>250</ele>
        <time>2017-11-22T10:26:17Z</time>
      </trkpt>
      <trkpt lat="45.99542" lon="4.8466">
        <ele>250</ele>
        <time>2017-11-22T10:26:18Z</time>
      </trkpt>
      <trkpt lat="45.99549" lon="4.84659">
        <ele>250</ele>
        <time>2017-11-22T10:26:19Z</time>
      </trkpt>
      <trkpt lat="45.99555" lon="4.84658">
        <ele>250</ele>
        <time>2017-11-22T10:26:20Z</time>
      </trkpt>
      <trkpt lat="45.99562" lon="4.84657">
        <ele>250</ele>
        <time>2017-11-22T10:26:21Z</time>
      </trkpt>
      <trkpt lat="45.99569" lon="4.84657">
        <ele>250</ele>
        <time>2017-11-22T10:26:22Z</time>
      </trkpt>
      <trkpt lat="45.99575" lon="4.84655">
        <ele>250</ele>
        <time>2017-11-22T10:26:23Z</time>
      </trkpt>
      <trkpt lat="45.99582" lon="4.84654">
        <ele>250</ele>
        <time>2017-11-22T10:26:24Z</time>
      </trkpt>
      <trkpt lat="45.99589" lon="4.84653">
        <ele>250</ele>
        <time>2017-11-22T10:26:25Z</time>
      </trkpt>
      <trkpt lat="45.99595" lon="4.8465">
        <ele>250</ele>
        <time>2017-11-22T10:26:26Z</time>
      </trkpt>
      <trkpt lat="45.99602" lon="4.84648">
        <ele>250</ele>
        <time>2017-11-22T10:26:27Z</time>
      </trkpt>
      <trkpt lat="45.99609" lon="4.84647">
        <ele>250</ele>
        <time>2017-11-22T10:26:28Z</time>
      </trkpt>
      <trkpt lat="45.99615" lon="4.84646">
        <ele>250</ele>
        <time>2017-11-22T10:26:29Z</time>
      </trkpt>
      <trkpt lat="45.99622" lon="4.84645">
        <ele>250</ele>
        <time>2017-11-22T10:26:30Z</time>
      </trkpt>
      <trkpt lat="45.9963" lon="4.84644">
        <ele>250</ele>
        <time>2017-11-22T10:26:31Z</time>
      </trkpt>
      <trkpt lat="45.99637" lon="4.84642">
        <ele>250</ele>
        <time>2017-11-22T10:26:32Z</time>
      </trkpt>
      <trkpt lat="45.99643" lon="4.84641">
        <ele>250</ele>
        <time>2017-11-22T10:26:33Z</time>
      </trkpt>
      <trkpt lat="45.9965" lon="4.84641">
        <ele>250</ele>
        <time>2017-11-22T10:26:34Z</time>
      </trkpt>
      <trkpt lat="45.99657" lon="4.84639">
        <ele>250</ele>
        <time>2017-11-22T10:26:35Z</time>
      </trkpt>
      <trkpt lat="45.99664" lon="4.84637">
        <ele>250</ele>
        <time>2017-11-22T10:26:36Z</time>
      </trkpt>
      <trkpt lat="45.9967" lon="4.84636">
        <ele>251</ele>
        <time>2017-11-22T10:26:37Z</time>
      </trkpt>
      <trkpt lat="45.99676" lon="4.84634">
        <ele>252</ele>
        <time>2017-11-22T10:26:38Z</time>
      </trkpt>
      <trkpt lat="45.99682" lon="4.84633">
        <ele>252</ele>
        <time>2017-11-22T10:26:39Z</time>
      </trkpt>
      <trkpt lat="45.99689" lon="4.84631">
        <ele>252</ele>
        <time>2017-11-22T10:26:40Z</time>
      </trkpt>
      <trkpt lat="45.99695" lon="4.8463">
        <ele>252</ele>
        <time>2017-11-22T10:26:41Z</time>
      </trkpt>
      <trkpt lat="45.99701" lon="4.84629">
        <ele>252</ele>
        <time>2017-11-22T10:26:42Z</time>
      </trkpt>
      <trkpt lat="45.99707" lon="4.84628">
        <ele>252</ele>
        <time>2017-11-22T10:26:43Z</time>
      </trkpt>
      <trkpt lat="45.99713" lon="4.84628">
        <ele>252</ele>
        <time>2017-11-22T10:26:44Z</time>
      </trkpt>
      <trkpt lat="45.99719" lon="4.84628">
        <ele>252</ele>
        <time>2017-11-22T10:26:45Z</time>
      </trkpt>
      <trkpt lat="45.99725" lon="4.84625">
        <ele>252</ele>
        <time>2017-11-22T10:26:46Z</time>
      </trkpt>
      <trkpt lat="45.99731" lon="4.84624">
        <ele>252</ele>
        <time>2017-11-22T10:26:47Z</time>
      </trkpt>
      <trkpt lat="45.99736" lon="4.84625">
        <ele>252</ele>
        <time>2017-11-22T10:26:48Z</time>
      </trkpt>
      <trkpt lat="45.99741" lon="4.84624">
        <ele>253</ele>
        <time>2017-11-22T10:26:49Z</time>
      </trkpt>
      <trkpt lat="45.99747" lon="4.84624">
        <ele>253</ele>
        <time>2017-11-22T10:26:50Z</time>
      </trkpt>
      <trkpt lat="45.99752" lon="4.84623">
        <ele>254</ele>
        <time>2017-11-22T10:26:51Z</time>
      </trkpt>
      <trkpt lat="45.99758" lon="4.84622">
        <ele>254</ele>
        <time>2017-11-22T10:26:52Z</time>
      </trkpt>
      <trkpt lat="45.99763" lon="4.84621">
        <ele>254</ele>
        <time>2017-11-22T10:26:53Z</time>
      </trkpt>
      <trkpt lat="45.99768" lon="4.84622">
        <ele>254</ele>
        <time>2017-11-22T10:26:54Z</time>
      </trkpt>
      <trkpt lat="45.99773" lon="4.84625">
        <ele>254</ele>
        <time>2017-11-22T10:26:55Z</time>
      </trkpt>
      <trkpt lat="45.99778" lon="4.84626">
        <ele>254</ele>
        <time>2017-11-22T10:26:56Z</time>
      </trkpt>
      <trkpt lat="45.99783" lon="4.84626">
        <ele>254</ele>
        <time>2017-11-22T10:26:57Z</time>
      </trkpt>
      <trkpt lat="45.99788" lon="4.84627">
        <ele>254</ele>
        <time>2017-11-22T10:26:58Z</time>
      </trkpt>
      <trkpt lat="45.99794" lon="4.84628">
        <ele>254</ele>
        <time>2017-11-22T10:26:59Z</time>
      </trkpt>
      <trkpt lat="45.99799" lon="4.8463">
        <ele>254</ele>
        <time>2017-11-22T10:27:00Z</time>
      </trkpt>
      <trkpt lat="45.99804" lon="4.84631">
        <ele>254</ele>
        <time>2017-11-22T10:27:01Z</time>
      </trkpt>
      <trkpt lat="45.99809" lon="4.84632">
        <ele>254</ele>
        <time>2017-11-22T10:27:02Z</time>
      </trkpt>
      <trkpt lat="45.99815" lon="4.84633">
        <ele>254</ele>
        <time>2017-11-22T10:27:03Z</time>
      </trkpt>
      <trkpt lat="45.99821" lon="4.84634">
        <ele>254</ele>
        <time>2017-11-22T10:27:04Z</time>
      </trkpt>
      <trkpt lat="45.99826" lon="4.84637">
        <ele>254</ele>
        <time>2017-11-22T10:27:05Z</time>
      </trkpt>
      <trkpt lat="45.99831" lon="4.84639">
        <ele>254</ele>
        <time>2017-11-22T10:27:06Z</time>
      </trkpt>
      <trkpt lat="45.99837" lon="4.8464">
        <ele>254</ele>
        <time>2017-11-22T10:27:07Z</time>
      </trkpt>
      <trkpt lat="45.99842" lon="4.84642">
        <ele>254</ele>
        <time>2017-11-22T10:27:08Z</time>
      </trkpt>
      <trkpt lat="45.99847" lon="4.84643">
        <ele>254</ele>
        <time>2017-11-22T10:27:09Z</time>
      </trkpt>
      <trkpt lat="45.99851" lon="4.84645">
        <ele>254</ele>
        <time>2017-11-22T10:27:10Z</time>
      </trkpt>
      <trkpt lat="45.99857" lon="4.84647">
        <ele>254</ele>
        <time>2017-11-22T10:27:11Z</time>
      </trkpt>
      <trkpt lat="45.99861" lon="4.84648">
        <ele>254</ele>
        <time>2017-11-22T10:27:12Z</time>
      </trkpt>
      <trkpt lat="45.99867" lon="4.8465">
        <ele>254</ele>
        <time>2017-11-22T10:27:13Z</time>
      </trkpt>
      <trkpt lat="45.99872" lon="4.84652">
        <ele>254</ele>
        <time>2017-11-22T10:27:14Z</time>
      </trkpt>
      <trkpt lat="45.99877" lon="4.84653">
        <ele>254</ele>
        <time>2017-11-22T10:27:15Z</time>
      </trkpt>
      <trkpt lat="45.99882" lon="4.84654">
        <ele>254</ele>
        <time>2017-11-22T10:27:16Z</time>
      </trkpt>
      <trkpt lat="45.99888" lon="4.84656">
        <ele>254</ele>
        <time>2017-11-22T10:27:17Z</time>
      </trkpt>
      <trkpt lat="45.99893" lon="4.84658">
        <ele>254</ele>
        <time>2017-11-22T10:27:18Z</time>
      </trkpt>
      <trkpt lat="45.99898" lon="4.84659">
        <ele>254</ele>
        <time>2017-11-22T10:27:19Z</time>
      </trkpt>
      <trkpt lat="45.99903" lon="4.84661">
        <ele>254</ele>
        <time>2017-11-22T10:27:20Z</time>
      </trkpt>
      <trkpt lat="45.99907" lon="4.84662">
        <ele>254</ele>
        <time>2017-11-22T10:27:21Z</time>
      </trkpt>
      <trkpt lat="45.99912" lon="4.84662">
        <ele>254</ele>
        <time>2017-11-22T10:27:22Z</time>
      </trkpt>
      <trkpt lat="45.99917" lon="4.84664">
        <ele>254</ele>
        <time>2017-11-22T10:27:23Z</time>
      </trkpt>
      <trkpt lat="45.99922" lon="4.84665">
        <ele>254</ele>
        <time>2017-11-22T10:27:24Z</time>
      </trkpt>
      <trkpt lat="45.99927" lon="4.84667">
        <ele>255</ele>
        <time>2017-11-22T10:27:25Z</time>
      </trkpt>
      <trkpt lat="45.99932" lon="4.84668">
        <ele>255</ele>
        <time>2017-11-22T10:27:26Z</time>
      </trkpt>
      <trkpt lat="45.99937" lon="4.84669">
        <ele>255</ele>
        <time>2017-11-22T10:27:27Z</time>
      </trkpt>
      <trkpt lat="45.99943" lon="4.84671">
        <ele>255</ele>
        <time>2017-11-22T10:27:28Z</time>
      </trkpt>
      <trkpt lat="45.99948" lon="4.84671">
        <ele>255</ele>
        <time>2017-11-22T10:27:29Z</time>
      </trkpt>
      <trkpt lat="45.99954" lon="4.84673">
        <ele>255</ele>
        <time>2017-11-22T10:27:30Z</time>
      </trkpt>
      <trkpt lat="45.9996" lon="4.84674">
        <ele>255</ele>
        <time>2017-11-22T10:27:31Z</time>
      </trkpt>
      <trkpt lat="45.99964" lon="4.84676">
        <ele>255</ele>
        <time>2017-11-22T10:27:32Z</time>
      </trkpt>
      <trkpt lat="45.99969" lon="4.84677">
        <ele>255</ele>
        <time>2017-11-22T10:27:33Z</time>
      </trkpt>
      <trkpt lat="45.99974" lon="4.84678">
        <ele>255</ele>
        <time>2017-11-22T10:27:34Z</time>
      </trkpt>
      <trkpt lat="45.99979" lon="4.84679">
        <ele>255</ele>
        <time>2017-11-22T10:27:35Z</time>
      </trkpt>
      <trkpt lat="45.99984" lon="4.84679">
        <ele>255</ele>
        <time>2017-11-22T10:27:36Z</time>
      </trkpt>
      <trkpt lat="45.9999" lon="4.84681">
        <ele>255</ele>
        <time>2017-11-22T10:27:37Z</time>
      </trkpt>
      <trkpt lat="45.99995" lon="4.84682">
        <ele>255</ele>
        <time>2017-11-22T10:27:38Z</time>
      </trkpt>
      <trkpt lat="46" lon="4.84683">
        <ele>256</ele>
        <time>2017-11-22T10:27:39Z</time>
      </trkpt>
      <trkpt lat="46.00007" lon="4.84683">
        <ele>256</ele>
        <time>2017-11-22T10:27:40Z</time>
      </trkpt>
      <trkpt lat="46.00012" lon="4.84685">
        <ele>256</ele>
        <time>2017-11-22T10:27:41Z</time>
      </trkpt>
      <trkpt lat="46.00017" lon="4.84686">
        <ele>256</ele>
        <time>2017-11-22T10:27:42Z</time>
      </trkpt>
      <trkpt lat="46.00022" lon="4.84687">
        <ele>256</ele>
        <time>2017-11-22T10:27:43Z</time>
      </trkpt>
      <trkpt lat="46.00027" lon="4.84688">
        <ele>256</ele>
        <time>2017-11-22T10:27:44Z</time>
      </trkpt>
      <trkpt lat="46.00032" lon="4.84689">
        <ele>256</ele>
        <time>2017-11-22T10:27:45Z</time>
      </trkpt>
      <trkpt lat="46.00037" lon="4.8469">
        <ele>256</ele>
        <time>2017-11-22T10:27:46Z</time>
      </trkpt>
      <trkpt lat="46.00041" lon="4.84691">
        <ele>256</ele>
        <time>2017-11-22T10:27:47Z</time>
      </trkpt>
      <trkpt lat="46.0005" lon="4.84692">
        <ele>256</ele>
        <time>2017-11-22T10:27:49Z</time>
      </trkpt>
      <trkpt lat="46.00054" lon="4.84691">
        <ele>256</ele>
        <time>2017-11-22T10:27:50Z</time>
      </trkpt>
      <trkpt lat="46.00063" lon="4.84691">
        <ele>256</ele>
        <time>2017-11-22T10:27:52Z</time>
      </trkpt>
      <trkpt lat="46.00067" lon="4.84692">
        <ele>256</ele>
        <time>2017-11-22T10:27:53Z</time>
      </trkpt>
      <trkpt lat="46.00074" lon="4.84691">
        <ele>256</ele>
        <time>2017-11-22T10:27:55Z</time>
      </trkpt>
      <trkpt lat="46.00077" lon="4.84689">
        <ele>256</ele>
        <time>2017-11-22T10:27:56Z</time>
      </trkpt>
      <trkpt lat="46.00082" lon="4.84682">
        <ele>256</ele>
        <time>2017-11-22T10:27:58Z</time>
      </trkpt>
      <trkpt lat="46.00084" lon="4.84676">
        <ele>256</ele>
        <time>2017-11-22T10:27:59Z</time>
      </trkpt>
      <trkpt lat="46.00084" lon="4.84663">
        <ele>256</ele>
        <time>2017-11-22T10:28:01Z</time>
      </trkpt>
      <trkpt lat="46.00083" lon="4.84658">
        <ele>256</ele>
        <time>2017-11-22T10:28:02Z</time>
      </trkpt>
      <trkpt lat="46.00084" lon="4.84652">
        <ele>257</ele>
        <time>2017-11-22T10:28:03Z</time>
      </trkpt>
      <trkpt lat="46.00084" lon="4.84644">
        <ele>257</ele>
        <time>2017-11-22T10:28:04Z</time>
      </trkpt>
      <trkpt lat="46.00083" lon="4.84637">
        <ele>256</ele>
        <time>2017-11-22T10:28:05Z</time>
      </trkpt>
      <trkpt lat="46.00083" lon="4.8463">
        <ele>256</ele>
        <time>2017-11-22T10:28:06Z</time>
      </trkpt>
      <trkpt lat="46.00083" lon="4.84623">
        <ele>256</ele>
        <time>2017-11-22T10:28:07Z</time>
      </trkpt>
      <trkpt lat="46.00083" lon="4.84616">
        <ele>256</ele>
        <time>2017-11-22T10:28:08Z</time>
      </trkpt>
      <trkpt lat="46.00083" lon="4.84604">
        <ele>256</ele>
        <time>2017-11-22T10:28:10Z</time>
      </trkpt>
      <trkpt lat="46.00083" lon="4.84599">
        <ele>256</ele>
        <time>2017-11-22T10:28:11Z</time>
      </trkpt>
      <trkpt lat="46.00082" lon="4.84587">
        <ele>257</ele>
        <time>2017-11-22T10:28:13Z</time>
      </trkpt>
      <trkpt lat="46.00083" lon="4.8458">
        <ele>257</ele>
        <time>2017-11-22T10:28:14Z</time>
      </trkpt>
      <trkpt lat="46.00083" lon="4.84568">
        <ele>257</ele>
        <time>2017-11-22T10:28:16Z</time>
      </trkpt>
      <trkpt lat="46.00082" lon="4.84561">
        <ele>257</ele>
        <time>2017-11-22T10:28:17Z</time>
      </trkpt>
      <trkpt lat="46.00082" lon="4.8455">
        <ele>257</ele>
        <time>2017-11-22T10:28:19Z</time>
      </trkpt>
      <trkpt lat="46.00082" lon="4.84545">
        <ele>257</ele>
        <time>2017-11-22T10:28:20Z</time>
      </trkpt>
      <trkpt lat="46.00083" lon="4.84534">
        <ele>257</ele>
        <time>2017-11-22T10:28:22Z</time>
      </trkpt>
      <trkpt lat="46.00085" lon="4.84527">
        <ele>259</ele>
        <time>2017-11-22T10:28:23Z</time>
      </trkpt>
      <trkpt lat="46.00089" lon="4.84516">
        <ele>259</ele>
        <time>2017-11-22T10:28:25Z</time>
      </trkpt>
      <trkpt lat="46.0009" lon="4.8451">
        <ele>259</ele>
        <time>2017-11-22T10:28:26Z</time>
      </trkpt>
      <trkpt lat="46.00091" lon="4.84499">
        <ele>259</ele>
        <time>2017-11-22T10:28:28Z</time>
      </trkpt>
      <trkpt lat="46.0009" lon="4.84493">
        <ele>259</ele>
        <time>2017-11-22T10:28:29Z</time>
      </trkpt>
      <trkpt lat="46.0009" lon="4.84481">
        <ele>259</ele>
        <time>2017-11-22T10:28:31Z</time>
      </trkpt>
      <trkpt lat="46.00091" lon="4.84475">
        <ele>260</ele>
        <time>2017-11-22T10:28:32Z</time>
      </trkpt>
      <trkpt lat="46.00094" lon="4.84463">
        <ele>260</ele>
        <time>2017-11-22T10:28:35Z</time>
      </trkpt>
      <trkpt lat="46.00094" lon="4.84459">
        <ele>260</ele>
        <time>2017-11-22T10:28:36Z</time>
      </trkpt>
      <trkpt lat="46.00094" lon="4.84447">
        <ele>260</ele>
        <time>2017-11-22T10:28:41Z</time>
      </trkpt>
      <trkpt lat="46.00094" lon="4.84446">
        <ele>260</ele>
        <time>2017-11-22T10:28:42Z</time>
      </trkpt>
      <trkpt lat="46.00085" lon="4.84451">
        <ele>260</ele>
        <time>2017-11-22T10:28:48Z</time>
      </trkpt>
      <trkpt lat="46.00085" lon="4.84453">
        <ele>260</ele>
        <time>2017-11-22T10:28:49Z</time>
      </trkpt>
      <trkpt lat="46.00077" lon="4.84457">
        <ele>258</ele>
        <time>2017-11-22T10:39:03Z</time>
      </trkpt>
      <trkpt lat="46.00076" lon="4.84457">
        <ele>258</ele>
        <time>2017-11-22T10:39:04Z</time>
      </trkpt>
      <trkpt lat="46.00079" lon="4.84446">
        <ele>258</ele>
        <time>2017-11-22T10:39:16Z</time>
      </trkpt>
      <trkpt lat="46.0008" lon="4.84445">
        <ele>258</ele>
        <time>2017-11-22T10:39:17Z</time>
      </trkpt>
      <trkpt lat="46.00075" lon="4.84448">
        <ele>258</ele>
        <time>2017-11-22T10:41:26Z</time>
      </trkpt>
      <trkpt lat="46.00076" lon="4.84449">
        <ele>258</ele>
        <time>2017-11-22T10:41:27Z</time>
      </trkpt>
      <trkpt lat="46.00076" lon="4.84447">
        <ele>258</ele>
        <time>2017-11-22T10:41:35Z</time>
      </trkpt>
      <trkpt lat="46.00076" lon="4.84447">
        <ele>258</ele>
        <time>2017-11-22T10:41:36Z</time>
      </trkpt>
      <trkpt lat="46.00084" lon="4.84452">
        <ele>260</ele>
        <time>2017-11-22T10:41:54Z</time>
      </trkpt>
      <trkpt lat="46.00086" lon="4.84454">
        <ele>260</ele>
        <time>2017-11-22T10:41:55Z</time>
      </trkpt>
      <trkpt lat="46.0009" lon="4.84464">
        <ele>260</ele>
        <time>2017-11-22T10:41:58Z</time>
      </trkpt>
      <trkpt lat="46.0009" lon="4.84468">
        <ele>260</ele>
        <time>2017-11-22T10:41:59Z</time>
      </trkpt>
      <trkpt lat="46.00088" lon="4.84477">
        <ele>260</ele>
        <time>2017-11-22T10:42:01Z</time>
      </trkpt>
      <trkpt lat="46.00087" lon="4.84482">
        <ele>259</ele>
        <time>2017-11-22T10:42:02Z</time>
      </trkpt>
      <trkpt lat="46.00086" lon="4.84493">
        <ele>259</ele>
        <time>2017-11-22T10:42:04Z</time>
      </trkpt>
      <trkpt lat="46.00084" lon="4.84498">
        <ele>259</ele>
        <time>2017-11-22T10:42:05Z</time>
      </trkpt>
      <trkpt lat="46.00079" lon="4.84506">
        <ele>258</ele>
        <time>2017-11-22T10:42:07Z</time>
      </trkpt>
      <trkpt lat="46.00076" lon="4.84507">
        <ele>258</ele>
        <time>2017-11-22T10:42:08Z</time>
      </trkpt>
      <trkpt lat="46.00072" lon="4.84505">
        <ele>258</ele>
        <time>2017-11-22T10:42:09Z</time>
      </trkpt>
      <trkpt lat="46.00072" lon="4.84493">
        <ele>259</ele>
        <time>2017-11-22T10:42:10Z</time>
      </trkpt>
      <trkpt lat="46.00072" lon="4.84483">
        <ele>258</ele>
        <time>2017-11-22T10:42:12Z</time>
      </trkpt>
      <trkpt lat="46.00071" lon="4.84477">
        <ele>258</ele>
        <time>2017-11-22T10:42:13Z</time>
      </trkpt>
      <trkpt lat="46.00068" lon="4.8447">
        <ele>258</ele>
        <time>2017-11-22T10:42:14Z</time>
      </trkpt>
      <trkpt lat="46.00068" lon="4.84464">
        <ele>258</ele>
        <time>2017-11-22T10:42:15Z</time>
      </trkpt>
      <trkpt lat="46.00067" lon="4.84457">
        <ele>258</ele>
        <time>2017-11-22T10:42:16Z</time>
      </trkpt>
      <trkpt lat="46.00066" lon="4.84451">
        <ele>258</ele>
        <time>2017-11-22T10:42:17Z</time>
      </trkpt>
      <trkpt lat="46.00064" lon="4.84444">
        <ele>258</ele>
        <time>2017-11-22T10:42:18Z</time>
      </trkpt>
      <trkpt lat="46.00063" lon="4.84437">
        <ele>258</ele>
        <time>2017-11-22T10:42:19Z</time>
      </trkpt>
      <trkpt lat="46.00063" lon="4.84431">
        <ele>258</ele>
        <time>2017-11-22T10:42:20Z</time>
      </trkpt>
      <trkpt lat="46.00062" lon="4.84424">
        <ele>258</ele>
        <time>2017-11-22T10:42:21Z</time>
      </trkpt>
      <trkpt lat="46.00061" lon="4.84417">
        <ele>258</ele>
        <time>2017-11-22T10:42:22Z</time>
      </trkpt>
      <trkpt lat="46.0006" lon="4.8441">
        <ele>259</ele>
        <time>2017-11-22T10:42:23Z</time>
      </trkpt>
      <trkpt lat="46.00059" lon="4.84403">
        <ele>259</ele>
        <time>2017-11-22T10:42:24Z</time>
      </trkpt>
      <trkpt lat="46.00058" lon="4.84397">
        <ele>259</ele>
        <time>2017-11-22T10:42:25Z</time>
      </trkpt>
      <trkpt lat="46.00055" lon="4.84385">
        <ele>259</ele>
        <time>2017-11-22T10:42:27Z</time>
      </trkpt>
      <trkpt lat="46.00054" lon="4.84379">
        <ele>259</ele>
        <time>2017-11-22T10:42:28Z</time>
      </trkpt>
      <trkpt lat="46.00051" lon="4.84367">
        <ele>259</ele>
        <time>2017-11-22T10:42:30Z</time>
      </trkpt>
      <trkpt lat="46.00049" lon="4.84361">
        <ele>259</ele>
        <time>2017-11-22T10:42:31Z</time>
      </trkpt>
      <trkpt lat="46.00047" lon="4.84349">
        <ele>259</ele>
        <time>2017-11-22T10:42:33Z</time>
      </trkpt>
      <trkpt lat="46.00046" lon="4.84343">
        <ele>259</ele>
        <time>2017-11-22T10:42:34Z</time>
      </trkpt>
      <trkpt lat="46.00045" lon="4.8433">
        <ele>260</ele>
        <time>2017-11-22T10:42:36Z</time>
      </trkpt>
      <trkpt lat="46.00044" lon="4.84325">
        <ele>260</ele>
        <time>2017-11-22T10:42:37Z</time>
      </trkpt>
      <trkpt lat="46.00041" lon="4.84319">
        <ele>259</ele>
        <time>2017-11-22T10:42:38Z</time>
      </trkpt>
      <trkpt lat="46.0004" lon="4.84312">
        <ele>259</ele>
        <time>2017-11-22T10:42:39Z</time>
      </trkpt>
      <trkpt lat="46.00038" lon="4.84306">
        <ele>259</ele>
        <time>2017-11-22T10:42:40Z</time>
      </trkpt>
      <trkpt lat="46.00037" lon="4.84299">
        <ele>259</ele>
        <time>2017-11-22T10:42:41Z</time>
      </trkpt>
      <trkpt lat="46.00035" lon="4.84293">
        <ele>259</ele>
        <time>2017-11-22T10:42:42Z</time>
      </trkpt>
      <trkpt lat="46.00033" lon="4.84287">
        <ele>260</ele>
        <time>2017-11-22T10:42:43Z</time>
      </trkpt>
      <trkpt lat="46.00031" lon="4.84281">
        <ele>260</ele>
        <time>2017-11-22T10:42:44Z</time>
      </trkpt>
      <trkpt lat="46.0003" lon="4.84274">
        <ele>260</ele>
        <time>2017-11-22T10:42:45Z</time>
      </trkpt>
      <trkpt lat="46.00028" lon="4.84269">
        <ele>260</ele>
        <time>2017-11-22T10:42:46Z</time>
      </trkpt>
      <trkpt lat="46.00025" lon="4.84262">
        <ele>260</ele>
        <time>2017-11-22T10:42:47Z</time>
      </trkpt>
      <trkpt lat="46.00023" lon="4.84255">
        <ele>260</ele>
        <time>2017-11-22T10:42:48Z</time>
      </trkpt>
      <trkpt lat="46.00021" lon="4.84248">
        <ele>259</ele>
        <time>2017-11-22T10:42:49Z</time>
      </trkpt>
      <trkpt lat="46.00019" lon="4.8424">
        <ele>259</ele>
        <time>2017-11-22T10:42:50Z</time>
      </trkpt>
      <trkpt lat="46.00017" lon="4.84234">
        <ele>259</ele>
        <time>2017-11-22T10:42:51Z</time>
      </trkpt>
      <trkpt lat="46.00015" lon="4.84226">
        <ele>259</ele>
        <time>2017-11-22T10:42:52Z</time>
      </trkpt>
      <trkpt lat="46.00013" lon="4.8422">
        <ele>259</ele>
        <time>2017-11-22T10:42:53Z</time>
      </trkpt>
      <trkpt lat="46.0001" lon="4.84208">
        <ele>259</ele>
        <time>2017-11-22T10:42:55Z</time>
      </trkpt>
      <trkpt lat="46.00009" lon="4.84202">
        <ele>259</ele>
        <time>2017-11-22T10:42:56Z</time>
      </trkpt>
      <trkpt lat="46.00006" lon="4.84197">
        <ele>258</ele>
        <time>2017-11-22T10:42:57Z</time>
      </trkpt>
      <trkpt lat="46.00005" lon="4.84191">
        <ele>258</ele>
        <time>2017-11-22T10:42:58Z</time>
      </trkpt>
      <trkpt lat="46.00001" lon="4.8418">
        <ele>258</ele>
        <time>2017-11-22T10:43:00Z</time>
      </trkpt>
      <trkpt lat="45.99999" lon="4.84173">
        <ele>257</ele>
        <time>2017-11-22T10:43:01Z</time>
      </trkpt>
      <trkpt lat="45.99998" lon="4.84167">
        <ele>257</ele>
        <time>2017-11-22T10:43:02Z</time>
      </trkpt>
      <trkpt lat="45.99996" lon="4.8416">
        <ele>257</ele>
        <time>2017-11-22T10:43:03Z</time>
      </trkpt>
      <trkpt lat="45.99994" lon="4.84154">
        <ele>257</ele>
        <time>2017-11-22T10:43:04Z</time>
      </trkpt>
      <trkpt lat="45.99992" lon="4.84147">
        <ele>257</ele>
        <time>2017-11-22T10:43:05Z</time>
      </trkpt>
      <trkpt lat="45.9999" lon="4.8414">
        <ele>257</ele>
        <time>2017-11-22T10:43:06Z</time>
      </trkpt>
      <trkpt lat="45.99988" lon="4.84134">
        <ele>257</ele>
        <time>2017-11-22T10:43:07Z</time>
      </trkpt>
      <trkpt lat="45.99987" lon="4.84127">
        <ele>257</ele>
        <time>2017-11-22T10:43:08Z</time>
      </trkpt>
      <trkpt lat="45.99985" lon="4.8412">
        <ele>258</ele>
        <time>2017-11-22T10:43:09Z</time>
      </trkpt>
      <trkpt lat="45.99983" lon="4.84114">
        <ele>258</ele>
        <time>2017-11-22T10:43:10Z</time>
      </trkpt>
      <trkpt lat="45.99981" lon="4.84107">
        <ele>258</ele>
        <time>2017-11-22T10:43:11Z</time>
      </trkpt>
      <trkpt lat="45.99979" lon="4.841">
        <ele>258</ele>
        <time>2017-11-22T10:43:12Z</time>
      </trkpt>
      <trkpt lat="45.99978" lon="4.84093">
        <ele>258</ele>
        <time>2017-11-22T10:43:13Z</time>
      </trkpt>
      <trkpt lat="45.99977" lon="4.84087">
        <ele>258</ele>
        <time>2017-11-22T10:43:14Z</time>
      </trkpt>
      <trkpt lat="45.99975" lon="4.8408">
        <ele>259</ele>
        <time>2017-11-22T10:43:15Z</time>
      </trkpt>
      <trkpt lat="45.99973" lon="4.8407">
        <ele>259</ele>
        <time>2017-11-22T10:43:16Z</time>
      </trkpt>
      <trkpt lat="45.99971" lon="4.84063">
        <ele>259</ele>
        <time>2017-11-22T10:43:17Z</time>
      </trkpt>
      <trkpt lat="45.99969" lon="4.84057">
        <ele>259</ele>
        <time>2017-11-22T10:43:18Z</time>
      </trkpt>
      <trkpt lat="45.99968" lon="4.8405">
        <ele>259</ele>
        <time>2017-11-22T10:43:19Z</time>
      </trkpt>
      <trkpt lat="45.99967" lon="4.84042">
        <ele>259</ele>
        <time>2017-11-22T10:43:20Z</time>
      </trkpt>
      <trkpt lat="45.99965" lon="4.84035">
        <ele>259</ele>
        <time>2017-11-22T10:43:21Z</time>
      </trkpt>
      <trkpt lat="45.99964" lon="4.84027">
        <ele>259</ele>
        <time>2017-11-22T10:43:22Z</time>
      </trkpt>
      <trkpt lat="45.99963" lon="4.84019">
        <ele>259</ele>
        <time>2017-11-22T10:43:23Z</time>
      </trkpt>
      <trkpt lat="45.99961" lon="4.84013">
        <ele>259</ele>
        <time>2017-11-22T10:43:24Z</time>
      </trkpt>
      <trkpt lat="45.99958" lon="4.84006">
        <ele>259</ele>
        <time>2017-11-22T10:43:25Z</time>
      </trkpt>
      <trkpt lat="45.99956" lon="4.83998">
        <ele>259</ele>
        <time>2017-11-22T10:43:26Z</time>
      </trkpt>
      <trkpt lat="45.99954" lon="4.83992">
        <ele>259</ele>
        <time>2017-11-22T10:43:27Z</time>
      </trkpt>
      <trkpt lat="45.99952" lon="4.83985">
        <ele>259</ele>
        <time>2017-11-22T10:43:28Z</time>
      </trkpt>
      <trkpt lat="45.99949" lon="4.83979">
        <ele>259</ele>
        <time>2017-11-22T10:43:29Z</time>
      </trkpt>
      <trkpt lat="45.99947" lon="4.83973">
        <ele>259</ele>
        <time>2017-11-22T10:43:30Z</time>
      </trkpt>
      <trkpt lat="45.99945" lon="4.83966">
        <ele>259</ele>
        <time>2017-11-22T10:43:31Z</time>
      </trkpt>
      <trkpt lat="45.99943" lon="4.8396">
        <ele>259</ele>
        <time>2017-11-22T10:43:32Z</time>
      </trkpt>
      <trkpt lat="45.9994" lon="4.83954">
        <ele>259</ele>
        <time>2017-11-22T10:43:33Z</time>
      </trkpt>
      <trkpt lat="45.99939" lon="4.83948">
        <ele>259</ele>
        <time>2017-11-22T10:43:34Z</time>
      </trkpt>
      <trkpt lat="45.99937" lon="4.83941">
        <ele>259</ele>
        <time>2017-11-22T10:43:35Z</time>
      </trkpt>
      <trkpt lat="45.99935" lon="4.83933">
        <ele>259</ele>
        <time>2017-11-22T10:43:36Z</time>
      </trkpt>
      <trkpt lat="45.99933" lon="4.83926">
        <ele>259</ele>
        <time>2017-11-22T10:43:37Z</time>
      </trkpt>
      <trkpt lat="45.99931" lon="4.8392">
        <ele>259</ele>
        <time>2017-11-22T10:43:38Z</time>
      </trkpt>
      <trkpt lat="45.99929" lon="4.83913">
        <ele>259</ele>
        <time>2017-11-22T10:43:39Z</time>
      </trkpt>
      <trkpt lat="45.99927" lon="4.83906">
        <ele>259</ele>
        <time>2017-11-22T10:43:40Z</time>
      </trkpt>
      <trkpt lat="45.99925" lon="4.83899">
        <ele>259</ele>
        <time>2017-11-22T10:43:41Z</time>
      </trkpt>
      <trkpt lat="45.99922" lon="4.83891">
        <ele>259</ele>
        <time>2017-11-22T10:43:42Z</time>
      </trkpt>
      <trkpt lat="45.99921" lon="4.83884">
        <ele>259</ele>
        <time>2017-11-22T10:43:43Z</time>
      </trkpt>
      <trkpt lat="45.99918" lon="4.83876">
        <ele>259</ele>
        <time>2017-11-22T10:43:44Z</time>
      </trkpt>
      <trkpt lat="45.99915" lon="4.83869">
        <ele>258</ele>
        <time>2017-11-22T10:43:45Z</time>
      </trkpt>
      <trkpt lat="45.99914" lon="4.83859">
        <ele>258</ele>
        <time>2017-11-22T10:43:46Z</time>
      </trkpt>
      <trkpt lat="45.99912" lon="4.83853">
        <ele>258</ele>
        <time>2017-11-22T10:43:47Z</time>
      </trkpt>
      <trkpt lat="45.9991" lon="4.83846">
        <ele>258</ele>
        <time>2017-11-22T10:43:48Z</time>
      </trkpt>
      <trkpt lat="45.99909" lon="4.83837">
        <ele>258</ele>
        <time>2017-11-22T10:43:49Z</time>
      </trkpt>
      <trkpt lat="45.99905" lon="4.83828">
        <ele>257</ele>
        <time>2017-11-22T10:43:50Z</time>
      </trkpt>
      <trkpt lat="45.99903" lon="4.83821">
        <ele>257</ele>
        <time>2017-11-22T10:43:51Z</time>
      </trkpt>
      <trkpt lat="45.99901" lon="4.83814">
        <ele>257</ele>
        <time>2017-11-22T10:43:52Z</time>
      </trkpt>
      <trkpt lat="45.99899" lon="4.83808">
        <ele>257</ele>
        <time>2017-11-22T10:43:53Z</time>
      </trkpt>
      <trkpt lat="45.99898" lon="4.83801">
        <ele>257</ele>
        <time>2017-11-22T10:43:54Z</time>
      </trkpt>
      <trkpt lat="45.99895" lon="4.83795">
        <ele>257</ele>
        <time>2017-11-22T10:43:55Z</time>
      </trkpt>
      <trkpt lat="45.99894" lon="4.83788">
        <ele>257</ele>
        <time>2017-11-22T10:43:56Z</time>
      </trkpt>
      <trkpt lat="45.99892" lon="4.8378">
        <ele>257</ele>
        <time>2017-11-22T10:43:57Z</time>
      </trkpt>
      <trkpt lat="45.99889" lon="4.83773">
        <ele>257</ele>
        <time>2017-11-22T10:43:58Z</time>
      </trkpt>
      <trkpt lat="45.99887" lon="4.83766">
        <ele>257</ele>
        <time>2017-11-22T10:43:59Z</time>
      </trkpt>
      <trkpt lat="45.99885" lon="4.83759">
        <ele>256</ele>
        <time>2017-11-22T10:44:00Z</time>
      </trkpt>
      <trkpt lat="45.99883" lon="4.83751">
        <ele>256</ele>
        <time>2017-11-22T10:44:01Z</time>
      </trkpt>
      <trkpt lat="45.9988" lon="4.83742">
        <ele>256</ele>
        <time>2017-11-22T10:44:02Z</time>
      </trkpt>
      <trkpt lat="45.99877" lon="4.83735">
        <ele>256</ele>
        <time>2017-11-22T10:44:03Z</time>
      </trkpt>
      <trkpt lat="45.99875" lon="4.83726">
        <ele>256</ele>
        <time>2017-11-22T10:44:04Z</time>
      </trkpt>
      <trkpt lat="45.99872" lon="4.83718">
        <ele>256</ele>
        <time>2017-11-22T10:44:05Z</time>
      </trkpt>
      <trkpt lat="45.9987" lon="4.8371">
        <ele>256</ele>
        <time>2017-11-22T10:44:06Z</time>
      </trkpt>
      <trkpt lat="45.99868" lon="4.83703">
        <ele>256</ele>
        <time>2017-11-22T10:44:07Z</time>
      </trkpt>
      <trkpt lat="45.99866" lon="4.83695">
        <ele>256</ele>
        <time>2017-11-22T10:44:08Z</time>
      </trkpt>
      <trkpt lat="45.99865" lon="4.83687">
        <ele>256</ele>
        <time>2017-11-22T10:44:09Z</time>
      </trkpt>
      <trkpt lat="45.99862" lon="4.83678">
        <ele>256</ele>
        <time>2017-11-22T10:44:10Z</time>
      </trkpt>
      <trkpt lat="45.99861" lon="4.8367">
        <ele>256</ele>
        <time>2017-11-22T10:44:11Z</time>
      </trkpt>
      <trkpt lat="45.99859" lon="4.83663">
        <ele>257</ele>
        <time>2017-11-22T10:44:12Z</time>
      </trkpt>
      <trkpt lat="45.99858" lon="4.83656">
        <ele>257</ele>
        <time>2017-11-22T10:44:13Z</time>
      </trkpt>
      <trkpt lat="45.99855" lon="4.83647">
        <ele>257</ele>
        <time>2017-11-22T10:44:14Z</time>
      </trkpt>
      <trkpt lat="45.99853" lon="4.8364">
        <ele>257</ele>
        <time>2017-11-22T10:44:15Z</time>
      </trkpt>
      <trkpt lat="45.99852" lon="4.83634">
        <ele>257</ele>
        <time>2017-11-22T10:44:16Z</time>
      </trkpt>
      <trkpt lat="45.9985" lon="4.83627">
        <ele>257</ele>
        <time>2017-11-22T10:44:17Z</time>
      </trkpt>
      <trkpt lat="45.99848" lon="4.8362">
        <ele>257</ele>
        <time>2017-11-22T10:44:18Z</time>
      </trkpt>
      <trkpt lat="45.99846" lon="4.83613">
        <ele>257</ele>
        <time>2017-11-22T10:44:19Z</time>
      </trkpt>
      <trkpt lat="45.99845" lon="4.83606">
        <ele>257</ele>
        <time>2017-11-22T10:44:20Z</time>
      </trkpt>
      <trkpt lat="45.99844" lon="4.83599">
        <ele>257</ele>
        <time>2017-11-22T10:44:21Z</time>
      </trkpt>
      <trkpt lat="45.99842" lon="4.83593">
        <ele>257</ele>
        <time>2017-11-22T10:44:22Z</time>
      </trkpt>
      <trkpt lat="45.9984" lon="4.83586">
        <ele>257</ele>
        <time>2017-11-22T10:44:23Z</time>
      </trkpt>
      <trkpt lat="45.9984" lon="4.83579">
        <ele>257</ele>
        <time>2017-11-22T10:44:24Z</time>
      </trkpt>
      <trkpt lat="45.99839" lon="4.83573">
        <ele>257</ele>
        <time>2017-11-22T10:44:25Z</time>
      </trkpt>
      <trkpt lat="45.99836" lon="4.83561">
        <ele>258</ele>
        <time>2017-11-22T10:44:27Z</time>
      </trkpt>
      <trkpt lat="45.99835" lon="4.83554">
        <ele>258</ele>
        <time>2017-11-22T10:44:28Z</time>
      </trkpt>
      <trkpt lat="45.99832" lon="4.83542">
        <ele>259</ele>
        <time>2017-11-22T10:44:30Z</time>
      </trkpt>
      <trkpt lat="45.9983" lon="4.83534">
        <ele>259</ele>
        <time>2017-11-22T10:44:31Z</time>
      </trkpt>
      <trkpt lat="45.99828" lon="4.83526">
        <ele>259</ele>
        <time>2017-11-22T10:44:32Z</time>
      </trkpt>
      <trkpt lat="45.99826" lon="4.8352">
        <ele>259</ele>
        <time>2017-11-22T10:44:33Z</time>
      </trkpt>
      <trkpt lat="45.99825" lon="4.83514">
        <ele>259</ele>
        <time>2017-11-22T10:44:34Z</time>
      </trkpt>
      <trkpt lat="45.99824" lon="4.83507">
        <ele>259</ele>
        <time>2017-11-22T10:44:35Z</time>
      </trkpt>
      <trkpt lat="45.99821" lon="4.83496">
        <ele>260</ele>
        <time>2017-11-22T10:44:37Z</time>
      </trkpt>
      <trkpt lat="45.99819" lon="4.83489">
        <ele>260</ele>
        <time>2017-11-22T10:44:38Z</time>
      </trkpt>
      <trkpt lat="45.99817" lon="4.83482">
        <ele>260</ele>
        <time>2017-11-22T10:44:39Z</time>
      </trkpt>
      <trkpt lat="45.99815" lon="4.83476">
        <ele>260</ele>
        <time>2017-11-22T10:44:40Z</time>
      </trkpt>
      <trkpt lat="45.99813" lon="4.83464">
        <ele>260</ele>
        <time>2017-11-22T10:44:42Z</time>
      </trkpt>
      <trkpt lat="45.99811" lon="4.83459">
        <ele>261</ele>
        <time>2017-11-22T10:44:43Z</time>
      </trkpt>
      <trkpt lat="45.99809" lon="4.83449">
        <ele>261</ele>
        <time>2017-11-22T10:44:45Z</time>
      </trkpt>
      <trkpt lat="45.99808" lon="4.83444">
        <ele>261</ele>
        <time>2017-11-22T10:44:46Z</time>
      </trkpt>
      <trkpt lat="45.99806" lon="4.83432">
        <ele>261</ele>
        <time>2017-11-22T10:44:48Z</time>
      </trkpt>
      <trkpt lat="45.99804" lon="4.83426">
        <ele>261</ele>
        <time>2017-11-22T10:44:49Z</time>
      </trkpt>
      <trkpt lat="45.99801" lon="4.83414">
        <ele>262</ele>
        <time>2017-11-22T10:44:51Z</time>
      </trkpt>
      <trkpt lat="45.998" lon="4.83409">
        <ele>262</ele>
        <time>2017-11-22T10:44:52Z</time>
      </trkpt>
      <trkpt lat="45.99797" lon="4.83397">
        <ele>262</ele>
        <time>2017-11-22T10:44:54Z</time>
      </trkpt>
      <trkpt lat="45.99796" lon="4.83392">
        <ele>262</ele>
        <time>2017-11-22T10:44:55Z</time>
      </trkpt>
      <trkpt lat="45.99795" lon="4.83385">
        <ele>262</ele>
        <time>2017-11-22T10:44:56Z</time>
      </trkpt>
      <trkpt lat="45.99793" lon="4.83379">
        <ele>262</ele>
        <time>2017-11-22T10:44:57Z</time>
      </trkpt>
      <trkpt lat="45.99792" lon="4.83373">
        <ele>262</ele>
        <time>2017-11-22T10:44:58Z</time>
      </trkpt>
      <trkpt lat="45.99791" lon="4.83366">
        <ele>262</ele>
        <time>2017-11-22T10:44:59Z</time>
      </trkpt>
      <trkpt lat="45.99788" lon="4.83354">
        <ele>262</ele>
        <time>2017-11-22T10:45:01Z</time>
      </trkpt>
      <trkpt lat="45.99787" lon="4.83348">
        <ele>262</ele>
        <time>2017-11-22T10:45:02Z</time>
      </trkpt>
      <trkpt lat="45.99785" lon="4.83338">
        <ele>263</ele>
        <time>2017-11-22T10:45:04Z</time>
      </trkpt>
      <trkpt lat="45.99784" lon="4.83331">
        <ele>264</ele>
        <time>2017-11-22T10:45:05Z</time>
      </trkpt>
      <trkpt lat="45.99783" lon="4.8332">
        <ele>264</ele>
        <time>2017-11-22T10:45:07Z</time>
      </trkpt>
      <trkpt lat="45.99781" lon="4.83314">
        <ele>264</ele>
        <time>2017-11-22T10:45:08Z</time>
      </trkpt>
      <trkpt lat="45.99781" lon="4.83304">
        <ele>264</ele>
        <time>2017-11-22T10:45:10Z</time>
      </trkpt>
      <trkpt lat="45.9978" lon="4.833">
        <ele>264</ele>
        <time>2017-11-22T10:45:11Z</time>
      </trkpt>
      <trkpt lat="45.9978" lon="4.8329">
        <ele>264</ele>
        <time>2017-11-22T10:45:13Z</time>
      </trkpt>
      <trkpt lat="45.99779" lon="4.83283">
        <ele>265</ele>
        <time>2017-11-22T10:45:14Z</time>
      </trkpt>
      <trkpt lat="45.99777" lon="4.83272">
        <ele>265</ele>
        <time>2017-11-22T10:45:16Z</time>
      </trkpt>
      <trkpt lat="45.99777" lon="4.83266">
        <ele>265</ele>
        <time>2017-11-22T10:45:17Z</time>
      </trkpt>
      <trkpt lat="45.99775" lon="4.83254">
        <ele>265</ele>
        <time>2017-11-22T10:45:19Z</time>
      </trkpt>
      <trkpt lat="45.99775" lon="4.83248">
        <ele>267</ele>
        <time>2017-11-22T10:45:20Z</time>
      </trkpt>
      <trkpt lat="45.99774" lon="4.83236">
        <ele>267</ele>
        <time>2017-11-22T10:45:22Z</time>
      </trkpt>
      <trkpt lat="45.99773" lon="4.83231">
        <ele>267</ele>
        <time>2017-11-22T10:45:23Z</time>
      </trkpt>
      <trkpt lat="45.99772" lon="4.8322">
        <ele>268</ele>
        <time>2017-11-22T10:45:25Z</time>
      </trkpt>
      <trkpt lat="45.99771" lon="4.83217">
        <ele>268</ele>
        <time>2017-11-22T10:45:26Z</time>
      </trkpt>
      <trkpt lat="45.9977" lon="4.83205">
        <ele>268</ele>
        <time>2017-11-22T10:45:29Z</time>
      </trkpt>
      <trkpt lat="45.9977" lon="4.83201">
        <ele>268</ele>
        <time>2017-11-22T10:45:30Z</time>
      </trkpt>
      <trkpt lat="45.99769" lon="4.83192">
        <ele>269</ele>
        <time>2017-11-22T10:45:32Z</time>
      </trkpt>
      <trkpt lat="45.99768" lon="4.83187">
        <ele>269</ele>
        <time>2017-11-22T10:45:33Z</time>
      </trkpt>
      <trkpt lat="45.99768" lon="4.83177">
        <ele>269</ele>
        <time>2017-11-22T10:45:35Z</time>
      </trkpt>
      <trkpt lat="45.99768" lon="4.83172">
        <ele>269</ele>
        <time>2017-11-22T10:45:36Z</time>
      </trkpt>
      <trkpt lat="45.99766" lon="4.83161">
        <ele>271</ele>
        <time>2017-11-22T10:45:38Z</time>
      </trkpt>
      <trkpt lat="45.99766" lon="4.83156">
        <ele>271</ele>
        <time>2017-11-22T10:45:39Z</time>
      </trkpt>
      <trkpt lat="45.99765" lon="4.83145">
        <ele>271</ele>
        <time>2017-11-22T10:45:41Z</time>
      </trkpt>
      <trkpt lat="45.99764" lon="4.8314">
        <ele>271</ele>
        <time>2017-11-22T10:45:42Z</time>
      </trkpt>
      <trkpt lat="45.99763" lon="4.83129">
        <ele>271</ele>
        <time>2017-11-22T10:45:44Z</time>
      </trkpt>
      <trkpt lat="45.99762" lon="4.83124">
        <ele>271</ele>
        <time>2017-11-22T10:45:45Z</time>
      </trkpt>
      <trkpt lat="45.99761" lon="4.83113">
        <ele>271</ele>
        <time>2017-11-22T10:45:47Z</time>
      </trkpt>
      <trkpt lat="45.99761" lon="4.83107">
        <ele>271</ele>
        <time>2017-11-22T10:45:48Z</time>
      </trkpt>
      <trkpt lat="45.9976" lon="4.83095">
        <ele>272</ele>
        <time>2017-11-22T10:45:50Z</time>
      </trkpt>
      <trkpt lat="45.99759" lon="4.83089">
        <ele>272</ele>
        <time>2017-11-22T10:45:51Z</time>
      </trkpt>
      <trkpt lat="45.99758" lon="4.83078">
        <ele>272</ele>
        <time>2017-11-22T10:45:53Z</time>
      </trkpt>
      <trkpt lat="45.99757" lon="4.83072">
        <ele>272</ele>
        <time>2017-11-22T10:45:54Z</time>
      </trkpt>
      <trkpt lat="45.99754" lon="4.83066">
        <ele>272</ele>
        <time>2017-11-22T10:45:55Z</time>
      </trkpt>
      <trkpt lat="45.99753" lon="4.8306">
        <ele>272</ele>
        <time>2017-11-22T10:45:56Z</time>
      </trkpt>
      <trkpt lat="45.9975" lon="4.83053">
        <ele>272</ele>
        <time>2017-11-22T10:45:57Z</time>
      </trkpt>
      <trkpt lat="45.9975" lon="4.83045">
        <ele>271</ele>
        <time>2017-11-22T10:45:58Z</time>
      </trkpt>
      <trkpt lat="45.99749" lon="4.83039">
        <ele>271</ele>
        <time>2017-11-22T10:45:59Z</time>
      </trkpt>
      <trkpt lat="45.99747" lon="4.83032">
        <ele>271</ele>
        <time>2017-11-22T10:46:00Z</time>
      </trkpt>
      <trkpt lat="45.99745" lon="4.83026">
        <ele>271</ele>
        <time>2017-11-22T10:46:01Z</time>
      </trkpt>
      <trkpt lat="45.99743" lon="4.8302">
        <ele>271</ele>
        <time>2017-11-22T10:46:02Z</time>
      </trkpt>
      <trkpt lat="45.9974" lon="4.83008">
        <ele>271</ele>
        <time>2017-11-22T10:46:04Z</time>
      </trkpt>
      <trkpt lat="45.99738" lon="4.83003">
        <ele>271</ele>
        <time>2017-11-22T10:46:05Z</time>
      </trkpt>
      <trkpt lat="45.99736" lon="4.82998">
        <ele>271</ele>
        <time>2017-11-22T10:46:06Z</time>
      </trkpt>
      <trkpt lat="45.99734" lon="4.82992">
        <ele>271</ele>
        <time>2017-11-22T10:46:07Z</time>
      </trkpt>
      <trkpt lat="45.99732" lon="4.82985">
        <ele>271</ele>
        <time>2017-11-22T10:46:08Z</time>
      </trkpt>
      <trkpt lat="45.9973" lon="4.82979">
        <ele>271</ele>
        <time>2017-11-22T10:46:09Z</time>
      </trkpt>
      <trkpt lat="45.99728" lon="4.82972">
        <ele>271</ele>
        <time>2017-11-22T10:46:10Z</time>
      </trkpt>
      <trkpt lat="45.99726" lon="4.82965">
        <ele>271</ele>
        <time>2017-11-22T10:46:11Z</time>
      </trkpt>
      <trkpt lat="45.99725" lon="4.82958">
        <ele>271</ele>
        <time>2017-11-22T10:46:12Z</time>
      </trkpt>
      <trkpt lat="45.99722" lon="4.8295">
        <ele>271</ele>
        <time>2017-11-22T10:46:13Z</time>
      </trkpt>
      <trkpt lat="45.99719" lon="4.82943">
        <ele>271</ele>
        <time>2017-11-22T10:46:14Z</time>
      </trkpt>
      <trkpt lat="45.99719" lon="4.82937">
        <ele>271</ele>
        <time>2017-11-22T10:46:15Z</time>
      </trkpt>
      <trkpt lat="45.99717" lon="4.8293">
        <ele>271</ele>
        <time>2017-11-22T10:46:16Z</time>
      </trkpt>
      <trkpt lat="45.99715" lon="4.82923">
        <ele>271</ele>
        <time>2017-11-22T10:46:17Z</time>
      </trkpt>
      <trkpt lat="45.99712" lon="4.82917">
        <ele>271</ele>
        <time>2017-11-22T10:46:18Z</time>
      </trkpt>
      <trkpt lat="45.9971" lon="4.8291">
        <ele>271</ele>
        <time>2017-11-22T10:46:19Z</time>
      </trkpt>
      <trkpt lat="45.99709" lon="4.82903">
        <ele>271</ele>
        <time>2017-11-22T10:46:20Z</time>
      </trkpt>
      <trkpt lat="45.99707" lon="4.82895">
        <ele>271</ele>
        <time>2017-11-22T10:46:21Z</time>
      </trkpt>
      <trkpt lat="45.99705" lon="4.82889">
        <ele>271</ele>
        <time>2017-11-22T10:46:22Z</time>
      </trkpt>
      <trkpt lat="45.99703" lon="4.82883">
        <ele>271</ele>
        <time>2017-11-22T10:46:23Z</time>
      </trkpt>
      <trkpt lat="45.99701" lon="4.82877">
        <ele>271</ele>
        <time>2017-11-22T10:46:24Z</time>
      </trkpt>
      <trkpt lat="45.99699" lon="4.82871">
        <ele>270</ele>
        <time>2017-11-22T10:46:25Z</time>
      </trkpt>
      <trkpt lat="45.99697" lon="4.82863">
        <ele>270</ele>
        <time>2017-11-22T10:46:26Z</time>
      </trkpt>
      <trkpt lat="45.99695" lon="4.82856">
        <ele>270</ele>
        <time>2017-11-22T10:46:27Z</time>
      </trkpt>
      <trkpt lat="45.99692" lon="4.8285">
        <ele>270</ele>
        <time>2017-11-22T10:46:28Z</time>
      </trkpt>
      <trkpt lat="45.99691" lon="4.82844">
        <ele>270</ele>
        <time>2017-11-22T10:46:29Z</time>
      </trkpt>
      <trkpt lat="45.99689" lon="4.82837">
        <ele>270</ele>
        <time>2017-11-22T10:46:30Z</time>
      </trkpt>
      <trkpt lat="45.99687" lon="4.82829">
        <ele>270</ele>
        <time>2017-11-22T10:46:31Z</time>
      </trkpt>
      <trkpt lat="45.99685" lon="4.82821">
        <ele>270</ele>
        <time>2017-11-22T10:46:32Z</time>
      </trkpt>
      <trkpt lat="45.99683" lon="4.82813">
        <ele>270</ele>
        <time>2017-11-22T10:46:33Z</time>
      </trkpt>
      <trkpt lat="45.99681" lon="4.82805">
        <ele>270</ele>
        <time>2017-11-22T10:46:34Z</time>
      </trkpt>
      <trkpt lat="45.99679" lon="4.82797">
        <ele>270</ele>
        <time>2017-11-22T10:46:35Z</time>
      </trkpt>
      <trkpt lat="45.99678" lon="4.8279">
        <ele>269</ele>
        <time>2017-11-22T10:46:36Z</time>
      </trkpt>
      <trkpt lat="45.99676" lon="4.82781">
        <ele>269</ele>
        <time>2017-11-22T10:46:37Z</time>
      </trkpt>
      <trkpt lat="45.99674" lon="4.82772">
        <ele>269</ele>
        <time>2017-11-22T10:46:38Z</time>
      </trkpt>
      <trkpt lat="45.99672" lon="4.82763">
        <ele>269</ele>
        <time>2017-11-22T10:46:39Z</time>
      </trkpt>
      <trkpt lat="45.99671" lon="4.82755">
        <ele>269</ele>
        <time>2017-11-22T10:46:40Z</time>
      </trkpt>
      <trkpt lat="45.99669" lon="4.82746">
        <ele>269</ele>
        <time>2017-11-22T10:46:41Z</time>
      </trkpt>
      <trkpt lat="45.99666" lon="4.82735">
        <ele>268</ele>
        <time>2017-11-22T10:46:42Z</time>
      </trkpt>
      <trkpt lat="45.99665" lon="4.82727">
        <ele>268</ele>
        <time>2017-11-22T10:46:43Z</time>
      </trkpt>
      <trkpt lat="45.99665" lon="4.82718">
        <ele>268</ele>
        <time>2017-11-22T10:46:44Z</time>
      </trkpt>
      <trkpt lat="45.99664" lon="4.82709">
        <ele>268</ele>
        <time>2017-11-22T10:46:45Z</time>
      </trkpt>
      <trkpt lat="45.99664" lon="4.82699">
        <ele>268</ele>
        <time>2017-11-22T10:46:46Z</time>
      </trkpt>
      <trkpt lat="45.99664" lon="4.82691">
        <ele>268</ele>
        <time>2017-11-22T10:46:47Z</time>
      </trkpt>
      <trkpt lat="45.99662" lon="4.82682">
        <ele>268</ele>
        <time>2017-11-22T10:46:48Z</time>
      </trkpt>
      <trkpt lat="45.99661" lon="4.82674">
        <ele>268</ele>
        <time>2017-11-22T10:46:49Z</time>
      </trkpt>
      <trkpt lat="45.99659" lon="4.82666">
        <ele>268</ele>
        <time>2017-11-22T10:46:50Z</time>
      </trkpt>
      <trkpt lat="45.99658" lon="4.82658">
        <ele>268</ele>
        <time>2017-11-22T10:46:51Z</time>
      </trkpt>
      <trkpt lat="45.99657" lon="4.82651">
        <ele>268</ele>
        <time>2017-11-22T10:46:52Z</time>
      </trkpt>
      <trkpt lat="45.99656" lon="4.82644">
        <ele>267</ele>
        <time>2017-11-22T10:46:53Z</time>
      </trkpt>
      <trkpt lat="45.99655" lon="4.82637">
        <ele>267</ele>
        <time>2017-11-22T10:46:54Z</time>
      </trkpt>
      <trkpt lat="45.99654" lon="4.82629">
        <ele>267</ele>
        <time>2017-11-22T10:46:55Z</time>
      </trkpt>
      <trkpt lat="45.99652" lon="4.82622">
        <ele>267</ele>
        <time>2017-11-22T10:46:56Z</time>
      </trkpt>
      <trkpt lat="45.99652" lon="4.82614">
        <ele>267</ele>
        <time>2017-11-22T10:46:57Z</time>
      </trkpt>
      <trkpt lat="45.9965" lon="4.82605">
        <ele>267</ele>
        <time>2017-11-22T10:46:58Z</time>
      </trkpt>
      <trkpt lat="45.99649" lon="4.82597">
        <ele>267</ele>
        <time>2017-11-22T10:46:59Z</time>
      </trkpt>
      <trkpt lat="45.99647" lon="4.82588">
        <ele>267</ele>
        <time>2017-11-22T10:47:00Z</time>
      </trkpt>
      <trkpt lat="45.99645" lon="4.82579">
        <ele>266</ele>
        <time>2017-11-22T10:47:01Z</time>
      </trkpt>
      <trkpt lat="45.99643" lon="4.8257">
        <ele>266</ele>
        <time>2017-11-22T10:47:02Z</time>
      </trkpt>
      <trkpt lat="45.99641" lon="4.82562">
        <ele>266</ele>
        <time>2017-11-22T10:47:03Z</time>
      </trkpt>
      <trkpt lat="45.9964" lon="4.82553">
        <ele>266</ele>
        <time>2017-11-22T10:47:04Z</time>
      </trkpt>
      <trkpt lat="45.99637" lon="4.82545">
        <ele>266</ele>
        <time>2017-11-22T10:47:05Z</time>
      </trkpt>
      <trkpt lat="45.99636" lon="4.82536">
        <ele>266</ele>
        <time>2017-11-22T10:47:06Z</time>
      </trkpt>
      <trkpt lat="45.99634" lon="4.82527">
        <ele>266</ele>
        <time>2017-11-22T10:47:07Z</time>
      </trkpt>
      <trkpt lat="45.99631" lon="4.82519">
        <ele>266</ele>
        <time>2017-11-22T10:47:08Z</time>
      </trkpt>
      <trkpt lat="45.9963" lon="4.82512">
        <ele>265</ele>
        <time>2017-11-22T10:47:09Z</time>
      </trkpt>
      <trkpt lat="45.99626" lon="4.82506">
        <ele>265</ele>
        <time>2017-11-22T10:47:10Z</time>
      </trkpt>
      <trkpt lat="45.99624" lon="4.82498">
        <ele>265</ele>
        <time>2017-11-22T10:47:11Z</time>
      </trkpt>
      <trkpt lat="45.99622" lon="4.82491">
        <ele>265</ele>
        <time>2017-11-22T10:47:12Z</time>
      </trkpt>
      <trkpt lat="45.9962" lon="4.82483">
        <ele>265</ele>
        <time>2017-11-22T10:47:13Z</time>
      </trkpt>
      <trkpt lat="45.99618" lon="4.82476">
        <ele>265</ele>
        <time>2017-11-22T10:47:14Z</time>
      </trkpt>
      <trkpt lat="45.99615" lon="4.82467">
        <ele>265</ele>
        <time>2017-11-22T10:47:15Z</time>
      </trkpt>
      <trkpt lat="45.99611" lon="4.82459">
        <ele>265</ele>
        <time>2017-11-22T10:47:16Z</time>
      </trkpt>
      <trkpt lat="45.99607" lon="4.8245">
        <ele>264</ele>
        <time>2017-11-22T10:47:17Z</time>
      </trkpt>
      <trkpt lat="45.99604" lon="4.82442">
        <ele>264</ele>
        <time>2017-11-22T10:47:18Z</time>
      </trkpt>
      <trkpt lat="45.996" lon="4.82432">
        <ele>264</ele>
        <time>2017-11-22T10:47:19Z</time>
      </trkpt>
      <trkpt lat="45.99597" lon="4.82424">
        <ele>263</ele>
        <time>2017-11-22T10:47:20Z</time>
      </trkpt>
      <trkpt lat="45.99593" lon="4.82415">
        <ele>263</ele>
        <time>2017-11-22T10:47:21Z</time>
      </trkpt>
      <trkpt lat="45.99592" lon="4.82405">
        <ele>263</ele>
        <time>2017-11-22T10:47:22Z</time>
      </trkpt>
      <trkpt lat="45.99589" lon="4.82395">
        <ele>264</ele>
        <time>2017-11-22T10:47:23Z</time>
      </trkpt>
      <trkpt lat="45.99588" lon="4.82385">
        <ele>264</ele>
        <time>2017-11-22T10:47:24Z</time>
      </trkpt>
      <trkpt lat="45.99585" lon="4.82376">
        <ele>264</ele>
        <time>2017-11-22T10:47:25Z</time>
      </trkpt>
      <trkpt lat="45.99584" lon="4.82364">
        <ele>264</ele>
        <time>2017-11-22T10:47:26Z</time>
      </trkpt>
      <trkpt lat="45.99582" lon="4.82354">
        <ele>261</ele>
        <time>2017-11-22T10:47:27Z</time>
      </trkpt>
      <trkpt lat="45.99581" lon="4.82344">
        <ele>262</ele>
        <time>2017-11-22T10:47:28Z</time>
      </trkpt>
      <trkpt lat="45.9958" lon="4.82333">
        <ele>263</ele>
        <time>2017-11-22T10:47:29Z</time>
      </trkpt>
      <trkpt lat="45.99579" lon="4.82323">
        <ele>262</ele>
        <time>2017-11-22T10:47:30Z</time>
      </trkpt>
      <trkpt lat="45.99578" lon="4.82313">
        <ele>262</ele>
        <time>2017-11-22T10:47:31Z</time>
      </trkpt>
      <trkpt lat="45.99574" lon="4.82304">
        <ele>262</ele>
        <time>2017-11-22T10:47:32Z</time>
      </trkpt>
      <trkpt lat="45.99571" lon="4.82294">
        <ele>262</ele>
        <time>2017-11-22T10:47:33Z</time>
      </trkpt>
      <trkpt lat="45.99569" lon="4.82286">
        <ele>262</ele>
        <time>2017-11-22T10:47:34Z</time>
      </trkpt>
      <trkpt lat="45.99567" lon="4.82278">
        <ele>262</ele>
        <time>2017-11-22T10:47:35Z</time>
      </trkpt>
      <trkpt lat="45.99565" lon="4.8227">
        <ele>262</ele>
        <time>2017-11-22T10:47:36Z</time>
      </trkpt>
      <trkpt lat="45.99564" lon="4.82263">
        <ele>262</ele>
        <time>2017-11-22T10:47:37Z</time>
      </trkpt>
      <trkpt lat="45.99563" lon="4.82256">
        <ele>262</ele>
        <time>2017-11-22T10:47:38Z</time>
      </trkpt>
      <trkpt lat="45.99561" lon="4.82249">
        <ele>262</ele>
        <time>2017-11-22T10:47:39Z</time>
      </trkpt>
      <trkpt lat="45.99557" lon="4.82241">
        <ele>262</ele>
        <time>2017-11-22T10:47:40Z</time>
      </trkpt>
      <trkpt lat="45.99555" lon="4.82234">
        <ele>262</ele>
        <time>2017-11-22T10:47:41Z</time>
      </trkpt>
      <trkpt lat="45.99553" lon="4.82226">
        <ele>262</ele>
        <time>2017-11-22T10:47:42Z</time>
      </trkpt>
      <trkpt lat="45.99552" lon="4.82219">
        <ele>262</ele>
        <time>2017-11-22T10:47:43Z</time>
      </trkpt>
      <trkpt lat="45.9955" lon="4.82212">
        <ele>262</ele>
        <time>2017-11-22T10:47:44Z</time>
      </trkpt>
      <trkpt lat="45.99548" lon="4.82204">
        <ele>262</ele>
        <time>2017-11-22T10:47:45Z</time>
      </trkpt>
      <trkpt lat="45.99547" lon="4.82196">
        <ele>262</ele>
        <time>2017-11-22T10:47:46Z</time>
      </trkpt>
      <trkpt lat="45.99544" lon="4.82189">
        <ele>262</ele>
        <time>2017-11-22T10:47:47Z</time>
      </trkpt>
      <trkpt lat="45.99543" lon="4.82181">
        <ele>263</ele>
        <time>2017-11-22T10:47:48Z</time>
      </trkpt>
      <trkpt lat="45.99542" lon="4.82174">
        <ele>263</ele>
        <time>2017-11-22T10:47:49Z</time>
      </trkpt>
      <trkpt lat="45.9954" lon="4.82167">
        <ele>262</ele>
        <time>2017-11-22T10:47:50Z</time>
      </trkpt>
      <trkpt lat="45.99539" lon="4.82159">
        <ele>263</ele>
        <time>2017-11-22T10:47:51Z</time>
      </trkpt>
      <trkpt lat="45.99539" lon="4.82151">
        <ele>263</ele>
        <time>2017-11-22T10:47:52Z</time>
      </trkpt>
      <trkpt lat="45.99539" lon="4.82143">
        <ele>263</ele>
        <time>2017-11-22T10:47:53Z</time>
      </trkpt>
      <trkpt lat="45.99537" lon="4.82135">
        <ele>263</ele>
        <time>2017-11-22T10:47:54Z</time>
      </trkpt>
      <trkpt lat="45.99537" lon="4.82127">
        <ele>263</ele>
        <time>2017-11-22T10:47:55Z</time>
      </trkpt>
      <trkpt lat="45.99535" lon="4.82119">
        <ele>263</ele>
        <time>2017-11-22T10:47:56Z</time>
      </trkpt>
      <trkpt lat="45.99534" lon="4.82112">
        <ele>263</ele>
        <time>2017-11-22T10:47:57Z</time>
      </trkpt>
      <trkpt lat="45.99532" lon="4.82104">
        <ele>263</ele>
        <time>2017-11-22T10:47:58Z</time>
      </trkpt>
      <trkpt lat="45.99531" lon="4.82096">
        <ele>262</ele>
        <time>2017-11-22T10:47:59Z</time>
      </trkpt>
      <trkpt lat="45.99531" lon="4.82088">
        <ele>262</ele>
        <time>2017-11-22T10:48:00Z</time>
      </trkpt>
      <trkpt lat="45.99531" lon="4.8208">
        <ele>262</ele>
        <time>2017-11-22T10:48:01Z</time>
      </trkpt>
      <trkpt lat="45.99531" lon="4.82073">
        <ele>262</ele>
        <time>2017-11-22T10:48:02Z</time>
      </trkpt>
      <trkpt lat="45.9953" lon="4.82065">
        <ele>262</ele>
        <time>2017-11-22T10:48:03Z</time>
      </trkpt>
      <trkpt lat="45.99529" lon="4.82057">
        <ele>262</ele>
        <time>2017-11-22T10:48:04Z</time>
      </trkpt>
      <trkpt lat="45.99529" lon="4.82046">
        <ele>262</ele>
        <time>2017-11-22T10:48:05Z</time>
      </trkpt>
      <trkpt lat="45.99527" lon="4.82038">
        <ele>262</ele>
        <time>2017-11-22T10:48:06Z</time>
      </trkpt>
      <trkpt lat="45.99526" lon="4.82029">
        <ele>262</ele>
        <time>2017-11-22T10:48:07Z</time>
      </trkpt>
      <trkpt lat="45.99525" lon="4.8202">
        <ele>261</ele>
        <time>2017-11-22T10:48:08Z</time>
      </trkpt>
      <trkpt lat="45.99524" lon="4.82012">
        <ele>261</ele>
        <time>2017-11-22T10:48:09Z</time>
      </trkpt>
      <trkpt lat="45.99523" lon="4.82003">
        <ele>261</ele>
        <time>2017-11-22T10:48:10Z</time>
      </trkpt>
      <trkpt lat="45.99521" lon="4.81995">
        <ele>261</ele>
        <time>2017-11-22T10:48:11Z</time>
      </trkpt>
      <trkpt lat="45.9952" lon="4.81987">
        <ele>261</ele>
        <time>2017-11-22T10:48:12Z</time>
      </trkpt>
      <trkpt lat="45.99519" lon="4.8198">
        <ele>261</ele>
        <time>2017-11-22T10:48:13Z</time>
      </trkpt>
      <trkpt lat="45.99519" lon="4.81972">
        <ele>261</ele>
        <time>2017-11-22T10:48:14Z</time>
      </trkpt>
      <trkpt lat="45.99518" lon="4.81965">
        <ele>261</ele>
        <time>2017-11-22T10:48:15Z</time>
      </trkpt>
      <trkpt lat="45.99516" lon="4.81958">
        <ele>261</ele>
        <time>2017-11-22T10:48:16Z</time>
      </trkpt>
      <trkpt lat="45.99514" lon="4.8195">
        <ele>261</ele>
        <time>2017-11-22T10:48:17Z</time>
      </trkpt>
      <trkpt lat="45.99513" lon="4.81939">
        <ele>261</ele>
        <time>2017-11-22T10:48:18Z</time>
      </trkpt>
      <trkpt lat="45.99511" lon="4.81931">
        <ele>260</ele>
        <time>2017-11-22T10:48:19Z</time>
      </trkpt>
      <trkpt lat="45.9951" lon="4.81924">
        <ele>260</ele>
        <time>2017-11-22T10:48:20Z</time>
      </trkpt>
      <trkpt lat="45.99509" lon="4.81916">
        <ele>260</ele>
        <time>2017-11-22T10:48:21Z</time>
      </trkpt>
      <trkpt lat="45.99508" lon="4.81908">
        <ele>260</ele>
        <time>2017-11-22T10:48:22Z</time>
      </trkpt>
      <trkpt lat="45.99507" lon="4.819">
        <ele>261</ele>
        <time>2017-11-22T10:48:23Z</time>
      </trkpt>
      <trkpt lat="45.99506" lon="4.81891">
        <ele>261</ele>
        <time>2017-11-22T10:48:24Z</time>
      </trkpt>
      <trkpt lat="45.99504" lon="4.81884">
        <ele>261</ele>
        <time>2017-11-22T10:48:25Z</time>
      </trkpt>
      <trkpt lat="45.99504" lon="4.81876">
        <ele>261</ele>
        <time>2017-11-22T10:48:26Z</time>
      </trkpt>
      <trkpt lat="45.99503" lon="4.81869">
        <ele>262</ele>
        <time>2017-11-22T10:48:27Z</time>
      </trkpt>
      <trkpt lat="45.99502" lon="4.81861">
        <ele>262</ele>
        <time>2017-11-22T10:48:28Z</time>
      </trkpt>
      <trkpt lat="45.99501" lon="4.81854">
        <ele>262</ele>
        <time>2017-11-22T10:48:29Z</time>
      </trkpt>
      <trkpt lat="45.99499" lon="4.81847">
        <ele>261</ele>
        <time>2017-11-22T10:48:30Z</time>
      </trkpt>
      <trkpt lat="45.99499" lon="4.81839">
        <ele>261</ele>
        <time>2017-11-22T10:48:31Z</time>
      </trkpt>
      <trkpt lat="45.99498" lon="4.81831">
        <ele>262</ele>
        <time>2017-11-22T10:48:32Z</time>
      </trkpt>
      <trkpt lat="45.99498" lon="4.81823">
        <ele>262</ele>
        <time>2017-11-22T10:48:33Z</time>
      </trkpt>
      <trkpt lat="45.99496" lon="4.81814">
        <ele>262</ele>
        <time>2017-11-22T10:48:34Z</time>
      </trkpt>
      <trkpt lat="45.99495" lon="4.81807">
        <ele>262</ele>
        <time>2017-11-22T10:48:35Z</time>
      </trkpt>
      <trkpt lat="45.99494" lon="4.818">
        <ele>262</ele>
        <time>2017-11-22T10:48:36Z</time>
      </trkpt>
      <trkpt lat="45.99492" lon="4.81793">
        <ele>262</ele>
        <time>2017-11-22T10:48:37Z</time>
      </trkpt>
      <trkpt lat="45.9949" lon="4.81786">
        <ele>262</ele>
        <time>2017-11-22T10:48:38Z</time>
      </trkpt>
      <trkpt lat="45.99489" lon="4.81778">
        <ele>262</ele>
        <time>2017-11-22T10:48:39Z</time>
      </trkpt>
      <trkpt lat="45.99489" lon="4.81768">
        <ele>262</ele>
        <time>2017-11-22T10:48:40Z</time>
      </trkpt>
      <trkpt lat="45.99488" lon="4.81759">
        <ele>262</ele>
        <time>2017-11-22T10:48:41Z</time>
      </trkpt>
      <trkpt lat="45.99488" lon="4.8175">
        <ele>262</ele>
        <time>2017-11-22T10:48:42Z</time>
      </trkpt>
      <trkpt lat="45.99487" lon="4.81741">
        <ele>262</ele>
        <time>2017-11-22T10:48:43Z</time>
      </trkpt>
      <trkpt lat="45.99486" lon="4.81733">
        <ele>261</ele>
        <time>2017-11-22T10:48:44Z</time>
      </trkpt>
      <trkpt lat="45.99485" lon="4.81724">
        <ele>261</ele>
        <time>2017-11-22T10:48:45Z</time>
      </trkpt>
      <trkpt lat="45.99484" lon="4.81715">
        <ele>261</ele>
        <time>2017-11-22T10:48:46Z</time>
      </trkpt>
      <trkpt lat="45.99484" lon="4.81708">
        <ele>261</ele>
        <time>2017-11-22T10:48:47Z</time>
      </trkpt>
      <trkpt lat="45.99483" lon="4.817">
        <ele>261</ele>
        <time>2017-11-22T10:48:48Z</time>
      </trkpt>
      <trkpt lat="45.99481" lon="4.81691">
        <ele>261</ele>
        <time>2017-11-22T10:48:49Z</time>
      </trkpt>
      <trkpt lat="45.9948" lon="4.81681">
        <ele>261</ele>
        <time>2017-11-22T10:48:50Z</time>
      </trkpt>
      <trkpt lat="45.99478" lon="4.81672">
        <ele>261</ele>
        <time>2017-11-22T10:48:51Z</time>
      </trkpt>
      <trkpt lat="45.99477" lon="4.81663">
        <ele>259</ele>
        <time>2017-11-22T10:48:52Z</time>
      </trkpt>
      <trkpt lat="45.99476" lon="4.81653">
        <ele>259</ele>
        <time>2017-11-22T10:48:53Z</time>
      </trkpt>
      <trkpt lat="45.99475" lon="4.81643">
        <ele>258</ele>
        <time>2017-11-22T10:48:54Z</time>
      </trkpt>
      <trkpt lat="45.99473" lon="4.81634">
        <ele>258</ele>
        <time>2017-11-22T10:48:55Z</time>
      </trkpt>
      <trkpt lat="45.99471" lon="4.81625">
        <ele>258</ele>
        <time>2017-11-22T10:48:56Z</time>
      </trkpt>
      <trkpt lat="45.9947" lon="4.81616">
        <ele>258</ele>
        <time>2017-11-22T10:48:57Z</time>
      </trkpt>
      <trkpt lat="45.99469" lon="4.81607">
        <ele>258</ele>
        <time>2017-11-22T10:48:58Z</time>
      </trkpt>
      <trkpt lat="45.99468" lon="4.81597">
        <ele>257</ele>
        <time>2017-11-22T10:48:59Z</time>
      </trkpt>
      <trkpt lat="45.99467" lon="4.81588">
        <ele>257</ele>
        <time>2017-11-22T10:49:00Z</time>
      </trkpt>
      <trkpt lat="45.99466" lon="4.81579">
        <ele>255</ele>
        <time>2017-11-22T10:49:01Z</time>
      </trkpt>
      <trkpt lat="45.99465" lon="4.81569">
        <ele>255</ele>
        <time>2017-11-22T10:49:02Z</time>
      </trkpt>
      <trkpt lat="45.99463" lon="4.8156">
        <ele>255</ele>
        <time>2017-11-22T10:49:03Z</time>
      </trkpt>
      <trkpt lat="45.99462" lon="4.81553">
        <ele>255</ele>
        <time>2017-11-22T10:49:04Z</time>
      </trkpt>
      <trkpt lat="45.9946" lon="4.81543">
        <ele>255</ele>
        <time>2017-11-22T10:49:05Z</time>
      </trkpt>
      <trkpt lat="45.99459" lon="4.81534">
        <ele>255</ele>
        <time>2017-11-22T10:49:06Z</time>
      </trkpt>
      <trkpt lat="45.99458" lon="4.81524">
        <ele>255</ele>
        <time>2017-11-22T10:49:07Z</time>
      </trkpt>
      <trkpt lat="45.99456" lon="4.81516">
        <ele>255</ele>
        <time>2017-11-22T10:49:08Z</time>
      </trkpt>
      <trkpt lat="45.99454" lon="4.81506">
        <ele>255</ele>
        <time>2017-11-22T10:49:09Z</time>
      </trkpt>
      <trkpt lat="45.99452" lon="4.81496">
        <ele>254</ele>
        <time>2017-11-22T10:49:10Z</time>
      </trkpt>
      <trkpt lat="45.9945" lon="4.81487">
        <ele>254</ele>
        <time>2017-11-22T10:49:11Z</time>
      </trkpt>
      <trkpt lat="45.9945" lon="4.81476">
        <ele>254</ele>
        <time>2017-11-22T10:49:12Z</time>
      </trkpt>
      <trkpt lat="45.99449" lon="4.81466">
        <ele>254</ele>
        <time>2017-11-22T10:49:13Z</time>
      </trkpt>
      <trkpt lat="45.99448" lon="4.81456">
        <ele>254</ele>
        <time>2017-11-22T10:49:14Z</time>
      </trkpt>
      <trkpt lat="45.99447" lon="4.81447">
        <ele>254</ele>
        <time>2017-11-22T10:49:15Z</time>
      </trkpt>
      <trkpt lat="45.99445" lon="4.81437">
        <ele>254</ele>
        <time>2017-11-22T10:49:16Z</time>
      </trkpt>
      <trkpt lat="45.99443" lon="4.81429">
        <ele>254</ele>
        <time>2017-11-22T10:49:17Z</time>
      </trkpt>
      <trkpt lat="45.99441" lon="4.8142">
        <ele>254</ele>
        <time>2017-11-22T10:49:18Z</time>
      </trkpt>
      <trkpt lat="45.9944" lon="4.81411">
        <ele>254</ele>
        <time>2017-11-22T10:49:19Z</time>
      </trkpt>
      <trkpt lat="45.99439" lon="4.81402">
        <ele>254</ele>
        <time>2017-11-22T10:49:20Z</time>
      </trkpt>
      <trkpt lat="45.99438" lon="4.81392">
        <ele>254</ele>
        <time>2017-11-22T10:49:21Z</time>
      </trkpt>
      <trkpt lat="45.99437" lon="4.81383">
        <ele>254</ele>
        <time>2017-11-22T10:49:22Z</time>
      </trkpt>
      <trkpt lat="45.99436" lon="4.81373">
        <ele>254</ele>
        <time>2017-11-22T10:49:23Z</time>
      </trkpt>
      <trkpt lat="45.99434" lon="4.81364">
        <ele>254</ele>
        <time>2017-11-22T10:49:24Z</time>
      </trkpt>
      <trkpt lat="45.99432" lon="4.81354">
        <ele>254</ele>
        <time>2017-11-22T10:49:25Z</time>
      </trkpt>
      <trkpt lat="45.99432" lon="4.81345">
        <ele>254</ele>
        <time>2017-11-22T10:49:26Z</time>
      </trkpt>
      <trkpt lat="45.99431" lon="4.81337">
        <ele>254</ele>
        <time>2017-11-22T10:49:27Z</time>
      </trkpt>
      <trkpt lat="45.9943" lon="4.81326">
        <ele>254</ele>
        <time>2017-11-22T10:49:28Z</time>
      </trkpt>
      <trkpt lat="45.99429" lon="4.81316">
        <ele>254</ele>
        <time>2017-11-22T10:49:29Z</time>
      </trkpt>
      <trkpt lat="45.99428" lon="4.81309">
        <ele>253</ele>
        <time>2017-11-22T10:49:30Z</time>
      </trkpt>
      <trkpt lat="45.99426" lon="4.813">
        <ele>253</ele>
        <time>2017-11-22T10:49:31Z</time>
      </trkpt>
      <trkpt lat="45.99425" lon="4.81292">
        <ele>253</ele>
        <time>2017-11-22T10:49:32Z</time>
      </trkpt>
      <trkpt lat="45.99423" lon="4.81284">
        <ele>253</ele>
        <time>2017-11-22T10:49:33Z</time>
      </trkpt>
      <trkpt lat="45.99421" lon="4.81274">
        <ele>253</ele>
        <time>2017-11-22T10:49:34Z</time>
      </trkpt>
      <trkpt lat="45.9942" lon="4.81266">
        <ele>252</ele>
        <time>2017-11-22T10:49:35Z</time>
      </trkpt>
      <trkpt lat="45.99419" lon="4.81257">
        <ele>252</ele>
        <time>2017-11-22T10:49:36Z</time>
      </trkpt>
      <trkpt lat="45.99417" lon="4.81247">
        <ele>252</ele>
        <time>2017-11-22T10:49:37Z</time>
      </trkpt>
      <trkpt lat="45.99416" lon="4.81238">
        <ele>252</ele>
        <time>2017-11-22T10:49:38Z</time>
      </trkpt>
      <trkpt lat="45.99415" lon="4.81228">
        <ele>252</ele>
        <time>2017-11-22T10:49:39Z</time>
      </trkpt>
      <trkpt lat="45.99414" lon="4.81218">
        <ele>252</ele>
        <time>2017-11-22T10:49:40Z</time>
      </trkpt>
      <trkpt lat="45.99412" lon="4.81209">
        <ele>252</ele>
        <time>2017-11-22T10:49:41Z</time>
      </trkpt>
      <trkpt lat="45.9941" lon="4.812">
        <ele>252</ele>
        <time>2017-11-22T10:49:42Z</time>
      </trkpt>
      <trkpt lat="45.99409" lon="4.81191">
        <ele>252</ele>
        <time>2017-11-22T10:49:43Z</time>
      </trkpt>
      <trkpt lat="45.99408" lon="4.81183">
        <ele>251</ele>
        <time>2017-11-22T10:49:44Z</time>
      </trkpt>
      <trkpt lat="45.99407" lon="4.81174">
        <ele>251</ele>
        <time>2017-11-22T10:49:45Z</time>
      </trkpt>
      <trkpt lat="45.99405" lon="4.81166">
        <ele>251</ele>
        <time>2017-11-22T10:49:46Z</time>
      </trkpt>
      <trkpt lat="45.99404" lon="4.81158">
        <ele>251</ele>
        <time>2017-11-22T10:49:47Z</time>
      </trkpt>
      <trkpt lat="45.99404" lon="4.81151">
        <ele>251</ele>
        <time>2017-11-22T10:49:48Z</time>
      </trkpt>
      <trkpt lat="45.99403" lon="4.81143">
        <ele>251</ele>
        <time>2017-11-22T10:49:49Z</time>
      </trkpt>
      <trkpt lat="45.99402" lon="4.81135">
        <ele>251</ele>
        <time>2017-11-22T10:49:50Z</time>
      </trkpt>
      <trkpt lat="45.99401" lon="4.81127">
        <ele>251</ele>
        <time>2017-11-22T10:49:51Z</time>
      </trkpt>
      <trkpt lat="45.99401" lon="4.81117">
        <ele>251</ele>
        <time>2017-11-22T10:49:52Z</time>
      </trkpt>
      <trkpt lat="45.99399" lon="4.81109">
        <ele>251</ele>
        <time>2017-11-22T10:49:53Z</time>
      </trkpt>
      <trkpt lat="45.99398" lon="4.811">
        <ele>251</ele>
        <time>2017-11-22T10:49:54Z</time>
      </trkpt>
      <trkpt lat="45.99396" lon="4.81091">
        <ele>251</ele>
        <time>2017-11-22T10:49:55Z</time>
      </trkpt>
      <trkpt lat="45.99396" lon="4.81081">
        <ele>251</ele>
        <time>2017-11-22T10:49:56Z</time>
      </trkpt>
      <trkpt lat="45.99394" lon="4.8107">
        <ele>251</ele>
        <time>2017-11-22T10:49:57Z</time>
      </trkpt>
      <trkpt lat="45.99392" lon="4.81061">
        <ele>251</ele>
        <time>2017-11-22T10:49:58Z</time>
      </trkpt>
      <trkpt lat="45.9939" lon="4.81053">
        <ele>251</ele>
        <time>2017-11-22T10:49:59Z</time>
      </trkpt>
      <trkpt lat="45.99389" lon="4.81044">
        <ele>251</ele>
        <time>2017-11-22T10:50:00Z</time>
      </trkpt>
      <trkpt lat="45.99388" lon="4.81036">
        <ele>251</ele>
        <time>2017-11-22T10:50:01Z</time>
      </trkpt>
      <trkpt lat="45.99387" lon="4.81028">
        <ele>251</ele>
        <time>2017-11-22T10:50:02Z</time>
      </trkpt>
      <trkpt lat="45.99386" lon="4.8102">
        <ele>251</ele>
        <time>2017-11-22T10:50:03Z</time>
      </trkpt>
      <trkpt lat="45.99385" lon="4.81012">
        <ele>251</ele>
        <time>2017-11-22T10:50:04Z</time>
      </trkpt>
      <trkpt lat="45.99383" lon="4.81004">
        <ele>251</ele>
        <time>2017-11-22T10:50:05Z</time>
      </trkpt>
      <trkpt lat="45.99383" lon="4.80996">
        <ele>250</ele>
        <time>2017-11-22T10:50:06Z</time>
      </trkpt>
      <trkpt lat="45.99382" lon="4.80989">
        <ele>250</ele>
        <time>2017-11-22T10:50:07Z</time>
      </trkpt>
      <trkpt lat="45.9938" lon="4.8098">
        <ele>250</ele>
        <time>2017-11-22T10:50:08Z</time>
      </trkpt>
      <trkpt lat="45.99378" lon="4.8097">
        <ele>250</ele>
        <time>2017-11-22T10:50:09Z</time>
      </trkpt>
      <trkpt lat="45.99377" lon="4.80961">
        <ele>250</ele>
        <time>2017-11-22T10:50:10Z</time>
      </trkpt>
      <trkpt lat="45.99376" lon="4.80951">
        <ele>250</ele>
        <time>2017-11-22T10:50:11Z</time>
      </trkpt>
      <trkpt lat="45.99375" lon="4.80942">
        <ele>250</ele>
        <time>2017-11-22T10:50:12Z</time>
      </trkpt>
      <trkpt lat="45.99375" lon="4.80933">
        <ele>250</ele>
        <time>2017-11-22T10:50:13Z</time>
      </trkpt>
      <trkpt lat="45.99374" lon="4.80925">
        <ele>250</ele>
        <time>2017-11-22T10:50:14Z</time>
      </trkpt>
      <trkpt lat="45.99372" lon="4.80915">
        <ele>248</ele>
        <time>2017-11-22T10:50:15Z</time>
      </trkpt>
      <trkpt lat="45.99371" lon="4.80906">
        <ele>248</ele>
        <time>2017-11-22T10:50:16Z</time>
      </trkpt>
      <trkpt lat="45.99369" lon="4.80897">
        <ele>248</ele>
        <time>2017-11-22T10:50:17Z</time>
      </trkpt>
      <trkpt lat="45.99368" lon="4.80888">
        <ele>248</ele>
        <time>2017-11-22T10:50:18Z</time>
      </trkpt>
      <trkpt lat="45.99366" lon="4.8088">
        <ele>248</ele>
        <time>2017-11-22T10:50:19Z</time>
      </trkpt>
      <trkpt lat="45.99366" lon="4.80871">
        <ele>248</ele>
        <time>2017-11-22T10:50:20Z</time>
      </trkpt>
      <trkpt lat="45.99364" lon="4.80862">
        <ele>248</ele>
        <time>2017-11-22T10:50:21Z</time>
      </trkpt>
      <trkpt lat="45.99362" lon="4.80852">
        <ele>248</ele>
        <time>2017-11-22T10:50:22Z</time>
      </trkpt>
      <trkpt lat="45.99361" lon="4.80842">
        <ele>247</ele>
        <time>2017-11-22T10:50:23Z</time>
      </trkpt>
      <trkpt lat="45.9936" lon="4.80831">
        <ele>246</ele>
        <time>2017-11-22T10:50:24Z</time>
      </trkpt>
      <trkpt lat="45.99359" lon="4.80821">
        <ele>246</ele>
        <time>2017-11-22T10:50:25Z</time>
      </trkpt>
      <trkpt lat="45.99357" lon="4.8081">
        <ele>246</ele>
        <time>2017-11-22T10:50:26Z</time>
      </trkpt>
      <trkpt lat="45.99356" lon="4.808">
        <ele>246</ele>
        <time>2017-11-22T10:50:27Z</time>
      </trkpt>
      <trkpt lat="45.99355" lon="4.8079">
        <ele>246</ele>
        <time>2017-11-22T10:50:28Z</time>
      </trkpt>
      <trkpt lat="45.99353" lon="4.8078">
        <ele>245</ele>
        <time>2017-11-22T10:50:29Z</time>
      </trkpt>
      <trkpt lat="45.99352" lon="4.80769">
        <ele>245</ele>
        <time>2017-11-22T10:50:30Z</time>
      </trkpt>
      <trkpt lat="45.9935" lon="4.80759">
        <ele>245</ele>
        <time>2017-11-22T10:50:31Z</time>
      </trkpt>
      <trkpt lat="45.99348" lon="4.80748">
        <ele>245</ele>
        <time>2017-11-22T10:50:32Z</time>
      </trkpt>
      <trkpt lat="45.99345" lon="4.80738">
        <ele>245</ele>
        <time>2017-11-22T10:50:33Z</time>
      </trkpt>
      <trkpt lat="45.99344" lon="4.80728">
        <ele>245</ele>
        <time>2017-11-22T10:50:34Z</time>
      </trkpt>
      <trkpt lat="45.99342" lon="4.80718">
        <ele>244</ele>
        <time>2017-11-22T10:50:35Z</time>
      </trkpt>
      <trkpt lat="45.99341" lon="4.80708">
        <ele>244</ele>
        <time>2017-11-22T10:50:36Z</time>
      </trkpt>
      <trkpt lat="45.99339" lon="4.80698">
        <ele>244</ele>
        <time>2017-11-22T10:50:37Z</time>
      </trkpt>
      <trkpt lat="45.99338" lon="4.80688">
        <ele>244</ele>
        <time>2017-11-22T10:50:38Z</time>
      </trkpt>
      <trkpt lat="45.99337" lon="4.80678">
        <ele>244</ele>
        <time>2017-11-22T10:50:39Z</time>
      </trkpt>
      <trkpt lat="45.99336" lon="4.80669">
        <ele>244</ele>
        <time>2017-11-22T10:50:40Z</time>
      </trkpt>
      <trkpt lat="45.99335" lon="4.80659">
        <ele>244</ele>
        <time>2017-11-22T10:50:41Z</time>
      </trkpt>
      <trkpt lat="45.99335" lon="4.8065">
        <ele>244</ele>
        <time>2017-11-22T10:50:42Z</time>
      </trkpt>
      <trkpt lat="45.99334" lon="4.80641">
        <ele>244</ele>
        <time>2017-11-22T10:50:43Z</time>
      </trkpt>
      <trkpt lat="45.99333" lon="4.80632">
        <ele>243</ele>
        <time>2017-11-22T10:50:44Z</time>
      </trkpt>
      <trkpt lat="45.99332" lon="4.80625">
        <ele>243</ele>
        <time>2017-11-22T10:50:45Z</time>
      </trkpt>
      <trkpt lat="45.99331" lon="4.80616">
        <ele>243</ele>
        <time>2017-11-22T10:50:46Z</time>
      </trkpt>
      <trkpt lat="45.99331" lon="4.80608">
        <ele>243</ele>
        <time>2017-11-22T10:50:47Z</time>
      </trkpt>
      <trkpt lat="45.9933" lon="4.806">
        <ele>243</ele>
        <time>2017-11-22T10:50:48Z</time>
      </trkpt>
      <trkpt lat="45.99328" lon="4.80591">
        <ele>242</ele>
        <time>2017-11-22T10:50:49Z</time>
      </trkpt>
      <trkpt lat="45.99327" lon="4.80581">
        <ele>242</ele>
        <time>2017-11-22T10:50:50Z</time>
      </trkpt>
      <trkpt lat="45.99327" lon="4.80571">
        <ele>242</ele>
        <time>2017-11-22T10:50:51Z</time>
      </trkpt>
      <trkpt lat="45.99326" lon="4.80561">
        <ele>242</ele>
        <time>2017-11-22T10:50:52Z</time>
      </trkpt>
      <trkpt lat="45.99326" lon="4.80552">
        <ele>241</ele>
        <time>2017-11-22T10:50:53Z</time>
      </trkpt>
      <trkpt lat="45.99324" lon="4.80541">
        <ele>241</ele>
        <time>2017-11-22T10:50:54Z</time>
      </trkpt>
      <trkpt lat="45.99323" lon="4.80531">
        <ele>241</ele>
        <time>2017-11-22T10:50:55Z</time>
      </trkpt>
      <trkpt lat="45.99322" lon="4.80521">
        <ele>241</ele>
        <time>2017-11-22T10:50:56Z</time>
      </trkpt>
      <trkpt lat="45.9932" lon="4.80512">
        <ele>241</ele>
        <time>2017-11-22T10:50:57Z</time>
      </trkpt>
      <trkpt lat="45.99319" lon="4.80503">
        <ele>241</ele>
        <time>2017-11-22T10:50:58Z</time>
      </trkpt>
      <trkpt lat="45.99318" lon="4.80493">
        <ele>241</ele>
        <time>2017-11-22T10:50:59Z</time>
      </trkpt>
      <trkpt lat="45.99316" lon="4.80485">
        <ele>241</ele>
        <time>2017-11-22T10:51:00Z</time>
      </trkpt>
      <trkpt lat="45.99315" lon="4.80476">
        <ele>241</ele>
        <time>2017-11-22T10:51:01Z</time>
      </trkpt>
      <trkpt lat="45.99314" lon="4.80467">
        <ele>241</ele>
        <time>2017-11-22T10:51:02Z</time>
      </trkpt>
      <trkpt lat="45.99314" lon="4.80458">
        <ele>241</ele>
        <time>2017-11-22T10:51:03Z</time>
      </trkpt>
      <trkpt lat="45.99314" lon="4.80448">
        <ele>241</ele>
        <time>2017-11-22T10:51:04Z</time>
      </trkpt>
      <trkpt lat="45.99315" lon="4.80438">
        <ele>241</ele>
        <time>2017-11-22T10:51:05Z</time>
      </trkpt>
      <trkpt lat="45.99317" lon="4.80429">
        <ele>241</ele>
        <time>2017-11-22T10:51:06Z</time>
      </trkpt>
      <trkpt lat="45.9932" lon="4.80421">
        <ele>241</ele>
        <time>2017-11-22T10:51:07Z</time>
      </trkpt>
      <trkpt lat="45.99321" lon="4.80412">
        <ele>242</ele>
        <time>2017-11-22T10:51:08Z</time>
      </trkpt>
      <trkpt lat="45.99323" lon="4.80403">
        <ele>242</ele>
        <time>2017-11-22T10:51:09Z</time>
      </trkpt>
      <trkpt lat="45.99323" lon="4.80395">
        <ele>242</ele>
        <time>2017-11-22T10:51:10Z</time>
      </trkpt>
      <trkpt lat="45.9932" lon="4.80387">
        <ele>242</ele>
        <time>2017-11-22T10:51:11Z</time>
      </trkpt>
      <trkpt lat="45.99316" lon="4.80382">
        <ele>242</ele>
        <time>2017-11-22T10:51:12Z</time>
      </trkpt>
      <trkpt lat="45.99311" lon="4.80379">
        <ele>242</ele>
        <time>2017-11-22T10:51:13Z</time>
      </trkpt>
      <trkpt lat="45.99306" lon="4.80376">
        <ele>242</ele>
        <time>2017-11-22T10:51:14Z</time>
      </trkpt>
      <trkpt lat="45.993" lon="4.80376">
        <ele>242</ele>
        <time>2017-11-22T10:51:15Z</time>
      </trkpt>
      <trkpt lat="45.99296" lon="4.80376">
        <ele>242</ele>
        <time>2017-11-22T10:51:16Z</time>
      </trkpt>
      <trkpt lat="45.9929" lon="4.80377">
        <ele>242</ele>
        <time>2017-11-22T10:51:17Z</time>
      </trkpt>
      <trkpt lat="45.99283" lon="4.80376">
        <ele>242</ele>
        <time>2017-11-22T10:51:18Z</time>
      </trkpt>
      <trkpt lat="45.99278" lon="4.80374">
        <ele>243</ele>
        <time>2017-11-22T10:51:19Z</time>
      </trkpt>
      <trkpt lat="45.99272" lon="4.8037">
        <ele>243</ele>
        <time>2017-11-22T10:51:20Z</time>
      </trkpt>
      <trkpt lat="45.99267" lon="4.80365">
        <ele>243</ele>
        <time>2017-11-22T10:51:21Z</time>
      </trkpt>
      <trkpt lat="45.99263" lon="4.80359">
        <ele>243</ele>
        <time>2017-11-22T10:51:22Z</time>
      </trkpt>
      <trkpt lat="45.99258" lon="4.80354">
        <ele>243</ele>
        <time>2017-11-22T10:51:23Z</time>
      </trkpt>
      <trkpt lat="45.99254" lon="4.80348">
        <ele>243</ele>
        <time>2017-11-22T10:51:24Z</time>
      </trkpt>
      <trkpt lat="45.9925" lon="4.80342">
        <ele>243</ele>
        <time>2017-11-22T10:51:25Z</time>
      </trkpt>
      <trkpt lat="45.99246" lon="4.80336">
        <ele>243</ele>
        <time>2017-11-22T10:51:26Z</time>
      </trkpt>
      <trkpt lat="45.99242" lon="4.8033">
        <ele>243</ele>
        <time>2017-11-22T10:51:27Z</time>
      </trkpt>
      <trkpt lat="45.99238" lon="4.80324">
        <ele>243</ele>
        <time>2017-11-22T10:51:28Z</time>
      </trkpt>
      <trkpt lat="45.99236" lon="4.80319">
        <ele>243</ele>
        <time>2017-11-22T10:51:29Z</time>
      </trkpt>
      <trkpt lat="45.99232" lon="4.80313">
        <ele>243</ele>
        <time>2017-11-22T10:51:30Z</time>
      </trkpt>
      <trkpt lat="45.99229" lon="4.80307">
        <ele>242</ele>
        <time>2017-11-22T10:51:31Z</time>
      </trkpt>
      <trkpt lat="45.99225" lon="4.80301">
        <ele>242</ele>
        <time>2017-11-22T10:51:32Z</time>
      </trkpt>
      <trkpt lat="45.99221" lon="4.80296">
        <ele>242</ele>
        <time>2017-11-22T10:51:33Z</time>
      </trkpt>
      <trkpt lat="45.99216" lon="4.8029">
        <ele>242</ele>
        <time>2017-11-22T10:51:34Z</time>
      </trkpt>
      <trkpt lat="45.99212" lon="4.80284">
        <ele>242</ele>
        <time>2017-11-22T10:51:35Z</time>
      </trkpt>
      <trkpt lat="45.99208" lon="4.80279">
        <ele>242</ele>
        <time>2017-11-22T10:51:36Z</time>
      </trkpt>
      <trkpt lat="45.99205" lon="4.80273">
        <ele>242</ele>
        <time>2017-11-22T10:51:37Z</time>
      </trkpt>
      <trkpt lat="45.99202" lon="4.80269">
        <ele>242</ele>
        <time>2017-11-22T10:51:38Z</time>
      </trkpt>
      <trkpt lat="45.99198" lon="4.80264">
        <ele>242</ele>
        <time>2017-11-22T10:51:39Z</time>
      </trkpt>
      <trkpt lat="45.99194" lon="4.80258">
        <ele>242</ele>
        <time>2017-11-22T10:51:40Z</time>
      </trkpt>
      <trkpt lat="45.99189" lon="4.80252">
        <ele>242</ele>
        <time>2017-11-22T10:51:41Z</time>
      </trkpt>
      <trkpt lat="45.99184" lon="4.80246">
        <ele>242</ele>
        <time>2017-11-22T10:51:42Z</time>
      </trkpt>
      <trkpt lat="45.9918" lon="4.80239">
        <ele>242</ele>
        <time>2017-11-22T10:51:43Z</time>
      </trkpt>
      <trkpt lat="45.99176" lon="4.80234">
        <ele>242</ele>
        <time>2017-11-22T10:51:44Z</time>
      </trkpt>
      <trkpt lat="45.99171" lon="4.80229">
        <ele>243</ele>
        <time>2017-11-22T10:51:45Z</time>
      </trkpt>
      <trkpt lat="45.99167" lon="4.80224">
        <ele>243</ele>
        <time>2017-11-22T10:51:46Z</time>
      </trkpt>
      <trkpt lat="45.99163" lon="4.8022">
        <ele>241</ele>
        <time>2017-11-22T10:51:47Z</time>
      </trkpt>
      <trkpt lat="45.99158" lon="4.80215">
        <ele>242</ele>
        <time>2017-11-22T10:51:48Z</time>
      </trkpt>
      <trkpt lat="45.99154" lon="4.8021">
        <ele>242</ele>
        <time>2017-11-22T10:51:49Z</time>
      </trkpt>
      <trkpt lat="45.9915" lon="4.80206">
        <ele>242</ele>
        <time>2017-11-22T10:51:50Z</time>
      </trkpt>
      <trkpt lat="45.99147" lon="4.80202">
        <ele>242</ele>
        <time>2017-11-22T10:51:51Z</time>
      </trkpt>
      <trkpt lat="45.99143" lon="4.80198">
        <ele>242</ele>
        <time>2017-11-22T10:51:52Z</time>
      </trkpt>
      <trkpt lat="45.99139" lon="4.80194">
        <ele>242</ele>
        <time>2017-11-22T10:51:53Z</time>
      </trkpt>
      <trkpt lat="45.99135" lon="4.80189">
        <ele>242</ele>
        <time>2017-11-22T10:51:54Z</time>
      </trkpt>
      <trkpt lat="45.99131" lon="4.80182">
        <ele>242</ele>
        <time>2017-11-22T10:51:55Z</time>
      </trkpt>
      <trkpt lat="45.99125" lon="4.80173">
        <ele>242</ele>
        <time>2017-11-22T10:51:57Z</time>
      </trkpt>
      <trkpt lat="45.99121" lon="4.80168">
        <ele>242</ele>
        <time>2017-11-22T10:51:58Z</time>
      </trkpt>
      <trkpt lat="45.99117" lon="4.80164">
        <ele>243</ele>
        <time>2017-11-22T10:51:59Z</time>
      </trkpt>
      <trkpt lat="45.99114" lon="4.8016">
        <ele>243</ele>
        <time>2017-11-22T10:52:00Z</time>
      </trkpt>
      <trkpt lat="45.99108" lon="4.80156">
        <ele>243</ele>
        <time>2017-11-22T10:52:01Z</time>
      </trkpt>
      <trkpt lat="45.99105" lon="4.80152">
        <ele>243</ele>
        <time>2017-11-22T10:52:02Z</time>
      </trkpt>
      <trkpt lat="45.991" lon="4.80147">
        <ele>243</ele>
        <time>2017-11-22T10:52:03Z</time>
      </trkpt>
      <trkpt lat="45.99096" lon="4.80142">
        <ele>243</ele>
        <time>2017-11-22T10:52:04Z</time>
      </trkpt>
      <trkpt lat="45.99091" lon="4.80138">
        <ele>243</ele>
        <time>2017-11-22T10:52:05Z</time>
      </trkpt>
      <trkpt lat="45.99086" lon="4.80132">
        <ele>243</ele>
        <time>2017-11-22T10:52:06Z</time>
      </trkpt>
      <trkpt lat="45.99083" lon="4.80128">
        <ele>242</ele>
        <time>2017-11-22T10:52:07Z</time>
      </trkpt>
      <trkpt lat="45.99079" lon="4.80124">
        <ele>242</ele>
        <time>2017-11-22T10:52:08Z</time>
      </trkpt>
      <trkpt lat="45.99075" lon="4.80119">
        <ele>242</ele>
        <time>2017-11-22T10:52:09Z</time>
      </trkpt>
      <trkpt lat="45.99071" lon="4.80114">
        <ele>242</ele>
        <time>2017-11-22T10:52:10Z</time>
      </trkpt>
      <trkpt lat="45.99068" lon="4.80109">
        <ele>242</ele>
        <time>2017-11-22T10:52:11Z</time>
      </trkpt>
      <trkpt lat="45.99063" lon="4.80104">
        <ele>242</ele>
        <time>2017-11-22T10:52:12Z</time>
      </trkpt>
      <trkpt lat="45.9906" lon="4.80099">
        <ele>242</ele>
        <time>2017-11-22T10:52:13Z</time>
      </trkpt>
      <trkpt lat="45.99056" lon="4.80095">
        <ele>242</ele>
        <time>2017-11-22T10:52:14Z</time>
      </trkpt>
      <trkpt lat="45.99052" lon="4.80091">
        <ele>242</ele>
        <time>2017-11-22T10:52:15Z</time>
      </trkpt>
      <trkpt lat="45.99047" lon="4.80086">
        <ele>242</ele>
        <time>2017-11-22T10:52:16Z</time>
      </trkpt>
      <trkpt lat="45.99042" lon="4.80082">
        <ele>244</ele>
        <time>2017-11-22T10:52:17Z</time>
      </trkpt>
      <trkpt lat="45.99038" lon="4.80078">
        <ele>244</ele>
        <time>2017-11-22T10:52:18Z</time>
      </trkpt>
      <trkpt lat="45.99034" lon="4.80073">
        <ele>243</ele>
        <time>2017-11-22T10:52:19Z</time>
      </trkpt>
      <trkpt lat="45.99031" lon="4.80069">
        <ele>243</ele>
        <time>2017-11-22T10:52:20Z</time>
      </trkpt>
      <trkpt lat="45.99026" lon="4.80063">
        <ele>243</ele>
        <time>2017-11-22T10:52:21Z</time>
      </trkpt>
      <trkpt lat="45.99022" lon="4.80059">
        <ele>243</ele>
        <time>2017-11-22T10:52:22Z</time>
      </trkpt>
      <trkpt lat="45.99016" lon="4.80052">
        <ele>244</ele>
        <time>2017-11-22T10:52:24Z</time>
      </trkpt>
      <trkpt lat="45.9901" lon="4.80048">
        <ele>244</ele>
        <time>2017-11-22T10:52:25Z</time>
      </trkpt>
      <trkpt lat="45.99006" lon="4.80043">
        <ele>244</ele>
        <time>2017-11-22T10:52:26Z</time>
      </trkpt>
      <trkpt lat="45.99003" lon="4.80039">
        <ele>244</ele>
        <time>2017-11-22T10:52:27Z</time>
      </trkpt>
      <trkpt lat="45.98996" lon="4.80031">
        <ele>242</ele>
        <time>2017-11-22T10:52:29Z</time>
      </trkpt>
      <trkpt lat="45.98992" lon="4.80027">
        <ele>243</ele>
        <time>2017-11-22T10:52:30Z</time>
      </trkpt>
      <trkpt lat="45.98988" lon="4.80022">
        <ele>243</ele>
        <time>2017-11-22T10:52:31Z</time>
      </trkpt>
      <trkpt lat="45.98985" lon="4.80017">
        <ele>243</ele>
        <time>2017-11-22T10:52:32Z</time>
      </trkpt>
      <trkpt lat="45.98981" lon="4.80013">
        <ele>243</ele>
        <time>2017-11-22T10:52:33Z</time>
      </trkpt>
      <trkpt lat="45.98976" lon="4.80007">
        <ele>243</ele>
        <time>2017-11-22T10:52:34Z</time>
      </trkpt>
      <trkpt lat="45.98972" lon="4.80003">
        <ele>243</ele>
        <time>2017-11-22T10:52:35Z</time>
      </trkpt>
      <trkpt lat="45.98969" lon="4.79998">
        <ele>245</ele>
        <time>2017-11-22T10:52:36Z</time>
      </trkpt>
      <trkpt lat="45.98964" lon="4.79994">
        <ele>245</ele>
        <time>2017-11-22T10:52:37Z</time>
      </trkpt>
      <trkpt lat="45.9896" lon="4.7999">
        <ele>245</ele>
        <time>2017-11-22T10:52:38Z</time>
      </trkpt>
      <trkpt lat="45.98956" lon="4.79986">
        <ele>245</ele>
        <time>2017-11-22T10:52:39Z</time>
      </trkpt>
      <trkpt lat="45.98951" lon="4.7998">
        <ele>245</ele>
        <time>2017-11-22T10:52:40Z</time>
      </trkpt>
      <trkpt lat="45.98947" lon="4.79976">
        <ele>245</ele>
        <time>2017-11-22T10:52:41Z</time>
      </trkpt>
      <trkpt lat="45.98943" lon="4.79971">
        <ele>245</ele>
        <time>2017-11-22T10:52:42Z</time>
      </trkpt>
      <trkpt lat="45.9894" lon="4.79966">
        <ele>245</ele>
        <time>2017-11-22T10:52:43Z</time>
      </trkpt>
      <trkpt lat="45.98936" lon="4.79962">
        <ele>245</ele>
        <time>2017-11-22T10:52:44Z</time>
      </trkpt>
      <trkpt lat="45.98931" lon="4.79957">
        <ele>245</ele>
        <time>2017-11-22T10:52:45Z</time>
      </trkpt>
      <trkpt lat="45.98927" lon="4.79952">
        <ele>245</ele>
        <time>2017-11-22T10:52:46Z</time>
      </trkpt>
      <trkpt lat="45.98922" lon="4.79947">
        <ele>245</ele>
        <time>2017-11-22T10:52:47Z</time>
      </trkpt>
      <trkpt lat="45.98918" lon="4.79942">
        <ele>245</ele>
        <time>2017-11-22T10:52:48Z</time>
      </trkpt>
      <trkpt lat="45.98913" lon="4.79937">
        <ele>244</ele>
        <time>2017-11-22T10:52:49Z</time>
      </trkpt>
      <trkpt lat="45.98908" lon="4.79932">
        <ele>244</ele>
        <time>2017-11-22T10:52:50Z</time>
      </trkpt>
      <trkpt lat="45.98905" lon="4.79928">
        <ele>244</ele>
        <time>2017-11-22T10:52:51Z</time>
      </trkpt>
      <trkpt lat="45.989" lon="4.79923">
        <ele>244</ele>
        <time>2017-11-22T10:52:52Z</time>
      </trkpt>
      <trkpt lat="45.98897" lon="4.79919">
        <ele>244</ele>
        <time>2017-11-22T10:52:53Z</time>
      </trkpt>
      <trkpt lat="45.98893" lon="4.79914">
        <ele>244</ele>
        <time>2017-11-22T10:52:54Z</time>
      </trkpt>
      <trkpt lat="45.9889" lon="4.79909">
        <ele>244</ele>
        <time>2017-11-22T10:52:55Z</time>
      </trkpt>
      <trkpt lat="45.98886" lon="4.79905">
        <ele>244</ele>
        <time>2017-11-22T10:52:56Z</time>
      </trkpt>
      <trkpt lat="45.98882" lon="4.799">
        <ele>244</ele>
        <time>2017-11-22T10:52:57Z</time>
      </trkpt>
      <trkpt lat="45.98878" lon="4.79897">
        <ele>244</ele>
        <time>2017-11-22T10:52:58Z</time>
      </trkpt>
      <trkpt lat="45.98875" lon="4.79892">
        <ele>244</ele>
        <time>2017-11-22T10:52:59Z</time>
      </trkpt>
      <trkpt lat="45.98871" lon="4.79888">
        <ele>244</ele>
        <time>2017-11-22T10:53:00Z</time>
      </trkpt>
      <trkpt lat="45.98866" lon="4.79883">
        <ele>244</ele>
        <time>2017-11-22T10:53:01Z</time>
      </trkpt>
      <trkpt lat="45.98861" lon="4.79877">
        <ele>244</ele>
        <time>2017-11-22T10:53:02Z</time>
      </trkpt>
      <trkpt lat="45.98855" lon="4.79871">
        <ele>244</ele>
        <time>2017-11-22T10:53:03Z</time>
      </trkpt>
      <trkpt lat="45.98851" lon="4.79866">
        <ele>244</ele>
        <time>2017-11-22T10:53:04Z</time>
      </trkpt>
      <trkpt lat="45.98846" lon="4.79861">
        <ele>244</ele>
        <time>2017-11-22T10:53:05Z</time>
      </trkpt>
      <trkpt lat="45.98842" lon="4.79856">
        <ele>244</ele>
        <time>2017-11-22T10:53:06Z</time>
      </trkpt>
      <trkpt lat="45.98838" lon="4.79851">
        <ele>244</ele>
        <time>2017-11-22T10:53:07Z</time>
      </trkpt>
      <trkpt lat="45.98833" lon="4.79845">
        <ele>244</ele>
        <time>2017-11-22T10:53:08Z</time>
      </trkpt>
      <trkpt lat="45.98829" lon="4.7984">
        <ele>244</ele>
        <time>2017-11-22T10:53:09Z</time>
      </trkpt>
      <trkpt lat="45.98825" lon="4.79835">
        <ele>244</ele>
        <time>2017-11-22T10:53:10Z</time>
      </trkpt>
      <trkpt lat="45.98821" lon="4.79831">
        <ele>244</ele>
        <time>2017-11-22T10:53:11Z</time>
      </trkpt>
      <trkpt lat="45.98815" lon="4.79826">
        <ele>245</ele>
        <time>2017-11-22T10:53:12Z</time>
      </trkpt>
      <trkpt lat="45.98811" lon="4.79821">
        <ele>245</ele>
        <time>2017-11-22T10:53:13Z</time>
      </trkpt>
      <trkpt lat="45.98807" lon="4.79817">
        <ele>245</ele>
        <time>2017-11-22T10:53:14Z</time>
      </trkpt>
      <trkpt lat="45.98803" lon="4.79813">
        <ele>245</ele>
        <time>2017-11-22T10:53:15Z</time>
      </trkpt>
      <trkpt lat="45.98799" lon="4.79807">
        <ele>245</ele>
        <time>2017-11-22T10:53:16Z</time>
      </trkpt>
      <trkpt lat="45.98796" lon="4.79802">
        <ele>245</ele>
        <time>2017-11-22T10:53:17Z</time>
      </trkpt>
      <trkpt lat="45.98792" lon="4.79797">
        <ele>245</ele>
        <time>2017-11-22T10:53:18Z</time>
      </trkpt>
      <trkpt lat="45.98788" lon="4.79792">
        <ele>245</ele>
        <time>2017-11-22T10:53:19Z</time>
      </trkpt>
      <trkpt lat="45.98783" lon="4.79788">
        <ele>245</ele>
        <time>2017-11-22T10:53:20Z</time>
      </trkpt>
      <trkpt lat="45.9878" lon="4.79784">
        <ele>245</ele>
        <time>2017-11-22T10:53:21Z</time>
      </trkpt>
      <trkpt lat="45.98776" lon="4.79779">
        <ele>245</ele>
        <time>2017-11-22T10:53:22Z</time>
      </trkpt>
      <trkpt lat="45.98771" lon="4.79774">
        <ele>245</ele>
        <time>2017-11-22T10:53:23Z</time>
      </trkpt>
      <trkpt lat="45.98768" lon="4.79769">
        <ele>245</ele>
        <time>2017-11-22T10:53:24Z</time>
      </trkpt>
      <trkpt lat="45.98762" lon="4.79764">
        <ele>245</ele>
        <time>2017-11-22T10:53:25Z</time>
      </trkpt>
      <trkpt lat="45.98759" lon="4.7976">
        <ele>245</ele>
        <time>2017-11-22T10:53:26Z</time>
      </trkpt>
      <trkpt lat="45.98752" lon="4.79752">
        <ele>245</ele>
        <time>2017-11-22T10:53:28Z</time>
      </trkpt>
      <trkpt lat="45.98748" lon="4.79749">
        <ele>245</ele>
        <time>2017-11-22T10:53:29Z</time>
      </trkpt>
      <trkpt lat="45.98744" lon="4.79745">
        <ele>245</ele>
        <time>2017-11-22T10:53:30Z</time>
      </trkpt>
      <trkpt lat="45.9874" lon="4.79742">
        <ele>245</ele>
        <time>2017-11-22T10:53:31Z</time>
      </trkpt>
      <trkpt lat="45.98733" lon="4.79736">
        <ele>245</ele>
        <time>2017-11-22T10:53:33Z</time>
      </trkpt>
      <trkpt lat="45.98729" lon="4.79732">
        <ele>245</ele>
        <time>2017-11-22T10:53:34Z</time>
      </trkpt>
      <trkpt lat="45.98724" lon="4.79729">
        <ele>245</ele>
        <time>2017-11-22T10:53:35Z</time>
      </trkpt>
      <trkpt lat="45.98719" lon="4.79726">
        <ele>245</ele>
        <time>2017-11-22T10:53:36Z</time>
      </trkpt>
      <trkpt lat="45.98715" lon="4.79722">
        <ele>245</ele>
        <time>2017-11-22T10:53:37Z</time>
      </trkpt>
      <trkpt lat="45.98711" lon="4.79719">
        <ele>245</ele>
        <time>2017-11-22T10:53:38Z</time>
      </trkpt>
      <trkpt lat="45.98707" lon="4.79716">
        <ele>245</ele>
        <time>2017-11-22T10:53:39Z</time>
      </trkpt>
      <trkpt lat="45.98702" lon="4.79713">
        <ele>245</ele>
        <time>2017-11-22T10:53:40Z</time>
      </trkpt>
      <trkpt lat="45.98698" lon="4.79712">
        <ele>245</ele>
        <time>2017-11-22T10:53:41Z</time>
      </trkpt>
      <trkpt lat="45.98692" lon="4.79711">
        <ele>245</ele>
        <time>2017-11-22T10:53:42Z</time>
      </trkpt>
      <trkpt lat="45.98687" lon="4.79707">
        <ele>245</ele>
        <time>2017-11-22T10:53:43Z</time>
      </trkpt>
      <trkpt lat="45.98682" lon="4.79704">
        <ele>245</ele>
        <time>2017-11-22T10:53:44Z</time>
      </trkpt>
      <trkpt lat="45.98677" lon="4.79701">
        <ele>245</ele>
        <time>2017-11-22T10:53:45Z</time>
      </trkpt>
      <trkpt lat="45.98673" lon="4.79698">
        <ele>245</ele>
        <time>2017-11-22T10:53:46Z</time>
      </trkpt>
      <trkpt lat="45.98667" lon="4.79695">
        <ele>245</ele>
        <time>2017-11-22T10:53:47Z</time>
      </trkpt>
      <trkpt lat="45.98662" lon="4.79691">
        <ele>245</ele>
        <time>2017-11-22T10:53:48Z</time>
      </trkpt>
      <trkpt lat="45.98658" lon="4.79685">
        <ele>245</ele>
        <time>2017-11-22T10:53:49Z</time>
      </trkpt>
      <trkpt lat="45.98654" lon="4.7968">
        <ele>245</ele>
        <time>2017-11-22T10:53:50Z</time>
      </trkpt>
      <trkpt lat="45.98649" lon="4.7967">
        <ele>245</ele>
        <time>2017-11-22T10:53:52Z</time>
      </trkpt>
      <trkpt lat="45.98646" lon="4.79665">
        <ele>245</ele>
        <time>2017-11-22T10:53:53Z</time>
      </trkpt>
      <trkpt lat="45.98644" lon="4.7966">
        <ele>245</ele>
        <time>2017-11-22T10:53:54Z</time>
      </trkpt>
      <trkpt lat="45.9864" lon="4.79652">
        <ele>245</ele>
        <time>2017-11-22T10:53:55Z</time>
      </trkpt>
      <trkpt lat="45.98636" lon="4.79646">
        <ele>245</ele>
        <time>2017-11-22T10:53:56Z</time>
      </trkpt>
      <trkpt lat="45.98633" lon="4.7964">
        <ele>245</ele>
        <time>2017-11-22T10:53:57Z</time>
      </trkpt>
      <trkpt lat="45.98629" lon="4.79634">
        <ele>245</ele>
        <time>2017-11-22T10:53:58Z</time>
      </trkpt>
      <trkpt lat="45.98628" lon="4.79627">
        <ele>245</ele>
        <time>2017-11-22T10:53:59Z</time>
      </trkpt>
      <trkpt lat="45.98627" lon="4.79621">
        <ele>245</ele>
        <time>2017-11-22T10:54:00Z</time>
      </trkpt>
      <trkpt lat="45.98625" lon="4.79613">
        <ele>245</ele>
        <time>2017-11-22T10:54:01Z</time>
      </trkpt>
      <trkpt lat="45.98625" lon="4.796">
        <ele>245</ele>
        <time>2017-11-22T10:54:03Z</time>
      </trkpt>
      <trkpt lat="45.98624" lon="4.79593">
        <ele>245</ele>
        <time>2017-11-22T10:54:04Z</time>
      </trkpt>
      <trkpt lat="45.98621" lon="4.79586">
        <ele>245</ele>
        <time>2017-11-22T10:54:05Z</time>
      </trkpt>
      <trkpt lat="45.98618" lon="4.7958">
        <ele>245</ele>
        <time>2017-11-22T10:54:06Z</time>
      </trkpt>
      <trkpt lat="45.98613" lon="4.79577">
        <ele>245</ele>
        <time>2017-11-22T10:54:07Z</time>
      </trkpt>
      <trkpt lat="45.98608" lon="4.79575">
        <ele>245</ele>
        <time>2017-11-22T10:54:08Z</time>
      </trkpt>
      <trkpt lat="45.98603" lon="4.79576">
        <ele>245</ele>
        <time>2017-11-22T10:54:09Z</time>
      </trkpt>
      <trkpt lat="45.98598" lon="4.79576">
        <ele>245</ele>
        <time>2017-11-22T10:54:10Z</time>
      </trkpt>
      <trkpt lat="45.98592" lon="4.79578">
        <ele>245</ele>
        <time>2017-11-22T10:54:11Z</time>
      </trkpt>
      <trkpt lat="45.98587" lon="4.79578">
        <ele>245</ele>
        <time>2017-11-22T10:54:12Z</time>
      </trkpt>
      <trkpt lat="45.98582" lon="4.79578">
        <ele>245</ele>
        <time>2017-11-22T10:54:13Z</time>
      </trkpt>
      <trkpt lat="45.98577" lon="4.79576">
        <ele>245</ele>
        <time>2017-11-22T10:54:14Z</time>
      </trkpt>
      <trkpt lat="45.98572" lon="4.79573">
        <ele>245</ele>
        <time>2017-11-22T10:54:15Z</time>
      </trkpt>
      <trkpt lat="45.98567" lon="4.79569">
        <ele>244</ele>
        <time>2017-11-22T10:54:16Z</time>
      </trkpt>
      <trkpt lat="45.98562" lon="4.79564">
        <ele>244</ele>
        <time>2017-11-22T10:54:17Z</time>
      </trkpt>
      <trkpt lat="45.98557" lon="4.7956">
        <ele>244</ele>
        <time>2017-11-22T10:54:18Z</time>
      </trkpt>
      <trkpt lat="45.98553" lon="4.79555">
        <ele>244</ele>
        <time>2017-11-22T10:54:19Z</time>
      </trkpt>
      <trkpt lat="45.98549" lon="4.79549">
        <ele>244</ele>
        <time>2017-11-22T10:54:20Z</time>
      </trkpt>
      <trkpt lat="45.98546" lon="4.79543">
        <ele>244</ele>
        <time>2017-11-22T10:54:21Z</time>
      </trkpt>
      <trkpt lat="45.98543" lon="4.79537">
        <ele>244</ele>
        <time>2017-11-22T10:54:22Z</time>
      </trkpt>
      <trkpt lat="45.98541" lon="4.79531">
        <ele>244</ele>
        <time>2017-11-22T10:54:23Z</time>
      </trkpt>
      <trkpt lat="45.98538" lon="4.79525">
        <ele>244</ele>
        <time>2017-11-22T10:54:24Z</time>
      </trkpt>
      <trkpt lat="45.98536" lon="4.79519">
        <ele>244</ele>
        <time>2017-11-22T10:54:25Z</time>
      </trkpt>
      <trkpt lat="45.98534" lon="4.79511">
        <ele>244</ele>
        <time>2017-11-22T10:54:26Z</time>
      </trkpt>
      <trkpt lat="45.98532" lon="4.79504">
        <ele>244</ele>
        <time>2017-11-22T10:54:27Z</time>
      </trkpt>
      <trkpt lat="45.98531" lon="4.79497">
        <ele>244</ele>
        <time>2017-11-22T10:54:28Z</time>
      </trkpt>
      <trkpt lat="45.98529" lon="4.79489">
        <ele>244</ele>
        <time>2017-11-22T10:54:29Z</time>
      </trkpt>
      <trkpt lat="45.98528" lon="4.79481">
        <ele>244</ele>
        <time>2017-11-22T10:54:30Z</time>
      </trkpt>
      <trkpt lat="45.98527" lon="4.79474">
        <ele>244</ele>
        <time>2017-11-22T10:54:31Z</time>
      </trkpt>
      <trkpt lat="45.98527" lon="4.79465">
        <ele>244</ele>
        <time>2017-11-22T10:54:32Z</time>
      </trkpt>
      <trkpt lat="45.98527" lon="4.79456">
        <ele>244</ele>
        <time>2017-11-22T10:54:33Z</time>
      </trkpt>
      <trkpt lat="45.98526" lon="4.79447">
        <ele>244</ele>
        <time>2017-11-22T10:54:34Z</time>
      </trkpt>
      <trkpt lat="45.98526" lon="4.79438">
        <ele>244</ele>
        <time>2017-11-22T10:54:35Z</time>
      </trkpt>
      <trkpt lat="45.98525" lon="4.79428">
        <ele>244</ele>
        <time>2017-11-22T10:54:36Z</time>
      </trkpt>
      <trkpt lat="45.98525" lon="4.79419">
        <ele>244</ele>
        <time>2017-11-22T10:54:37Z</time>
      </trkpt>
      <trkpt lat="45.98524" lon="4.79411">
        <ele>244</ele>
        <time>2017-11-22T10:54:38Z</time>
      </trkpt>
      <trkpt lat="45.98523" lon="4.79405">
        <ele>244</ele>
        <time>2017-11-22T10:54:39Z</time>
      </trkpt>
      <trkpt lat="45.98522" lon="4.79396">
        <ele>244</ele>
        <time>2017-11-22T10:54:40Z</time>
      </trkpt>
      <trkpt lat="45.98521" lon="4.79388">
        <ele>244</ele>
        <time>2017-11-22T10:54:41Z</time>
      </trkpt>
      <trkpt lat="45.9852" lon="4.79381">
        <ele>244</ele>
        <time>2017-11-22T10:54:42Z</time>
      </trkpt>
      <trkpt lat="45.98519" lon="4.79374">
        <ele>243</ele>
        <time>2017-11-22T10:54:43Z</time>
      </trkpt>
      <trkpt lat="45.98518" lon="4.79365">
        <ele>243</ele>
        <time>2017-11-22T10:54:44Z</time>
      </trkpt>
      <trkpt lat="45.98517" lon="4.79357">
        <ele>243</ele>
        <time>2017-11-22T10:54:45Z</time>
      </trkpt>
      <trkpt lat="45.98516" lon="4.7935">
        <ele>243</ele>
        <time>2017-11-22T10:54:46Z</time>
      </trkpt>
      <trkpt lat="45.98514" lon="4.79342">
        <ele>243</ele>
        <time>2017-11-22T10:54:47Z</time>
      </trkpt>
      <trkpt lat="45.98513" lon="4.79334">
        <ele>243</ele>
        <time>2017-11-22T10:54:48Z</time>
      </trkpt>
      <trkpt lat="45.98511" lon="4.79326">
        <ele>243</ele>
        <time>2017-11-22T10:54:49Z</time>
      </trkpt>
      <trkpt lat="45.98509" lon="4.79318">
        <ele>243</ele>
        <time>2017-11-22T10:54:50Z</time>
      </trkpt>
      <trkpt lat="45.98506" lon="4.7931">
        <ele>243</ele>
        <time>2017-11-22T10:54:51Z</time>
      </trkpt>
      <trkpt lat="45.98504" lon="4.79304">
        <ele>243</ele>
        <time>2017-11-22T10:54:52Z</time>
      </trkpt>
      <trkpt lat="45.98502" lon="4.79298">
        <ele>243</ele>
        <time>2017-11-22T10:54:53Z</time>
      </trkpt>
      <trkpt lat="45.98499" lon="4.79291">
        <ele>243</ele>
        <time>2017-11-22T10:54:54Z</time>
      </trkpt>
      <trkpt lat="45.98497" lon="4.79285">
        <ele>243</ele>
        <time>2017-11-22T10:54:55Z</time>
      </trkpt>
      <trkpt lat="45.98493" lon="4.79279">
        <ele>243</ele>
        <time>2017-11-22T10:54:56Z</time>
      </trkpt>
      <trkpt lat="45.9849" lon="4.79272">
        <ele>243</ele>
        <time>2017-11-22T10:54:57Z</time>
      </trkpt>
      <trkpt lat="45.98487" lon="4.79265">
        <ele>243</ele>
        <time>2017-11-22T10:54:58Z</time>
      </trkpt>
      <trkpt lat="45.98483" lon="4.79259">
        <ele>243</ele>
        <time>2017-11-22T10:54:59Z</time>
      </trkpt>
      <trkpt lat="45.98479" lon="4.79251">
        <ele>243</ele>
        <time>2017-11-22T10:55:00Z</time>
      </trkpt>
      <trkpt lat="45.98475" lon="4.79244">
        <ele>243</ele>
        <time>2017-11-22T10:55:01Z</time>
      </trkpt>
      <trkpt lat="45.98471" lon="4.79236">
        <ele>243</ele>
        <time>2017-11-22T10:55:02Z</time>
      </trkpt>
      <trkpt lat="45.98467" lon="4.7923">
        <ele>243</ele>
        <time>2017-11-22T10:55:03Z</time>
      </trkpt>
      <trkpt lat="45.98464" lon="4.79224">
        <ele>243</ele>
        <time>2017-11-22T10:55:04Z</time>
      </trkpt>
      <trkpt lat="45.98459" lon="4.79218">
        <ele>243</ele>
        <time>2017-11-22T10:55:05Z</time>
      </trkpt>
      <trkpt lat="45.98456" lon="4.79213">
        <ele>243</ele>
        <time>2017-11-22T10:55:06Z</time>
      </trkpt>
      <trkpt lat="45.98452" lon="4.79207">
        <ele>242</ele>
        <time>2017-11-22T10:55:07Z</time>
      </trkpt>
      <trkpt lat="45.98448" lon="4.79201">
        <ele>242</ele>
        <time>2017-11-22T10:55:08Z</time>
      </trkpt>
      <trkpt lat="45.98445" lon="4.79195">
        <ele>242</ele>
        <time>2017-11-22T10:55:09Z</time>
      </trkpt>
      <trkpt lat="45.98443" lon="4.79189">
        <ele>242</ele>
        <time>2017-11-22T10:55:10Z</time>
      </trkpt>
      <trkpt lat="45.98439" lon="4.79183">
        <ele>242</ele>
        <time>2017-11-22T10:55:11Z</time>
      </trkpt>
      <trkpt lat="45.98437" lon="4.79178">
        <ele>242</ele>
        <time>2017-11-22T10:55:12Z</time>
      </trkpt>
      <trkpt lat="45.98433" lon="4.79172">
        <ele>242</ele>
        <time>2017-11-22T10:55:13Z</time>
      </trkpt>
      <trkpt lat="45.98429" lon="4.79166">
        <ele>242</ele>
        <time>2017-11-22T10:55:14Z</time>
      </trkpt>
      <trkpt lat="45.98426" lon="4.7916">
        <ele>242</ele>
        <time>2017-11-22T10:55:15Z</time>
      </trkpt>
      <trkpt lat="45.98422" lon="4.79155">
        <ele>242</ele>
        <time>2017-11-22T10:55:16Z</time>
      </trkpt>
      <trkpt lat="45.98419" lon="4.79149">
        <ele>242</ele>
        <time>2017-11-22T10:55:17Z</time>
      </trkpt>
      <trkpt lat="45.98415" lon="4.79144">
        <ele>242</ele>
        <time>2017-11-22T10:55:18Z</time>
      </trkpt>
      <trkpt lat="45.98412" lon="4.79138">
        <ele>242</ele>
        <time>2017-11-22T10:55:19Z</time>
      </trkpt>
      <trkpt lat="45.98408" lon="4.79132">
        <ele>242</ele>
        <time>2017-11-22T10:55:20Z</time>
      </trkpt>
      <trkpt lat="45.98405" lon="4.79127">
        <ele>242</ele>
        <time>2017-11-22T10:55:21Z</time>
      </trkpt>
      <trkpt lat="45.98402" lon="4.79121">
        <ele>242</ele>
        <time>2017-11-22T10:55:22Z</time>
      </trkpt>
      <trkpt lat="45.98398" lon="4.79113">
        <ele>242</ele>
        <time>2017-11-22T10:55:23Z</time>
      </trkpt>
      <trkpt lat="45.98395" lon="4.79107">
        <ele>242</ele>
        <time>2017-11-22T10:55:24Z</time>
      </trkpt>
      <trkpt lat="45.98392" lon="4.79102">
        <ele>242</ele>
        <time>2017-11-22T10:55:25Z</time>
      </trkpt>
      <trkpt lat="45.9839" lon="4.79096">
        <ele>242</ele>
        <time>2017-11-22T10:55:26Z</time>
      </trkpt>
      <trkpt lat="45.98387" lon="4.7909">
        <ele>242</ele>
        <time>2017-11-22T10:55:27Z</time>
      </trkpt>
      <trkpt lat="45.98384" lon="4.79084">
        <ele>242</ele>
        <time>2017-11-22T10:55:28Z</time>
      </trkpt>
      <trkpt lat="45.98382" lon="4.79077">
        <ele>242</ele>
        <time>2017-11-22T10:55:29Z</time>
      </trkpt>
      <trkpt lat="45.9838" lon="4.79071">
        <ele>242</ele>
        <time>2017-11-22T10:55:30Z</time>
      </trkpt>
      <trkpt lat="45.98377" lon="4.79065">
        <ele>242</ele>
        <time>2017-11-22T10:55:31Z</time>
      </trkpt>
      <trkpt lat="45.98373" lon="4.79059">
        <ele>242</ele>
        <time>2017-11-22T10:55:32Z</time>
      </trkpt>
      <trkpt lat="45.9837" lon="4.79053">
        <ele>242</ele>
        <time>2017-11-22T10:55:33Z</time>
      </trkpt>
      <trkpt lat="45.98367" lon="4.79048">
        <ele>242</ele>
        <time>2017-11-22T10:55:34Z</time>
      </trkpt>
      <trkpt lat="45.98364" lon="4.79041">
        <ele>242</ele>
        <time>2017-11-22T10:55:35Z</time>
      </trkpt>
      <trkpt lat="45.9836" lon="4.79034">
        <ele>242</ele>
        <time>2017-11-22T10:55:36Z</time>
      </trkpt>
      <trkpt lat="45.98356" lon="4.79028">
        <ele>242</ele>
        <time>2017-11-22T10:55:37Z</time>
      </trkpt>
      <trkpt lat="45.98352" lon="4.79023">
        <ele>242</ele>
        <time>2017-11-22T10:55:38Z</time>
      </trkpt>
      <trkpt lat="45.98347" lon="4.79016">
        <ele>242</ele>
        <time>2017-11-22T10:55:39Z</time>
      </trkpt>
      <trkpt lat="45.98341" lon="4.79012">
        <ele>242</ele>
        <time>2017-11-22T10:55:40Z</time>
      </trkpt>
      <trkpt lat="45.98334" lon="4.79009">
        <ele>242</ele>
        <time>2017-11-22T10:55:41Z</time>
      </trkpt>
      <trkpt lat="45.98328" lon="4.79006">
        <ele>242</ele>
        <time>2017-11-22T10:55:42Z</time>
      </trkpt>
      <trkpt lat="45.98321" lon="4.79">
        <ele>242</ele>
        <time>2017-11-22T10:55:43Z</time>
      </trkpt>
      <trkpt lat="45.98316" lon="4.78998">
        <ele>242</ele>
        <time>2017-11-22T10:55:44Z</time>
      </trkpt>
      <trkpt lat="45.98311" lon="4.78995">
        <ele>241</ele>
        <time>2017-11-22T10:55:45Z</time>
      </trkpt>
      <trkpt lat="45.98306" lon="4.78991">
        <ele>241</ele>
        <time>2017-11-22T10:55:46Z</time>
      </trkpt>
      <trkpt lat="45.98302" lon="4.78987">
        <ele>241</ele>
        <time>2017-11-22T10:55:47Z</time>
      </trkpt>
      <trkpt lat="45.98297" lon="4.78986">
        <ele>241</ele>
        <time>2017-11-22T10:55:48Z</time>
      </trkpt>
      <trkpt lat="45.98293" lon="4.78984">
        <ele>241</ele>
        <time>2017-11-22T10:55:49Z</time>
      </trkpt>
      <trkpt lat="45.98288" lon="4.78981">
        <ele>241</ele>
        <time>2017-11-22T10:55:50Z</time>
      </trkpt>
      <trkpt lat="45.98284" lon="4.78979">
        <ele>241</ele>
        <time>2017-11-22T10:55:51Z</time>
      </trkpt>
      <trkpt lat="45.98279" lon="4.78977">
        <ele>241</ele>
        <time>2017-11-22T10:55:52Z</time>
      </trkpt>
      <trkpt lat="45.98275" lon="4.78975">
        <ele>241</ele>
        <time>2017-11-22T10:55:53Z</time>
      </trkpt>
      <trkpt lat="45.9827" lon="4.78972">
        <ele>241</ele>
        <time>2017-11-22T10:55:54Z</time>
      </trkpt>
      <trkpt lat="45.98264" lon="4.78969">
        <ele>241</ele>
        <time>2017-11-22T10:55:55Z</time>
      </trkpt>
      <trkpt lat="45.9826" lon="4.78966">
        <ele>241</ele>
        <time>2017-11-22T10:55:56Z</time>
      </trkpt>
      <trkpt lat="45.98254" lon="4.78963">
        <ele>241</ele>
        <time>2017-11-22T10:55:57Z</time>
      </trkpt>
      <trkpt lat="45.98248" lon="4.7896">
        <ele>241</ele>
        <time>2017-11-22T10:55:58Z</time>
      </trkpt>
      <trkpt lat="45.98243" lon="4.78956">
        <ele>241</ele>
        <time>2017-11-22T10:55:59Z</time>
      </trkpt>
      <trkpt lat="45.98237" lon="4.78953">
        <ele>241</ele>
        <time>2017-11-22T10:56:00Z</time>
      </trkpt>
      <trkpt lat="45.98231" lon="4.78951">
        <ele>241</ele>
        <time>2017-11-22T10:56:01Z</time>
      </trkpt>
      <trkpt lat="45.98226" lon="4.78948">
        <ele>241</ele>
        <time>2017-11-22T10:56:02Z</time>
      </trkpt>
      <trkpt lat="45.98221" lon="4.78945">
        <ele>241</ele>
        <time>2017-11-22T10:56:03Z</time>
      </trkpt>
      <trkpt lat="45.98215" lon="4.78942">
        <ele>241</ele>
        <time>2017-11-22T10:56:04Z</time>
      </trkpt>
      <trkpt lat="45.9821" lon="4.78939">
        <ele>241</ele>
        <time>2017-11-22T10:56:05Z</time>
      </trkpt>
      <trkpt lat="45.98205" lon="4.78936">
        <ele>241</ele>
        <time>2017-11-22T10:56:06Z</time>
      </trkpt>
      <trkpt lat="45.982" lon="4.78933">
        <ele>241</ele>
        <time>2017-11-22T10:56:07Z</time>
      </trkpt>
      <trkpt lat="45.98195" lon="4.7893">
        <ele>241</ele>
        <time>2017-11-22T10:56:08Z</time>
      </trkpt>
      <trkpt lat="45.9819" lon="4.78927">
        <ele>241</ele>
        <time>2017-11-22T10:56:09Z</time>
      </trkpt>
      <trkpt lat="45.98185" lon="4.78923">
        <ele>241</ele>
        <time>2017-11-22T10:56:10Z</time>
      </trkpt>
      <trkpt lat="45.9818" lon="4.78922">
        <ele>240</ele>
        <time>2017-11-22T10:56:11Z</time>
      </trkpt>
      <trkpt lat="45.98175" lon="4.78919">
        <ele>240</ele>
        <time>2017-11-22T10:56:12Z</time>
      </trkpt>
      <trkpt lat="45.9817" lon="4.78916">
        <ele>240</ele>
        <time>2017-11-22T10:56:13Z</time>
      </trkpt>
      <trkpt lat="45.98164" lon="4.78914">
        <ele>240</ele>
        <time>2017-11-22T10:56:14Z</time>
      </trkpt>
      <trkpt lat="45.98156" lon="4.7891">
        <ele>240</ele>
        <time>2017-11-22T10:56:16Z</time>
      </trkpt>
      <trkpt lat="45.98151" lon="4.78907">
        <ele>240</ele>
        <time>2017-11-22T10:56:17Z</time>
      </trkpt>
      <trkpt lat="45.98146" lon="4.78904">
        <ele>240</ele>
        <time>2017-11-22T10:56:18Z</time>
      </trkpt>
      <trkpt lat="45.98142" lon="4.78902">
        <ele>240</ele>
        <time>2017-11-22T10:56:19Z</time>
      </trkpt>
      <trkpt lat="45.98135" lon="4.78899">
        <ele>240</ele>
        <time>2017-11-22T10:56:20Z</time>
      </trkpt>
      <trkpt lat="45.9813" lon="4.78896">
        <ele>240</ele>
        <time>2017-11-22T10:56:21Z</time>
      </trkpt>
      <trkpt lat="45.98125" lon="4.78893">
        <ele>240</ele>
        <time>2017-11-22T10:56:22Z</time>
      </trkpt>
      <trkpt lat="45.9812" lon="4.7889">
        <ele>240</ele>
        <time>2017-11-22T10:56:23Z</time>
      </trkpt>
      <trkpt lat="45.98114" lon="4.78887">
        <ele>240</ele>
        <time>2017-11-22T10:56:24Z</time>
      </trkpt>
      <trkpt lat="45.98109" lon="4.78884">
        <ele>240</ele>
        <time>2017-11-22T10:56:25Z</time>
      </trkpt>
      <trkpt lat="45.98105" lon="4.78882">
        <ele>240</ele>
        <time>2017-11-22T10:56:26Z</time>
      </trkpt>
      <trkpt lat="45.981" lon="4.78879">
        <ele>240</ele>
        <time>2017-11-22T10:56:27Z</time>
      </trkpt>
      <trkpt lat="45.98096" lon="4.78876">
        <ele>240</ele>
        <time>2017-11-22T10:56:28Z</time>
      </trkpt>
      <trkpt lat="45.98092" lon="4.78873">
        <ele>239</ele>
        <time>2017-11-22T10:56:29Z</time>
      </trkpt>
      <trkpt lat="45.98087" lon="4.7887">
        <ele>239</ele>
        <time>2017-11-22T10:56:30Z</time>
      </trkpt>
      <trkpt lat="45.98083" lon="4.78867">
        <ele>239</ele>
        <time>2017-11-22T10:56:31Z</time>
      </trkpt>
      <trkpt lat="45.98078" lon="4.78862">
        <ele>239</ele>
        <time>2017-11-22T10:56:32Z</time>
      </trkpt>
      <trkpt lat="45.98074" lon="4.7886">
        <ele>239</ele>
        <time>2017-11-22T10:56:33Z</time>
      </trkpt>
      <trkpt lat="45.98068" lon="4.78855">
        <ele>239</ele>
        <time>2017-11-22T10:56:34Z</time>
      </trkpt>
      <trkpt lat="45.98064" lon="4.78852">
        <ele>239</ele>
        <time>2017-11-22T10:56:35Z</time>
      </trkpt>
      <trkpt lat="45.9806" lon="4.78846">
        <ele>239</ele>
        <time>2017-11-22T10:56:36Z</time>
      </trkpt>
      <trkpt lat="45.98054" lon="4.78843">
        <ele>239</ele>
        <time>2017-11-22T10:56:37Z</time>
      </trkpt>
      <trkpt lat="45.98051" lon="4.78838">
        <ele>238</ele>
        <time>2017-11-22T10:56:38Z</time>
      </trkpt>
      <trkpt lat="45.98046" lon="4.78834">
        <ele>238</ele>
        <time>2017-11-22T10:56:39Z</time>
      </trkpt>
      <trkpt lat="45.98042" lon="4.7883">
        <ele>238</ele>
        <time>2017-11-22T10:56:40Z</time>
      </trkpt>
      <trkpt lat="45.98037" lon="4.78827">
        <ele>238</ele>
        <time>2017-11-22T10:56:41Z</time>
      </trkpt>
      <trkpt lat="45.98032" lon="4.78823">
        <ele>238</ele>
        <time>2017-11-22T10:56:42Z</time>
      </trkpt>
      <trkpt lat="45.98026" lon="4.78819">
        <ele>238</ele>
        <time>2017-11-22T10:56:43Z</time>
      </trkpt>
      <trkpt lat="45.98021" lon="4.78816">
        <ele>238</ele>
        <time>2017-11-22T10:56:44Z</time>
      </trkpt>
      <trkpt lat="45.98015" lon="4.78813">
        <ele>238</ele>
        <time>2017-11-22T10:56:45Z</time>
      </trkpt>
      <trkpt lat="45.98009" lon="4.7881">
        <ele>238</ele>
        <time>2017-11-22T10:56:46Z</time>
      </trkpt>
      <trkpt lat="45.98004" lon="4.78806">
        <ele>238</ele>
        <time>2017-11-22T10:56:47Z</time>
      </trkpt>
      <trkpt lat="45.97999" lon="4.78803">
        <ele>238</ele>
        <time>2017-11-22T10:56:48Z</time>
      </trkpt>
      <trkpt lat="45.97994" lon="4.78799">
        <ele>238</ele>
        <time>2017-11-22T10:56:49Z</time>
      </trkpt>
      <trkpt lat="45.97989" lon="4.78794">
        <ele>238</ele>
        <time>2017-11-22T10:56:50Z</time>
      </trkpt>
      <trkpt lat="45.97985" lon="4.7879">
        <ele>238</ele>
        <time>2017-11-22T10:56:51Z</time>
      </trkpt>
      <trkpt lat="45.97981" lon="4.78786">
        <ele>238</ele>
        <time>2017-11-22T10:56:52Z</time>
      </trkpt>
      <trkpt lat="45.97976" lon="4.78784">
        <ele>238</ele>
        <time>2017-11-22T10:56:53Z</time>
      </trkpt>
      <trkpt lat="45.97971" lon="4.78782">
        <ele>238</ele>
        <time>2017-11-22T10:56:54Z</time>
      </trkpt>
      <trkpt lat="45.97966" lon="4.78778">
        <ele>238</ele>
        <time>2017-11-22T10:56:55Z</time>
      </trkpt>
      <trkpt lat="45.97958" lon="4.78773">
        <ele>238</ele>
        <time>2017-11-22T10:56:57Z</time>
      </trkpt>
      <trkpt lat="45.97954" lon="4.78769">
        <ele>238</ele>
        <time>2017-11-22T10:56:58Z</time>
      </trkpt>
      <trkpt lat="45.97949" lon="4.78766">
        <ele>238</ele>
        <time>2017-11-22T10:56:59Z</time>
      </trkpt>
      <trkpt lat="45.97945" lon="4.78762">
        <ele>238</ele>
        <time>2017-11-22T10:57:00Z</time>
      </trkpt>
      <trkpt lat="45.97941" lon="4.78758">
        <ele>238</ele>
        <time>2017-11-22T10:57:01Z</time>
      </trkpt>
      <trkpt lat="45.97937" lon="4.78755">
        <ele>238</ele>
        <time>2017-11-22T10:57:02Z</time>
      </trkpt>
      <trkpt lat="45.97933" lon="4.78751">
        <ele>238</ele>
        <time>2017-11-22T10:57:03Z</time>
      </trkpt>
      <trkpt lat="45.97929" lon="4.78749">
        <ele>237</ele>
        <time>2017-11-22T10:57:04Z</time>
      </trkpt>
      <trkpt lat="45.97923" lon="4.78744">
        <ele>237</ele>
        <time>2017-11-22T10:57:05Z</time>
      </trkpt>
      <trkpt lat="45.97919" lon="4.7874">
        <ele>237</ele>
        <time>2017-11-22T10:57:06Z</time>
      </trkpt>
      <trkpt lat="45.97914" lon="4.78737">
        <ele>237</ele>
        <time>2017-11-22T10:57:07Z</time>
      </trkpt>
      <trkpt lat="45.9791" lon="4.78733">
        <ele>237</ele>
        <time>2017-11-22T10:57:08Z</time>
      </trkpt>
      <trkpt lat="45.97905" lon="4.78731">
        <ele>237</ele>
        <time>2017-11-22T10:57:09Z</time>
      </trkpt>
      <trkpt lat="45.979" lon="4.78726">
        <ele>237</ele>
        <time>2017-11-22T10:57:10Z</time>
      </trkpt>
      <trkpt lat="45.97896" lon="4.78722">
        <ele>236</ele>
        <time>2017-11-22T10:57:11Z</time>
      </trkpt>
      <trkpt lat="45.97891" lon="4.78719">
        <ele>236</ele>
        <time>2017-11-22T10:57:12Z</time>
      </trkpt>
      <trkpt lat="45.97886" lon="4.78716">
        <ele>236</ele>
        <time>2017-11-22T10:57:13Z</time>
      </trkpt>
      <trkpt lat="45.97882" lon="4.78712">
        <ele>236</ele>
        <time>2017-11-22T10:57:14Z</time>
      </trkpt>
      <trkpt lat="45.97877" lon="4.78709">
        <ele>236</ele>
        <time>2017-11-22T10:57:15Z</time>
      </trkpt>
      <trkpt lat="45.97872" lon="4.78705">
        <ele>236</ele>
        <time>2017-11-22T10:57:16Z</time>
      </trkpt>
      <trkpt lat="45.97866" lon="4.78702">
        <ele>236</ele>
        <time>2017-11-22T10:57:17Z</time>
      </trkpt>
      <trkpt lat="45.97862" lon="4.78698">
        <ele>236</ele>
        <time>2017-11-22T10:57:18Z</time>
      </trkpt>
      <trkpt lat="45.97855" lon="4.78695">
        <ele>236</ele>
        <time>2017-11-22T10:57:19Z</time>
      </trkpt>
      <trkpt lat="45.9785" lon="4.78693">
        <ele>236</ele>
        <time>2017-11-22T10:57:20Z</time>
      </trkpt>
      <trkpt lat="45.97846" lon="4.7869">
        <ele>236</ele>
        <time>2017-11-22T10:57:21Z</time>
      </trkpt>
      <trkpt lat="45.97841" lon="4.78688">
        <ele>236</ele>
        <time>2017-11-22T10:57:22Z</time>
      </trkpt>
      <trkpt lat="45.97836" lon="4.78685">
        <ele>236</ele>
        <time>2017-11-22T10:57:23Z</time>
      </trkpt>
      <trkpt lat="45.97832" lon="4.78682">
        <ele>235</ele>
        <time>2017-11-22T10:57:24Z</time>
      </trkpt>
      <trkpt lat="45.97828" lon="4.78679">
        <ele>235</ele>
        <time>2017-11-22T10:57:25Z</time>
      </trkpt>
      <trkpt lat="45.97823" lon="4.78677">
        <ele>235</ele>
        <time>2017-11-22T10:57:26Z</time>
      </trkpt>
      <trkpt lat="45.97818" lon="4.78675">
        <ele>235</ele>
        <time>2017-11-22T10:57:27Z</time>
      </trkpt>
      <trkpt lat="45.97813" lon="4.78673">
        <ele>235</ele>
        <time>2017-11-22T10:57:28Z</time>
      </trkpt>
      <trkpt lat="45.97808" lon="4.78671">
        <ele>235</ele>
        <time>2017-11-22T10:57:29Z</time>
      </trkpt>
      <trkpt lat="45.97803" lon="4.78668">
        <ele>235</ele>
        <time>2017-11-22T10:57:30Z</time>
      </trkpt>
      <trkpt lat="45.97798" lon="4.78667">
        <ele>235</ele>
        <time>2017-11-22T10:57:31Z</time>
      </trkpt>
      <trkpt lat="45.97793" lon="4.78664">
        <ele>235</ele>
        <time>2017-11-22T10:57:32Z</time>
      </trkpt>
      <trkpt lat="45.97788" lon="4.78663">
        <ele>235</ele>
        <time>2017-11-22T10:57:33Z</time>
      </trkpt>
      <trkpt lat="45.97783" lon="4.7866">
        <ele>235</ele>
        <time>2017-11-22T10:57:34Z</time>
      </trkpt>
      <trkpt lat="45.97778" lon="4.78657">
        <ele>235</ele>
        <time>2017-11-22T10:57:35Z</time>
      </trkpt>
      <trkpt lat="45.97773" lon="4.78655">
        <ele>235</ele>
        <time>2017-11-22T10:57:36Z</time>
      </trkpt>
      <trkpt lat="45.97767" lon="4.78653">
        <ele>235</ele>
        <time>2017-11-22T10:57:37Z</time>
      </trkpt>
      <trkpt lat="45.97763" lon="4.78651">
        <ele>235</ele>
        <time>2017-11-22T10:57:38Z</time>
      </trkpt>
      <trkpt lat="45.97759" lon="4.78649">
        <ele>235</ele>
        <time>2017-11-22T10:57:39Z</time>
      </trkpt>
      <trkpt lat="45.97754" lon="4.78648">
        <ele>235</ele>
        <time>2017-11-22T10:57:40Z</time>
      </trkpt>
      <trkpt lat="45.97749" lon="4.78645">
        <ele>234</ele>
        <time>2017-11-22T10:57:41Z</time>
      </trkpt>
      <trkpt lat="45.97744" lon="4.78643">
        <ele>234</ele>
        <time>2017-11-22T10:57:42Z</time>
      </trkpt>
      <trkpt lat="45.97739" lon="4.7864">
        <ele>234</ele>
        <time>2017-11-22T10:57:43Z</time>
      </trkpt>
      <trkpt lat="45.97734" lon="4.78638">
        <ele>234</ele>
        <time>2017-11-22T10:57:44Z</time>
      </trkpt>
      <trkpt lat="45.97729" lon="4.78637">
        <ele>234</ele>
        <time>2017-11-22T10:57:45Z</time>
      </trkpt>
      <trkpt lat="45.97724" lon="4.78635">
        <ele>234</ele>
        <time>2017-11-22T10:57:46Z</time>
      </trkpt>
      <trkpt lat="45.9772" lon="4.78633">
        <ele>234</ele>
        <time>2017-11-22T10:57:47Z</time>
      </trkpt>
      <trkpt lat="45.97715" lon="4.78631">
        <ele>234</ele>
        <time>2017-11-22T10:57:48Z</time>
      </trkpt>
      <trkpt lat="45.9771" lon="4.7863">
        <ele>234</ele>
        <time>2017-11-22T10:57:49Z</time>
      </trkpt>
      <trkpt lat="45.97706" lon="4.78627">
        <ele>234</ele>
        <time>2017-11-22T10:57:50Z</time>
      </trkpt>
      <trkpt lat="45.97701" lon="4.78624">
        <ele>234</ele>
        <time>2017-11-22T10:57:51Z</time>
      </trkpt>
      <trkpt lat="45.97696" lon="4.78622">
        <ele>234</ele>
        <time>2017-11-22T10:57:52Z</time>
      </trkpt>
      <trkpt lat="45.97691" lon="4.78621">
        <ele>234</ele>
        <time>2017-11-22T10:57:53Z</time>
      </trkpt>
      <trkpt lat="45.97686" lon="4.78619">
        <ele>234</ele>
        <time>2017-11-22T10:57:54Z</time>
      </trkpt>
      <trkpt lat="45.97681" lon="4.78618">
        <ele>234</ele>
        <time>2017-11-22T10:57:55Z</time>
      </trkpt>
      <trkpt lat="45.97675" lon="4.78616">
        <ele>234</ele>
        <time>2017-11-22T10:57:56Z</time>
      </trkpt>
      <trkpt lat="45.9767" lon="4.78613">
        <ele>234</ele>
        <time>2017-11-22T10:57:57Z</time>
      </trkpt>
      <trkpt lat="45.97664" lon="4.78611">
        <ele>233</ele>
        <time>2017-11-22T10:57:58Z</time>
      </trkpt>
      <trkpt lat="45.97659" lon="4.78609">
        <ele>233</ele>
        <time>2017-11-22T10:57:59Z</time>
      </trkpt>
      <trkpt lat="45.97654" lon="4.78607">
        <ele>233</ele>
        <time>2017-11-22T10:58:00Z</time>
      </trkpt>
      <trkpt lat="45.97648" lon="4.78605">
        <ele>233</ele>
        <time>2017-11-22T10:58:01Z</time>
      </trkpt>
      <trkpt lat="45.97644" lon="4.786">
        <ele>233</ele>
        <time>2017-11-22T10:58:02Z</time>
      </trkpt>
      <trkpt lat="45.97638" lon="4.78599">
        <ele>233</ele>
        <time>2017-11-22T10:58:03Z</time>
      </trkpt>
      <trkpt lat="45.97632" lon="4.78597">
        <ele>233</ele>
        <time>2017-11-22T10:58:04Z</time>
      </trkpt>
      <trkpt lat="45.97627" lon="4.78594">
        <ele>233</ele>
        <time>2017-11-22T10:58:05Z</time>
      </trkpt>
      <trkpt lat="45.97621" lon="4.78592">
        <ele>233</ele>
        <time>2017-11-22T10:58:06Z</time>
      </trkpt>
      <trkpt lat="45.97615" lon="4.78589">
        <ele>233</ele>
        <time>2017-11-22T10:58:07Z</time>
      </trkpt>
      <trkpt lat="45.97611" lon="4.78587">
        <ele>233</ele>
        <time>2017-11-22T10:58:08Z</time>
      </trkpt>
      <trkpt lat="45.97606" lon="4.78586">
        <ele>233</ele>
        <time>2017-11-22T10:58:09Z</time>
      </trkpt>
      <trkpt lat="45.97601" lon="4.78586">
        <ele>233</ele>
        <time>2017-11-22T10:58:10Z</time>
      </trkpt>
      <trkpt lat="45.97592" lon="4.78583">
        <ele>233</ele>
        <time>2017-11-22T10:58:12Z</time>
      </trkpt>
      <trkpt lat="45.97588" lon="4.78581">
        <ele>233</ele>
        <time>2017-11-22T10:58:13Z</time>
      </trkpt>
      <trkpt lat="45.9758" lon="4.78577">
        <ele>233</ele>
        <time>2017-11-22T10:58:15Z</time>
      </trkpt>
      <trkpt lat="45.97575" lon="4.78575">
        <ele>233</ele>
        <time>2017-11-22T10:58:16Z</time>
      </trkpt>
      <trkpt lat="45.9757" lon="4.78573">
        <ele>233</ele>
        <time>2017-11-22T10:58:17Z</time>
      </trkpt>
      <trkpt lat="45.97567" lon="4.78569">
        <ele>233</ele>
        <time>2017-11-22T10:58:18Z</time>
      </trkpt>
      <trkpt lat="45.97562" lon="4.78567">
        <ele>234</ele>
        <time>2017-11-22T10:58:19Z</time>
      </trkpt>
      <trkpt lat="45.97556" lon="4.78566">
        <ele>234</ele>
        <time>2017-11-22T10:58:20Z</time>
      </trkpt>
      <trkpt lat="45.9755" lon="4.78564">
        <ele>234</ele>
        <time>2017-11-22T10:58:21Z</time>
      </trkpt>
      <trkpt lat="45.97544" lon="4.78562">
        <ele>234</ele>
        <time>2017-11-22T10:58:22Z</time>
      </trkpt>
      <trkpt lat="45.9754" lon="4.7856">
        <ele>234</ele>
        <time>2017-11-22T10:58:23Z</time>
      </trkpt>
      <trkpt lat="45.97535" lon="4.78558">
        <ele>234</ele>
        <time>2017-11-22T10:58:24Z</time>
      </trkpt>
      <trkpt lat="45.9753" lon="4.78555">
        <ele>234</ele>
        <time>2017-11-22T10:58:25Z</time>
      </trkpt>
      <trkpt lat="45.97524" lon="4.78552">
        <ele>234</ele>
        <time>2017-11-22T10:58:26Z</time>
      </trkpt>
      <trkpt lat="45.9752" lon="4.78549">
        <ele>234</ele>
        <time>2017-11-22T10:58:27Z</time>
      </trkpt>
      <trkpt lat="45.97515" lon="4.78545">
        <ele>234</ele>
        <time>2017-11-22T10:58:28Z</time>
      </trkpt>
      <trkpt lat="45.97511" lon="4.78542">
        <ele>234</ele>
        <time>2017-11-22T10:58:29Z</time>
      </trkpt>
      <trkpt lat="45.97506" lon="4.78539">
        <ele>234</ele>
        <time>2017-11-22T10:58:30Z</time>
      </trkpt>
      <trkpt lat="45.97502" lon="4.78536">
        <ele>234</ele>
        <time>2017-11-22T10:58:31Z</time>
      </trkpt>
      <trkpt lat="45.97498" lon="4.78533">
        <ele>233</ele>
        <time>2017-11-22T10:58:32Z</time>
      </trkpt>
      <trkpt lat="45.97494" lon="4.7853">
        <ele>233</ele>
        <time>2017-11-22T10:58:33Z</time>
      </trkpt>
      <trkpt lat="45.97489" lon="4.78527">
        <ele>233</ele>
        <time>2017-11-22T10:58:34Z</time>
      </trkpt>
      <trkpt lat="45.97485" lon="4.78523">
        <ele>234</ele>
        <time>2017-11-22T10:58:35Z</time>
      </trkpt>
      <trkpt lat="45.97481" lon="4.7852">
        <ele>234</ele>
        <time>2017-11-22T10:58:36Z</time>
      </trkpt>
      <trkpt lat="45.97477" lon="4.78516">
        <ele>234</ele>
        <time>2017-11-22T10:58:37Z</time>
      </trkpt>
      <trkpt lat="45.97471" lon="4.78513">
        <ele>234</ele>
        <time>2017-11-22T10:58:38Z</time>
      </trkpt>
      <trkpt lat="45.97467" lon="4.7851">
        <ele>234</ele>
        <time>2017-11-22T10:58:39Z</time>
      </trkpt>
      <trkpt lat="45.97462" lon="4.78507">
        <ele>234</ele>
        <time>2017-11-22T10:58:40Z</time>
      </trkpt>
      <trkpt lat="45.97458" lon="4.78503">
        <ele>234</ele>
        <time>2017-11-22T10:58:41Z</time>
      </trkpt>
      <trkpt lat="45.97454" lon="4.78499">
        <ele>234</ele>
        <time>2017-11-22T10:58:42Z</time>
      </trkpt>
      <trkpt lat="45.9745" lon="4.78495">
        <ele>234</ele>
        <time>2017-11-22T10:58:43Z</time>
      </trkpt>
      <trkpt lat="45.97445" lon="4.78492">
        <ele>234</ele>
        <time>2017-11-22T10:58:44Z</time>
      </trkpt>
      <trkpt lat="45.97442" lon="4.78488">
        <ele>234</ele>
        <time>2017-11-22T10:58:45Z</time>
      </trkpt>
      <trkpt lat="45.97437" lon="4.78485">
        <ele>234</ele>
        <time>2017-11-22T10:58:46Z</time>
      </trkpt>
      <trkpt lat="45.97432" lon="4.78482">
        <ele>234</ele>
        <time>2017-11-22T10:58:47Z</time>
      </trkpt>
      <trkpt lat="45.97428" lon="4.78479">
        <ele>234</ele>
        <time>2017-11-22T10:58:48Z</time>
      </trkpt>
      <trkpt lat="45.97423" lon="4.78474">
        <ele>234</ele>
        <time>2017-11-22T10:58:49Z</time>
      </trkpt>
      <trkpt lat="45.97419" lon="4.78471">
        <ele>234</ele>
        <time>2017-11-22T10:58:50Z</time>
      </trkpt>
      <trkpt lat="45.97412" lon="4.78463">
        <ele>233</ele>
        <time>2017-11-22T10:58:52Z</time>
      </trkpt>
      <trkpt lat="45.97409" lon="4.7846">
        <ele>233</ele>
        <time>2017-11-22T10:58:53Z</time>
      </trkpt>
      <trkpt lat="45.97402" lon="4.78452">
        <ele>233</ele>
        <time>2017-11-22T10:58:55Z</time>
      </trkpt>
      <trkpt lat="45.97397" lon="4.78448">
        <ele>233</ele>
        <time>2017-11-22T10:58:56Z</time>
      </trkpt>
      <trkpt lat="45.97391" lon="4.7844">
        <ele>233</ele>
        <time>2017-11-22T10:58:58Z</time>
      </trkpt>
      <trkpt lat="45.97387" lon="4.78437">
        <ele>233</ele>
        <time>2017-11-22T10:58:59Z</time>
      </trkpt>
      <trkpt lat="45.97383" lon="4.78432">
        <ele>233</ele>
        <time>2017-11-22T10:59:00Z</time>
      </trkpt>
      <trkpt lat="45.9738" lon="4.78429">
        <ele>233</ele>
        <time>2017-11-22T10:59:01Z</time>
      </trkpt>
      <trkpt lat="45.97375" lon="4.78426">
        <ele>233</ele>
        <time>2017-11-22T10:59:02Z</time>
      </trkpt>
      <trkpt lat="45.97371" lon="4.78423">
        <ele>233</ele>
        <time>2017-11-22T10:59:03Z</time>
      </trkpt>
      <trkpt lat="45.97367" lon="4.78419">
        <ele>233</ele>
        <time>2017-11-22T10:59:04Z</time>
      </trkpt>
      <trkpt lat="45.97363" lon="4.78415">
        <ele>233</ele>
        <time>2017-11-22T10:59:05Z</time>
      </trkpt>
      <trkpt lat="45.9736" lon="4.7841">
        <ele>233</ele>
        <time>2017-11-22T10:59:06Z</time>
      </trkpt>
      <trkpt lat="45.97356" lon="4.78405">
        <ele>233</ele>
        <time>2017-11-22T10:59:07Z</time>
      </trkpt>
      <trkpt lat="45.97351" lon="4.78401">
        <ele>232</ele>
        <time>2017-11-22T10:59:08Z</time>
      </trkpt>
      <trkpt lat="45.97349" lon="4.78396">
        <ele>233</ele>
        <time>2017-11-22T10:59:09Z</time>
      </trkpt>
      <trkpt lat="45.97345" lon="4.78392">
        <ele>233</ele>
        <time>2017-11-22T10:59:10Z</time>
      </trkpt>
      <trkpt lat="45.97338" lon="4.78388">
        <ele>233</ele>
        <time>2017-11-22T10:59:11Z</time>
      </trkpt>
      <trkpt lat="45.97334" lon="4.78384">
        <ele>233</ele>
        <time>2017-11-22T10:59:12Z</time>
      </trkpt>
      <trkpt lat="45.97331" lon="4.78379">
        <ele>232</ele>
        <time>2017-11-22T10:59:13Z</time>
      </trkpt>
      <trkpt lat="45.97326" lon="4.78375">
        <ele>232</ele>
        <time>2017-11-22T10:59:14Z</time>
      </trkpt>
      <trkpt lat="45.97323" lon="4.78369">
        <ele>232</ele>
        <time>2017-11-22T10:59:15Z</time>
      </trkpt>
      <trkpt lat="45.97319" lon="4.78364">
        <ele>232</ele>
        <time>2017-11-22T10:59:16Z</time>
      </trkpt>
      <trkpt lat="45.97314" lon="4.78359">
        <ele>232</ele>
        <time>2017-11-22T10:59:17Z</time>
      </trkpt>
      <trkpt lat="45.9731" lon="4.78355">
        <ele>232</ele>
        <time>2017-11-22T10:59:18Z</time>
      </trkpt>
      <trkpt lat="45.97306" lon="4.7835">
        <ele>232</ele>
        <time>2017-11-22T10:59:19Z</time>
      </trkpt>
      <trkpt lat="45.97303" lon="4.78344">
        <ele>232</ele>
        <time>2017-11-22T10:59:20Z</time>
      </trkpt>
      <trkpt lat="45.97298" lon="4.78338">
        <ele>232</ele>
        <time>2017-11-22T10:59:21Z</time>
      </trkpt>
      <trkpt lat="45.97292" lon="4.78328">
        <ele>232</ele>
        <time>2017-11-22T10:59:23Z</time>
      </trkpt>
      <trkpt lat="45.97288" lon="4.78324">
        <ele>232</ele>
        <time>2017-11-22T10:59:24Z</time>
      </trkpt>
      <trkpt lat="45.97284" lon="4.78319">
        <ele>232</ele>
        <time>2017-11-22T10:59:25Z</time>
      </trkpt>
      <trkpt lat="45.9728" lon="4.78315">
        <ele>232</ele>
        <time>2017-11-22T10:59:26Z</time>
      </trkpt>
      <trkpt lat="45.97277" lon="4.7831">
        <ele>232</ele>
        <time>2017-11-22T10:59:27Z</time>
      </trkpt>
      <trkpt lat="45.97274" lon="4.78304">
        <ele>232</ele>
        <time>2017-11-22T10:59:28Z</time>
      </trkpt>
      <trkpt lat="45.9727" lon="4.783">
        <ele>232</ele>
        <time>2017-11-22T10:59:29Z</time>
      </trkpt>
      <trkpt lat="45.97267" lon="4.78295">
        <ele>232</ele>
        <time>2017-11-22T10:59:30Z</time>
      </trkpt>
      <trkpt lat="45.97264" lon="4.78288">
        <ele>232</ele>
        <time>2017-11-22T10:59:31Z</time>
      </trkpt>
      <trkpt lat="45.9726" lon="4.78283">
        <ele>232</ele>
        <time>2017-11-22T10:59:32Z</time>
      </trkpt>
      <trkpt lat="45.97257" lon="4.78276">
        <ele>232</ele>
        <time>2017-11-22T10:59:33Z</time>
      </trkpt>
      <trkpt lat="45.97253" lon="4.78271">
        <ele>232</ele>
        <time>2017-11-22T10:59:34Z</time>
      </trkpt>
      <trkpt lat="45.9725" lon="4.78265">
        <ele>231</ele>
        <time>2017-11-22T10:59:35Z</time>
      </trkpt>
      <trkpt lat="45.97246" lon="4.78261">
        <ele>231</ele>
        <time>2017-11-22T10:59:36Z</time>
      </trkpt>
      <trkpt lat="45.97239" lon="4.78251">
        <ele>231</ele>
        <time>2017-11-22T10:59:38Z</time>
      </trkpt>
      <trkpt lat="45.97236" lon="4.78246">
        <ele>231</ele>
        <time>2017-11-22T10:59:39Z</time>
      </trkpt>
      <trkpt lat="45.97232" lon="4.7824">
        <ele>231</ele>
        <time>2017-11-22T10:59:40Z</time>
      </trkpt>
      <trkpt lat="45.9723" lon="4.78236">
        <ele>231</ele>
        <time>2017-11-22T10:59:41Z</time>
      </trkpt>
      <trkpt lat="45.97226" lon="4.78226">
        <ele>231</ele>
        <time>2017-11-22T10:59:43Z</time>
      </trkpt>
      <trkpt lat="45.97223" lon="4.78221">
        <ele>231</ele>
        <time>2017-11-22T10:59:44Z</time>
      </trkpt>
      <trkpt lat="45.97218" lon="4.78217">
        <ele>231</ele>
        <time>2017-11-22T10:59:45Z</time>
      </trkpt>
      <trkpt lat="45.97214" lon="4.78212">
        <ele>231</ele>
        <time>2017-11-22T10:59:46Z</time>
      </trkpt>
      <trkpt lat="45.97211" lon="4.78206">
        <ele>231</ele>
        <time>2017-11-22T10:59:47Z</time>
      </trkpt>
      <trkpt lat="45.97207" lon="4.782">
        <ele>231</ele>
        <time>2017-11-22T10:59:48Z</time>
      </trkpt>
      <trkpt lat="45.97205" lon="4.78193">
        <ele>231</ele>
        <time>2017-11-22T10:59:49Z</time>
      </trkpt>
      <trkpt lat="45.97201" lon="4.78187">
        <ele>231</ele>
        <time>2017-11-22T10:59:50Z</time>
      </trkpt>
      <trkpt lat="45.97198" lon="4.7818">
        <ele>231</ele>
        <time>2017-11-22T10:59:51Z</time>
      </trkpt>
      <trkpt lat="45.97194" lon="4.78174">
        <ele>231</ele>
        <time>2017-11-22T10:59:52Z</time>
      </trkpt>
      <trkpt lat="45.9719" lon="4.78167">
        <ele>231</ele>
        <time>2017-11-22T10:59:53Z</time>
      </trkpt>
      <trkpt lat="45.97185" lon="4.78161">
        <ele>231</ele>
        <time>2017-11-22T10:59:54Z</time>
      </trkpt>
      <trkpt lat="45.97182" lon="4.78154">
        <ele>231</ele>
        <time>2017-11-22T10:59:55Z</time>
      </trkpt>
      <trkpt lat="45.97178" lon="4.78146">
        <ele>231</ele>
        <time>2017-11-22T10:59:56Z</time>
      </trkpt>
      <trkpt lat="45.97174" lon="4.78139">
        <ele>231</ele>
        <time>2017-11-22T10:59:57Z</time>
      </trkpt>
      <trkpt lat="45.97169" lon="4.78133">
        <ele>231</ele>
        <time>2017-11-22T10:59:58Z</time>
      </trkpt>
      <trkpt lat="45.97166" lon="4.78126">
        <ele>230</ele>
        <time>2017-11-22T10:59:59Z</time>
      </trkpt>
      <trkpt lat="45.97162" lon="4.7812">
        <ele>230</ele>
        <time>2017-11-22T11:00:00Z</time>
      </trkpt>
      <trkpt lat="45.97158" lon="4.78113">
        <ele>230</ele>
        <time>2017-11-22T11:00:01Z</time>
      </trkpt>
      <trkpt lat="45.97154" lon="4.78107">
        <ele>230</ele>
        <time>2017-11-22T11:00:02Z</time>
      </trkpt>
      <trkpt lat="45.97151" lon="4.78101">
        <ele>230</ele>
        <time>2017-11-22T11:00:03Z</time>
      </trkpt>
      <trkpt lat="45.97148" lon="4.78096">
        <ele>230</ele>
        <time>2017-11-22T11:00:04Z</time>
      </trkpt>
      <trkpt lat="45.97146" lon="4.7809">
        <ele>230</ele>
        <time>2017-11-22T11:00:05Z</time>
      </trkpt>
      <trkpt lat="45.97143" lon="4.78084">
        <ele>230</ele>
        <time>2017-11-22T11:00:06Z</time>
      </trkpt>
      <trkpt lat="45.9714" lon="4.78077">
        <ele>230</ele>
        <time>2017-11-22T11:00:07Z</time>
      </trkpt>
      <trkpt lat="45.97137" lon="4.78072">
        <ele>230</ele>
        <time>2017-11-22T11:00:08Z</time>
      </trkpt>
      <trkpt lat="45.97134" lon="4.78066">
        <ele>230</ele>
        <time>2017-11-22T11:00:09Z</time>
      </trkpt>
      <trkpt lat="45.9713" lon="4.78061">
        <ele>230</ele>
        <time>2017-11-22T11:00:10Z</time>
      </trkpt>
      <trkpt lat="45.97126" lon="4.78053">
        <ele>230</ele>
        <time>2017-11-22T11:00:11Z</time>
      </trkpt>
      <trkpt lat="45.9712" lon="4.78048">
        <ele>229</ele>
        <time>2017-11-22T11:00:12Z</time>
      </trkpt>
      <trkpt lat="45.97117" lon="4.78042">
        <ele>229</ele>
        <time>2017-11-22T11:00:13Z</time>
      </trkpt>
      <trkpt lat="45.97112" lon="4.78039">
        <ele>229</ele>
        <time>2017-11-22T11:00:14Z</time>
      </trkpt>
      <trkpt lat="45.97109" lon="4.78035">
        <ele>229</ele>
        <time>2017-11-22T11:00:15Z</time>
      </trkpt>
      <trkpt lat="45.97104" lon="4.78029">
        <ele>229</ele>
        <time>2017-11-22T11:00:16Z</time>
      </trkpt>
      <trkpt lat="45.97099" lon="4.78025">
        <ele>229</ele>
        <time>2017-11-22T11:00:17Z</time>
      </trkpt>
      <trkpt lat="45.97094" lon="4.78021">
        <ele>229</ele>
        <time>2017-11-22T11:00:18Z</time>
      </trkpt>
      <trkpt lat="45.9709" lon="4.78017">
        <ele>229</ele>
        <time>2017-11-22T11:00:19Z</time>
      </trkpt>
      <trkpt lat="45.97085" lon="4.78013">
        <ele>229</ele>
        <time>2017-11-22T11:00:20Z</time>
      </trkpt>
      <trkpt lat="45.9708" lon="4.78008">
        <ele>229</ele>
        <time>2017-11-22T11:00:21Z</time>
      </trkpt>
      <trkpt lat="45.97076" lon="4.78005">
        <ele>229</ele>
        <time>2017-11-22T11:00:22Z</time>
      </trkpt>
      <trkpt lat="45.97073" lon="4.78001">
        <ele>229</ele>
        <time>2017-11-22T11:00:23Z</time>
      </trkpt>
      <trkpt lat="45.97067" lon="4.77997">
        <ele>229</ele>
        <time>2017-11-22T11:00:24Z</time>
      </trkpt>
      <trkpt lat="45.97062" lon="4.77992">
        <ele>229</ele>
        <time>2017-11-22T11:00:25Z</time>
      </trkpt>
      <trkpt lat="45.97056" lon="4.77987">
        <ele>229</ele>
        <time>2017-11-22T11:00:26Z</time>
      </trkpt>
      <trkpt lat="45.97051" lon="4.77982">
        <ele>229</ele>
        <time>2017-11-22T11:00:27Z</time>
      </trkpt>
      <trkpt lat="45.97046" lon="4.77977">
        <ele>229</ele>
        <time>2017-11-22T11:00:28Z</time>
      </trkpt>
      <trkpt lat="45.9704" lon="4.77972">
        <ele>229</ele>
        <time>2017-11-22T11:00:29Z</time>
      </trkpt>
      <trkpt lat="45.97035" lon="4.77968">
        <ele>229</ele>
        <time>2017-11-22T11:00:30Z</time>
      </trkpt>
      <trkpt lat="45.97031" lon="4.77962">
        <ele>228</ele>
        <time>2017-11-22T11:00:31Z</time>
      </trkpt>
      <trkpt lat="45.97027" lon="4.77956">
        <ele>228</ele>
        <time>2017-11-22T11:00:32Z</time>
      </trkpt>
      <trkpt lat="45.97024" lon="4.77951">
        <ele>228</ele>
        <time>2017-11-22T11:00:33Z</time>
      </trkpt>
      <trkpt lat="45.97019" lon="4.77946">
        <ele>228</ele>
        <time>2017-11-22T11:00:34Z</time>
      </trkpt>
      <trkpt lat="45.97015" lon="4.77941">
        <ele>228</ele>
        <time>2017-11-22T11:00:35Z</time>
      </trkpt>
      <trkpt lat="45.97011" lon="4.77937">
        <ele>228</ele>
        <time>2017-11-22T11:00:36Z</time>
      </trkpt>
      <trkpt lat="45.97006" lon="4.7793">
        <ele>228</ele>
        <time>2017-11-22T11:00:38Z</time>
      </trkpt>
      <trkpt lat="45.97002" lon="4.77926">
        <ele>227</ele>
        <time>2017-11-22T11:00:39Z</time>
      </trkpt>
      <trkpt lat="45.96996" lon="4.77918">
        <ele>227</ele>
        <time>2017-11-22T11:00:41Z</time>
      </trkpt>
      <trkpt lat="45.9699" lon="4.77913">
        <ele>227</ele>
        <time>2017-11-22T11:00:42Z</time>
      </trkpt>
      <trkpt lat="45.96988" lon="4.77909">
        <ele>227</ele>
        <time>2017-11-22T11:00:43Z</time>
      </trkpt>
      <trkpt lat="45.96983" lon="4.77904">
        <ele>227</ele>
        <time>2017-11-22T11:00:44Z</time>
      </trkpt>
      <trkpt lat="45.96979" lon="4.779">
        <ele>228</ele>
        <time>2017-11-22T11:00:45Z</time>
      </trkpt>
      <trkpt lat="45.96976" lon="4.77896">
        <ele>228</ele>
        <time>2017-11-22T11:00:46Z</time>
      </trkpt>
      <trkpt lat="45.96971" lon="4.7789">
        <ele>228</ele>
        <time>2017-11-22T11:00:47Z</time>
      </trkpt>
      <trkpt lat="45.96968" lon="4.77886">
        <ele>228</ele>
        <time>2017-11-22T11:00:48Z</time>
      </trkpt>
      <trkpt lat="45.96962" lon="4.77882">
        <ele>228</ele>
        <time>2017-11-22T11:00:49Z</time>
      </trkpt>
      <trkpt lat="45.96958" lon="4.77877">
        <ele>228</ele>
        <time>2017-11-22T11:00:50Z</time>
      </trkpt>
      <trkpt lat="45.96954" lon="4.77873">
        <ele>228</ele>
        <time>2017-11-22T11:00:51Z</time>
      </trkpt>
      <trkpt lat="45.96951" lon="4.77869">
        <ele>228</ele>
        <time>2017-11-22T11:00:52Z</time>
      </trkpt>
      <trkpt lat="45.96947" lon="4.77865">
        <ele>228</ele>
        <time>2017-11-22T11:00:53Z</time>
      </trkpt>
      <trkpt lat="45.96943" lon="4.77861">
        <ele>228</ele>
        <time>2017-11-22T11:00:54Z</time>
      </trkpt>
      <trkpt lat="45.96938" lon="4.77852">
        <ele>228</ele>
        <time>2017-11-22T11:00:56Z</time>
      </trkpt>
      <trkpt lat="45.96935" lon="4.77849">
        <ele>228</ele>
        <time>2017-11-22T11:00:57Z</time>
      </trkpt>
      <trkpt lat="45.96932" lon="4.77844">
        <ele>228</ele>
        <time>2017-11-22T11:00:58Z</time>
      </trkpt>
      <trkpt lat="45.96927" lon="4.77839">
        <ele>228</ele>
        <time>2017-11-22T11:00:59Z</time>
      </trkpt>
      <trkpt lat="45.96921" lon="4.77834">
        <ele>228</ele>
        <time>2017-11-22T11:01:00Z</time>
      </trkpt>
      <trkpt lat="45.96917" lon="4.7783">
        <ele>228</ele>
        <time>2017-11-22T11:01:01Z</time>
      </trkpt>
      <trkpt lat="45.96913" lon="4.77824">
        <ele>228</ele>
        <time>2017-11-22T11:01:02Z</time>
      </trkpt>
      <trkpt lat="45.96908" lon="4.77819">
        <ele>228</ele>
        <time>2017-11-22T11:01:03Z</time>
      </trkpt>
      <trkpt lat="45.96903" lon="4.77815">
        <ele>228</ele>
        <time>2017-11-22T11:01:04Z</time>
      </trkpt>
      <trkpt lat="45.96899" lon="4.77812">
        <ele>228</ele>
        <time>2017-11-22T11:01:05Z</time>
      </trkpt>
      <trkpt lat="45.96892" lon="4.77804">
        <ele>228</ele>
        <time>2017-11-22T11:01:07Z</time>
      </trkpt>
      <trkpt lat="45.96888" lon="4.77801">
        <ele>228</ele>
        <time>2017-11-22T11:01:08Z</time>
      </trkpt>
      <trkpt lat="45.96884" lon="4.77798">
        <ele>228</ele>
        <time>2017-11-22T11:01:09Z</time>
      </trkpt>
      <trkpt lat="45.9688" lon="4.77793">
        <ele>228</ele>
        <time>2017-11-22T11:01:10Z</time>
      </trkpt>
      <trkpt lat="45.96877" lon="4.77788">
        <ele>228</ele>
        <time>2017-11-22T11:01:11Z</time>
      </trkpt>
      <trkpt lat="45.96874" lon="4.77783">
        <ele>228</ele>
        <time>2017-11-22T11:01:12Z</time>
      </trkpt>
      <trkpt lat="45.96869" lon="4.77779">
        <ele>228</ele>
        <time>2017-11-22T11:01:13Z</time>
      </trkpt>
      <trkpt lat="45.96865" lon="4.77773">
        <ele>228</ele>
        <time>2017-11-22T11:01:14Z</time>
      </trkpt>
      <trkpt lat="45.96861" lon="4.77769">
        <ele>228</ele>
        <time>2017-11-22T11:01:15Z</time>
      </trkpt>
      <trkpt lat="45.96856" lon="4.77763">
        <ele>228</ele>
        <time>2017-11-22T11:01:16Z</time>
      </trkpt>
      <trkpt lat="45.96852" lon="4.77759">
        <ele>228</ele>
        <time>2017-11-22T11:01:17Z</time>
      </trkpt>
      <trkpt lat="45.96849" lon="4.77753">
        <ele>228</ele>
        <time>2017-11-22T11:01:18Z</time>
      </trkpt>
      <trkpt lat="45.96845" lon="4.77749">
        <ele>228</ele>
        <time>2017-11-22T11:01:19Z</time>
      </trkpt>
      <trkpt lat="45.96841" lon="4.77745">
        <ele>228</ele>
        <time>2017-11-22T11:01:20Z</time>
      </trkpt>
      <trkpt lat="45.96835" lon="4.77738">
        <ele>228</ele>
        <time>2017-11-22T11:01:22Z</time>
      </trkpt>
      <trkpt lat="45.96832" lon="4.77735">
        <ele>228</ele>
        <time>2017-11-22T11:01:23Z</time>
      </trkpt>
      <trkpt lat="45.96829" lon="4.7773">
        <ele>228</ele>
        <time>2017-11-22T11:01:24Z</time>
      </trkpt>
      <trkpt lat="45.96824" lon="4.77726">
        <ele>228</ele>
        <time>2017-11-22T11:01:25Z</time>
      </trkpt>
      <trkpt lat="45.96818" lon="4.77718">
        <ele>228</ele>
        <time>2017-11-22T11:01:27Z</time>
      </trkpt>
      <trkpt lat="45.96813" lon="4.77714">
        <ele>228</ele>
        <time>2017-11-22T11:01:28Z</time>
      </trkpt>
      <trkpt lat="45.96809" lon="4.77711">
        <ele>228</ele>
        <time>2017-11-22T11:01:29Z</time>
      </trkpt>
      <trkpt lat="45.96805" lon="4.77706">
        <ele>228</ele>
        <time>2017-11-22T11:01:30Z</time>
      </trkpt>
      <trkpt lat="45.96798" lon="4.77703">
        <ele>228</ele>
        <time>2017-11-22T11:01:31Z</time>
      </trkpt>
      <trkpt lat="45.96794" lon="4.77699">
        <ele>228</ele>
        <time>2017-11-22T11:01:32Z</time>
      </trkpt>
      <trkpt lat="45.9679" lon="4.77694">
        <ele>227</ele>
        <time>2017-11-22T11:01:33Z</time>
      </trkpt>
      <trkpt lat="45.96786" lon="4.7769">
        <ele>227</ele>
        <time>2017-11-22T11:01:34Z</time>
      </trkpt>
      <trkpt lat="45.96782" lon="4.77686">
        <ele>227</ele>
        <time>2017-11-22T11:01:35Z</time>
      </trkpt>
      <trkpt lat="45.96779" lon="4.77682">
        <ele>227</ele>
        <time>2017-11-22T11:01:36Z</time>
      </trkpt>
      <trkpt lat="45.96775" lon="4.77676">
        <ele>227</ele>
        <time>2017-11-22T11:01:37Z</time>
      </trkpt>
      <trkpt lat="45.96771" lon="4.77672">
        <ele>227</ele>
        <time>2017-11-22T11:01:38Z</time>
      </trkpt>
      <trkpt lat="45.96767" lon="4.77667">
        <ele>227</ele>
        <time>2017-11-22T11:01:39Z</time>
      </trkpt>
      <trkpt lat="45.96763" lon="4.77662">
        <ele>227</ele>
        <time>2017-11-22T11:01:40Z</time>
      </trkpt>
      <trkpt lat="45.96759" lon="4.77657">
        <ele>227</ele>
        <time>2017-11-22T11:01:41Z</time>
      </trkpt>
      <trkpt lat="45.96755" lon="4.77652">
        <ele>227</ele>
        <time>2017-11-22T11:01:42Z</time>
      </trkpt>
      <trkpt lat="45.96749" lon="4.77646">
        <ele>227</ele>
        <time>2017-11-22T11:01:43Z</time>
      </trkpt>
      <trkpt lat="45.96744" lon="4.77641">
        <ele>227</ele>
        <time>2017-11-22T11:01:44Z</time>
      </trkpt>
      <trkpt lat="45.96739" lon="4.77636">
        <ele>227</ele>
        <time>2017-11-22T11:01:45Z</time>
      </trkpt>
      <trkpt lat="45.96735" lon="4.77632">
        <ele>226</ele>
        <time>2017-11-22T11:01:46Z</time>
      </trkpt>
      <trkpt lat="45.96731" lon="4.77626">
        <ele>226</ele>
        <time>2017-11-22T11:01:47Z</time>
      </trkpt>
      <trkpt lat="45.96727" lon="4.7762">
        <ele>226</ele>
        <time>2017-11-22T11:01:48Z</time>
      </trkpt>
      <trkpt lat="45.96723" lon="4.77615">
        <ele>226</ele>
        <time>2017-11-22T11:01:49Z</time>
      </trkpt>
      <trkpt lat="45.96718" lon="4.77608">
        <ele>226</ele>
        <time>2017-11-22T11:01:50Z</time>
      </trkpt>
      <trkpt lat="45.96715" lon="4.77602">
        <ele>226</ele>
        <time>2017-11-22T11:01:51Z</time>
      </trkpt>
      <trkpt lat="45.9671" lon="4.77598">
        <ele>226</ele>
        <time>2017-11-22T11:01:52Z</time>
      </trkpt>
      <trkpt lat="45.96705" lon="4.77593">
        <ele>226</ele>
        <time>2017-11-22T11:01:53Z</time>
      </trkpt>
      <trkpt lat="45.96702" lon="4.77589">
        <ele>226</ele>
        <time>2017-11-22T11:01:54Z</time>
      </trkpt>
      <trkpt lat="45.96697" lon="4.77584">
        <ele>226</ele>
        <time>2017-11-22T11:01:55Z</time>
      </trkpt>
      <trkpt lat="45.96694" lon="4.77579">
        <ele>225</ele>
        <time>2017-11-22T11:01:56Z</time>
      </trkpt>
      <trkpt lat="45.96687" lon="4.77573">
        <ele>225</ele>
        <time>2017-11-22T11:01:58Z</time>
      </trkpt>
      <trkpt lat="45.96682" lon="4.77569">
        <ele>225</ele>
        <time>2017-11-22T11:01:59Z</time>
      </trkpt>
      <trkpt lat="45.96677" lon="4.77566">
        <ele>225</ele>
        <time>2017-11-22T11:02:00Z</time>
      </trkpt>
      <trkpt lat="45.96674" lon="4.77562">
        <ele>225</ele>
        <time>2017-11-22T11:02:01Z</time>
      </trkpt>
      <trkpt lat="45.96669" lon="4.77558">
        <ele>225</ele>
        <time>2017-11-22T11:02:02Z</time>
      </trkpt>
      <trkpt lat="45.96665" lon="4.77556">
        <ele>224</ele>
        <time>2017-11-22T11:02:03Z</time>
      </trkpt>
      <trkpt lat="45.9666" lon="4.77553">
        <ele>224</ele>
        <time>2017-11-22T11:02:04Z</time>
      </trkpt>
      <trkpt lat="45.96656" lon="4.77549">
        <ele>224</ele>
        <time>2017-11-22T11:02:05Z</time>
      </trkpt>
      <trkpt lat="45.96652" lon="4.77545">
        <ele>224</ele>
        <time>2017-11-22T11:02:06Z</time>
      </trkpt>
      <trkpt lat="45.96647" lon="4.77542">
        <ele>224</ele>
        <time>2017-11-22T11:02:07Z</time>
      </trkpt>
      <trkpt lat="45.96642" lon="4.77538">
        <ele>224</ele>
        <time>2017-11-22T11:02:08Z</time>
      </trkpt>
      <trkpt lat="45.96637" lon="4.77533">
        <ele>224</ele>
        <time>2017-11-22T11:02:09Z</time>
      </trkpt>
      <trkpt lat="45.96631" lon="4.7753">
        <ele>224</ele>
        <time>2017-11-22T11:02:10Z</time>
      </trkpt>
      <trkpt lat="45.96626" lon="4.77528">
        <ele>224</ele>
        <time>2017-11-22T11:02:11Z</time>
      </trkpt>
      <trkpt lat="45.96621" lon="4.77525">
        <ele>224</ele>
        <time>2017-11-22T11:02:12Z</time>
      </trkpt>
      <trkpt lat="45.96616" lon="4.77522">
        <ele>224</ele>
        <time>2017-11-22T11:02:13Z</time>
      </trkpt>
      <trkpt lat="45.9661" lon="4.77518">
        <ele>224</ele>
        <time>2017-11-22T11:02:14Z</time>
      </trkpt>
      <trkpt lat="45.96605" lon="4.77516">
        <ele>224</ele>
        <time>2017-11-22T11:02:15Z</time>
      </trkpt>
      <trkpt lat="45.966" lon="4.77512">
        <ele>224</ele>
        <time>2017-11-22T11:02:16Z</time>
      </trkpt>
      <trkpt lat="45.96595" lon="4.77508">
        <ele>224</ele>
        <time>2017-11-22T11:02:17Z</time>
      </trkpt>
      <trkpt lat="45.9659" lon="4.77505">
        <ele>224</ele>
        <time>2017-11-22T11:02:18Z</time>
      </trkpt>
      <trkpt lat="45.96585" lon="4.77501">
        <ele>224</ele>
        <time>2017-11-22T11:02:19Z</time>
      </trkpt>
      <trkpt lat="45.96579" lon="4.77498">
        <ele>224</ele>
        <time>2017-11-22T11:02:20Z</time>
      </trkpt>
      <trkpt lat="45.96575" lon="4.77494">
        <ele>224</ele>
        <time>2017-11-22T11:02:21Z</time>
      </trkpt>
      <trkpt lat="45.96566" lon="4.7749">
        <ele>224</ele>
        <time>2017-11-22T11:02:23Z</time>
      </trkpt>
      <trkpt lat="45.96561" lon="4.77487">
        <ele>224</ele>
        <time>2017-11-22T11:02:24Z</time>
      </trkpt>
      <trkpt lat="45.96557" lon="4.77484">
        <ele>224</ele>
        <time>2017-11-22T11:02:25Z</time>
      </trkpt>
      <trkpt lat="45.96552" lon="4.77482">
        <ele>223</ele>
        <time>2017-11-22T11:02:26Z</time>
      </trkpt>
      <trkpt lat="45.96547" lon="4.77479">
        <ele>223</ele>
        <time>2017-11-22T11:02:27Z</time>
      </trkpt>
      <trkpt lat="45.96541" lon="4.77474">
        <ele>223</ele>
        <time>2017-11-22T11:02:28Z</time>
      </trkpt>
      <trkpt lat="45.96535" lon="4.7747">
        <ele>223</ele>
        <time>2017-11-22T11:02:29Z</time>
      </trkpt>
      <trkpt lat="45.96529" lon="4.77467">
        <ele>223</ele>
        <time>2017-11-22T11:02:30Z</time>
      </trkpt>
      <trkpt lat="45.96524" lon="4.77462">
        <ele>223</ele>
        <time>2017-11-22T11:02:31Z</time>
      </trkpt>
      <trkpt lat="45.96518" lon="4.77458">
        <ele>223</ele>
        <time>2017-11-22T11:02:32Z</time>
      </trkpt>
      <trkpt lat="45.96512" lon="4.77454">
        <ele>223</ele>
        <time>2017-11-22T11:02:33Z</time>
      </trkpt>
      <trkpt lat="45.96506" lon="4.7745">
        <ele>223</ele>
        <time>2017-11-22T11:02:34Z</time>
      </trkpt>
      <trkpt lat="45.965" lon="4.77446">
        <ele>223</ele>
        <time>2017-11-22T11:02:35Z</time>
      </trkpt>
      <trkpt lat="45.96494" lon="4.77443">
        <ele>222</ele>
        <time>2017-11-22T11:02:36Z</time>
      </trkpt>
      <trkpt lat="45.96488" lon="4.77439">
        <ele>222</ele>
        <time>2017-11-22T11:02:37Z</time>
      </trkpt>
      <trkpt lat="45.96481" lon="4.77436">
        <ele>222</ele>
        <time>2017-11-22T11:02:38Z</time>
      </trkpt>
      <trkpt lat="45.96476" lon="4.77432">
        <ele>221</ele>
        <time>2017-11-22T11:02:39Z</time>
      </trkpt>
      <trkpt lat="45.96469" lon="4.77429">
        <ele>221</ele>
        <time>2017-11-22T11:02:40Z</time>
      </trkpt>
      <trkpt lat="45.96463" lon="4.77426">
        <ele>221</ele>
        <time>2017-11-22T11:02:41Z</time>
      </trkpt>
      <trkpt lat="45.96457" lon="4.77423">
        <ele>221</ele>
        <time>2017-11-22T11:02:42Z</time>
      </trkpt>
      <trkpt lat="45.96452" lon="4.77419">
        <ele>221</ele>
        <time>2017-11-22T11:02:43Z</time>
      </trkpt>
      <trkpt lat="45.96446" lon="4.77414">
        <ele>222</ele>
        <time>2017-11-22T11:02:44Z</time>
      </trkpt>
      <trkpt lat="45.96441" lon="4.77411">
        <ele>222</ele>
        <time>2017-11-22T11:02:45Z</time>
      </trkpt>
      <trkpt lat="45.96436" lon="4.77408">
        <ele>222</ele>
        <time>2017-11-22T11:02:46Z</time>
      </trkpt>
      <trkpt lat="45.96432" lon="4.77404">
        <ele>222</ele>
        <time>2017-11-22T11:02:47Z</time>
      </trkpt>
      <trkpt lat="45.96427" lon="4.77401">
        <ele>222</ele>
        <time>2017-11-22T11:02:48Z</time>
      </trkpt>
      <trkpt lat="45.96421" lon="4.77399">
        <ele>222</ele>
        <time>2017-11-22T11:02:49Z</time>
      </trkpt>
      <trkpt lat="45.96416" lon="4.77396">
        <ele>220</ele>
        <time>2017-11-22T11:02:50Z</time>
      </trkpt>
      <trkpt lat="45.9641" lon="4.77393">
        <ele>220</ele>
        <time>2017-11-22T11:02:51Z</time>
      </trkpt>
      <trkpt lat="45.96405" lon="4.77391">
        <ele>220</ele>
        <time>2017-11-22T11:02:52Z</time>
      </trkpt>
      <trkpt lat="45.964" lon="4.77388">
        <ele>220</ele>
        <time>2017-11-22T11:02:53Z</time>
      </trkpt>
      <trkpt lat="45.96396" lon="4.77385">
        <ele>220</ele>
        <time>2017-11-22T11:02:54Z</time>
      </trkpt>
      <trkpt lat="45.96391" lon="4.77383">
        <ele>220</ele>
        <time>2017-11-22T11:02:55Z</time>
      </trkpt>
      <trkpt lat="45.96386" lon="4.7738">
        <ele>220</ele>
        <time>2017-11-22T11:02:56Z</time>
      </trkpt>
      <trkpt lat="45.96381" lon="4.77377">
        <ele>220</ele>
        <time>2017-11-22T11:02:57Z</time>
      </trkpt>
      <trkpt lat="45.96375" lon="4.77373">
        <ele>220</ele>
        <time>2017-11-22T11:02:58Z</time>
      </trkpt>
      <trkpt lat="45.96367" lon="4.7737">
        <ele>219</ele>
        <time>2017-11-22T11:02:59Z</time>
      </trkpt>
      <trkpt lat="45.96362" lon="4.77368">
        <ele>219</ele>
        <time>2017-11-22T11:03:00Z</time>
      </trkpt>
      <trkpt lat="45.96354" lon="4.77363">
        <ele>219</ele>
        <time>2017-11-22T11:03:01Z</time>
      </trkpt>
      <trkpt lat="45.96348" lon="4.7736">
        <ele>219</ele>
        <time>2017-11-22T11:03:02Z</time>
      </trkpt>
      <trkpt lat="45.96342" lon="4.77357">
        <ele>219</ele>
        <time>2017-11-22T11:03:03Z</time>
      </trkpt>
      <trkpt lat="45.96336" lon="4.77351">
        <ele>220</ele>
        <time>2017-11-22T11:03:04Z</time>
      </trkpt>
      <trkpt lat="45.9633" lon="4.77348">
        <ele>218</ele>
        <time>2017-11-22T11:03:05Z</time>
      </trkpt>
      <trkpt lat="45.96324" lon="4.77345">
        <ele>218</ele>
        <time>2017-11-22T11:03:06Z</time>
      </trkpt>
      <trkpt lat="45.96318" lon="4.77341">
        <ele>218</ele>
        <time>2017-11-22T11:03:07Z</time>
      </trkpt>
      <trkpt lat="45.96312" lon="4.77339">
        <ele>218</ele>
        <time>2017-11-22T11:03:08Z</time>
      </trkpt>
      <trkpt lat="45.96307" lon="4.77336">
        <ele>217</ele>
        <time>2017-11-22T11:03:09Z</time>
      </trkpt>
      <trkpt lat="45.96301" lon="4.77333">
        <ele>219</ele>
        <time>2017-11-22T11:03:10Z</time>
      </trkpt>
      <trkpt lat="45.96297" lon="4.77329">
        <ele>219</ele>
        <time>2017-11-22T11:03:11Z</time>
      </trkpt>
      <trkpt lat="45.96291" lon="4.77325">
        <ele>219</ele>
        <time>2017-11-22T11:03:12Z</time>
      </trkpt>
      <trkpt lat="45.96286" lon="4.77322">
        <ele>219</ele>
        <time>2017-11-22T11:03:13Z</time>
      </trkpt>
      <trkpt lat="45.96281" lon="4.7732">
        <ele>219</ele>
        <time>2017-11-22T11:03:14Z</time>
      </trkpt>
      <trkpt lat="45.96276" lon="4.77317">
        <ele>219</ele>
        <time>2017-11-22T11:03:15Z</time>
      </trkpt>
      <trkpt lat="45.96271" lon="4.77315">
        <ele>218</ele>
        <time>2017-11-22T11:03:16Z</time>
      </trkpt>
      <trkpt lat="45.96266" lon="4.77311">
        <ele>218</ele>
        <time>2017-11-22T11:03:17Z</time>
      </trkpt>
      <trkpt lat="45.96261" lon="4.77307">
        <ele>219</ele>
        <time>2017-11-22T11:03:18Z</time>
      </trkpt>
      <trkpt lat="45.96256" lon="4.77304">
        <ele>219</ele>
        <time>2017-11-22T11:03:19Z</time>
      </trkpt>
      <trkpt lat="45.96249" lon="4.77301">
        <ele>217</ele>
        <time>2017-11-22T11:03:20Z</time>
      </trkpt>
      <trkpt lat="45.96244" lon="4.77298">
        <ele>217</ele>
        <time>2017-11-22T11:03:21Z</time>
      </trkpt>
      <trkpt lat="45.96239" lon="4.77293">
        <ele>217</ele>
        <time>2017-11-22T11:03:22Z</time>
      </trkpt>
      <trkpt lat="45.96233" lon="4.7729">
        <ele>217</ele>
        <time>2017-11-22T11:03:23Z</time>
      </trkpt>
      <trkpt lat="45.96228" lon="4.77288">
        <ele>217</ele>
        <time>2017-11-22T11:03:24Z</time>
      </trkpt>
      <trkpt lat="45.96223" lon="4.77285">
        <ele>217</ele>
        <time>2017-11-22T11:03:25Z</time>
      </trkpt>
      <trkpt lat="45.96218" lon="4.77282">
        <ele>217</ele>
        <time>2017-11-22T11:03:26Z</time>
      </trkpt>
      <trkpt lat="45.96213" lon="4.77279">
        <ele>217</ele>
        <time>2017-11-22T11:03:27Z</time>
      </trkpt>
      <trkpt lat="45.96208" lon="4.77276">
        <ele>217</ele>
        <time>2017-11-22T11:03:28Z</time>
      </trkpt>
      <trkpt lat="45.96203" lon="4.77273">
        <ele>217</ele>
        <time>2017-11-22T11:03:29Z</time>
      </trkpt>
      <trkpt lat="45.96198" lon="4.7727">
        <ele>216</ele>
        <time>2017-11-22T11:03:30Z</time>
      </trkpt>
      <trkpt lat="45.96193" lon="4.77267">
        <ele>216</ele>
        <time>2017-11-22T11:03:31Z</time>
      </trkpt>
      <trkpt lat="45.96186" lon="4.77264">
        <ele>216</ele>
        <time>2017-11-22T11:03:32Z</time>
      </trkpt>
      <trkpt lat="45.96181" lon="4.77261">
        <ele>216</ele>
        <time>2017-11-22T11:03:33Z</time>
      </trkpt>
      <trkpt lat="45.96176" lon="4.77257">
        <ele>216</ele>
        <time>2017-11-22T11:03:34Z</time>
      </trkpt>
      <trkpt lat="45.96171" lon="4.77253">
        <ele>216</ele>
        <time>2017-11-22T11:03:35Z</time>
      </trkpt>
      <trkpt lat="45.96165" lon="4.77251">
        <ele>216</ele>
        <time>2017-11-22T11:03:36Z</time>
      </trkpt>
      <trkpt lat="45.9616" lon="4.77247">
        <ele>216</ele>
        <time>2017-11-22T11:03:37Z</time>
      </trkpt>
      <trkpt lat="45.96155" lon="4.77245">
        <ele>216</ele>
        <time>2017-11-22T11:03:38Z</time>
      </trkpt>
      <trkpt lat="45.9615" lon="4.77243">
        <ele>215</ele>
        <time>2017-11-22T11:03:39Z</time>
      </trkpt>
      <trkpt lat="45.96144" lon="4.77242">
        <ele>215</ele>
        <time>2017-11-22T11:03:40Z</time>
      </trkpt>
      <trkpt lat="45.96139" lon="4.7724">
        <ele>215</ele>
        <time>2017-11-22T11:03:41Z</time>
      </trkpt>
      <trkpt lat="45.96134" lon="4.77239">
        <ele>215</ele>
        <time>2017-11-22T11:03:42Z</time>
      </trkpt>
      <trkpt lat="45.96129" lon="4.77238">
        <ele>215</ele>
        <time>2017-11-22T11:03:43Z</time>
      </trkpt>
      <trkpt lat="45.96124" lon="4.77237">
        <ele>214</ele>
        <time>2017-11-22T11:03:44Z</time>
      </trkpt>
      <trkpt lat="45.96118" lon="4.77238">
        <ele>214</ele>
        <time>2017-11-22T11:03:45Z</time>
      </trkpt>
      <trkpt lat="45.96113" lon="4.77238">
        <ele>214</ele>
        <time>2017-11-22T11:03:46Z</time>
      </trkpt>
      <trkpt lat="45.96108" lon="4.77237">
        <ele>213</ele>
        <time>2017-11-22T11:03:47Z</time>
      </trkpt>
      <trkpt lat="45.96102" lon="4.77236">
        <ele>213</ele>
        <time>2017-11-22T11:03:48Z</time>
      </trkpt>
      <trkpt lat="45.96095" lon="4.77236">
        <ele>213</ele>
        <time>2017-11-22T11:03:49Z</time>
      </trkpt>
      <trkpt lat="45.96091" lon="4.77236">
        <ele>212</ele>
        <time>2017-11-22T11:03:50Z</time>
      </trkpt>
      <trkpt lat="45.96085" lon="4.77237">
        <ele>212</ele>
        <time>2017-11-22T11:03:51Z</time>
      </trkpt>
      <trkpt lat="45.9608" lon="4.77236">
        <ele>210</ele>
        <time>2017-11-22T11:03:52Z</time>
      </trkpt>
      <trkpt lat="45.96075" lon="4.77237">
        <ele>210</ele>
        <time>2017-11-22T11:03:53Z</time>
      </trkpt>
      <trkpt lat="45.9607" lon="4.77237">
        <ele>210</ele>
        <time>2017-11-22T11:03:54Z</time>
      </trkpt>
      <trkpt lat="45.96063" lon="4.77236">
        <ele>209</ele>
        <time>2017-11-22T11:03:55Z</time>
      </trkpt>
      <trkpt lat="45.96058" lon="4.77237">
        <ele>209</ele>
        <time>2017-11-22T11:03:56Z</time>
      </trkpt>
      <trkpt lat="45.96052" lon="4.77237">
        <ele>209</ele>
        <time>2017-11-22T11:03:57Z</time>
      </trkpt>
      <trkpt lat="45.96045" lon="4.77238">
        <ele>209</ele>
        <time>2017-11-22T11:03:58Z</time>
      </trkpt>
      <trkpt lat="45.96038" lon="4.77239">
        <ele>208</ele>
        <time>2017-11-22T11:03:59Z</time>
      </trkpt>
      <trkpt lat="45.96032" lon="4.7724">
        <ele>208</ele>
        <time>2017-11-22T11:04:00Z</time>
      </trkpt>
      <trkpt lat="45.96027" lon="4.7724">
        <ele>207</ele>
        <time>2017-11-22T11:04:01Z</time>
      </trkpt>
      <trkpt lat="45.9602" lon="4.77242">
        <ele>207</ele>
        <time>2017-11-22T11:04:02Z</time>
      </trkpt>
      <trkpt lat="45.96014" lon="4.77244">
        <ele>206</ele>
        <time>2017-11-22T11:04:03Z</time>
      </trkpt>
      <trkpt lat="45.96009" lon="4.77243">
        <ele>205</ele>
        <time>2017-11-22T11:04:04Z</time>
      </trkpt>
      <trkpt lat="45.96" lon="4.77242">
        <ele>205</ele>
        <time>2017-11-22T11:04:06Z</time>
      </trkpt>
      <trkpt lat="45.95997" lon="4.77241">
        <ele>203</ele>
        <time>2017-11-22T11:04:07Z</time>
      </trkpt>
      <trkpt lat="45.95989" lon="4.7724">
        <ele>202</ele>
        <time>2017-11-22T11:04:10Z</time>
      </trkpt>
      <trkpt lat="45.95988" lon="4.77239">
        <ele>202</ele>
        <time>2017-11-22T11:04:11Z</time>
      </trkpt>
      <trkpt lat="45.95981" lon="4.77235">
        <ele>202</ele>
        <time>2017-11-22T11:06:17Z</time>
      </trkpt>
      <trkpt lat="45.95979" lon="4.77232">
        <ele>202</ele>
        <time>2017-11-22T11:06:18Z</time>
      </trkpt>
      <trkpt lat="45.95973" lon="4.77225">
        <ele>202</ele>
        <time>2017-11-22T11:06:20Z</time>
      </trkpt>
      <trkpt lat="45.9597" lon="4.77222">
        <ele>202</ele>
        <time>2017-11-22T11:06:21Z</time>
      </trkpt>
      <trkpt lat="45.95963" lon="4.77214">
        <ele>201</ele>
        <time>2017-11-22T11:06:23Z</time>
      </trkpt>
      <trkpt lat="45.95961" lon="4.77209">
        <ele>201</ele>
        <time>2017-11-22T11:06:24Z</time>
      </trkpt>
      <trkpt lat="45.95958" lon="4.77204">
        <ele>201</ele>
        <time>2017-11-22T11:06:25Z</time>
      </trkpt>
      <trkpt lat="45.95955" lon="4.77198">
        <ele>201</ele>
        <time>2017-11-22T11:06:26Z</time>
      </trkpt>
      <trkpt lat="45.95951" lon="4.77191">
        <ele>201</ele>
        <time>2017-11-22T11:06:27Z</time>
      </trkpt>
      <trkpt lat="45.95949" lon="4.77183">
        <ele>201</ele>
        <time>2017-11-22T11:06:28Z</time>
      </trkpt>
      <trkpt lat="45.95947" lon="4.77176">
        <ele>201</ele>
        <time>2017-11-22T11:06:29Z</time>
      </trkpt>
      <trkpt lat="45.95946" lon="4.77168">
        <ele>200</ele>
        <time>2017-11-22T11:06:30Z</time>
      </trkpt>
      <trkpt lat="45.95944" lon="4.7716">
        <ele>201</ele>
        <time>2017-11-22T11:06:31Z</time>
      </trkpt>
      <trkpt lat="45.95943" lon="4.77152">
        <ele>201</ele>
        <time>2017-11-22T11:06:32Z</time>
      </trkpt>
      <trkpt lat="45.95941" lon="4.77143">
        <ele>201</ele>
        <time>2017-11-22T11:06:33Z</time>
      </trkpt>
      <trkpt lat="45.9594" lon="4.77133">
        <ele>201</ele>
        <time>2017-11-22T11:06:34Z</time>
      </trkpt>
      <trkpt lat="45.9594" lon="4.77124">
        <ele>201</ele>
        <time>2017-11-22T11:06:35Z</time>
      </trkpt>
      <trkpt lat="45.95941" lon="4.77114">
        <ele>201</ele>
        <time>2017-11-22T11:06:36Z</time>
      </trkpt>
      <trkpt lat="45.95942" lon="4.77104">
        <ele>201</ele>
        <time>2017-11-22T11:06:37Z</time>
      </trkpt>
      <trkpt lat="45.95944" lon="4.77094">
        <ele>201</ele>
        <time>2017-11-22T11:06:38Z</time>
      </trkpt>
      <trkpt lat="45.95946" lon="4.77085">
        <ele>201</ele>
        <time>2017-11-22T11:06:39Z</time>
      </trkpt>
      <trkpt lat="45.95949" lon="4.77075">
        <ele>200</ele>
        <time>2017-11-22T11:06:40Z</time>
      </trkpt>
      <trkpt lat="45.95951" lon="4.77066">
        <ele>200</ele>
        <time>2017-11-22T11:06:41Z</time>
      </trkpt>
      <trkpt lat="45.95955" lon="4.77056">
        <ele>200</ele>
        <time>2017-11-22T11:06:42Z</time>
      </trkpt>
      <trkpt lat="45.95959" lon="4.77048">
        <ele>200</ele>
        <time>2017-11-22T11:06:43Z</time>
      </trkpt>
      <trkpt lat="45.95962" lon="4.77039">
        <ele>200</ele>
        <time>2017-11-22T11:06:44Z</time>
      </trkpt>
      <trkpt lat="45.95967" lon="4.77028">
        <ele>200</ele>
        <time>2017-11-22T11:06:45Z</time>
      </trkpt>
      <trkpt lat="45.95971" lon="4.7702">
        <ele>200</ele>
        <time>2017-11-22T11:06:46Z</time>
      </trkpt>
      <trkpt lat="45.95974" lon="4.7701">
        <ele>200</ele>
        <time>2017-11-22T11:06:47Z</time>
      </trkpt>
      <trkpt lat="45.95977" lon="4.77">
        <ele>198</ele>
        <time>2017-11-22T11:06:48Z</time>
      </trkpt>
      <trkpt lat="45.9598" lon="4.76988">
        <ele>198</ele>
        <time>2017-11-22T11:06:49Z</time>
      </trkpt>
      <trkpt lat="45.95982" lon="4.76978">
        <ele>197</ele>
        <time>2017-11-22T11:06:50Z</time>
      </trkpt>
      <trkpt lat="45.95983" lon="4.76967">
        <ele>197</ele>
        <time>2017-11-22T11:06:51Z</time>
      </trkpt>
      <trkpt lat="45.95983" lon="4.76956">
        <ele>196</ele>
        <time>2017-11-22T11:06:52Z</time>
      </trkpt>
      <trkpt lat="45.9598" lon="4.76945">
        <ele>196</ele>
        <time>2017-11-22T11:06:53Z</time>
      </trkpt>
      <trkpt lat="45.95976" lon="4.76935">
        <ele>196</ele>
        <time>2017-11-22T11:06:54Z</time>
      </trkpt>
      <trkpt lat="45.95971" lon="4.76927">
        <ele>195</ele>
        <time>2017-11-22T11:06:55Z</time>
      </trkpt>
      <trkpt lat="45.95965" lon="4.7692">
        <ele>195</ele>
        <time>2017-11-22T11:06:56Z</time>
      </trkpt>
      <trkpt lat="45.95958" lon="4.76912">
        <ele>193</ele>
        <time>2017-11-22T11:06:57Z</time>
      </trkpt>
      <trkpt lat="45.95952" lon="4.76906">
        <ele>193</ele>
        <time>2017-11-22T11:06:58Z</time>
      </trkpt>
      <trkpt lat="45.95945" lon="4.76899">
        <ele>193</ele>
        <time>2017-11-22T11:06:59Z</time>
      </trkpt>
      <trkpt lat="45.95939" lon="4.76894">
        <ele>192</ele>
        <time>2017-11-22T11:07:00Z</time>
      </trkpt>
      <trkpt lat="45.95933" lon="4.76887">
        <ele>192</ele>
        <time>2017-11-22T11:07:01Z</time>
      </trkpt>
      <trkpt lat="45.95927" lon="4.7688">
        <ele>192</ele>
        <time>2017-11-22T11:07:02Z</time>
      </trkpt>
      <trkpt lat="45.95921" lon="4.76874">
        <ele>192</ele>
        <time>2017-11-22T11:07:03Z</time>
      </trkpt>
      <trkpt lat="45.95914" lon="4.76867">
        <ele>191</ele>
        <time>2017-11-22T11:07:04Z</time>
      </trkpt>
      <trkpt lat="45.95909" lon="4.7686">
        <ele>191</ele>
        <time>2017-11-22T11:07:05Z</time>
      </trkpt>
      <trkpt lat="45.95904" lon="4.76854">
        <ele>191</ele>
        <time>2017-11-22T11:07:06Z</time>
      </trkpt>
      <trkpt lat="45.95897" lon="4.76846">
        <ele>191</ele>
        <time>2017-11-22T11:07:07Z</time>
      </trkpt>
      <trkpt lat="45.95892" lon="4.76841">
        <ele>191</ele>
        <time>2017-11-22T11:07:08Z</time>
      </trkpt>
      <trkpt lat="45.95886" lon="4.76835">
        <ele>191</ele>
        <time>2017-11-22T11:07:09Z</time>
      </trkpt>
      <trkpt lat="45.95881" lon="4.7683">
        <ele>191</ele>
        <time>2017-11-22T11:07:10Z</time>
      </trkpt>
      <trkpt lat="45.95876" lon="4.76824">
        <ele>191</ele>
        <time>2017-11-22T11:07:11Z</time>
      </trkpt>
      <trkpt lat="45.95871" lon="4.76818">
        <ele>191</ele>
        <time>2017-11-22T11:07:12Z</time>
      </trkpt>
      <trkpt lat="45.95866" lon="4.76813">
        <ele>191</ele>
        <time>2017-11-22T11:07:13Z</time>
      </trkpt>
      <trkpt lat="45.95859" lon="4.76808">
        <ele>191</ele>
        <time>2017-11-22T11:07:14Z</time>
      </trkpt>
      <trkpt lat="45.95853" lon="4.76803">
        <ele>191</ele>
        <time>2017-11-22T11:07:15Z</time>
      </trkpt>
      <trkpt lat="45.95848" lon="4.76798">
        <ele>191</ele>
        <time>2017-11-22T11:07:16Z</time>
      </trkpt>
      <trkpt lat="45.95843" lon="4.76794">
        <ele>191</ele>
        <time>2017-11-22T11:07:17Z</time>
      </trkpt>
      <trkpt lat="45.95839" lon="4.76788">
        <ele>191</ele>
        <time>2017-11-22T11:07:18Z</time>
      </trkpt>
      <trkpt lat="45.95835" lon="4.76782">
        <ele>191</ele>
        <time>2017-11-22T11:07:19Z</time>
      </trkpt>
      <trkpt lat="45.95832" lon="4.76776">
        <ele>190</ele>
        <time>2017-11-22T11:07:20Z</time>
      </trkpt>
      <trkpt lat="45.95829" lon="4.76769">
        <ele>190</ele>
        <time>2017-11-22T11:07:21Z</time>
      </trkpt>
      <trkpt lat="45.95827" lon="4.76759">
        <ele>191</ele>
        <time>2017-11-22T11:07:22Z</time>
      </trkpt>
      <trkpt lat="45.95825" lon="4.76749">
        <ele>190</ele>
        <time>2017-11-22T11:07:23Z</time>
      </trkpt>
      <trkpt lat="45.95824" lon="4.76739">
        <ele>190</ele>
        <time>2017-11-22T11:07:24Z</time>
      </trkpt>
      <trkpt lat="45.95823" lon="4.76729">
        <ele>190</ele>
        <time>2017-11-22T11:07:25Z</time>
      </trkpt>
      <trkpt lat="45.95821" lon="4.7672">
        <ele>189</ele>
        <time>2017-11-22T11:07:26Z</time>
      </trkpt>
      <trkpt lat="45.9582" lon="4.76711">
        <ele>189</ele>
        <time>2017-11-22T11:07:27Z</time>
      </trkpt>
      <trkpt lat="45.95819" lon="4.76702">
        <ele>189</ele>
        <time>2017-11-22T11:07:28Z</time>
      </trkpt>
      <trkpt lat="45.95818" lon="4.76693">
        <ele>189</ele>
        <time>2017-11-22T11:07:29Z</time>
      </trkpt>
      <trkpt lat="45.95817" lon="4.76685">
        <ele>189</ele>
        <time>2017-11-22T11:07:30Z</time>
      </trkpt>
      <trkpt lat="45.95816" lon="4.76677">
        <ele>189</ele>
        <time>2017-11-22T11:07:31Z</time>
      </trkpt>
      <trkpt lat="45.95815" lon="4.76668">
        <ele>189</ele>
        <time>2017-11-22T11:07:32Z</time>
      </trkpt>
      <trkpt lat="45.95813" lon="4.76659">
        <ele>188</ele>
        <time>2017-11-22T11:07:33Z</time>
      </trkpt>
      <trkpt lat="45.95811" lon="4.7665">
        <ele>188</ele>
        <time>2017-11-22T11:07:34Z</time>
      </trkpt>
      <trkpt lat="45.9581" lon="4.76641">
        <ele>188</ele>
        <time>2017-11-22T11:07:35Z</time>
      </trkpt>
      <trkpt lat="45.95809" lon="4.76632">
        <ele>188</ele>
        <time>2017-11-22T11:07:36Z</time>
      </trkpt>
      <trkpt lat="45.95808" lon="4.76622">
        <ele>188</ele>
        <time>2017-11-22T11:07:37Z</time>
      </trkpt>
      <trkpt lat="45.95808" lon="4.76613">
        <ele>188</ele>
        <time>2017-11-22T11:07:38Z</time>
      </trkpt>
      <trkpt lat="45.95807" lon="4.76605">
        <ele>188</ele>
        <time>2017-11-22T11:07:39Z</time>
      </trkpt>
      <trkpt lat="45.95806" lon="4.76598">
        <ele>188</ele>
        <time>2017-11-22T11:07:40Z</time>
      </trkpt>
      <trkpt lat="45.95805" lon="4.76589">
        <ele>188</ele>
        <time>2017-11-22T11:07:41Z</time>
      </trkpt>
      <trkpt lat="45.95804" lon="4.76581">
        <ele>187</ele>
        <time>2017-11-22T11:07:42Z</time>
      </trkpt>
      <trkpt lat="45.95802" lon="4.76574">
        <ele>187</ele>
        <time>2017-11-22T11:07:43Z</time>
      </trkpt>
      <trkpt lat="45.95801" lon="4.76567">
        <ele>187</ele>
        <time>2017-11-22T11:07:44Z</time>
      </trkpt>
      <trkpt lat="45.95801" lon="4.7656">
        <ele>187</ele>
        <time>2017-11-22T11:07:45Z</time>
      </trkpt>
      <trkpt lat="45.958" lon="4.76552">
        <ele>187</ele>
        <time>2017-11-22T11:07:46Z</time>
      </trkpt>
      <trkpt lat="45.95799" lon="4.76545">
        <ele>187</ele>
        <time>2017-11-22T11:07:47Z</time>
      </trkpt>
      <trkpt lat="45.95799" lon="4.76539">
        <ele>187</ele>
        <time>2017-11-22T11:07:48Z</time>
      </trkpt>
      <trkpt lat="45.95797" lon="4.76531">
        <ele>187</ele>
        <time>2017-11-22T11:07:49Z</time>
      </trkpt>
      <trkpt lat="45.95796" lon="4.76524">
        <ele>187</ele>
        <time>2017-11-22T11:07:50Z</time>
      </trkpt>
      <trkpt lat="45.95795" lon="4.76516">
        <ele>187</ele>
        <time>2017-11-22T11:07:51Z</time>
      </trkpt>
      <trkpt lat="45.95794" lon="4.7651">
        <ele>187</ele>
        <time>2017-11-22T11:07:52Z</time>
      </trkpt>
      <trkpt lat="45.95793" lon="4.76502">
        <ele>187</ele>
        <time>2017-11-22T11:07:53Z</time>
      </trkpt>
      <trkpt lat="45.95791" lon="4.76493">
        <ele>186</ele>
        <time>2017-11-22T11:07:54Z</time>
      </trkpt>
      <trkpt lat="45.9579" lon="4.76485">
        <ele>186</ele>
        <time>2017-11-22T11:07:55Z</time>
      </trkpt>
      <trkpt lat="45.95789" lon="4.76477">
        <ele>186</ele>
        <time>2017-11-22T11:07:56Z</time>
      </trkpt>
      <trkpt lat="45.95788" lon="4.76469">
        <ele>186</ele>
        <time>2017-11-22T11:07:57Z</time>
      </trkpt>
      <trkpt lat="45.95787" lon="4.76461">
        <ele>186</ele>
        <time>2017-11-22T11:07:58Z</time>
      </trkpt>
      <trkpt lat="45.95786" lon="4.76452">
        <ele>186</ele>
        <time>2017-11-22T11:07:59Z</time>
      </trkpt>
      <trkpt lat="45.95784" lon="4.76446">
        <ele>186</ele>
        <time>2017-11-22T11:08:00Z</time>
      </trkpt>
      <trkpt lat="45.95783" lon="4.76439">
        <ele>186</ele>
        <time>2017-11-22T11:08:01Z</time>
      </trkpt>
      <trkpt lat="45.95782" lon="4.76431">
        <ele>186</ele>
        <time>2017-11-22T11:08:02Z</time>
      </trkpt>
      <trkpt lat="45.95781" lon="4.76423">
        <ele>186</ele>
        <time>2017-11-22T11:08:03Z</time>
      </trkpt>
      <trkpt lat="45.9578" lon="4.76417">
        <ele>186</ele>
        <time>2017-11-22T11:08:04Z</time>
      </trkpt>
      <trkpt lat="45.95779" lon="4.76408">
        <ele>186</ele>
        <time>2017-11-22T11:08:05Z</time>
      </trkpt>
      <trkpt lat="45.95779" lon="4.76402">
        <ele>186</ele>
        <time>2017-11-22T11:08:06Z</time>
      </trkpt>
      <trkpt lat="45.95778" lon="4.76395">
        <ele>186</ele>
        <time>2017-11-22T11:08:07Z</time>
      </trkpt>
      <trkpt lat="45.95777" lon="4.76388">
        <ele>186</ele>
        <time>2017-11-22T11:08:08Z</time>
      </trkpt>
      <trkpt lat="45.95776" lon="4.76381">
        <ele>186</ele>
        <time>2017-11-22T11:08:09Z</time>
      </trkpt>
      <trkpt lat="45.95776" lon="4.76374">
        <ele>186</ele>
        <time>2017-11-22T11:08:10Z</time>
      </trkpt>
      <trkpt lat="45.95775" lon="4.76367">
        <ele>186</ele>
        <time>2017-11-22T11:08:11Z</time>
      </trkpt>
      <trkpt lat="45.95775" lon="4.7636">
        <ele>186</ele>
        <time>2017-11-22T11:08:12Z</time>
      </trkpt>
      <trkpt lat="45.95774" lon="4.76353">
        <ele>186</ele>
        <time>2017-11-22T11:08:13Z</time>
      </trkpt>
      <trkpt lat="45.95774" lon="4.76347">
        <ele>186</ele>
        <time>2017-11-22T11:08:14Z</time>
      </trkpt>
      <trkpt lat="45.95774" lon="4.76339">
        <ele>186</ele>
        <time>2017-11-22T11:08:15Z</time>
      </trkpt>
      <trkpt lat="45.95773" lon="4.76332">
        <ele>185</ele>
        <time>2017-11-22T11:08:16Z</time>
      </trkpt>
      <trkpt lat="45.95773" lon="4.76323">
        <ele>185</ele>
        <time>2017-11-22T11:08:17Z</time>
      </trkpt>
      <trkpt lat="45.95773" lon="4.76313">
        <ele>186</ele>
        <time>2017-11-22T11:08:18Z</time>
      </trkpt>
      <trkpt lat="45.95773" lon="4.76304">
        <ele>186</ele>
        <time>2017-11-22T11:08:19Z</time>
      </trkpt>
      <trkpt lat="45.95772" lon="4.76296">
        <ele>186</ele>
        <time>2017-11-22T11:08:20Z</time>
      </trkpt>
      <trkpt lat="45.95771" lon="4.76288">
        <ele>186</ele>
        <time>2017-11-22T11:08:21Z</time>
      </trkpt>
      <trkpt lat="45.95771" lon="4.76278">
        <ele>186</ele>
        <time>2017-11-22T11:08:22Z</time>
      </trkpt>
      <trkpt lat="45.95771" lon="4.76269">
        <ele>186</ele>
        <time>2017-11-22T11:08:23Z</time>
      </trkpt>
      <trkpt lat="45.95769" lon="4.7626">
        <ele>185</ele>
        <time>2017-11-22T11:08:24Z</time>
      </trkpt>
      <trkpt lat="45.95769" lon="4.76251">
        <ele>185</ele>
        <time>2017-11-22T11:08:25Z</time>
      </trkpt>
      <trkpt lat="45.9577" lon="4.76243">
        <ele>186</ele>
        <time>2017-11-22T11:08:26Z</time>
      </trkpt>
      <trkpt lat="45.95769" lon="4.76235">
        <ele>186</ele>
        <time>2017-11-22T11:08:27Z</time>
      </trkpt>
      <trkpt lat="45.95769" lon="4.76226">
        <ele>186</ele>
        <time>2017-11-22T11:08:28Z</time>
      </trkpt>
      <trkpt lat="45.95768" lon="4.76219">
        <ele>186</ele>
        <time>2017-11-22T11:08:29Z</time>
      </trkpt>
      <trkpt lat="45.95768" lon="4.7621">
        <ele>186</ele>
        <time>2017-11-22T11:08:30Z</time>
      </trkpt>
      <trkpt lat="45.95767" lon="4.76202">
        <ele>186</ele>
        <time>2017-11-22T11:08:31Z</time>
      </trkpt>
      <trkpt lat="45.95767" lon="4.76194">
        <ele>186</ele>
        <time>2017-11-22T11:08:32Z</time>
      </trkpt>
      <trkpt lat="45.95767" lon="4.76185">
        <ele>186</ele>
        <time>2017-11-22T11:08:33Z</time>
      </trkpt>
      <trkpt lat="45.95766" lon="4.76178">
        <ele>186</ele>
        <time>2017-11-22T11:08:34Z</time>
      </trkpt>
      <trkpt lat="45.95766" lon="4.76169">
        <ele>185</ele>
        <time>2017-11-22T11:08:35Z</time>
      </trkpt>
      <trkpt lat="45.95765" lon="4.7616">
        <ele>186</ele>
        <time>2017-11-22T11:08:36Z</time>
      </trkpt>
      <trkpt lat="45.95766" lon="4.76153">
        <ele>186</ele>
        <time>2017-11-22T11:08:37Z</time>
      </trkpt>
      <trkpt lat="45.95765" lon="4.76146">
        <ele>186</ele>
        <time>2017-11-22T11:08:38Z</time>
      </trkpt>
      <trkpt lat="45.95765" lon="4.76139">
        <ele>186</ele>
        <time>2017-11-22T11:08:39Z</time>
      </trkpt>
      <trkpt lat="45.95764" lon="4.76133">
        <ele>186</ele>
        <time>2017-11-22T11:08:40Z</time>
      </trkpt>
      <trkpt lat="45.95763" lon="4.76125">
        <ele>186</ele>
        <time>2017-11-22T11:08:41Z</time>
      </trkpt>
      <trkpt lat="45.95762" lon="4.76118">
        <ele>186</ele>
        <time>2017-11-22T11:08:42Z</time>
      </trkpt>
      <trkpt lat="45.95762" lon="4.76112">
        <ele>186</ele>
        <time>2017-11-22T11:08:43Z</time>
      </trkpt>
      <trkpt lat="45.95761" lon="4.76106">
        <ele>186</ele>
        <time>2017-11-22T11:08:44Z</time>
      </trkpt>
      <trkpt lat="45.9576" lon="4.76098">
        <ele>186</ele>
        <time>2017-11-22T11:08:45Z</time>
      </trkpt>
      <trkpt lat="45.95758" lon="4.76091">
        <ele>186</ele>
        <time>2017-11-22T11:08:46Z</time>
      </trkpt>
      <trkpt lat="45.95756" lon="4.76085">
        <ele>185</ele>
        <time>2017-11-22T11:08:47Z</time>
      </trkpt>
      <trkpt lat="45.95754" lon="4.76079">
        <ele>185</ele>
        <time>2017-11-22T11:08:48Z</time>
      </trkpt>
      <trkpt lat="45.95751" lon="4.76071">
        <ele>186</ele>
        <time>2017-11-22T11:08:49Z</time>
      </trkpt>
      <trkpt lat="45.95748" lon="4.76064">
        <ele>185</ele>
        <time>2017-11-22T11:08:50Z</time>
      </trkpt>
      <trkpt lat="45.95743" lon="4.76056">
        <ele>184</ele>
        <time>2017-11-22T11:08:51Z</time>
      </trkpt>
      <trkpt lat="45.9574" lon="4.76048">
        <ele>184</ele>
        <time>2017-11-22T11:08:52Z</time>
      </trkpt>
      <trkpt lat="45.95737" lon="4.7604">
        <ele>184</ele>
        <time>2017-11-22T11:08:53Z</time>
      </trkpt>
      <trkpt lat="45.95734" lon="4.76033">
        <ele>185</ele>
        <time>2017-11-22T11:08:54Z</time>
      </trkpt>
      <trkpt lat="45.95731" lon="4.76026">
        <ele>185</ele>
        <time>2017-11-22T11:08:55Z</time>
      </trkpt>
      <trkpt lat="45.95728" lon="4.76019">
        <ele>185</ele>
        <time>2017-11-22T11:08:56Z</time>
      </trkpt>
      <trkpt lat="45.95724" lon="4.76013">
        <ele>185</ele>
        <time>2017-11-22T11:08:57Z</time>
      </trkpt>
      <trkpt lat="45.95721" lon="4.76006">
        <ele>185</ele>
        <time>2017-11-22T11:08:58Z</time>
      </trkpt>
      <trkpt lat="45.95718" lon="4.75999">
        <ele>185</ele>
        <time>2017-11-22T11:08:59Z</time>
      </trkpt>
      <trkpt lat="45.95715" lon="4.75993">
        <ele>185</ele>
        <time>2017-11-22T11:09:00Z</time>
      </trkpt>
      <trkpt lat="45.95712" lon="4.75988">
        <ele>185</ele>
        <time>2017-11-22T11:09:01Z</time>
      </trkpt>
      <trkpt lat="45.95709" lon="4.75982">
        <ele>185</ele>
        <time>2017-11-22T11:09:02Z</time>
      </trkpt>
      <trkpt lat="45.95706" lon="4.75977">
        <ele>185</ele>
        <time>2017-11-22T11:09:03Z</time>
      </trkpt>
      <trkpt lat="45.95702" lon="4.7597">
        <ele>185</ele>
        <time>2017-11-22T11:09:04Z</time>
      </trkpt>
      <trkpt lat="45.95699" lon="4.75963">
        <ele>185</ele>
        <time>2017-11-22T11:09:05Z</time>
      </trkpt>
      <trkpt lat="45.95696" lon="4.75956">
        <ele>185</ele>
        <time>2017-11-22T11:09:06Z</time>
      </trkpt>
      <trkpt lat="45.95694" lon="4.75949">
        <ele>185</ele>
        <time>2017-11-22T11:09:07Z</time>
      </trkpt>
      <trkpt lat="45.9569" lon="4.75942">
        <ele>185</ele>
        <time>2017-11-22T11:09:08Z</time>
      </trkpt>
      <trkpt lat="45.95687" lon="4.75935">
        <ele>185</ele>
        <time>2017-11-22T11:09:09Z</time>
      </trkpt>
      <trkpt lat="45.95683" lon="4.75928">
        <ele>185</ele>
        <time>2017-11-22T11:09:10Z</time>
      </trkpt>
      <trkpt lat="45.9568" lon="4.7592">
        <ele>185</ele>
        <time>2017-11-22T11:09:11Z</time>
      </trkpt>
      <trkpt lat="45.95677" lon="4.75914">
        <ele>185</ele>
        <time>2017-11-22T11:09:12Z</time>
      </trkpt>
      <trkpt lat="45.95674" lon="4.75907">
        <ele>185</ele>
        <time>2017-11-22T11:09:13Z</time>
      </trkpt>
      <trkpt lat="45.95671" lon="4.759">
        <ele>185</ele>
        <time>2017-11-22T11:09:14Z</time>
      </trkpt>
      <trkpt lat="45.95668" lon="4.75892">
        <ele>186</ele>
        <time>2017-11-22T11:09:15Z</time>
      </trkpt>
      <trkpt lat="45.95666" lon="4.75884">
        <ele>184</ele>
        <time>2017-11-22T11:09:16Z</time>
      </trkpt>
      <trkpt lat="45.95663" lon="4.75876">
        <ele>184</ele>
        <time>2017-11-22T11:09:17Z</time>
      </trkpt>
      <trkpt lat="45.95661" lon="4.75869">
        <ele>184</ele>
        <time>2017-11-22T11:09:18Z</time>
      </trkpt>
      <trkpt lat="45.95659" lon="4.75861">
        <ele>184</ele>
        <time>2017-11-22T11:09:19Z</time>
      </trkpt>
      <trkpt lat="45.95656" lon="4.75854">
        <ele>184</ele>
        <time>2017-11-22T11:09:20Z</time>
      </trkpt>
      <trkpt lat="45.95653" lon="4.75846">
        <ele>185</ele>
        <time>2017-11-22T11:09:21Z</time>
      </trkpt>
      <trkpt lat="45.95651" lon="4.75838">
        <ele>185</ele>
        <time>2017-11-22T11:09:22Z</time>
      </trkpt>
      <trkpt lat="45.95649" lon="4.7583">
        <ele>185</ele>
        <time>2017-11-22T11:09:23Z</time>
      </trkpt>
      <trkpt lat="45.95648" lon="4.75823">
        <ele>185</ele>
        <time>2017-11-22T11:09:24Z</time>
      </trkpt>
      <trkpt lat="45.95646" lon="4.75815">
        <ele>185</ele>
        <time>2017-11-22T11:09:25Z</time>
      </trkpt>
      <trkpt lat="45.95645" lon="4.75806">
        <ele>185</ele>
        <time>2017-11-22T11:09:26Z</time>
      </trkpt>
      <trkpt lat="45.95643" lon="4.75798">
        <ele>185</ele>
        <time>2017-11-22T11:09:27Z</time>
      </trkpt>
      <trkpt lat="45.95643" lon="4.7579">
        <ele>185</ele>
        <time>2017-11-22T11:09:28Z</time>
      </trkpt>
      <trkpt lat="45.95643" lon="4.75781">
        <ele>186</ele>
        <time>2017-11-22T11:09:29Z</time>
      </trkpt>
      <trkpt lat="45.95642" lon="4.75774">
        <ele>186</ele>
        <time>2017-11-22T11:09:30Z</time>
      </trkpt>
      <trkpt lat="45.95641" lon="4.75765">
        <ele>186</ele>
        <time>2017-11-22T11:09:31Z</time>
      </trkpt>
      <trkpt lat="45.9564" lon="4.75757">
        <ele>186</ele>
        <time>2017-11-22T11:09:32Z</time>
      </trkpt>
      <trkpt lat="45.95639" lon="4.75749">
        <ele>187</ele>
        <time>2017-11-22T11:09:33Z</time>
      </trkpt>
      <trkpt lat="45.95638" lon="4.75742">
        <ele>187</ele>
        <time>2017-11-22T11:09:34Z</time>
      </trkpt>
      <trkpt lat="45.95638" lon="4.75732">
        <ele>187</ele>
        <time>2017-11-22T11:09:35Z</time>
      </trkpt>
      <trkpt lat="45.95637" lon="4.75724">
        <ele>187</ele>
        <time>2017-11-22T11:09:36Z</time>
      </trkpt>
      <trkpt lat="45.95636" lon="4.75716">
        <ele>187</ele>
        <time>2017-11-22T11:09:37Z</time>
      </trkpt>
      <trkpt lat="45.95636" lon="4.75708">
        <ele>187</ele>
        <time>2017-11-22T11:09:38Z</time>
      </trkpt>
      <trkpt lat="45.95635" lon="4.757">
        <ele>187</ele>
        <time>2017-11-22T11:09:39Z</time>
      </trkpt>
      <trkpt lat="45.95632" lon="4.75691">
        <ele>187</ele>
        <time>2017-11-22T11:09:40Z</time>
      </trkpt>
      <trkpt lat="45.95631" lon="4.75683">
        <ele>187</ele>
        <time>2017-11-22T11:09:41Z</time>
      </trkpt>
      <trkpt lat="45.95629" lon="4.75675">
        <ele>187</ele>
        <time>2017-11-22T11:09:42Z</time>
      </trkpt>
      <trkpt lat="45.95628" lon="4.75666">
        <ele>188</ele>
        <time>2017-11-22T11:09:43Z</time>
      </trkpt>
      <trkpt lat="45.95628" lon="4.75659">
        <ele>188</ele>
        <time>2017-11-22T11:09:44Z</time>
      </trkpt>
      <trkpt lat="45.95626" lon="4.75651">
        <ele>188</ele>
        <time>2017-11-22T11:09:45Z</time>
      </trkpt>
      <trkpt lat="45.95624" lon="4.75643">
        <ele>188</ele>
        <time>2017-11-22T11:09:46Z</time>
      </trkpt>
      <trkpt lat="45.95622" lon="4.75637">
        <ele>188</ele>
        <time>2017-11-22T11:09:47Z</time>
      </trkpt>
      <trkpt lat="45.9562" lon="4.7563">
        <ele>188</ele>
        <time>2017-11-22T11:09:48Z</time>
      </trkpt>
      <trkpt lat="45.95617" lon="4.75624">
        <ele>188</ele>
        <time>2017-11-22T11:09:49Z</time>
      </trkpt>
      <trkpt lat="45.95616" lon="4.75617">
        <ele>188</ele>
        <time>2017-11-22T11:09:50Z</time>
      </trkpt>
      <trkpt lat="45.95613" lon="4.75611">
        <ele>188</ele>
        <time>2017-11-22T11:09:51Z</time>
      </trkpt>
      <trkpt lat="45.95611" lon="4.75604">
        <ele>188</ele>
        <time>2017-11-22T11:09:52Z</time>
      </trkpt>
      <trkpt lat="45.95608" lon="4.75598">
        <ele>187</ele>
        <time>2017-11-22T11:09:53Z</time>
      </trkpt>
      <trkpt lat="45.95605" lon="4.75591">
        <ele>187</ele>
        <time>2017-11-22T11:09:54Z</time>
      </trkpt>
      <trkpt lat="45.95602" lon="4.75584">
        <ele>187</ele>
        <time>2017-11-22T11:09:55Z</time>
      </trkpt>
      <trkpt lat="45.95599" lon="4.75578">
        <ele>188</ele>
        <time>2017-11-22T11:09:56Z</time>
      </trkpt>
      <trkpt lat="45.95596" lon="4.7557">
        <ele>188</ele>
        <time>2017-11-22T11:09:57Z</time>
      </trkpt>
      <trkpt lat="45.95593" lon="4.75564">
        <ele>188</ele>
        <time>2017-11-22T11:09:58Z</time>
      </trkpt>
      <trkpt lat="45.9559" lon="4.75558">
        <ele>188</ele>
        <time>2017-11-22T11:09:59Z</time>
      </trkpt>
      <trkpt lat="45.95585" lon="4.75552">
        <ele>188</ele>
        <time>2017-11-22T11:10:00Z</time>
      </trkpt>
      <trkpt lat="45.9558" lon="4.75546">
        <ele>186</ele>
        <time>2017-11-22T11:10:01Z</time>
      </trkpt>
      <trkpt lat="45.95576" lon="4.75541">
        <ele>186</ele>
        <time>2017-11-22T11:10:02Z</time>
      </trkpt>
      <trkpt lat="45.95572" lon="4.75537">
        <ele>186</ele>
        <time>2017-11-22T11:10:03Z</time>
      </trkpt>
      <trkpt lat="45.95568" lon="4.75532">
        <ele>186</ele>
        <time>2017-11-22T11:10:04Z</time>
      </trkpt>
      <trkpt lat="45.95564" lon="4.75527">
        <ele>186</ele>
        <time>2017-11-22T11:10:05Z</time>
      </trkpt>
      <trkpt lat="45.95559" lon="4.75523">
        <ele>186</ele>
        <time>2017-11-22T11:10:06Z</time>
      </trkpt>
      <trkpt lat="45.95555" lon="4.75517">
        <ele>186</ele>
        <time>2017-11-22T11:10:07Z</time>
      </trkpt>
      <trkpt lat="45.95552" lon="4.75512">
        <ele>186</ele>
        <time>2017-11-22T11:10:08Z</time>
      </trkpt>
      <trkpt lat="45.95548" lon="4.75508">
        <ele>186</ele>
        <time>2017-11-22T11:10:09Z</time>
      </trkpt>
      <trkpt lat="45.95543" lon="4.75499">
        <ele>187</ele>
        <time>2017-11-22T11:10:11Z</time>
      </trkpt>
      <trkpt lat="45.95542" lon="4.75492">
        <ele>187</ele>
        <time>2017-11-22T11:10:12Z</time>
      </trkpt>
      <trkpt lat="45.95541" lon="4.75484">
        <ele>187</ele>
        <time>2017-11-22T11:10:13Z</time>
      </trkpt>
      <trkpt lat="45.95541" lon="4.75477">
        <ele>187</ele>
        <time>2017-11-22T11:10:14Z</time>
      </trkpt>
      <trkpt lat="45.9554" lon="4.7547">
        <ele>187</ele>
        <time>2017-11-22T11:10:15Z</time>
      </trkpt>
      <trkpt lat="45.95539" lon="4.75463">
        <ele>187</ele>
        <time>2017-11-22T11:10:16Z</time>
      </trkpt>
      <trkpt lat="45.95537" lon="4.75457">
        <ele>187</ele>
        <time>2017-11-22T11:10:17Z</time>
      </trkpt>
      <trkpt lat="45.95534" lon="4.75452">
        <ele>187</ele>
        <time>2017-11-22T11:10:18Z</time>
      </trkpt>
      <trkpt lat="45.9553" lon="4.75446">
        <ele>187</ele>
        <time>2017-11-22T11:10:19Z</time>
      </trkpt>
      <trkpt lat="45.95527" lon="4.7544">
        <ele>187</ele>
        <time>2017-11-22T11:10:20Z</time>
      </trkpt>
      <trkpt lat="45.95523" lon="4.75435">
        <ele>187</ele>
        <time>2017-11-22T11:10:21Z</time>
      </trkpt>
      <trkpt lat="45.9552" lon="4.7543">
        <ele>187</ele>
        <time>2017-11-22T11:10:22Z</time>
      </trkpt>
      <trkpt lat="45.95517" lon="4.75424">
        <ele>186</ele>
        <time>2017-11-22T11:10:23Z</time>
      </trkpt>
      <trkpt lat="45.95514" lon="4.75416">
        <ele>187</ele>
        <time>2017-11-22T11:10:24Z</time>
      </trkpt>
      <trkpt lat="45.95512" lon="4.75408">
        <ele>187</ele>
        <time>2017-11-22T11:10:25Z</time>
      </trkpt>
      <trkpt lat="45.9551" lon="4.75402">
        <ele>187</ele>
        <time>2017-11-22T11:10:26Z</time>
      </trkpt>
      <trkpt lat="45.95508" lon="4.75396">
        <ele>188</ele>
        <time>2017-11-22T11:10:27Z</time>
      </trkpt>
      <trkpt lat="45.95506" lon="4.75389">
        <ele>188</ele>
        <time>2017-11-22T11:10:28Z</time>
      </trkpt>
      <trkpt lat="45.95502" lon="4.75383">
        <ele>188</ele>
        <time>2017-11-22T11:10:29Z</time>
      </trkpt>
      <trkpt lat="45.955" lon="4.75378">
        <ele>185</ele>
        <time>2017-11-22T11:10:30Z</time>
      </trkpt>
      <trkpt lat="45.95497" lon="4.75371">
        <ele>186</ele>
        <time>2017-11-22T11:10:31Z</time>
      </trkpt>
      <trkpt lat="45.95493" lon="4.75365">
        <ele>186</ele>
        <time>2017-11-22T11:10:32Z</time>
      </trkpt>
      <trkpt lat="45.9549" lon="4.75359">
        <ele>186</ele>
        <time>2017-11-22T11:10:33Z</time>
      </trkpt>
      <trkpt lat="45.95487" lon="4.75352">
        <ele>186</ele>
        <time>2017-11-22T11:10:34Z</time>
      </trkpt>
      <trkpt lat="45.95484" lon="4.75345">
        <ele>186</ele>
        <time>2017-11-22T11:10:35Z</time>
      </trkpt>
      <trkpt lat="45.95481" lon="4.7534">
        <ele>186</ele>
        <time>2017-11-22T11:10:36Z</time>
      </trkpt>
      <trkpt lat="45.95478" lon="4.75333">
        <ele>186</ele>
        <time>2017-11-22T11:10:37Z</time>
      </trkpt>
      <trkpt lat="45.95475" lon="4.75327">
        <ele>188</ele>
        <time>2017-11-22T11:10:38Z</time>
      </trkpt>
      <trkpt lat="45.95472" lon="4.75321">
        <ele>188</ele>
        <time>2017-11-22T11:10:39Z</time>
      </trkpt>
      <trkpt lat="45.95469" lon="4.75315">
        <ele>188</ele>
        <time>2017-11-22T11:10:40Z</time>
      </trkpt>
      <trkpt lat="45.95467" lon="4.75309">
        <ele>188</ele>
        <time>2017-11-22T11:10:41Z</time>
      </trkpt>
      <trkpt lat="45.95463" lon="4.75303">
        <ele>188</ele>
        <time>2017-11-22T11:10:42Z</time>
      </trkpt>
      <trkpt lat="45.95457" lon="4.75294">
        <ele>188</ele>
        <time>2017-11-22T11:10:44Z</time>
      </trkpt>
      <trkpt lat="45.95454" lon="4.75287">
        <ele>189</ele>
        <time>2017-11-22T11:10:45Z</time>
      </trkpt>
      <trkpt lat="45.95451" lon="4.75281">
        <ele>189</ele>
        <time>2017-11-22T11:10:46Z</time>
      </trkpt>
      <trkpt lat="45.95448" lon="4.75275">
        <ele>189</ele>
        <time>2017-11-22T11:10:47Z</time>
      </trkpt>
      <trkpt lat="45.95444" lon="4.7527">
        <ele>189</ele>
        <time>2017-11-22T11:10:48Z</time>
      </trkpt>
      <trkpt lat="45.95441" lon="4.75265">
        <ele>189</ele>
        <time>2017-11-22T11:10:49Z</time>
      </trkpt>
      <trkpt lat="45.95438" lon="4.75259">
        <ele>189</ele>
        <time>2017-11-22T11:10:50Z</time>
      </trkpt>
      <trkpt lat="45.95435" lon="4.75253">
        <ele>189</ele>
        <time>2017-11-22T11:10:51Z</time>
      </trkpt>
      <trkpt lat="45.95431" lon="4.75247">
        <ele>190</ele>
        <time>2017-11-22T11:10:52Z</time>
      </trkpt>
      <trkpt lat="45.95428" lon="4.75242">
        <ele>190</ele>
        <time>2017-11-22T11:10:53Z</time>
      </trkpt>
      <trkpt lat="45.95425" lon="4.75237">
        <ele>190</ele>
        <time>2017-11-22T11:10:54Z</time>
      </trkpt>
      <trkpt lat="45.95422" lon="4.75231">
        <ele>190</ele>
        <time>2017-11-22T11:10:55Z</time>
      </trkpt>
      <trkpt lat="45.95419" lon="4.75225">
        <ele>191</ele>
        <time>2017-11-22T11:10:56Z</time>
      </trkpt>
      <trkpt lat="45.95415" lon="4.75218">
        <ele>189</ele>
        <time>2017-11-22T11:10:57Z</time>
      </trkpt>
      <trkpt lat="45.95413" lon="4.75213">
        <ele>189</ele>
        <time>2017-11-22T11:10:58Z</time>
      </trkpt>
      <trkpt lat="45.95409" lon="4.75207">
        <ele>189</ele>
        <time>2017-11-22T11:10:59Z</time>
      </trkpt>
      <trkpt lat="45.95406" lon="4.752">
        <ele>189</ele>
        <time>2017-11-22T11:11:00Z</time>
      </trkpt>
      <trkpt lat="45.95402" lon="4.75193">
        <ele>189</ele>
        <time>2017-11-22T11:11:01Z</time>
      </trkpt>
      <trkpt lat="45.95399" lon="4.75187">
        <ele>189</ele>
        <time>2017-11-22T11:11:02Z</time>
      </trkpt>
      <trkpt lat="45.95395" lon="4.75181">
        <ele>189</ele>
        <time>2017-11-22T11:11:03Z</time>
      </trkpt>
      <trkpt lat="45.95393" lon="4.75174">
        <ele>189</ele>
        <time>2017-11-22T11:11:04Z</time>
      </trkpt>
      <trkpt lat="45.9539" lon="4.75169">
        <ele>189</ele>
        <time>2017-11-22T11:11:05Z</time>
      </trkpt>
      <trkpt lat="45.95386" lon="4.75164">
        <ele>191</ele>
        <time>2017-11-22T11:11:06Z</time>
      </trkpt>
      <trkpt lat="45.95383" lon="4.75159">
        <ele>191</ele>
        <time>2017-11-22T11:11:07Z</time>
      </trkpt>
      <trkpt lat="45.95379" lon="4.75152">
        <ele>191</ele>
        <time>2017-11-22T11:11:08Z</time>
      </trkpt>
      <trkpt lat="45.95375" lon="4.75146">
        <ele>191</ele>
        <time>2017-11-22T11:11:09Z</time>
      </trkpt>
      <trkpt lat="45.95371" lon="4.75138">
        <ele>191</ele>
        <time>2017-11-22T11:11:10Z</time>
      </trkpt>
      <trkpt lat="45.95369" lon="4.75132">
        <ele>191</ele>
        <time>2017-11-22T11:11:11Z</time>
      </trkpt>
      <trkpt lat="45.95365" lon="4.75126">
        <ele>191</ele>
        <time>2017-11-22T11:11:12Z</time>
      </trkpt>
      <trkpt lat="45.95361" lon="4.75121">
        <ele>191</ele>
        <time>2017-11-22T11:11:13Z</time>
      </trkpt>
      <trkpt lat="45.95358" lon="4.75116">
        <ele>192</ele>
        <time>2017-11-22T11:11:14Z</time>
      </trkpt>
      <trkpt lat="45.95354" lon="4.75111">
        <ele>192</ele>
        <time>2017-11-22T11:11:15Z</time>
      </trkpt>
      <trkpt lat="45.9535" lon="4.75106">
        <ele>192</ele>
        <time>2017-11-22T11:11:16Z</time>
      </trkpt>
      <trkpt lat="45.95346" lon="4.75101">
        <ele>192</ele>
        <time>2017-11-22T11:11:17Z</time>
      </trkpt>
      <trkpt lat="45.95342" lon="4.75095">
        <ele>192</ele>
        <time>2017-11-22T11:11:18Z</time>
      </trkpt>
      <trkpt lat="45.95338" lon="4.75089">
        <ele>193</ele>
        <time>2017-11-22T11:11:19Z</time>
      </trkpt>
      <trkpt lat="45.95334" lon="4.75084">
        <ele>193</ele>
        <time>2017-11-22T11:11:20Z</time>
      </trkpt>
      <trkpt lat="45.9533" lon="4.75077">
        <ele>193</ele>
        <time>2017-11-22T11:11:21Z</time>
      </trkpt>
      <trkpt lat="45.95326" lon="4.75071">
        <ele>192</ele>
        <time>2017-11-22T11:11:22Z</time>
      </trkpt>
      <trkpt lat="45.95322" lon="4.75064">
        <ele>192</ele>
        <time>2017-11-22T11:11:23Z</time>
      </trkpt>
      <trkpt lat="45.95319" lon="4.75059">
        <ele>192</ele>
        <time>2017-11-22T11:11:24Z</time>
      </trkpt>
      <trkpt lat="45.95314" lon="4.75053">
        <ele>192</ele>
        <time>2017-11-22T11:11:25Z</time>
      </trkpt>
      <trkpt lat="45.9531" lon="4.75046">
        <ele>192</ele>
        <time>2017-11-22T11:11:26Z</time>
      </trkpt>
      <trkpt lat="45.95307" lon="4.75041">
        <ele>192</ele>
        <time>2017-11-22T11:11:27Z</time>
      </trkpt>
      <trkpt lat="45.95303" lon="4.75034">
        <ele>192</ele>
        <time>2017-11-22T11:11:28Z</time>
      </trkpt>
      <trkpt lat="45.953" lon="4.75029">
        <ele>192</ele>
        <time>2017-11-22T11:11:29Z</time>
      </trkpt>
      <trkpt lat="45.95296" lon="4.75024">
        <ele>191</ele>
        <time>2017-11-22T11:11:30Z</time>
      </trkpt>
      <trkpt lat="45.95292" lon="4.75019">
        <ele>191</ele>
        <time>2017-11-22T11:11:31Z</time>
      </trkpt>
      <trkpt lat="45.95289" lon="4.75014">
        <ele>191</ele>
        <time>2017-11-22T11:11:32Z</time>
      </trkpt>
      <trkpt lat="45.95286" lon="4.75008">
        <ele>191</ele>
        <time>2017-11-22T11:11:33Z</time>
      </trkpt>
      <trkpt lat="45.95282" lon="4.75002">
        <ele>191</ele>
        <time>2017-11-22T11:11:34Z</time>
      </trkpt>
      <trkpt lat="45.95279" lon="4.74995">
        <ele>192</ele>
        <time>2017-11-22T11:11:35Z</time>
      </trkpt>
      <trkpt lat="45.95274" lon="4.74989">
        <ele>192</ele>
        <time>2017-11-22T11:11:36Z</time>
      </trkpt>
      <trkpt lat="45.95271" lon="4.74984">
        <ele>192</ele>
        <time>2017-11-22T11:11:37Z</time>
      </trkpt>
      <trkpt lat="45.95267" lon="4.74977">
        <ele>192</ele>
        <time>2017-11-22T11:11:38Z</time>
      </trkpt>
      <trkpt lat="45.95263" lon="4.74971">
        <ele>192</ele>
        <time>2017-11-22T11:11:39Z</time>
      </trkpt>
      <trkpt lat="45.95259" lon="4.74966">
        <ele>192</ele>
        <time>2017-11-22T11:11:40Z</time>
      </trkpt>
      <trkpt lat="45.95256" lon="4.7496">
        <ele>192</ele>
        <time>2017-11-22T11:11:41Z</time>
      </trkpt>
      <trkpt lat="45.95252" lon="4.74955">
        <ele>192</ele>
        <time>2017-11-22T11:11:42Z</time>
      </trkpt>
      <trkpt lat="45.95249" lon="4.74948">
        <ele>192</ele>
        <time>2017-11-22T11:11:43Z</time>
      </trkpt>
      <trkpt lat="45.95245" lon="4.74941">
        <ele>192</ele>
        <time>2017-11-22T11:11:44Z</time>
      </trkpt>
      <trkpt lat="45.9524" lon="4.74936">
        <ele>192</ele>
        <time>2017-11-22T11:11:45Z</time>
      </trkpt>
      <trkpt lat="45.95236" lon="4.74931">
        <ele>192</ele>
        <time>2017-11-22T11:11:46Z</time>
      </trkpt>
      <trkpt lat="45.95233" lon="4.74925">
        <ele>192</ele>
        <time>2017-11-22T11:11:47Z</time>
      </trkpt>
      <trkpt lat="45.95229" lon="4.74918">
        <ele>192</ele>
        <time>2017-11-22T11:11:48Z</time>
      </trkpt>
      <trkpt lat="45.95225" lon="4.74913">
        <ele>193</ele>
        <time>2017-11-22T11:11:49Z</time>
      </trkpt>
      <trkpt lat="45.95221" lon="4.74905">
        <ele>193</ele>
        <time>2017-11-22T11:11:50Z</time>
      </trkpt>
      <trkpt lat="45.95217" lon="4.74899">
        <ele>193</ele>
        <time>2017-11-22T11:11:51Z</time>
      </trkpt>
      <trkpt lat="45.95213" lon="4.74892">
        <ele>193</ele>
        <time>2017-11-22T11:11:52Z</time>
      </trkpt>
      <trkpt lat="45.9521" lon="4.74885">
        <ele>193</ele>
        <time>2017-11-22T11:11:53Z</time>
      </trkpt>
      <trkpt lat="45.95206" lon="4.74878">
        <ele>194</ele>
        <time>2017-11-22T11:11:54Z</time>
      </trkpt>
      <trkpt lat="45.95202" lon="4.74872">
        <ele>194</ele>
        <time>2017-11-22T11:11:55Z</time>
      </trkpt>
      <trkpt lat="45.95199" lon="4.74866">
        <ele>194</ele>
        <time>2017-11-22T11:11:56Z</time>
      </trkpt>
      <trkpt lat="45.95196" lon="4.74861">
        <ele>194</ele>
        <time>2017-11-22T11:11:57Z</time>
      </trkpt>
      <trkpt lat="45.95191" lon="4.74855">
        <ele>194</ele>
        <time>2017-11-22T11:11:58Z</time>
      </trkpt>
      <trkpt lat="45.95187" lon="4.74849">
        <ele>194</ele>
        <time>2017-11-22T11:11:59Z</time>
      </trkpt>
      <trkpt lat="45.95183" lon="4.74842">
        <ele>194</ele>
        <time>2017-11-22T11:12:00Z</time>
      </trkpt>
      <trkpt lat="45.95179" lon="4.74836">
        <ele>194</ele>
        <time>2017-11-22T11:12:01Z</time>
      </trkpt>
      <trkpt lat="45.95174" lon="4.7483">
        <ele>194</ele>
        <time>2017-11-22T11:12:02Z</time>
      </trkpt>
      <trkpt lat="45.9517" lon="4.74823">
        <ele>194</ele>
        <time>2017-11-22T11:12:03Z</time>
      </trkpt>
      <trkpt lat="45.95166" lon="4.74816">
        <ele>194</ele>
        <time>2017-11-22T11:12:04Z</time>
      </trkpt>
      <trkpt lat="45.95162" lon="4.7481">
        <ele>194</ele>
        <time>2017-11-22T11:12:05Z</time>
      </trkpt>
      <trkpt lat="45.95158" lon="4.74804">
        <ele>194</ele>
        <time>2017-11-22T11:12:06Z</time>
      </trkpt>
      <trkpt lat="45.95154" lon="4.74797">
        <ele>194</ele>
        <time>2017-11-22T11:12:07Z</time>
      </trkpt>
      <trkpt lat="45.9515" lon="4.74791">
        <ele>194</ele>
        <time>2017-11-22T11:12:08Z</time>
      </trkpt>
      <trkpt lat="45.95146" lon="4.74785">
        <ele>194</ele>
        <time>2017-11-22T11:12:09Z</time>
      </trkpt>
      <trkpt lat="45.95142" lon="4.74779">
        <ele>194</ele>
        <time>2017-11-22T11:12:10Z</time>
      </trkpt>
      <trkpt lat="45.95137" lon="4.74773">
        <ele>194</ele>
        <time>2017-11-22T11:12:11Z</time>
      </trkpt>
      <trkpt lat="45.95133" lon="4.74766">
        <ele>194</ele>
        <time>2017-11-22T11:12:12Z</time>
      </trkpt>
      <trkpt lat="45.95129" lon="4.74759">
        <ele>194</ele>
        <time>2017-11-22T11:12:13Z</time>
      </trkpt>
      <trkpt lat="45.95125" lon="4.74753">
        <ele>194</ele>
        <time>2017-11-22T11:12:14Z</time>
      </trkpt>
      <trkpt lat="45.9512" lon="4.74746">
        <ele>194</ele>
        <time>2017-11-22T11:12:15Z</time>
      </trkpt>
      <trkpt lat="45.95117" lon="4.74739">
        <ele>194</ele>
        <time>2017-11-22T11:12:16Z</time>
      </trkpt>
      <trkpt lat="45.95113" lon="4.74732">
        <ele>194</ele>
        <time>2017-11-22T11:12:17Z</time>
      </trkpt>
      <trkpt lat="45.95109" lon="4.74725">
        <ele>194</ele>
        <time>2017-11-22T11:12:18Z</time>
      </trkpt>
      <trkpt lat="45.95106" lon="4.74718">
        <ele>194</ele>
        <time>2017-11-22T11:12:19Z</time>
      </trkpt>
      <trkpt lat="45.95102" lon="4.74711">
        <ele>194</ele>
        <time>2017-11-22T11:12:20Z</time>
      </trkpt>
      <trkpt lat="45.95098" lon="4.74704">
        <ele>194</ele>
        <time>2017-11-22T11:12:21Z</time>
      </trkpt>
      <trkpt lat="45.95094" lon="4.74697">
        <ele>194</ele>
        <time>2017-11-22T11:12:22Z</time>
      </trkpt>
      <trkpt lat="45.95089" lon="4.74691">
        <ele>195</ele>
        <time>2017-11-22T11:12:23Z</time>
      </trkpt>
      <trkpt lat="45.95085" lon="4.74686">
        <ele>195</ele>
        <time>2017-11-22T11:12:24Z</time>
      </trkpt>
      <trkpt lat="45.95081" lon="4.74679">
        <ele>194</ele>
        <time>2017-11-22T11:12:25Z</time>
      </trkpt>
      <trkpt lat="45.95077" lon="4.74672">
        <ele>195</ele>
        <time>2017-11-22T11:12:26Z</time>
      </trkpt>
      <trkpt lat="45.95073" lon="4.74666">
        <ele>195</ele>
        <time>2017-11-22T11:12:27Z</time>
      </trkpt>
      <trkpt lat="45.9507" lon="4.74659">
        <ele>195</ele>
        <time>2017-11-22T11:12:28Z</time>
      </trkpt>
      <trkpt lat="45.95065" lon="4.74652">
        <ele>195</ele>
        <time>2017-11-22T11:12:29Z</time>
      </trkpt>
      <trkpt lat="45.95061" lon="4.74646">
        <ele>194</ele>
        <time>2017-11-22T11:12:30Z</time>
      </trkpt>
      <trkpt lat="45.95057" lon="4.74639">
        <ele>194</ele>
        <time>2017-11-22T11:12:31Z</time>
      </trkpt>
      <trkpt lat="45.95054" lon="4.74632">
        <ele>194</ele>
        <time>2017-11-22T11:12:32Z</time>
      </trkpt>
      <trkpt lat="45.95049" lon="4.74626">
        <ele>194</ele>
        <time>2017-11-22T11:12:33Z</time>
      </trkpt>
      <trkpt lat="45.95045" lon="4.74619">
        <ele>194</ele>
        <time>2017-11-22T11:12:34Z</time>
      </trkpt>
      <trkpt lat="45.95041" lon="4.74611">
        <ele>194</ele>
        <time>2017-11-22T11:12:35Z</time>
      </trkpt>
      <trkpt lat="45.95038" lon="4.74604">
        <ele>194</ele>
        <time>2017-11-22T11:12:36Z</time>
      </trkpt>
      <trkpt lat="45.95035" lon="4.74596">
        <ele>194</ele>
        <time>2017-11-22T11:12:37Z</time>
      </trkpt>
      <trkpt lat="45.95031" lon="4.74589">
        <ele>194</ele>
        <time>2017-11-22T11:12:38Z</time>
      </trkpt>
      <trkpt lat="45.95026" lon="4.74581">
        <ele>194</ele>
        <time>2017-11-22T11:12:39Z</time>
      </trkpt>
      <trkpt lat="45.95022" lon="4.74574">
        <ele>194</ele>
        <time>2017-11-22T11:12:40Z</time>
      </trkpt>
      <trkpt lat="45.95018" lon="4.74565">
        <ele>194</ele>
        <time>2017-11-22T11:12:41Z</time>
      </trkpt>
      <trkpt lat="45.95014" lon="4.74559">
        <ele>194</ele>
        <time>2017-11-22T11:12:42Z</time>
      </trkpt>
      <trkpt lat="45.95011" lon="4.74551">
        <ele>194</ele>
        <time>2017-11-22T11:12:43Z</time>
      </trkpt>
      <trkpt lat="45.95007" lon="4.74543">
        <ele>194</ele>
        <time>2017-11-22T11:12:44Z</time>
      </trkpt>
      <trkpt lat="45.95004" lon="4.74536">
        <ele>194</ele>
        <time>2017-11-22T11:12:45Z</time>
      </trkpt>
      <trkpt lat="45.95" lon="4.74528">
        <ele>194</ele>
        <time>2017-11-22T11:12:46Z</time>
      </trkpt>
      <trkpt lat="45.94996" lon="4.7452">
        <ele>193</ele>
        <time>2017-11-22T11:12:47Z</time>
      </trkpt>
      <trkpt lat="45.94992" lon="4.74512">
        <ele>193</ele>
        <time>2017-11-22T11:12:48Z</time>
      </trkpt>
      <trkpt lat="45.94988" lon="4.74506">
        <ele>193</ele>
        <time>2017-11-22T11:12:49Z</time>
      </trkpt>
      <trkpt lat="45.94984" lon="4.74498">
        <ele>193</ele>
        <time>2017-11-22T11:12:50Z</time>
      </trkpt>
      <trkpt lat="45.94981" lon="4.7449">
        <ele>193</ele>
        <time>2017-11-22T11:12:51Z</time>
      </trkpt>
      <trkpt lat="45.94977" lon="4.74481">
        <ele>193</ele>
        <time>2017-11-22T11:12:52Z</time>
      </trkpt>
      <trkpt lat="45.94973" lon="4.74474">
        <ele>193</ele>
        <time>2017-11-22T11:12:53Z</time>
      </trkpt>
      <trkpt lat="45.94969" lon="4.74466">
        <ele>193</ele>
        <time>2017-11-22T11:12:54Z</time>
      </trkpt>
      <trkpt lat="45.94964" lon="4.74459">
        <ele>193</ele>
        <time>2017-11-22T11:12:55Z</time>
      </trkpt>
      <trkpt lat="45.94961" lon="4.74451">
        <ele>192</ele>
        <time>2017-11-22T11:12:56Z</time>
      </trkpt>
      <trkpt lat="45.94956" lon="4.74443">
        <ele>192</ele>
        <time>2017-11-22T11:12:57Z</time>
      </trkpt>
      <trkpt lat="45.94954" lon="4.74436">
        <ele>192</ele>
        <time>2017-11-22T11:12:58Z</time>
      </trkpt>
      <trkpt lat="45.94949" lon="4.7443">
        <ele>192</ele>
        <time>2017-11-22T11:12:59Z</time>
      </trkpt>
      <trkpt lat="45.94944" lon="4.74421">
        <ele>192</ele>
        <time>2017-11-22T11:13:00Z</time>
      </trkpt>
      <trkpt lat="45.9494" lon="4.74412">
        <ele>192</ele>
        <time>2017-11-22T11:13:01Z</time>
      </trkpt>
      <trkpt lat="45.94935" lon="4.74403">
        <ele>192</ele>
        <time>2017-11-22T11:13:02Z</time>
      </trkpt>
      <trkpt lat="45.9493" lon="4.74395">
        <ele>192</ele>
        <time>2017-11-22T11:13:03Z</time>
      </trkpt>
      <trkpt lat="45.94926" lon="4.74386">
        <ele>192</ele>
        <time>2017-11-22T11:13:04Z</time>
      </trkpt>
      <trkpt lat="45.94922" lon="4.74378">
        <ele>192</ele>
        <time>2017-11-22T11:13:05Z</time>
      </trkpt>
      <trkpt lat="45.94917" lon="4.74371">
        <ele>192</ele>
        <time>2017-11-22T11:13:06Z</time>
      </trkpt>
      <trkpt lat="45.94913" lon="4.74363">
        <ele>191</ele>
        <time>2017-11-22T11:13:07Z</time>
      </trkpt>
      <trkpt lat="45.94909" lon="4.74355">
        <ele>191</ele>
        <time>2017-11-22T11:13:08Z</time>
      </trkpt>
      <trkpt lat="45.94905" lon="4.74347">
        <ele>191</ele>
        <time>2017-11-22T11:13:09Z</time>
      </trkpt>
      <trkpt lat="45.94902" lon="4.74338">
        <ele>191</ele>
        <time>2017-11-22T11:13:10Z</time>
      </trkpt>
      <trkpt lat="45.94898" lon="4.74332">
        <ele>191</ele>
        <time>2017-11-22T11:13:11Z</time>
      </trkpt>
      <trkpt lat="45.94894" lon="4.74325">
        <ele>191</ele>
        <time>2017-11-22T11:13:12Z</time>
      </trkpt>
      <trkpt lat="45.94889" lon="4.74317">
        <ele>191</ele>
        <time>2017-11-22T11:13:13Z</time>
      </trkpt>
      <trkpt lat="45.94885" lon="4.7431">
        <ele>191</ele>
        <time>2017-11-22T11:13:14Z</time>
      </trkpt>
      <trkpt lat="45.94882" lon="4.74304">
        <ele>191</ele>
        <time>2017-11-22T11:13:15Z</time>
      </trkpt>
      <trkpt lat="45.94878" lon="4.74297">
        <ele>191</ele>
        <time>2017-11-22T11:13:16Z</time>
      </trkpt>
      <trkpt lat="45.94874" lon="4.74289">
        <ele>191</ele>
        <time>2017-11-22T11:13:17Z</time>
      </trkpt>
      <trkpt lat="45.94869" lon="4.74283">
        <ele>191</ele>
        <time>2017-11-22T11:13:18Z</time>
      </trkpt>
      <trkpt lat="45.94866" lon="4.74276">
        <ele>191</ele>
        <time>2017-11-22T11:13:19Z</time>
      </trkpt>
      <trkpt lat="45.94863" lon="4.74269">
        <ele>190</ele>
        <time>2017-11-22T11:13:20Z</time>
      </trkpt>
      <trkpt lat="45.9486" lon="4.74261">
        <ele>190</ele>
        <time>2017-11-22T11:13:21Z</time>
      </trkpt>
      <trkpt lat="45.94856" lon="4.74252">
        <ele>190</ele>
        <time>2017-11-22T11:13:22Z</time>
      </trkpt>
      <trkpt lat="45.94853" lon="4.74245">
        <ele>190</ele>
        <time>2017-11-22T11:13:23Z</time>
      </trkpt>
      <trkpt lat="45.94848" lon="4.74237">
        <ele>190</ele>
        <time>2017-11-22T11:13:24Z</time>
      </trkpt>
      <trkpt lat="45.94844" lon="4.74229">
        <ele>190</ele>
        <time>2017-11-22T11:13:25Z</time>
      </trkpt>
      <trkpt lat="45.94839" lon="4.7422">
        <ele>190</ele>
        <time>2017-11-22T11:13:26Z</time>
      </trkpt>
      <trkpt lat="45.94834" lon="4.74214">
        <ele>190</ele>
        <time>2017-11-22T11:13:27Z</time>
      </trkpt>
      <trkpt lat="45.9483" lon="4.74206">
        <ele>189</ele>
        <time>2017-11-22T11:13:28Z</time>
      </trkpt>
      <trkpt lat="45.94825" lon="4.74197">
        <ele>189</ele>
        <time>2017-11-22T11:13:29Z</time>
      </trkpt>
      <trkpt lat="45.94821" lon="4.7419">
        <ele>189</ele>
        <time>2017-11-22T11:13:30Z</time>
      </trkpt>
      <trkpt lat="45.94817" lon="4.74183">
        <ele>189</ele>
        <time>2017-11-22T11:13:31Z</time>
      </trkpt>
      <trkpt lat="45.94813" lon="4.74175">
        <ele>189</ele>
        <time>2017-11-22T11:13:32Z</time>
      </trkpt>
      <trkpt lat="45.94809" lon="4.74169">
        <ele>189</ele>
        <time>2017-11-22T11:13:33Z</time>
      </trkpt>
      <trkpt lat="45.94805" lon="4.74163">
        <ele>189</ele>
        <time>2017-11-22T11:13:34Z</time>
      </trkpt>
      <trkpt lat="45.94802" lon="4.74155">
        <ele>189</ele>
        <time>2017-11-22T11:13:35Z</time>
      </trkpt>
      <trkpt lat="45.94798" lon="4.74148">
        <ele>189</ele>
        <time>2017-11-22T11:13:36Z</time>
      </trkpt>
      <trkpt lat="45.94794" lon="4.74142">
        <ele>189</ele>
        <time>2017-11-22T11:13:37Z</time>
      </trkpt>
      <trkpt lat="45.94789" lon="4.74135">
        <ele>189</ele>
        <time>2017-11-22T11:13:38Z</time>
      </trkpt>
      <trkpt lat="45.94785" lon="4.74129">
        <ele>189</ele>
        <time>2017-11-22T11:13:39Z</time>
      </trkpt>
      <trkpt lat="45.94781" lon="4.74122">
        <ele>189</ele>
        <time>2017-11-22T11:13:40Z</time>
      </trkpt>
      <trkpt lat="45.94776" lon="4.74115">
        <ele>189</ele>
        <time>2017-11-22T11:13:41Z</time>
      </trkpt>
      <trkpt lat="45.94772" lon="4.74108">
        <ele>189</ele>
        <time>2017-11-22T11:13:42Z</time>
      </trkpt>
      <trkpt lat="45.94767" lon="4.74103">
        <ele>189</ele>
        <time>2017-11-22T11:13:43Z</time>
      </trkpt>
      <trkpt lat="45.94763" lon="4.74096">
        <ele>189</ele>
        <time>2017-11-22T11:13:44Z</time>
      </trkpt>
      <trkpt lat="45.94758" lon="4.74089">
        <ele>189</ele>
        <time>2017-11-22T11:13:45Z</time>
      </trkpt>
      <trkpt lat="45.94752" lon="4.74082">
        <ele>189</ele>
        <time>2017-11-22T11:13:46Z</time>
      </trkpt>
      <trkpt lat="45.94747" lon="4.74076">
        <ele>188</ele>
        <time>2017-11-22T11:13:47Z</time>
      </trkpt>
      <trkpt lat="45.94744" lon="4.7407">
        <ele>188</ele>
        <time>2017-11-22T11:13:48Z</time>
      </trkpt>
      <trkpt lat="45.94739" lon="4.74063">
        <ele>188</ele>
        <time>2017-11-22T11:13:49Z</time>
      </trkpt>
      <trkpt lat="45.94735" lon="4.74056">
        <ele>188</ele>
        <time>2017-11-22T11:13:50Z</time>
      </trkpt>
      <trkpt lat="45.94732" lon="4.74051">
        <ele>188</ele>
        <time>2017-11-22T11:13:51Z</time>
      </trkpt>
      <trkpt lat="45.94729" lon="4.74046">
        <ele>188</ele>
        <time>2017-11-22T11:13:52Z</time>
      </trkpt>
      <trkpt lat="45.94725" lon="4.74042">
        <ele>187</ele>
        <time>2017-11-22T11:13:53Z</time>
      </trkpt>
      <trkpt lat="45.94719" lon="4.74034">
        <ele>187</ele>
        <time>2017-11-22T11:13:55Z</time>
      </trkpt>
      <trkpt lat="45.94716" lon="4.74028">
        <ele>187</ele>
        <time>2017-11-22T11:13:56Z</time>
      </trkpt>
      <trkpt lat="45.94713" lon="4.74023">
        <ele>187</ele>
        <time>2017-11-22T11:13:57Z</time>
      </trkpt>
      <trkpt lat="45.94709" lon="4.74019">
        <ele>187</ele>
        <time>2017-11-22T11:13:58Z</time>
      </trkpt>
      <trkpt lat="45.94705" lon="4.74014">
        <ele>187</ele>
        <time>2017-11-22T11:13:59Z</time>
      </trkpt>
      <trkpt lat="45.94702" lon="4.74009">
        <ele>187</ele>
        <time>2017-11-22T11:14:00Z</time>
      </trkpt>
      <trkpt lat="45.94698" lon="4.74005">
        <ele>187</ele>
        <time>2017-11-22T11:14:01Z</time>
      </trkpt>
      <trkpt lat="45.94695" lon="4.73999">
        <ele>187</ele>
        <time>2017-11-22T11:14:02Z</time>
      </trkpt>
      <trkpt lat="45.94691" lon="4.73995">
        <ele>187</ele>
        <time>2017-11-22T11:14:03Z</time>
      </trkpt>
      <trkpt lat="45.94687" lon="4.73989">
        <ele>187</ele>
        <time>2017-11-22T11:14:04Z</time>
      </trkpt>
      <trkpt lat="45.94683" lon="4.73983">
        <ele>187</ele>
        <time>2017-11-22T11:14:05Z</time>
      </trkpt>
      <trkpt lat="45.9468" lon="4.73978">
        <ele>187</ele>
        <time>2017-11-22T11:14:06Z</time>
      </trkpt>
      <trkpt lat="45.94676" lon="4.73972">
        <ele>187</ele>
        <time>2017-11-22T11:14:07Z</time>
      </trkpt>
      <trkpt lat="45.94671" lon="4.73966">
        <ele>187</ele>
        <time>2017-11-22T11:14:08Z</time>
      </trkpt>
      <trkpt lat="45.94667" lon="4.73961">
        <ele>187</ele>
        <time>2017-11-22T11:14:09Z</time>
      </trkpt>
      <trkpt lat="45.94663" lon="4.73955">
        <ele>187</ele>
        <time>2017-11-22T11:14:10Z</time>
      </trkpt>
      <trkpt lat="45.94658" lon="4.73949">
        <ele>187</ele>
        <time>2017-11-22T11:14:11Z</time>
      </trkpt>
      <trkpt lat="45.94653" lon="4.73944">
        <ele>187</ele>
        <time>2017-11-22T11:14:12Z</time>
      </trkpt>
      <trkpt lat="45.94648" lon="4.73938">
        <ele>187</ele>
        <time>2017-11-22T11:14:13Z</time>
      </trkpt>
      <trkpt lat="45.94643" lon="4.7393">
        <ele>187</ele>
        <time>2017-11-22T11:14:14Z</time>
      </trkpt>
      <trkpt lat="45.94638" lon="4.73925">
        <ele>187</ele>
        <time>2017-11-22T11:14:15Z</time>
      </trkpt>
      <trkpt lat="45.94633" lon="4.73919">
        <ele>187</ele>
        <time>2017-11-22T11:14:16Z</time>
      </trkpt>
      <trkpt lat="45.94628" lon="4.73914">
        <ele>187</ele>
        <time>2017-11-22T11:14:17Z</time>
      </trkpt>
      <trkpt lat="45.94624" lon="4.73909">
        <ele>187</ele>
        <time>2017-11-22T11:14:18Z</time>
      </trkpt>
      <trkpt lat="45.94619" lon="4.73905">
        <ele>187</ele>
        <time>2017-11-22T11:14:19Z</time>
      </trkpt>
      <trkpt lat="45.94615" lon="4.73899">
        <ele>187</ele>
        <time>2017-11-22T11:14:20Z</time>
      </trkpt>
      <trkpt lat="45.9461" lon="4.73893">
        <ele>187</ele>
        <time>2017-11-22T11:14:21Z</time>
      </trkpt>
      <trkpt lat="45.94606" lon="4.73888">
        <ele>187</ele>
        <time>2017-11-22T11:14:22Z</time>
      </trkpt>
      <trkpt lat="45.94601" lon="4.73883">
        <ele>187</ele>
        <time>2017-11-22T11:14:23Z</time>
      </trkpt>
      <trkpt lat="45.94596" lon="4.73879">
        <ele>187</ele>
        <time>2017-11-22T11:14:24Z</time>
      </trkpt>
      <trkpt lat="45.94591" lon="4.73874">
        <ele>187</ele>
        <time>2017-11-22T11:14:25Z</time>
      </trkpt>
      <trkpt lat="45.94586" lon="4.73867">
        <ele>187</ele>
        <time>2017-11-22T11:14:26Z</time>
      </trkpt>
      <trkpt lat="45.94582" lon="4.73862">
        <ele>186</ele>
        <time>2017-11-22T11:14:27Z</time>
      </trkpt>
      <trkpt lat="45.94576" lon="4.73856">
        <ele>186</ele>
        <time>2017-11-22T11:14:28Z</time>
      </trkpt>
      <trkpt lat="45.94573" lon="4.7385">
        <ele>186</ele>
        <time>2017-11-22T11:14:29Z</time>
      </trkpt>
      <trkpt lat="45.94567" lon="4.73845">
        <ele>186</ele>
        <time>2017-11-22T11:14:30Z</time>
      </trkpt>
      <trkpt lat="45.94561" lon="4.7384">
        <ele>186</ele>
        <time>2017-11-22T11:14:31Z</time>
      </trkpt>
      <trkpt lat="45.94556" lon="4.73835">
        <ele>186</ele>
        <time>2017-11-22T11:14:32Z</time>
      </trkpt>
      <trkpt lat="45.9455" lon="4.7383">
        <ele>186</ele>
        <time>2017-11-22T11:14:33Z</time>
      </trkpt>
      <trkpt lat="45.94545" lon="4.73824">
        <ele>186</ele>
        <time>2017-11-22T11:14:34Z</time>
      </trkpt>
      <trkpt lat="45.94539" lon="4.73819">
        <ele>186</ele>
        <time>2017-11-22T11:14:35Z</time>
      </trkpt>
      <trkpt lat="45.94535" lon="4.73814">
        <ele>186</ele>
        <time>2017-11-22T11:14:36Z</time>
      </trkpt>
      <trkpt lat="45.94531" lon="4.73809">
        <ele>186</ele>
        <time>2017-11-22T11:14:37Z</time>
      </trkpt>
      <trkpt lat="45.94526" lon="4.73804">
        <ele>186</ele>
        <time>2017-11-22T11:14:38Z</time>
      </trkpt>
      <trkpt lat="45.9452" lon="4.73799">
        <ele>186</ele>
        <time>2017-11-22T11:14:39Z</time>
      </trkpt>
      <trkpt lat="45.94516" lon="4.73794">
        <ele>186</ele>
        <time>2017-11-22T11:14:40Z</time>
      </trkpt>
      <trkpt lat="45.94512" lon="4.7379">
        <ele>186</ele>
        <time>2017-11-22T11:14:41Z</time>
      </trkpt>
      <trkpt lat="45.94508" lon="4.73785">
        <ele>186</ele>
        <time>2017-11-22T11:14:42Z</time>
      </trkpt>
      <trkpt lat="45.94504" lon="4.73779">
        <ele>186</ele>
        <time>2017-11-22T11:14:43Z</time>
      </trkpt>
      <trkpt lat="45.94499" lon="4.73774">
        <ele>186</ele>
        <time>2017-11-22T11:14:44Z</time>
      </trkpt>
      <trkpt lat="45.94494" lon="4.73767">
        <ele>186</ele>
        <time>2017-11-22T11:14:45Z</time>
      </trkpt>
      <trkpt lat="45.94491" lon="4.7376">
        <ele>186</ele>
        <time>2017-11-22T11:14:46Z</time>
      </trkpt>
      <trkpt lat="45.94488" lon="4.73754">
        <ele>186</ele>
        <time>2017-11-22T11:14:47Z</time>
      </trkpt>
      <trkpt lat="45.94487" lon="4.73747">
        <ele>186</ele>
        <time>2017-11-22T11:14:48Z</time>
      </trkpt>
      <trkpt lat="45.94487" lon="4.73739">
        <ele>186</ele>
        <time>2017-11-22T11:14:49Z</time>
      </trkpt>
      <trkpt lat="45.94487" lon="4.73732">
        <ele>186</ele>
        <time>2017-11-22T11:14:50Z</time>
      </trkpt>
      <trkpt lat="45.94488" lon="4.73724">
        <ele>186</ele>
        <time>2017-11-22T11:14:51Z</time>
      </trkpt>
      <trkpt lat="45.94489" lon="4.73716">
        <ele>186</ele>
        <time>2017-11-22T11:14:52Z</time>
      </trkpt>
      <trkpt lat="45.94491" lon="4.7371">
        <ele>186</ele>
        <time>2017-11-22T11:14:53Z</time>
      </trkpt>
      <trkpt lat="45.94493" lon="4.73702">
        <ele>186</ele>
        <time>2017-11-22T11:14:54Z</time>
      </trkpt>
      <trkpt lat="45.94495" lon="4.73693">
        <ele>186</ele>
        <time>2017-11-22T11:14:55Z</time>
      </trkpt>
      <trkpt lat="45.94495" lon="4.73684">
        <ele>186</ele>
        <time>2017-11-22T11:14:56Z</time>
      </trkpt>
      <trkpt lat="45.94496" lon="4.73676">
        <ele>185</ele>
        <time>2017-11-22T11:14:57Z</time>
      </trkpt>
      <trkpt lat="45.94498" lon="4.73667">
        <ele>185</ele>
        <time>2017-11-22T11:14:58Z</time>
      </trkpt>
      <trkpt lat="45.94498" lon="4.73658">
        <ele>185</ele>
        <time>2017-11-22T11:14:59Z</time>
      </trkpt>
      <trkpt lat="45.945" lon="4.7365">
        <ele>185</ele>
        <time>2017-11-22T11:15:00Z</time>
      </trkpt>
      <trkpt lat="45.94501" lon="4.73641">
        <ele>184</ele>
        <time>2017-11-22T11:15:01Z</time>
      </trkpt>
      <trkpt lat="45.94502" lon="4.73633">
        <ele>184</ele>
        <time>2017-11-22T11:15:02Z</time>
      </trkpt>
      <trkpt lat="45.94504" lon="4.73625">
        <ele>184</ele>
        <time>2017-11-22T11:15:03Z</time>
      </trkpt>
      <trkpt lat="45.94505" lon="4.73617">
        <ele>184</ele>
        <time>2017-11-22T11:15:04Z</time>
      </trkpt>
      <trkpt lat="45.94506" lon="4.73609">
        <ele>184</ele>
        <time>2017-11-22T11:15:05Z</time>
      </trkpt>
      <trkpt lat="45.94508" lon="4.73599">
        <ele>184</ele>
        <time>2017-11-22T11:15:06Z</time>
      </trkpt>
      <trkpt lat="45.94508" lon="4.7359">
        <ele>184</ele>
        <time>2017-11-22T11:15:07Z</time>
      </trkpt>
      <trkpt lat="45.94508" lon="4.73581">
        <ele>184</ele>
        <time>2017-11-22T11:15:08Z</time>
      </trkpt>
      <trkpt lat="45.94509" lon="4.73571">
        <ele>184</ele>
        <time>2017-11-22T11:15:09Z</time>
      </trkpt>
      <trkpt lat="45.94509" lon="4.73562">
        <ele>184</ele>
        <time>2017-11-22T11:15:10Z</time>
      </trkpt>
      <trkpt lat="45.94509" lon="4.73553">
        <ele>183</ele>
        <time>2017-11-22T11:15:11Z</time>
      </trkpt>
      <trkpt lat="45.94509" lon="4.73543">
        <ele>183</ele>
        <time>2017-11-22T11:15:12Z</time>
      </trkpt>
      <trkpt lat="45.94509" lon="4.73533">
        <ele>183</ele>
        <time>2017-11-22T11:15:13Z</time>
      </trkpt>
      <trkpt lat="45.94509" lon="4.73523">
        <ele>183</ele>
        <time>2017-11-22T11:15:14Z</time>
      </trkpt>
      <trkpt lat="45.94508" lon="4.73512">
        <ele>183</ele>
        <time>2017-11-22T11:15:15Z</time>
      </trkpt>
      <trkpt lat="45.94508" lon="4.73502">
        <ele>183</ele>
        <time>2017-11-22T11:15:16Z</time>
      </trkpt>
      <trkpt lat="45.94507" lon="4.73492">
        <ele>182</ele>
        <time>2017-11-22T11:15:17Z</time>
      </trkpt>
      <trkpt lat="45.94506" lon="4.73481">
        <ele>182</ele>
        <time>2017-11-22T11:15:18Z</time>
      </trkpt>
      <trkpt lat="45.94507" lon="4.73471">
        <ele>182</ele>
        <time>2017-11-22T11:15:19Z</time>
      </trkpt>
      <trkpt lat="45.94508" lon="4.7346">
        <ele>181</ele>
        <time>2017-11-22T11:15:20Z</time>
      </trkpt>
      <trkpt lat="45.94507" lon="4.7345">
        <ele>181</ele>
        <time>2017-11-22T11:15:21Z</time>
      </trkpt>
      <trkpt lat="45.94506" lon="4.73439">
        <ele>181</ele>
        <time>2017-11-22T11:15:22Z</time>
      </trkpt>
      <trkpt lat="45.94506" lon="4.73429">
        <ele>180</ele>
        <time>2017-11-22T11:15:23Z</time>
      </trkpt>
      <trkpt lat="45.94506" lon="4.73418">
        <ele>180</ele>
        <time>2017-11-22T11:15:24Z</time>
      </trkpt>
      <trkpt lat="45.94505" lon="4.73407">
        <ele>179</ele>
        <time>2017-11-22T11:15:25Z</time>
      </trkpt>
      <trkpt lat="45.94505" lon="4.73396">
        <ele>179</ele>
        <time>2017-11-22T11:15:26Z</time>
      </trkpt>
      <trkpt lat="45.94504" lon="4.73385">
        <ele>179</ele>
        <time>2017-11-22T11:15:27Z</time>
      </trkpt>
      <trkpt lat="45.94503" lon="4.73374">
        <ele>178</ele>
        <time>2017-11-22T11:15:28Z</time>
      </trkpt>
      <trkpt lat="45.94502" lon="4.73363">
        <ele>178</ele>
        <time>2017-11-22T11:15:29Z</time>
      </trkpt>
      <trkpt lat="45.94501" lon="4.73352">
        <ele>178</ele>
        <time>2017-11-22T11:15:30Z</time>
      </trkpt>
      <trkpt lat="45.945" lon="4.7334">
        <ele>178</ele>
        <time>2017-11-22T11:15:31Z</time>
      </trkpt>
      <trkpt lat="45.94499" lon="4.7333">
        <ele>177</ele>
        <time>2017-11-22T11:15:32Z</time>
      </trkpt>
      <trkpt lat="45.94497" lon="4.73318">
        <ele>177</ele>
        <time>2017-11-22T11:15:33Z</time>
      </trkpt>
      <trkpt lat="45.94496" lon="4.73309">
        <ele>177</ele>
        <time>2017-11-22T11:15:34Z</time>
      </trkpt>
      <trkpt lat="45.94494" lon="4.73297">
        <ele>177</ele>
        <time>2017-11-22T11:15:35Z</time>
      </trkpt>
      <trkpt lat="45.94492" lon="4.73285">
        <ele>177</ele>
        <time>2017-11-22T11:15:36Z</time>
      </trkpt>
      <trkpt lat="45.94491" lon="4.73275">
        <ele>177</ele>
        <time>2017-11-22T11:15:37Z</time>
      </trkpt>
      <trkpt lat="45.9449" lon="4.73263">
        <ele>176</ele>
        <time>2017-11-22T11:15:38Z</time>
      </trkpt>
      <trkpt lat="45.94489" lon="4.73252">
        <ele>176</ele>
        <time>2017-11-22T11:15:39Z</time>
      </trkpt>
      <trkpt lat="45.94487" lon="4.73241">
        <ele>175</ele>
        <time>2017-11-22T11:15:40Z</time>
      </trkpt>
      <trkpt lat="45.94486" lon="4.73231">
        <ele>175</ele>
        <time>2017-11-22T11:15:41Z</time>
      </trkpt>
      <trkpt lat="45.94484" lon="4.73219">
        <ele>175</ele>
        <time>2017-11-22T11:15:42Z</time>
      </trkpt>
      <trkpt lat="45.94483" lon="4.73209">
        <ele>175</ele>
        <time>2017-11-22T11:15:43Z</time>
      </trkpt>
      <trkpt lat="45.9448" lon="4.73198">
        <ele>174</ele>
        <time>2017-11-22T11:15:44Z</time>
      </trkpt>
      <trkpt lat="45.9448" lon="4.73187">
        <ele>174</ele>
        <time>2017-11-22T11:15:45Z</time>
      </trkpt>
      <trkpt lat="45.94478" lon="4.73176">
        <ele>174</ele>
        <time>2017-11-22T11:15:46Z</time>
      </trkpt>
      <trkpt lat="45.94476" lon="4.73164">
        <ele>173</ele>
        <time>2017-11-22T11:15:47Z</time>
      </trkpt>
      <trkpt lat="45.94475" lon="4.73154">
        <ele>172</ele>
        <time>2017-11-22T11:15:48Z</time>
      </trkpt>
      <trkpt lat="45.94473" lon="4.73142">
        <ele>172</ele>
        <time>2017-11-22T11:15:49Z</time>
      </trkpt>
      <trkpt lat="45.94472" lon="4.73132">
        <ele>172</ele>
        <time>2017-11-22T11:15:50Z</time>
      </trkpt>
      <trkpt lat="45.94471" lon="4.73122">
        <ele>172</ele>
        <time>2017-11-22T11:15:51Z</time>
      </trkpt>
      <trkpt lat="45.9447" lon="4.73112">
        <ele>172</ele>
        <time>2017-11-22T11:15:52Z</time>
      </trkpt>
      <trkpt lat="45.94469" lon="4.731">
        <ele>172</ele>
        <time>2017-11-22T11:15:53Z</time>
      </trkpt>
      <trkpt lat="45.94467" lon="4.7309">
        <ele>172</ele>
        <time>2017-11-22T11:15:54Z</time>
      </trkpt>
      <trkpt lat="45.94465" lon="4.73079">
        <ele>170</ele>
        <time>2017-11-22T11:15:55Z</time>
      </trkpt>
      <trkpt lat="45.94464" lon="4.7307">
        <ele>170</ele>
        <time>2017-11-22T11:15:56Z</time>
      </trkpt>
      <trkpt lat="45.94463" lon="4.73061">
        <ele>170</ele>
        <time>2017-11-22T11:15:57Z</time>
      </trkpt>
      <trkpt lat="45.94461" lon="4.73051">
        <ele>170</ele>
        <time>2017-11-22T11:15:58Z</time>
      </trkpt>
      <trkpt lat="45.9446" lon="4.73042">
        <ele>170</ele>
        <time>2017-11-22T11:15:59Z</time>
      </trkpt>
      <trkpt lat="45.94459" lon="4.73034">
        <ele>169</ele>
        <time>2017-11-22T11:16:00Z</time>
      </trkpt>
      <trkpt lat="45.94458" lon="4.73026">
        <ele>169</ele>
        <time>2017-11-22T11:16:01Z</time>
      </trkpt>
      <trkpt lat="45.94456" lon="4.73018">
        <ele>169</ele>
        <time>2017-11-22T11:16:02Z</time>
      </trkpt>
      <trkpt lat="45.94455" lon="4.7301">
        <ele>169</ele>
        <time>2017-11-22T11:16:03Z</time>
      </trkpt>
      <trkpt lat="45.94454" lon="4.73003">
        <ele>169</ele>
        <time>2017-11-22T11:16:04Z</time>
      </trkpt>
      <trkpt lat="45.94453" lon="4.72995">
        <ele>167</ele>
        <time>2017-11-22T11:16:05Z</time>
      </trkpt>
      <trkpt lat="45.94452" lon="4.72987">
        <ele>167</ele>
        <time>2017-11-22T11:16:06Z</time>
      </trkpt>
      <trkpt lat="45.94452" lon="4.72979">
        <ele>167</ele>
        <time>2017-11-22T11:16:07Z</time>
      </trkpt>
      <trkpt lat="45.94451" lon="4.72971">
        <ele>167</ele>
        <time>2017-11-22T11:16:08Z</time>
      </trkpt>
      <trkpt lat="45.94451" lon="4.72963">
        <ele>167</ele>
        <time>2017-11-22T11:16:09Z</time>
      </trkpt>
      <trkpt lat="45.94449" lon="4.72955">
        <ele>167</ele>
        <time>2017-11-22T11:16:10Z</time>
      </trkpt>
      <trkpt lat="45.94449" lon="4.72948">
        <ele>167</ele>
        <time>2017-11-22T11:16:11Z</time>
      </trkpt>
      <trkpt lat="45.94448" lon="4.7294">
        <ele>167</ele>
        <time>2017-11-22T11:16:12Z</time>
      </trkpt>
      <trkpt lat="45.94447" lon="4.72932">
        <ele>167</ele>
        <time>2017-11-22T11:16:13Z</time>
      </trkpt>
      <trkpt lat="45.94446" lon="4.72926">
        <ele>167</ele>
        <time>2017-11-22T11:16:14Z</time>
      </trkpt>
      <trkpt lat="45.94445" lon="4.7292">
        <ele>167</ele>
        <time>2017-11-22T11:16:15Z</time>
      </trkpt>
      <trkpt lat="45.94444" lon="4.72911">
        <ele>166</ele>
        <time>2017-11-22T11:16:16Z</time>
      </trkpt>
      <trkpt lat="45.94443" lon="4.72904">
        <ele>166</ele>
        <time>2017-11-22T11:16:17Z</time>
      </trkpt>
      <trkpt lat="45.94442" lon="4.72897">
        <ele>166</ele>
        <time>2017-11-22T11:16:18Z</time>
      </trkpt>
      <trkpt lat="45.94441" lon="4.72888">
        <ele>166</ele>
        <time>2017-11-22T11:16:19Z</time>
      </trkpt>
      <trkpt lat="45.9444" lon="4.72881">
        <ele>166</ele>
        <time>2017-11-22T11:16:20Z</time>
      </trkpt>
      <trkpt lat="45.94439" lon="4.72874">
        <ele>166</ele>
        <time>2017-11-22T11:16:21Z</time>
      </trkpt>
      <trkpt lat="45.94437" lon="4.72868">
        <ele>166</ele>
        <time>2017-11-22T11:16:22Z</time>
      </trkpt>
      <trkpt lat="45.94436" lon="4.7286">
        <ele>166</ele>
        <time>2017-11-22T11:16:23Z</time>
      </trkpt>
      <trkpt lat="45.94435" lon="4.72852">
        <ele>166</ele>
        <time>2017-11-22T11:16:24Z</time>
      </trkpt>
      <trkpt lat="45.94434" lon="4.72844">
        <ele>166</ele>
        <time>2017-11-22T11:16:25Z</time>
      </trkpt>
      <trkpt lat="45.94433" lon="4.72836">
        <ele>166</ele>
        <time>2017-11-22T11:16:26Z</time>
      </trkpt>
      <trkpt lat="45.94432" lon="4.72828">
        <ele>167</ele>
        <time>2017-11-22T11:16:27Z</time>
      </trkpt>
      <trkpt lat="45.94432" lon="4.72819">
        <ele>167</ele>
        <time>2017-11-22T11:16:28Z</time>
      </trkpt>
      <trkpt lat="45.9443" lon="4.72809">
        <ele>167</ele>
        <time>2017-11-22T11:16:29Z</time>
      </trkpt>
      <trkpt lat="45.94429" lon="4.72801">
        <ele>167</ele>
        <time>2017-11-22T11:16:30Z</time>
      </trkpt>
      <trkpt lat="45.94427" lon="4.72792">
        <ele>168</ele>
        <time>2017-11-22T11:16:31Z</time>
      </trkpt>
      <trkpt lat="45.94427" lon="4.72783">
        <ele>168</ele>
        <time>2017-11-22T11:16:32Z</time>
      </trkpt>
      <trkpt lat="45.94426" lon="4.72773">
        <ele>169</ele>
        <time>2017-11-22T11:16:33Z</time>
      </trkpt>
      <trkpt lat="45.94425" lon="4.72764">
        <ele>169</ele>
        <time>2017-11-22T11:16:34Z</time>
      </trkpt>
      <trkpt lat="45.94424" lon="4.72755">
        <ele>170</ele>
        <time>2017-11-22T11:16:35Z</time>
      </trkpt>
      <trkpt lat="45.94423" lon="4.72745">
        <ele>171</ele>
        <time>2017-11-22T11:16:36Z</time>
      </trkpt>
      <trkpt lat="45.94421" lon="4.72736">
        <ele>171</ele>
        <time>2017-11-22T11:16:37Z</time>
      </trkpt>
      <trkpt lat="45.9442" lon="4.72728">
        <ele>171</ele>
        <time>2017-11-22T11:16:38Z</time>
      </trkpt>
      <trkpt lat="45.94419" lon="4.72721">
        <ele>171</ele>
        <time>2017-11-22T11:16:39Z</time>
      </trkpt>
      <trkpt lat="45.94418" lon="4.72713">
        <ele>172</ele>
        <time>2017-11-22T11:16:40Z</time>
      </trkpt>
      <trkpt lat="45.94417" lon="4.72704">
        <ele>172</ele>
        <time>2017-11-22T11:16:41Z</time>
      </trkpt>
      <trkpt lat="45.94415" lon="4.72697">
        <ele>173</ele>
        <time>2017-11-22T11:16:42Z</time>
      </trkpt>
      <trkpt lat="45.94415" lon="4.72689">
        <ele>173</ele>
        <time>2017-11-22T11:16:43Z</time>
      </trkpt>
      <trkpt lat="45.94413" lon="4.72681">
        <ele>173</ele>
        <time>2017-11-22T11:16:44Z</time>
      </trkpt>
      <trkpt lat="45.94412" lon="4.72674">
        <ele>173</ele>
        <time>2017-11-22T11:16:45Z</time>
      </trkpt>
      <trkpt lat="45.94411" lon="4.72666">
        <ele>174</ele>
        <time>2017-11-22T11:16:46Z</time>
      </trkpt>
      <trkpt lat="45.9441" lon="4.72658">
        <ele>174</ele>
        <time>2017-11-22T11:16:47Z</time>
      </trkpt>
      <trkpt lat="45.94409" lon="4.72649">
        <ele>174</ele>
        <time>2017-11-22T11:16:48Z</time>
      </trkpt>
      <trkpt lat="45.94408" lon="4.72642">
        <ele>174</ele>
        <time>2017-11-22T11:16:49Z</time>
      </trkpt>
      <trkpt lat="45.94407" lon="4.72634">
        <ele>174</ele>
        <time>2017-11-22T11:16:50Z</time>
      </trkpt>
      <trkpt lat="45.94406" lon="4.72627">
        <ele>174</ele>
        <time>2017-11-22T11:16:51Z</time>
      </trkpt>
      <trkpt lat="45.94406" lon="4.72618">
        <ele>173</ele>
        <time>2017-11-22T11:16:52Z</time>
      </trkpt>
      <trkpt lat="45.94405" lon="4.7261">
        <ele>173</ele>
        <time>2017-11-22T11:16:53Z</time>
      </trkpt>
      <trkpt lat="45.94403" lon="4.72602">
        <ele>173</ele>
        <time>2017-11-22T11:16:54Z</time>
      </trkpt>
      <trkpt lat="45.94401" lon="4.72595">
        <ele>173</ele>
        <time>2017-11-22T11:16:55Z</time>
      </trkpt>
      <trkpt lat="45.94401" lon="4.72586">
        <ele>173</ele>
        <time>2017-11-22T11:16:56Z</time>
      </trkpt>
      <trkpt lat="45.94399" lon="4.72578">
        <ele>173</ele>
        <time>2017-11-22T11:16:57Z</time>
      </trkpt>
      <trkpt lat="45.94398" lon="4.72571">
        <ele>173</ele>
        <time>2017-11-22T11:16:58Z</time>
      </trkpt>
      <trkpt lat="45.94395" lon="4.72559">
        <ele>173</ele>
        <time>2017-11-22T11:17:00Z</time>
      </trkpt>
      <trkpt lat="45.94393" lon="4.72553">
        <ele>173</ele>
        <time>2017-11-22T11:17:01Z</time>
      </trkpt>
      <trkpt lat="45.94393" lon="4.72546">
        <ele>173</ele>
        <time>2017-11-22T11:17:02Z</time>
      </trkpt>
      <trkpt lat="45.94391" lon="4.72538">
        <ele>174</ele>
        <time>2017-11-22T11:17:03Z</time>
      </trkpt>
      <trkpt lat="45.9439" lon="4.72531">
        <ele>174</ele>
        <time>2017-11-22T11:17:04Z</time>
      </trkpt>
      <trkpt lat="45.94389" lon="4.72525">
        <ele>174</ele>
        <time>2017-11-22T11:17:05Z</time>
      </trkpt>
      <trkpt lat="45.94387" lon="4.72518">
        <ele>174</ele>
        <time>2017-11-22T11:17:06Z</time>
      </trkpt>
      <trkpt lat="45.94385" lon="4.72512">
        <ele>174</ele>
        <time>2017-11-22T11:17:07Z</time>
      </trkpt>
      <trkpt lat="45.94383" lon="4.72506">
        <ele>174</ele>
        <time>2017-11-22T11:17:08Z</time>
      </trkpt>
      <trkpt lat="45.94382" lon="4.725">
        <ele>174</ele>
        <time>2017-11-22T11:17:09Z</time>
      </trkpt>
      <trkpt lat="45.9438" lon="4.72492">
        <ele>173</ele>
        <time>2017-11-22T11:17:10Z</time>
      </trkpt>
      <trkpt lat="45.94377" lon="4.72486">
        <ele>173</ele>
        <time>2017-11-22T11:17:11Z</time>
      </trkpt>
      <trkpt lat="45.94375" lon="4.72479">
        <ele>173</ele>
        <time>2017-11-22T11:17:12Z</time>
      </trkpt>
      <trkpt lat="45.94372" lon="4.72473">
        <ele>173</ele>
        <time>2017-11-22T11:17:13Z</time>
      </trkpt>
      <trkpt lat="45.9437" lon="4.72467">
        <ele>173</ele>
        <time>2017-11-22T11:17:14Z</time>
      </trkpt>
      <trkpt lat="45.94367" lon="4.72461">
        <ele>173</ele>
        <time>2017-11-22T11:17:15Z</time>
      </trkpt>
      <trkpt lat="45.94364" lon="4.72456">
        <ele>173</ele>
        <time>2017-11-22T11:17:16Z</time>
      </trkpt>
      <trkpt lat="45.94362" lon="4.72448">
        <ele>173</ele>
        <time>2017-11-22T11:17:17Z</time>
      </trkpt>
      <trkpt lat="45.94359" lon="4.72442">
        <ele>173</ele>
        <time>2017-11-22T11:17:18Z</time>
      </trkpt>
      <trkpt lat="45.94356" lon="4.72435">
        <ele>173</ele>
        <time>2017-11-22T11:17:19Z</time>
      </trkpt>
      <trkpt lat="45.94353" lon="4.72429">
        <ele>173</ele>
        <time>2017-11-22T11:17:20Z</time>
      </trkpt>
      <trkpt lat="45.9435" lon="4.72422">
        <ele>173</ele>
        <time>2017-11-22T11:17:21Z</time>
      </trkpt>
      <trkpt lat="45.94347" lon="4.72416">
        <ele>173</ele>
        <time>2017-11-22T11:17:22Z</time>
      </trkpt>
      <trkpt lat="45.94344" lon="4.72409">
        <ele>173</ele>
        <time>2017-11-22T11:17:23Z</time>
      </trkpt>
      <trkpt lat="45.94342" lon="4.72402">
        <ele>173</ele>
        <time>2017-11-22T11:17:24Z</time>
      </trkpt>
      <trkpt lat="45.94338" lon="4.72397">
        <ele>172</ele>
        <time>2017-11-22T11:17:25Z</time>
      </trkpt>
      <trkpt lat="45.94336" lon="4.72392">
        <ele>172</ele>
        <time>2017-11-22T11:17:26Z</time>
      </trkpt>
      <trkpt lat="45.94333" lon="4.72386">
        <ele>172</ele>
        <time>2017-11-22T11:17:27Z</time>
      </trkpt>
      <trkpt lat="45.94331" lon="4.7238">
        <ele>172</ele>
        <time>2017-11-22T11:17:28Z</time>
      </trkpt>
      <trkpt lat="45.94328" lon="4.72374">
        <ele>172</ele>
        <time>2017-11-22T11:17:29Z</time>
      </trkpt>
      <trkpt lat="45.94326" lon="4.72368">
        <ele>172</ele>
        <time>2017-11-22T11:17:30Z</time>
      </trkpt>
      <trkpt lat="45.94323" lon="4.72362">
        <ele>172</ele>
        <time>2017-11-22T11:17:31Z</time>
      </trkpt>
      <trkpt lat="45.9432" lon="4.72356">
        <ele>172</ele>
        <time>2017-11-22T11:17:32Z</time>
      </trkpt>
      <trkpt lat="45.94317" lon="4.7235">
        <ele>172</ele>
        <time>2017-11-22T11:17:33Z</time>
      </trkpt>
      <trkpt lat="45.94315" lon="4.72345">
        <ele>172</ele>
        <time>2017-11-22T11:17:34Z</time>
      </trkpt>
      <trkpt lat="45.94311" lon="4.72338">
        <ele>172</ele>
        <time>2017-11-22T11:17:35Z</time>
      </trkpt>
      <trkpt lat="45.94308" lon="4.72331">
        <ele>172</ele>
        <time>2017-11-22T11:17:36Z</time>
      </trkpt>
      <trkpt lat="45.94305" lon="4.72324">
        <ele>171</ele>
        <time>2017-11-22T11:17:37Z</time>
      </trkpt>
      <trkpt lat="45.94302" lon="4.72319">
        <ele>171</ele>
        <time>2017-11-22T11:17:38Z</time>
      </trkpt>
      <trkpt lat="45.94299" lon="4.72312">
        <ele>171</ele>
        <time>2017-11-22T11:17:39Z</time>
      </trkpt>
      <trkpt lat="45.94296" lon="4.72304">
        <ele>171</ele>
        <time>2017-11-22T11:17:40Z</time>
      </trkpt>
      <trkpt lat="45.94293" lon="4.72295">
        <ele>171</ele>
        <time>2017-11-22T11:17:41Z</time>
      </trkpt>
      <trkpt lat="45.9429" lon="4.72287">
        <ele>171</ele>
        <time>2017-11-22T11:17:42Z</time>
      </trkpt>
      <trkpt lat="45.94287" lon="4.72281">
        <ele>171</ele>
        <time>2017-11-22T11:17:43Z</time>
      </trkpt>
      <trkpt lat="45.94282" lon="4.72272">
        <ele>171</ele>
        <time>2017-11-22T11:17:45Z</time>
      </trkpt>
      <trkpt lat="45.9428" lon="4.72267">
        <ele>171</ele>
        <time>2017-11-22T11:17:46Z</time>
      </trkpt>
      <trkpt lat="45.94273" lon="4.72264">
        <ele>171</ele>
        <time>2017-11-22T11:17:48Z</time>
      </trkpt>
      <trkpt lat="45.94267" lon="4.72265">
        <ele>171</ele>
        <time>2017-11-22T11:17:49Z</time>
      </trkpt>
      <trkpt lat="45.9426" lon="4.72268">
        <ele>171</ele>
        <time>2017-11-22T11:17:51Z</time>
      </trkpt>
      <trkpt lat="45.94255" lon="4.7227">
        <ele>171</ele>
        <time>2017-11-22T11:17:52Z</time>
      </trkpt>
      <trkpt lat="45.9425" lon="4.72272">
        <ele>171</ele>
        <time>2017-11-22T11:17:53Z</time>
      </trkpt>
      <trkpt lat="45.94245" lon="4.72272">
        <ele>171</ele>
        <time>2017-11-22T11:17:54Z</time>
      </trkpt>
      <trkpt lat="45.9424" lon="4.72275">
        <ele>171</ele>
        <time>2017-11-22T11:17:55Z</time>
      </trkpt>
      <trkpt lat="45.94235" lon="4.72277">
        <ele>171</ele>
        <time>2017-11-22T11:17:56Z</time>
      </trkpt>
      <trkpt lat="45.94229" lon="4.72279">
        <ele>171</ele>
        <time>2017-11-22T11:17:57Z</time>
      </trkpt>
      <trkpt lat="45.94224" lon="4.72279">
        <ele>171</ele>
        <time>2017-11-22T11:17:58Z</time>
      </trkpt>
      <trkpt lat="45.94216" lon="4.7228">
        <ele>171</ele>
        <time>2017-11-22T11:18:00Z</time>
      </trkpt>
      <trkpt lat="45.94211" lon="4.7228">
        <ele>171</ele>
        <time>2017-11-22T11:18:01Z</time>
      </trkpt>
      <trkpt lat="45.94205" lon="4.72281">
        <ele>171</ele>
        <time>2017-11-22T11:18:02Z</time>
      </trkpt>
      <trkpt lat="45.94199" lon="4.72282">
        <ele>171</ele>
        <time>2017-11-22T11:18:03Z</time>
      </trkpt>
      <trkpt lat="45.94193" lon="4.72283">
        <ele>171</ele>
        <time>2017-11-22T11:18:04Z</time>
      </trkpt>
      <trkpt lat="45.94188" lon="4.72283">
        <ele>171</ele>
        <time>2017-11-22T11:18:05Z</time>
      </trkpt>
      <trkpt lat="45.94183" lon="4.72285">
        <ele>171</ele>
        <time>2017-11-22T11:18:06Z</time>
      </trkpt>
      <trkpt lat="45.94177" lon="4.72285">
        <ele>171</ele>
        <time>2017-11-22T11:18:07Z</time>
      </trkpt>
      <trkpt lat="45.94171" lon="4.72285">
        <ele>171</ele>
        <time>2017-11-22T11:18:08Z</time>
      </trkpt>
      <trkpt lat="45.94165" lon="4.72283">
        <ele>171</ele>
        <time>2017-11-22T11:18:09Z</time>
      </trkpt>
      <trkpt lat="45.94159" lon="4.72281">
        <ele>171</ele>
        <time>2017-11-22T11:18:10Z</time>
      </trkpt>
      <trkpt lat="45.94154" lon="4.72279">
        <ele>171</ele>
        <time>2017-11-22T11:18:11Z</time>
      </trkpt>
      <trkpt lat="45.94148" lon="4.72277">
        <ele>171</ele>
        <time>2017-11-22T11:18:12Z</time>
      </trkpt>
      <trkpt lat="45.94143" lon="4.72275">
        <ele>171</ele>
        <time>2017-11-22T11:18:13Z</time>
      </trkpt>
      <trkpt lat="45.94139" lon="4.72273">
        <ele>171</ele>
        <time>2017-11-22T11:18:14Z</time>
      </trkpt>
      <trkpt lat="45.94133" lon="4.72271">
        <ele>171</ele>
        <time>2017-11-22T11:18:15Z</time>
      </trkpt>
      <trkpt lat="45.94128" lon="4.7227">
        <ele>171</ele>
        <time>2017-11-22T11:18:16Z</time>
      </trkpt>
      <trkpt lat="45.94124" lon="4.72267">
        <ele>171</ele>
        <time>2017-11-22T11:18:17Z</time>
      </trkpt>
      <trkpt lat="45.94121" lon="4.72264">
        <ele>171</ele>
        <time>2017-11-22T11:18:18Z</time>
      </trkpt>
      <trkpt lat="45.94115" lon="4.72262">
        <ele>171</ele>
        <time>2017-11-22T11:18:19Z</time>
      </trkpt>
      <trkpt lat="45.9411" lon="4.72262">
        <ele>171</ele>
        <time>2017-11-22T11:18:20Z</time>
      </trkpt>
      <trkpt lat="45.94104" lon="4.72262">
        <ele>171</ele>
        <time>2017-11-22T11:18:21Z</time>
      </trkpt>
      <trkpt lat="45.94099" lon="4.72262">
        <ele>171</ele>
        <time>2017-11-22T11:18:22Z</time>
      </trkpt>
      <trkpt lat="45.94094" lon="4.72262">
        <ele>171</ele>
        <time>2017-11-22T11:18:23Z</time>
      </trkpt>
      <trkpt lat="45.94087" lon="4.72264">
        <ele>171</ele>
        <time>2017-11-22T11:18:24Z</time>
      </trkpt>
      <trkpt lat="45.94082" lon="4.72267">
        <ele>171</ele>
        <time>2017-11-22T11:18:25Z</time>
      </trkpt>
      <trkpt lat="45.94077" lon="4.7227">
        <ele>171</ele>
        <time>2017-11-22T11:18:26Z</time>
      </trkpt>
      <trkpt lat="45.94071" lon="4.72274">
        <ele>171</ele>
        <time>2017-11-22T11:18:27Z</time>
      </trkpt>
      <trkpt lat="45.94067" lon="4.72278">
        <ele>171</ele>
        <time>2017-11-22T11:18:28Z</time>
      </trkpt>
      <trkpt lat="45.94062" lon="4.72283">
        <ele>171</ele>
        <time>2017-11-22T11:18:29Z</time>
      </trkpt>
      <trkpt lat="45.94058" lon="4.72288">
        <ele>171</ele>
        <time>2017-11-22T11:18:30Z</time>
      </trkpt>
      <trkpt lat="45.94055" lon="4.72294">
        <ele>171</ele>
        <time>2017-11-22T11:18:31Z</time>
      </trkpt>
      <trkpt lat="45.94051" lon="4.723">
        <ele>171</ele>
        <time>2017-11-22T11:18:32Z</time>
      </trkpt>
      <trkpt lat="45.94047" lon="4.72305">
        <ele>171</ele>
        <time>2017-11-22T11:18:33Z</time>
      </trkpt>
      <trkpt lat="45.94044" lon="4.72309">
        <ele>171</ele>
        <time>2017-11-22T11:18:34Z</time>
      </trkpt>
      <trkpt lat="45.9404" lon="4.72314">
        <ele>171</ele>
        <time>2017-11-22T11:18:35Z</time>
      </trkpt>
      <trkpt lat="45.94036" lon="4.7232">
        <ele>171</ele>
        <time>2017-11-22T11:18:36Z</time>
      </trkpt>
      <trkpt lat="45.94032" lon="4.72326">
        <ele>171</ele>
        <time>2017-11-22T11:18:37Z</time>
      </trkpt>
      <trkpt lat="45.94028" lon="4.72332">
        <ele>171</ele>
        <time>2017-11-22T11:18:38Z</time>
      </trkpt>
      <trkpt lat="45.94023" lon="4.72337">
        <ele>171</ele>
        <time>2017-11-22T11:18:39Z</time>
      </trkpt>
      <trkpt lat="45.94019" lon="4.72343">
        <ele>171</ele>
        <time>2017-11-22T11:18:40Z</time>
      </trkpt>
      <trkpt lat="45.94014" lon="4.72349">
        <ele>171</ele>
        <time>2017-11-22T11:18:41Z</time>
      </trkpt>
      <trkpt lat="45.94009" lon="4.72354">
        <ele>171</ele>
        <time>2017-11-22T11:18:42Z</time>
      </trkpt>
      <trkpt lat="45.94005" lon="4.7236">
        <ele>171</ele>
        <time>2017-11-22T11:18:43Z</time>
      </trkpt>
      <trkpt lat="45.94" lon="4.72366">
        <ele>171</ele>
        <time>2017-11-22T11:18:44Z</time>
      </trkpt>
      <trkpt lat="45.93996" lon="4.72371">
        <ele>171</ele>
        <time>2017-11-22T11:18:45Z</time>
      </trkpt>
      <trkpt lat="45.93991" lon="4.72377">
        <ele>171</ele>
        <time>2017-11-22T11:18:46Z</time>
      </trkpt>
      <trkpt lat="45.93986" lon="4.72382">
        <ele>171</ele>
        <time>2017-11-22T11:18:47Z</time>
      </trkpt>
      <trkpt lat="45.93981" lon="4.72387">
        <ele>171</ele>
        <time>2017-11-22T11:18:48Z</time>
      </trkpt>
      <trkpt lat="45.93978" lon="4.72393">
        <ele>171</ele>
        <time>2017-11-22T11:18:49Z</time>
      </trkpt>
      <trkpt lat="45.93975" lon="4.72398">
        <ele>171</ele>
        <time>2017-11-22T11:18:50Z</time>
      </trkpt>
      <trkpt lat="45.93972" lon="4.72403">
        <ele>171</ele>
        <time>2017-11-22T11:18:51Z</time>
      </trkpt>
      <trkpt lat="45.93968" lon="4.72408">
        <ele>171</ele>
        <time>2017-11-22T11:18:52Z</time>
      </trkpt>
      <trkpt lat="45.93964" lon="4.72411">
        <ele>171</ele>
        <time>2017-11-22T11:18:53Z</time>
      </trkpt>
      <trkpt lat="45.93959" lon="4.72416">
        <ele>171</ele>
        <time>2017-11-22T11:18:54Z</time>
      </trkpt>
      <trkpt lat="45.93955" lon="4.72419">
        <ele>171</ele>
        <time>2017-11-22T11:18:55Z</time>
      </trkpt>
      <trkpt lat="45.9395" lon="4.72424">
        <ele>171</ele>
        <time>2017-11-22T11:18:56Z</time>
      </trkpt>
      <trkpt lat="45.93946" lon="4.72428">
        <ele>171</ele>
        <time>2017-11-22T11:18:57Z</time>
      </trkpt>
      <trkpt lat="45.93941" lon="4.72432">
        <ele>171</ele>
        <time>2017-11-22T11:18:58Z</time>
      </trkpt>
      <trkpt lat="45.93937" lon="4.72439">
        <ele>171</ele>
        <time>2017-11-22T11:18:59Z</time>
      </trkpt>
      <trkpt lat="45.93933" lon="4.72445">
        <ele>171</ele>
        <time>2017-11-22T11:19:00Z</time>
      </trkpt>
      <trkpt lat="45.93929" lon="4.72451">
        <ele>171</ele>
        <time>2017-11-22T11:19:01Z</time>
      </trkpt>
      <trkpt lat="45.93923" lon="4.72457">
        <ele>171</ele>
        <time>2017-11-22T11:19:02Z</time>
      </trkpt>
      <trkpt lat="45.93919" lon="4.72461">
        <ele>171</ele>
        <time>2017-11-22T11:19:03Z</time>
      </trkpt>
      <trkpt lat="45.93915" lon="4.72467">
        <ele>172</ele>
        <time>2017-11-22T11:19:04Z</time>
      </trkpt>
      <trkpt lat="45.93911" lon="4.7247">
        <ele>172</ele>
        <time>2017-11-22T11:19:05Z</time>
      </trkpt>
      <trkpt lat="45.93908" lon="4.72474">
        <ele>172</ele>
        <time>2017-11-22T11:19:06Z</time>
      </trkpt>
      <trkpt lat="45.93905" lon="4.7248">
        <ele>172</ele>
        <time>2017-11-22T11:19:07Z</time>
      </trkpt>
      <trkpt lat="45.93898" lon="4.72488">
        <ele>172</ele>
        <time>2017-11-22T11:19:09Z</time>
      </trkpt>
      <trkpt lat="45.93894" lon="4.72492">
        <ele>172</ele>
        <time>2017-11-22T11:19:10Z</time>
      </trkpt>
      <trkpt lat="45.93888" lon="4.725">
        <ele>173</ele>
        <time>2017-11-22T11:19:12Z</time>
      </trkpt>
      <trkpt lat="45.93884" lon="4.72504">
        <ele>173</ele>
        <time>2017-11-22T11:19:13Z</time>
      </trkpt>
      <trkpt lat="45.9388" lon="4.72509">
        <ele>173</ele>
        <time>2017-11-22T11:19:14Z</time>
      </trkpt>
      <trkpt lat="45.93876" lon="4.72512">
        <ele>173</ele>
        <time>2017-11-22T11:19:15Z</time>
      </trkpt>
      <trkpt lat="45.93868" lon="4.72513">
        <ele>173</ele>
        <time>2017-11-22T11:19:17Z</time>
      </trkpt>
      <trkpt lat="45.93863" lon="4.72512">
        <ele>173</ele>
        <time>2017-11-22T11:19:18Z</time>
      </trkpt>
      <trkpt lat="45.93856" lon="4.72507">
        <ele>173</ele>
        <time>2017-11-22T11:19:20Z</time>
      </trkpt>
      <trkpt lat="45.93853" lon="4.72504">
        <ele>173</ele>
        <time>2017-11-22T11:19:21Z</time>
      </trkpt>
      <trkpt lat="45.93848" lon="4.725">
        <ele>173</ele>
        <time>2017-11-22T11:19:23Z</time>
      </trkpt>
      <trkpt lat="45.93844" lon="4.72499">
        <ele>173</ele>
        <time>2017-11-22T11:19:24Z</time>
      </trkpt>
      <trkpt lat="45.93839" lon="4.72496">
        <ele>174</ele>
        <time>2017-11-22T11:19:25Z</time>
      </trkpt>
      <trkpt lat="45.93831" lon="4.72489">
        <ele>173</ele>
        <time>2017-11-22T11:19:26Z</time>
      </trkpt>
      <trkpt lat="45.93827" lon="4.72484">
        <ele>173</ele>
        <time>2017-11-22T11:19:27Z</time>
      </trkpt>
      <trkpt lat="45.93823" lon="4.72481">
        <ele>173</ele>
        <time>2017-11-22T11:19:28Z</time>
      </trkpt>
      <trkpt lat="45.93821" lon="4.72473">
        <ele>172</ele>
        <time>2017-11-22T11:19:29Z</time>
      </trkpt>
      <trkpt lat="45.93815" lon="4.7247">
        <ele>172</ele>
        <time>2017-11-22T11:19:30Z</time>
      </trkpt>
      <trkpt lat="45.93807" lon="4.72465">
        <ele>172</ele>
        <time>2017-11-22T11:19:32Z</time>
      </trkpt>
      <trkpt lat="45.93801" lon="4.72457">
        <ele>172</ele>
        <time>2017-11-22T11:19:33Z</time>
      </trkpt>
      <trkpt lat="45.93795" lon="4.72453">
        <ele>172</ele>
        <time>2017-11-22T11:19:35Z</time>
      </trkpt>
      <trkpt lat="45.93789" lon="4.72448">
        <ele>172</ele>
        <time>2017-11-22T11:19:36Z</time>
      </trkpt>
      <trkpt lat="45.93784" lon="4.72439">
        <ele>172</ele>
        <time>2017-11-22T11:19:38Z</time>
      </trkpt>
      <trkpt lat="45.9378" lon="4.72435">
        <ele>172</ele>
        <time>2017-11-22T11:19:39Z</time>
      </trkpt>
      <trkpt lat="45.93775" lon="4.72427">
        <ele>171</ele>
        <time>2017-11-22T11:19:41Z</time>
      </trkpt>
      <trkpt lat="45.93771" lon="4.72424">
        <ele>171</ele>
        <time>2017-11-22T11:19:42Z</time>
      </trkpt>
      <trkpt lat="45.93765" lon="4.72418">
        <ele>171</ele>
        <time>2017-11-22T11:19:44Z</time>
      </trkpt>
      <trkpt lat="45.93762" lon="4.72414">
        <ele>171</ele>
        <time>2017-11-22T11:19:45Z</time>
      </trkpt>
      <trkpt lat="45.93758" lon="4.72411">
        <ele>171</ele>
        <time>2017-11-22T11:19:46Z</time>
      </trkpt>
      <trkpt lat="45.93753" lon="4.72408">
        <ele>171</ele>
        <time>2017-11-22T11:19:47Z</time>
      </trkpt>
      <trkpt lat="45.9375" lon="4.72403">
        <ele>171</ele>
        <time>2017-11-22T11:19:48Z</time>
      </trkpt>
      <trkpt lat="45.93745" lon="4.72399">
        <ele>171</ele>
        <time>2017-11-22T11:19:49Z</time>
      </trkpt>
      <trkpt lat="45.93741" lon="4.72395">
        <ele>171</ele>
        <time>2017-11-22T11:19:50Z</time>
      </trkpt>
      <trkpt lat="45.93737" lon="4.72391">
        <ele>171</ele>
        <time>2017-11-22T11:19:51Z</time>
      </trkpt>
      <trkpt lat="45.93732" lon="4.72387">
        <ele>171</ele>
        <time>2017-11-22T11:19:52Z</time>
      </trkpt>
      <trkpt lat="45.93728" lon="4.72382">
        <ele>171</ele>
        <time>2017-11-22T11:19:53Z</time>
      </trkpt>
      <trkpt lat="45.93722" lon="4.72378">
        <ele>171</ele>
        <time>2017-11-22T11:19:54Z</time>
      </trkpt>
      <trkpt lat="45.93718" lon="4.72371">
        <ele>172</ele>
        <time>2017-11-22T11:19:55Z</time>
      </trkpt>
      <trkpt lat="45.93714" lon="4.72367">
        <ele>172</ele>
        <time>2017-11-22T11:19:56Z</time>
      </trkpt>
      <trkpt lat="45.93709" lon="4.72362">
        <ele>172</ele>
        <time>2017-11-22T11:19:57Z</time>
      </trkpt>
      <trkpt lat="45.93704" lon="4.72357">
        <ele>171</ele>
        <time>2017-11-22T11:19:58Z</time>
      </trkpt>
      <trkpt lat="45.937" lon="4.72352">
        <ele>171</ele>
        <time>2017-11-22T11:19:59Z</time>
      </trkpt>
      <trkpt lat="45.93696" lon="4.72347">
        <ele>171</ele>
        <time>2017-11-22T11:20:00Z</time>
      </trkpt>
      <trkpt lat="45.93691" lon="4.72343">
        <ele>171</ele>
        <time>2017-11-22T11:20:01Z</time>
      </trkpt>
      <trkpt lat="45.93684" lon="4.72337">
        <ele>171</ele>
        <time>2017-11-22T11:20:03Z</time>
      </trkpt>
      <trkpt lat="45.9368" lon="4.72333">
        <ele>171</ele>
        <time>2017-11-22T11:20:04Z</time>
      </trkpt>
      <trkpt lat="45.93676" lon="4.72329">
        <ele>171</ele>
        <time>2017-11-22T11:20:05Z</time>
      </trkpt>
      <trkpt lat="45.93672" lon="4.72324">
        <ele>171</ele>
        <time>2017-11-22T11:20:06Z</time>
      </trkpt>
      <trkpt lat="45.93668" lon="4.72321">
        <ele>171</ele>
        <time>2017-11-22T11:20:07Z</time>
      </trkpt>
      <trkpt lat="45.93664" lon="4.72317">
        <ele>172</ele>
        <time>2017-11-22T11:20:08Z</time>
      </trkpt>
      <trkpt lat="45.93656" lon="4.7231">
        <ele>172</ele>
        <time>2017-11-22T11:20:10Z</time>
      </trkpt>
      <trkpt lat="45.93652" lon="4.72306">
        <ele>172</ele>
        <time>2017-11-22T11:20:11Z</time>
      </trkpt>
      <trkpt lat="45.93646" lon="4.72299">
        <ele>172</ele>
        <time>2017-11-22T11:20:13Z</time>
      </trkpt>
      <trkpt lat="45.93643" lon="4.72296">
        <ele>172</ele>
        <time>2017-11-22T11:20:14Z</time>
      </trkpt>
      <trkpt lat="45.93638" lon="4.72293">
        <ele>172</ele>
        <time>2017-11-22T11:20:15Z</time>
      </trkpt>
      <trkpt lat="45.93635" lon="4.72289">
        <ele>172</ele>
        <time>2017-11-22T11:20:16Z</time>
      </trkpt>
      <trkpt lat="45.93631" lon="4.72285">
        <ele>172</ele>
        <time>2017-11-22T11:20:17Z</time>
      </trkpt>
      <trkpt lat="45.93627" lon="4.72282">
        <ele>172</ele>
        <time>2017-11-22T11:20:18Z</time>
      </trkpt>
      <trkpt lat="45.93623" lon="4.72278">
        <ele>172</ele>
        <time>2017-11-22T11:20:19Z</time>
      </trkpt>
      <trkpt lat="45.93619" lon="4.72275">
        <ele>172</ele>
        <time>2017-11-22T11:20:20Z</time>
      </trkpt>
      <trkpt lat="45.93612" lon="4.72268">
        <ele>172</ele>
        <time>2017-11-22T11:20:22Z</time>
      </trkpt>
      <trkpt lat="45.93608" lon="4.72265">
        <ele>172</ele>
        <time>2017-11-22T11:20:23Z</time>
      </trkpt>
      <trkpt lat="45.93601" lon="4.72258">
        <ele>173</ele>
        <time>2017-11-22T11:20:25Z</time>
      </trkpt>
      <trkpt lat="45.93597" lon="4.72255">
        <ele>173</ele>
        <time>2017-11-22T11:20:26Z</time>
      </trkpt>
      <trkpt lat="45.93591" lon="4.72248">
        <ele>173</ele>
        <time>2017-11-22T11:20:28Z</time>
      </trkpt>
      <trkpt lat="45.93588" lon="4.72244">
        <ele>173</ele>
        <time>2017-11-22T11:20:29Z</time>
      </trkpt>
      <trkpt lat="45.93583" lon="4.72237">
        <ele>173</ele>
        <time>2017-11-22T11:20:31Z</time>
      </trkpt>
      <trkpt lat="45.9358" lon="4.72234">
        <ele>173</ele>
        <time>2017-11-22T11:20:32Z</time>
      </trkpt>
      <trkpt lat="45.93575" lon="4.72228">
        <ele>173</ele>
        <time>2017-11-22T11:20:34Z</time>
      </trkpt>
      <trkpt lat="45.93573" lon="4.72225">
        <ele>173</ele>
        <time>2017-11-22T11:20:35Z</time>
      </trkpt>
      <trkpt lat="45.93566" lon="4.7222">
        <ele>173</ele>
        <time>2017-11-22T11:20:39Z</time>
      </trkpt>
      <trkpt lat="45.93565" lon="4.72219">
        <ele>173</ele>
        <time>2017-11-22T11:20:40Z</time>
      </trkpt>
      <trkpt lat="45.93558" lon="4.72216">
        <ele>173</ele>
        <time>2017-11-22T11:20:43Z</time>
      </trkpt>
      <trkpt lat="45.93555" lon="4.72216">
        <ele>173</ele>
        <time>2017-11-22T11:20:44Z</time>
      </trkpt>
      <trkpt lat="45.93549" lon="4.72222">
        <ele>172</ele>
        <time>2017-11-22T11:20:46Z</time>
      </trkpt>
      <trkpt lat="45.93547" lon="4.72227">
        <ele>172</ele>
        <time>2017-11-22T11:20:47Z</time>
      </trkpt>
      <trkpt lat="45.93542" lon="4.72238">
        <ele>172</ele>
        <time>2017-11-22T11:20:49Z</time>
      </trkpt>
      <trkpt lat="45.9354" lon="4.72243">
        <ele>172</ele>
        <time>2017-11-22T11:20:50Z</time>
      </trkpt>
      <trkpt lat="45.93537" lon="4.72251">
        <ele>172</ele>
        <time>2017-11-22T11:20:51Z</time>
      </trkpt>
      <trkpt lat="45.93534" lon="4.72256">
        <ele>172</ele>
        <time>2017-11-22T11:20:52Z</time>
      </trkpt>
      <trkpt lat="45.93531" lon="4.72263">
        <ele>172</ele>
        <time>2017-11-22T11:20:53Z</time>
      </trkpt>
      <trkpt lat="45.93528" lon="4.72268">
        <ele>172</ele>
        <time>2017-11-22T11:20:54Z</time>
      </trkpt>
      <trkpt lat="45.93525" lon="4.72275">
        <ele>172</ele>
        <time>2017-11-22T11:20:55Z</time>
      </trkpt>
      <trkpt lat="45.93522" lon="4.72281">
        <ele>172</ele>
        <time>2017-11-22T11:20:56Z</time>
      </trkpt>
      <trkpt lat="45.93519" lon="4.72288">
        <ele>172</ele>
        <time>2017-11-22T11:20:57Z</time>
      </trkpt>
      <trkpt lat="45.93517" lon="4.72293">
        <ele>172</ele>
        <time>2017-11-22T11:20:58Z</time>
      </trkpt>
      <trkpt lat="45.93513" lon="4.723">
        <ele>172</ele>
        <time>2017-11-22T11:20:59Z</time>
      </trkpt>
      <trkpt lat="45.9351" lon="4.72305">
        <ele>173</ele>
        <time>2017-11-22T11:21:00Z</time>
      </trkpt>
      <trkpt lat="45.93506" lon="4.72312">
        <ele>173</ele>
        <time>2017-11-22T11:21:01Z</time>
      </trkpt>
      <trkpt lat="45.93502" lon="4.72318">
        <ele>173</ele>
        <time>2017-11-22T11:21:02Z</time>
      </trkpt>
      <trkpt lat="45.93497" lon="4.72324">
        <ele>173</ele>
        <time>2017-11-22T11:21:03Z</time>
      </trkpt>
      <trkpt lat="45.93493" lon="4.7233">
        <ele>173</ele>
        <time>2017-11-22T11:21:04Z</time>
      </trkpt>
      <trkpt lat="45.93489" lon="4.72336">
        <ele>173</ele>
        <time>2017-11-22T11:21:05Z</time>
      </trkpt>
      <trkpt lat="45.93486" lon="4.72341">
        <ele>173</ele>
        <time>2017-11-22T11:21:06Z</time>
      </trkpt>
      <trkpt lat="45.93482" lon="4.72346">
        <ele>173</ele>
        <time>2017-11-22T11:21:07Z</time>
      </trkpt>
      <trkpt lat="45.93478" lon="4.72351">
        <ele>173</ele>
        <time>2017-11-22T11:21:08Z</time>
      </trkpt>
      <trkpt lat="45.93472" lon="4.72361">
        <ele>173</ele>
        <time>2017-11-22T11:21:10Z</time>
      </trkpt>
      <trkpt lat="45.93469" lon="4.72365">
        <ele>173</ele>
        <time>2017-11-22T11:21:11Z</time>
      </trkpt>
      <trkpt lat="45.93463" lon="4.72369">
        <ele>173</ele>
        <time>2017-11-22T11:21:12Z</time>
      </trkpt>
      <trkpt lat="45.93458" lon="4.72376">
        <ele>173</ele>
        <time>2017-11-22T11:21:13Z</time>
      </trkpt>
      <trkpt lat="45.93453" lon="4.72382">
        <ele>173</ele>
        <time>2017-11-22T11:21:14Z</time>
      </trkpt>
      <trkpt lat="45.93448" lon="4.72387">
        <ele>173</ele>
        <time>2017-11-22T11:21:15Z</time>
      </trkpt>
      <trkpt lat="45.93441" lon="4.72393">
        <ele>173</ele>
        <time>2017-11-22T11:21:17Z</time>
      </trkpt>
      <trkpt lat="45.93437" lon="4.72396">
        <ele>173</ele>
        <time>2017-11-22T11:21:18Z</time>
      </trkpt>
      <trkpt lat="45.93431" lon="4.72399">
        <ele>174</ele>
        <time>2017-11-22T11:21:20Z</time>
      </trkpt>
      <trkpt lat="45.93427" lon="4.72401">
        <ele>174</ele>
        <time>2017-11-22T11:21:21Z</time>
      </trkpt>
      <trkpt lat="45.93419" lon="4.72404">
        <ele>174</ele>
        <time>2017-11-22T11:21:23Z</time>
      </trkpt>
      <trkpt lat="45.93416" lon="4.72407">
        <ele>174</ele>
        <time>2017-11-22T11:21:24Z</time>
      </trkpt>
      <trkpt lat="45.93408" lon="4.72408">
        <ele>174</ele>
        <time>2017-11-22T11:21:26Z</time>
      </trkpt>
      <trkpt lat="45.93403" lon="4.72407">
        <ele>174</ele>
        <time>2017-11-22T11:21:27Z</time>
      </trkpt>
      <trkpt lat="45.93399" lon="4.72407">
        <ele>174</ele>
        <time>2017-11-22T11:21:28Z</time>
      </trkpt>
      <trkpt lat="45.93393" lon="4.72407">
        <ele>174</ele>
        <time>2017-11-22T11:21:29Z</time>
      </trkpt>
      <trkpt lat="45.93389" lon="4.72409">
        <ele>174</ele>
        <time>2017-11-22T11:21:30Z</time>
      </trkpt>
      <trkpt lat="45.93385" lon="4.72413">
        <ele>174</ele>
        <time>2017-11-22T11:21:31Z</time>
      </trkpt>
      <trkpt lat="45.93383" lon="4.72419">
        <ele>173</ele>
        <time>2017-11-22T11:21:32Z</time>
      </trkpt>
      <trkpt lat="45.93383" lon="4.72425">
        <ele>173</ele>
        <time>2017-11-22T11:21:33Z</time>
      </trkpt>
      <trkpt lat="45.93385" lon="4.72432">
        <ele>173</ele>
        <time>2017-11-22T11:21:34Z</time>
      </trkpt>
      <trkpt lat="45.93387" lon="4.72439">
        <ele>173</ele>
        <time>2017-11-22T11:21:35Z</time>
      </trkpt>
      <trkpt lat="45.93389" lon="4.72444">
        <ele>173</ele>
        <time>2017-11-22T11:21:36Z</time>
      </trkpt>
      <trkpt lat="45.93391" lon="4.72451">
        <ele>173</ele>
        <time>2017-11-22T11:21:37Z</time>
      </trkpt>
      <trkpt lat="45.93391" lon="4.72458">
        <ele>173</ele>
        <time>2017-11-22T11:21:38Z</time>
      </trkpt>
      <trkpt lat="45.93388" lon="4.72464">
        <ele>173</ele>
        <time>2017-11-22T11:21:39Z</time>
      </trkpt>
      <trkpt lat="45.93384" lon="4.7247">
        <ele>173</ele>
        <time>2017-11-22T11:21:40Z</time>
      </trkpt>
      <trkpt lat="45.93381" lon="4.72478">
        <ele>173</ele>
        <time>2017-11-22T11:21:41Z</time>
      </trkpt>
      <trkpt lat="45.93377" lon="4.72482">
        <ele>173</ele>
        <time>2017-11-22T11:21:42Z</time>
      </trkpt>
      <trkpt lat="45.93373" lon="4.72486">
        <ele>173</ele>
        <time>2017-11-22T11:21:43Z</time>
      </trkpt>
      <trkpt lat="45.93368" lon="4.72492">
        <ele>173</ele>
        <time>2017-11-22T11:21:44Z</time>
      </trkpt>
      <trkpt lat="45.93363" lon="4.72498">
        <ele>173</ele>
        <time>2017-11-22T11:21:45Z</time>
      </trkpt>
      <trkpt lat="45.93359" lon="4.72503">
        <ele>172</ele>
        <time>2017-11-22T11:21:46Z</time>
      </trkpt>
      <trkpt lat="45.93353" lon="4.72507">
        <ele>172</ele>
        <time>2017-11-22T11:21:47Z</time>
      </trkpt>
      <trkpt lat="45.93348" lon="4.72513">
        <ele>172</ele>
        <time>2017-11-22T11:21:48Z</time>
      </trkpt>
      <trkpt lat="45.93343" lon="4.72517">
        <ele>172</ele>
        <time>2017-11-22T11:21:49Z</time>
      </trkpt>
      <trkpt lat="45.93338" lon="4.72522">
        <ele>172</ele>
        <time>2017-11-22T11:21:50Z</time>
      </trkpt>
      <trkpt lat="45.93334" lon="4.72527">
        <ele>172</ele>
        <time>2017-11-22T11:21:51Z</time>
      </trkpt>
      <trkpt lat="45.9333" lon="4.72533">
        <ele>172</ele>
        <time>2017-11-22T11:21:52Z</time>
      </trkpt>
      <trkpt lat="45.93326" lon="4.72538">
        <ele>172</ele>
        <time>2017-11-22T11:21:53Z</time>
      </trkpt>
      <trkpt lat="45.93321" lon="4.72542">
        <ele>172</ele>
        <time>2017-11-22T11:21:54Z</time>
      </trkpt>
      <trkpt lat="45.93316" lon="4.72547">
        <ele>172</ele>
        <time>2017-11-22T11:21:55Z</time>
      </trkpt>
      <trkpt lat="45.93312" lon="4.72553">
        <ele>172</ele>
        <time>2017-11-22T11:21:56Z</time>
      </trkpt>
      <trkpt lat="45.93309" lon="4.72558">
        <ele>172</ele>
        <time>2017-11-22T11:21:57Z</time>
      </trkpt>
      <trkpt lat="45.93303" lon="4.72564">
        <ele>172</ele>
        <time>2017-11-22T11:21:58Z</time>
      </trkpt>
      <trkpt lat="45.93299" lon="4.7257">
        <ele>171</ele>
        <time>2017-11-22T11:21:59Z</time>
      </trkpt>
      <trkpt lat="45.93295" lon="4.72575">
        <ele>171</ele>
        <time>2017-11-22T11:22:00Z</time>
      </trkpt>
      <trkpt lat="45.93291" lon="4.7258">
        <ele>171</ele>
        <time>2017-11-22T11:22:01Z</time>
      </trkpt>
      <trkpt lat="45.93286" lon="4.72585">
        <ele>170</ele>
        <time>2017-11-22T11:22:02Z</time>
      </trkpt>
      <trkpt lat="45.9328" lon="4.72591">
        <ele>170</ele>
        <time>2017-11-22T11:22:03Z</time>
      </trkpt>
      <trkpt lat="45.93276" lon="4.72595">
        <ele>170</ele>
        <time>2017-11-22T11:22:04Z</time>
      </trkpt>
      <trkpt lat="45.93271" lon="4.726">
        <ele>170</ele>
        <time>2017-11-22T11:22:05Z</time>
      </trkpt>
      <trkpt lat="45.93267" lon="4.72606">
        <ele>170</ele>
        <time>2017-11-22T11:22:06Z</time>
      </trkpt>
      <trkpt lat="45.93262" lon="4.72611">
        <ele>170</ele>
        <time>2017-11-22T11:22:07Z</time>
      </trkpt>
      <trkpt lat="45.93258" lon="4.72615">
        <ele>170</ele>
        <time>2017-11-22T11:22:08Z</time>
      </trkpt>
      <trkpt lat="45.93253" lon="4.7262">
        <ele>170</ele>
        <time>2017-11-22T11:22:09Z</time>
      </trkpt>
      <trkpt lat="45.93249" lon="4.72625">
        <ele>170</ele>
        <time>2017-11-22T11:22:10Z</time>
      </trkpt>
      <trkpt lat="45.93245" lon="4.7263">
        <ele>170</ele>
        <time>2017-11-22T11:22:11Z</time>
      </trkpt>
      <trkpt lat="45.93241" lon="4.72635">
        <ele>170</ele>
        <time>2017-11-22T11:22:12Z</time>
      </trkpt>
      <trkpt lat="45.93237" lon="4.7264">
        <ele>170</ele>
        <time>2017-11-22T11:22:13Z</time>
      </trkpt>
      <trkpt lat="45.93232" lon="4.72646">
        <ele>170</ele>
        <time>2017-11-22T11:22:14Z</time>
      </trkpt>
      <trkpt lat="45.93228" lon="4.7265">
        <ele>170</ele>
        <time>2017-11-22T11:22:15Z</time>
      </trkpt>
      <trkpt lat="45.93224" lon="4.72655">
        <ele>170</ele>
        <time>2017-11-22T11:22:16Z</time>
      </trkpt>
      <trkpt lat="45.93219" lon="4.72659">
        <ele>170</ele>
        <time>2017-11-22T11:22:17Z</time>
      </trkpt>
      <trkpt lat="45.93214" lon="4.72665">
        <ele>170</ele>
        <time>2017-11-22T11:22:18Z</time>
      </trkpt>
      <trkpt lat="45.9321" lon="4.7267">
        <ele>169</ele>
        <time>2017-11-22T11:22:19Z</time>
      </trkpt>
      <trkpt lat="45.93206" lon="4.72675">
        <ele>169</ele>
        <time>2017-11-22T11:22:20Z</time>
      </trkpt>
      <trkpt lat="45.93202" lon="4.72679">
        <ele>169</ele>
        <time>2017-11-22T11:22:21Z</time>
      </trkpt>
      <trkpt lat="45.93197" lon="4.72684">
        <ele>169</ele>
        <time>2017-11-22T11:22:22Z</time>
      </trkpt>
      <trkpt lat="45.93193" lon="4.72689">
        <ele>169</ele>
        <time>2017-11-22T11:22:23Z</time>
      </trkpt>
      <trkpt lat="45.93189" lon="4.72695">
        <ele>169</ele>
        <time>2017-11-22T11:22:24Z</time>
      </trkpt>
      <trkpt lat="45.93185" lon="4.727">
        <ele>169</ele>
        <time>2017-11-22T11:22:25Z</time>
      </trkpt>
      <trkpt lat="45.93181" lon="4.72706">
        <ele>169</ele>
        <time>2017-11-22T11:22:26Z</time>
      </trkpt>
      <trkpt lat="45.93177" lon="4.7271">
        <ele>169</ele>
        <time>2017-11-22T11:22:27Z</time>
      </trkpt>
      <trkpt lat="45.93171" lon="4.72714">
        <ele>170</ele>
        <time>2017-11-22T11:22:28Z</time>
      </trkpt>
      <trkpt lat="45.93167" lon="4.7272">
        <ele>170</ele>
        <time>2017-11-22T11:22:29Z</time>
      </trkpt>
      <trkpt lat="45.93163" lon="4.72724">
        <ele>170</ele>
        <time>2017-11-22T11:22:30Z</time>
      </trkpt>
      <trkpt lat="45.93158" lon="4.72729">
        <ele>170</ele>
        <time>2017-11-22T11:22:31Z</time>
      </trkpt>
      <trkpt lat="45.93154" lon="4.72734">
        <ele>170</ele>
        <time>2017-11-22T11:22:32Z</time>
      </trkpt>
      <trkpt lat="45.9315" lon="4.72739">
        <ele>170</ele>
        <time>2017-11-22T11:22:33Z</time>
      </trkpt>
      <trkpt lat="45.93145" lon="4.72745">
        <ele>170</ele>
        <time>2017-11-22T11:22:34Z</time>
      </trkpt>
      <trkpt lat="45.93141" lon="4.7275">
        <ele>171</ele>
        <time>2017-11-22T11:22:35Z</time>
      </trkpt>
      <trkpt lat="45.93137" lon="4.72755">
        <ele>171</ele>
        <time>2017-11-22T11:22:36Z</time>
      </trkpt>
      <trkpt lat="45.93133" lon="4.7276">
        <ele>171</ele>
        <time>2017-11-22T11:22:37Z</time>
      </trkpt>
      <trkpt lat="45.93128" lon="4.72765">
        <ele>171</ele>
        <time>2017-11-22T11:22:38Z</time>
      </trkpt>
      <trkpt lat="45.93125" lon="4.7277">
        <ele>171</ele>
        <time>2017-11-22T11:22:39Z</time>
      </trkpt>
      <trkpt lat="45.93119" lon="4.72777">
        <ele>171</ele>
        <time>2017-11-22T11:22:40Z</time>
      </trkpt>
      <trkpt lat="45.93115" lon="4.72782">
        <ele>171</ele>
        <time>2017-11-22T11:22:41Z</time>
      </trkpt>
      <trkpt lat="45.93111" lon="4.72787">
        <ele>171</ele>
        <time>2017-11-22T11:22:42Z</time>
      </trkpt>
      <trkpt lat="45.93106" lon="4.72793">
        <ele>171</ele>
        <time>2017-11-22T11:22:43Z</time>
      </trkpt>
      <trkpt lat="45.93101" lon="4.72799">
        <ele>171</ele>
        <time>2017-11-22T11:22:44Z</time>
      </trkpt>
      <trkpt lat="45.93097" lon="4.72804">
        <ele>171</ele>
        <time>2017-11-22T11:22:45Z</time>
      </trkpt>
      <trkpt lat="45.93092" lon="4.72809">
        <ele>172</ele>
        <time>2017-11-22T11:22:46Z</time>
      </trkpt>
      <trkpt lat="45.93087" lon="4.72814">
        <ele>172</ele>
        <time>2017-11-22T11:22:47Z</time>
      </trkpt>
      <trkpt lat="45.93083" lon="4.7282">
        <ele>173</ele>
        <time>2017-11-22T11:22:48Z</time>
      </trkpt>
      <trkpt lat="45.93079" lon="4.72825">
        <ele>173</ele>
        <time>2017-11-22T11:22:49Z</time>
      </trkpt>
      <trkpt lat="45.93075" lon="4.7283">
        <ele>173</ele>
        <time>2017-11-22T11:22:52Z</time>
      </trkpt>
      <trkpt lat="45.93073" lon="4.7286">
        <ele>172</ele>
        <time>2017-11-22T11:22:53Z</time>
      </trkpt>
      <trkpt lat="45.93065" lon="4.72858">
        <ele>172</ele>
        <time>2017-11-22T11:22:54Z</time>
      </trkpt>
      <trkpt lat="45.93054" lon="4.7286">
        <ele>172</ele>
        <time>2017-11-22T11:22:55Z</time>
      </trkpt>
      <trkpt lat="45.93046" lon="4.72864">
        <ele>172</ele>
        <time>2017-11-22T11:22:56Z</time>
      </trkpt>
      <trkpt lat="45.93041" lon="4.72871">
        <ele>172</ele>
        <time>2017-11-22T11:22:57Z</time>
      </trkpt>
      <trkpt lat="45.93036" lon="4.72876">
        <ele>172</ele>
        <time>2017-11-22T11:22:58Z</time>
      </trkpt>
      <trkpt lat="45.93032" lon="4.72881">
        <ele>172</ele>
        <time>2017-11-22T11:22:59Z</time>
      </trkpt>
      <trkpt lat="45.93028" lon="4.72886">
        <ele>172</ele>
        <time>2017-11-22T11:23:00Z</time>
      </trkpt>
      <trkpt lat="45.93024" lon="4.72892">
        <ele>172</ele>
        <time>2017-11-22T11:23:01Z</time>
      </trkpt>
      <trkpt lat="45.93019" lon="4.72897">
        <ele>172</ele>
        <time>2017-11-22T11:23:02Z</time>
      </trkpt>
      <trkpt lat="45.93015" lon="4.72901">
        <ele>172</ele>
        <time>2017-11-22T11:23:03Z</time>
      </trkpt>
      <trkpt lat="45.9301" lon="4.72907">
        <ele>171</ele>
        <time>2017-11-22T11:23:04Z</time>
      </trkpt>
      <trkpt lat="45.93006" lon="4.72913">
        <ele>171</ele>
        <time>2017-11-22T11:23:05Z</time>
      </trkpt>
      <trkpt lat="45.93002" lon="4.72918">
        <ele>171</ele>
        <time>2017-11-22T11:23:06Z</time>
      </trkpt>
      <trkpt lat="45.92997" lon="4.72923">
        <ele>171</ele>
        <time>2017-11-22T11:23:07Z</time>
      </trkpt>
      <trkpt lat="45.92993" lon="4.72928">
        <ele>171</ele>
        <time>2017-11-22T11:23:08Z</time>
      </trkpt>
      <trkpt lat="45.92988" lon="4.72933">
        <ele>171</ele>
        <time>2017-11-22T11:23:09Z</time>
      </trkpt>
      <trkpt lat="45.92984" lon="4.72938">
        <ele>171</ele>
        <time>2017-11-22T11:23:10Z</time>
      </trkpt>
      <trkpt lat="45.9298" lon="4.72943">
        <ele>171</ele>
        <time>2017-11-22T11:23:11Z</time>
      </trkpt>
      <trkpt lat="45.92976" lon="4.72948">
        <ele>171</ele>
        <time>2017-11-22T11:23:12Z</time>
      </trkpt>
      <trkpt lat="45.92971" lon="4.72953">
        <ele>171</ele>
        <time>2017-11-22T11:23:13Z</time>
      </trkpt>
      <trkpt lat="45.92967" lon="4.72958">
        <ele>171</ele>
        <time>2017-11-22T11:23:14Z</time>
      </trkpt>
      <trkpt lat="45.92962" lon="4.72963">
        <ele>171</ele>
        <time>2017-11-22T11:23:15Z</time>
      </trkpt>
      <trkpt lat="45.92958" lon="4.72969">
        <ele>171</ele>
        <time>2017-11-22T11:23:16Z</time>
      </trkpt>
      <trkpt lat="45.92953" lon="4.72973">
        <ele>171</ele>
        <time>2017-11-22T11:23:17Z</time>
      </trkpt>
      <trkpt lat="45.92949" lon="4.72978">
        <ele>171</ele>
        <time>2017-11-22T11:23:18Z</time>
      </trkpt>
      <trkpt lat="45.92944" lon="4.72983">
        <ele>171</ele>
        <time>2017-11-22T11:23:19Z</time>
      </trkpt>
      <trkpt lat="45.92939" lon="4.72989">
        <ele>171</ele>
        <time>2017-11-22T11:23:20Z</time>
      </trkpt>
      <trkpt lat="45.92935" lon="4.72995">
        <ele>172</ele>
        <time>2017-11-22T11:23:21Z</time>
      </trkpt>
      <trkpt lat="45.92931" lon="4.73001">
        <ele>172</ele>
        <time>2017-11-22T11:23:22Z</time>
      </trkpt>
      <trkpt lat="45.92927" lon="4.73007">
        <ele>172</ele>
        <time>2017-11-22T11:23:23Z</time>
      </trkpt>
      <trkpt lat="45.92922" lon="4.73013">
        <ele>172</ele>
        <time>2017-11-22T11:23:24Z</time>
      </trkpt>
      <trkpt lat="45.92917" lon="4.73017">
        <ele>172</ele>
        <time>2017-11-22T11:23:25Z</time>
      </trkpt>
      <trkpt lat="45.92913" lon="4.73022">
        <ele>172</ele>
        <time>2017-11-22T11:23:26Z</time>
      </trkpt>
      <trkpt lat="45.92908" lon="4.73029">
        <ele>172</ele>
        <time>2017-11-22T11:23:27Z</time>
      </trkpt>
      <trkpt lat="45.92904" lon="4.73035">
        <ele>172</ele>
        <time>2017-11-22T11:23:28Z</time>
      </trkpt>
      <trkpt lat="45.929" lon="4.73041">
        <ele>172</ele>
        <time>2017-11-22T11:23:29Z</time>
      </trkpt>
      <trkpt lat="45.92896" lon="4.73048">
        <ele>172</ele>
        <time>2017-11-22T11:23:30Z</time>
      </trkpt>
      <trkpt lat="45.92893" lon="4.73053">
        <ele>172</ele>
        <time>2017-11-22T11:23:31Z</time>
      </trkpt>
      <trkpt lat="45.92888" lon="4.7306">
        <ele>172</ele>
        <time>2017-11-22T11:23:32Z</time>
      </trkpt>
      <trkpt lat="45.92884" lon="4.73067">
        <ele>172</ele>
        <time>2017-11-22T11:23:33Z</time>
      </trkpt>
      <trkpt lat="45.92881" lon="4.73071">
        <ele>172</ele>
        <time>2017-11-22T11:23:34Z</time>
      </trkpt>
      <trkpt lat="45.92877" lon="4.73076">
        <ele>172</ele>
        <time>2017-11-22T11:23:35Z</time>
      </trkpt>
      <trkpt lat="45.92873" lon="4.73081">
        <ele>172</ele>
        <time>2017-11-22T11:23:36Z</time>
      </trkpt>
      <trkpt lat="45.92869" lon="4.73088">
        <ele>172</ele>
        <time>2017-11-22T11:23:37Z</time>
      </trkpt>
      <trkpt lat="45.92865" lon="4.73093">
        <ele>172</ele>
        <time>2017-11-22T11:23:38Z</time>
      </trkpt>
      <trkpt lat="45.92861" lon="4.73099">
        <ele>171</ele>
        <time>2017-11-22T11:23:39Z</time>
      </trkpt>
      <trkpt lat="45.92857" lon="4.73102">
        <ele>171</ele>
        <time>2017-11-22T11:23:40Z</time>
      </trkpt>
      <trkpt lat="45.92852" lon="4.73105">
        <ele>171</ele>
        <time>2017-11-22T11:23:41Z</time>
      </trkpt>
      <trkpt lat="45.92845" lon="4.731">
        <ele>171</ele>
        <time>2017-11-22T11:23:43Z</time>
      </trkpt>
      <trkpt lat="45.92842" lon="4.73096">
        <ele>171</ele>
        <time>2017-11-22T11:23:44Z</time>
      </trkpt>
      <trkpt lat="45.92845" lon="4.73087">
        <ele>171</ele>
        <time>2017-11-22T11:23:45Z</time>
      </trkpt>
      <trkpt lat="45.92843" lon="4.73079">
        <ele>171</ele>
        <time>2017-11-22T11:23:46Z</time>
      </trkpt>
      <trkpt lat="45.92842" lon="4.73072">
        <ele>171</ele>
        <time>2017-11-22T11:23:47Z</time>
      </trkpt>
      <trkpt lat="45.9284" lon="4.73064">
        <ele>171</ele>
        <time>2017-11-22T11:23:48Z</time>
      </trkpt>
      <trkpt lat="45.92839" lon="4.73057">
        <ele>171</ele>
        <time>2017-11-22T11:23:49Z</time>
      </trkpt>
      <trkpt lat="45.92838" lon="4.73049">
        <ele>171</ele>
        <time>2017-11-22T11:23:50Z</time>
      </trkpt>
      <trkpt lat="45.92837" lon="4.73039">
        <ele>171</ele>
        <time>2017-11-22T11:23:51Z</time>
      </trkpt>
      <trkpt lat="45.92837" lon="4.73031">
        <ele>171</ele>
        <time>2017-11-22T11:23:52Z</time>
      </trkpt>
      <trkpt lat="45.92835" lon="4.73023">
        <ele>171</ele>
        <time>2017-11-22T11:23:53Z</time>
      </trkpt>
      <trkpt lat="45.92835" lon="4.73015">
        <ele>171</ele>
        <time>2017-11-22T11:23:54Z</time>
      </trkpt>
      <trkpt lat="45.92833" lon="4.73007">
        <ele>170</ele>
        <time>2017-11-22T11:23:55Z</time>
      </trkpt>
      <trkpt lat="45.92832" lon="4.73">
        <ele>170</ele>
        <time>2017-11-22T11:23:56Z</time>
      </trkpt>
      <trkpt lat="45.9283" lon="4.72992">
        <ele>170</ele>
        <time>2017-11-22T11:23:57Z</time>
      </trkpt>
      <trkpt lat="45.9283" lon="4.72985">
        <ele>170</ele>
        <time>2017-11-22T11:23:58Z</time>
      </trkpt>
      <trkpt lat="45.92829" lon="4.72977">
        <ele>170</ele>
        <time>2017-11-22T11:23:59Z</time>
      </trkpt>
      <trkpt lat="45.92827" lon="4.72969">
        <ele>170</ele>
        <time>2017-11-22T11:24:00Z</time>
      </trkpt>
      <trkpt lat="45.92826" lon="4.72962">
        <ele>170</ele>
        <time>2017-11-22T11:24:01Z</time>
      </trkpt>
      <trkpt lat="45.92826" lon="4.72954">
        <ele>170</ele>
        <time>2017-11-22T11:24:02Z</time>
      </trkpt>
      <trkpt lat="45.92825" lon="4.72946">
        <ele>170</ele>
        <time>2017-11-22T11:24:03Z</time>
      </trkpt>
      <trkpt lat="45.92825" lon="4.72937">
        <ele>170</ele>
        <time>2017-11-22T11:24:04Z</time>
      </trkpt>
      <trkpt lat="45.92824" lon="4.72929">
        <ele>170</ele>
        <time>2017-11-22T11:24:05Z</time>
      </trkpt>
      <trkpt lat="45.92823" lon="4.72921">
        <ele>170</ele>
        <time>2017-11-22T11:24:06Z</time>
      </trkpt>
      <trkpt lat="45.92823" lon="4.72913">
        <ele>170</ele>
        <time>2017-11-22T11:24:07Z</time>
      </trkpt>
      <trkpt lat="45.92822" lon="4.72904">
        <ele>170</ele>
        <time>2017-11-22T11:24:08Z</time>
      </trkpt>
      <trkpt lat="45.92821" lon="4.72896">
        <ele>170</ele>
        <time>2017-11-22T11:24:09Z</time>
      </trkpt>
      <trkpt lat="45.92821" lon="4.72889">
        <ele>170</ele>
        <time>2017-11-22T11:24:10Z</time>
      </trkpt>
      <trkpt lat="45.9282" lon="4.72881">
        <ele>170</ele>
        <time>2017-11-22T11:24:11Z</time>
      </trkpt>
      <trkpt lat="45.92819" lon="4.72873">
        <ele>170</ele>
        <time>2017-11-22T11:24:12Z</time>
      </trkpt>
      <trkpt lat="45.92817" lon="4.72866">
        <ele>170</ele>
        <time>2017-11-22T11:24:13Z</time>
      </trkpt>
      <trkpt lat="45.92816" lon="4.72859">
        <ele>170</ele>
        <time>2017-11-22T11:24:14Z</time>
      </trkpt>
      <trkpt lat="45.92815" lon="4.72852">
        <ele>170</ele>
        <time>2017-11-22T11:24:15Z</time>
      </trkpt>
      <trkpt lat="45.92814" lon="4.72846">
        <ele>170</ele>
        <time>2017-11-22T11:24:16Z</time>
      </trkpt>
      <trkpt lat="45.92813" lon="4.7284">
        <ele>170</ele>
        <time>2017-11-22T11:24:17Z</time>
      </trkpt>
      <trkpt lat="45.92811" lon="4.72833">
        <ele>171</ele>
        <time>2017-11-22T11:24:18Z</time>
      </trkpt>
      <trkpt lat="45.9281" lon="4.72827">
        <ele>171</ele>
        <time>2017-11-22T11:24:19Z</time>
      </trkpt>
      <trkpt lat="45.92809" lon="4.7282">
        <ele>171</ele>
        <time>2017-11-22T11:24:20Z</time>
      </trkpt>
      <trkpt lat="45.92807" lon="4.72814">
        <ele>171</ele>
        <time>2017-11-22T11:24:21Z</time>
      </trkpt>
      <trkpt lat="45.92806" lon="4.72807">
        <ele>171</ele>
        <time>2017-11-22T11:24:22Z</time>
      </trkpt>
      <trkpt lat="45.92804" lon="4.72799">
        <ele>171</ele>
        <time>2017-11-22T11:24:23Z</time>
      </trkpt>
      <trkpt lat="45.92804" lon="4.72792">
        <ele>171</ele>
        <time>2017-11-22T11:24:24Z</time>
      </trkpt>
      <trkpt lat="45.92798" lon="4.72784">
        <ele>171</ele>
        <time>2017-11-22T11:24:26Z</time>
      </trkpt>
      <trkpt lat="45.92794" lon="4.72784">
        <ele>171</ele>
        <time>2017-11-22T11:24:27Z</time>
      </trkpt>
      <trkpt lat="45.92788" lon="4.7279">
        <ele>170</ele>
        <time>2017-11-22T11:24:29Z</time>
      </trkpt>
      <trkpt lat="45.92783" lon="4.72793">
        <ele>170</ele>
        <time>2017-11-22T11:24:30Z</time>
      </trkpt>
      <trkpt lat="45.92779" lon="4.72797">
        <ele>170</ele>
        <time>2017-11-22T11:24:31Z</time>
      </trkpt>
      <trkpt lat="45.92774" lon="4.72799">
        <ele>170</ele>
        <time>2017-11-22T11:24:32Z</time>
      </trkpt>
      <trkpt lat="45.9277" lon="4.72802">
        <ele>170</ele>
        <time>2017-11-22T11:24:33Z</time>
      </trkpt>
      <trkpt lat="45.92766" lon="4.72806">
        <ele>170</ele>
        <time>2017-11-22T11:24:34Z</time>
      </trkpt>
      <trkpt lat="45.92762" lon="4.7281">
        <ele>170</ele>
        <time>2017-11-22T11:24:35Z</time>
      </trkpt>
      <trkpt lat="45.92758" lon="4.72813">
        <ele>170</ele>
        <time>2017-11-22T11:24:36Z</time>
      </trkpt>
      <trkpt lat="45.92753" lon="4.72817">
        <ele>170</ele>
        <time>2017-11-22T11:24:37Z</time>
      </trkpt>
      <trkpt lat="45.92748" lon="4.72819">
        <ele>169</ele>
        <time>2017-11-22T11:24:38Z</time>
      </trkpt>
      <trkpt lat="45.92743" lon="4.72823">
        <ele>169</ele>
        <time>2017-11-22T11:24:39Z</time>
      </trkpt>
      <trkpt lat="45.92739" lon="4.72827">
        <ele>169</ele>
        <time>2017-11-22T11:24:40Z</time>
      </trkpt>
      <trkpt lat="45.92734" lon="4.7283">
        <ele>169</ele>
        <time>2017-11-22T11:24:41Z</time>
      </trkpt>
      <trkpt lat="45.92729" lon="4.72834">
        <ele>169</ele>
        <time>2017-11-22T11:24:42Z</time>
      </trkpt>
      <trkpt lat="45.92724" lon="4.72838">
        <ele>169</ele>
        <time>2017-11-22T11:24:43Z</time>
      </trkpt>
      <trkpt lat="45.9272" lon="4.7284">
        <ele>169</ele>
        <time>2017-11-22T11:24:44Z</time>
      </trkpt>
      <trkpt lat="45.92715" lon="4.72844">
        <ele>169</ele>
        <time>2017-11-22T11:24:45Z</time>
      </trkpt>
      <trkpt lat="45.9271" lon="4.72848">
        <ele>169</ele>
        <time>2017-11-22T11:24:46Z</time>
      </trkpt>
      <trkpt lat="45.92706" lon="4.7285">
        <ele>169</ele>
        <time>2017-11-22T11:24:47Z</time>
      </trkpt>
      <trkpt lat="45.92701" lon="4.72855">
        <ele>169</ele>
        <time>2017-11-22T11:24:48Z</time>
      </trkpt>
      <trkpt lat="45.92696" lon="4.72859">
        <ele>169</ele>
        <time>2017-11-22T11:24:49Z</time>
      </trkpt>
      <trkpt lat="45.92691" lon="4.72863">
        <ele>169</ele>
        <time>2017-11-22T11:24:50Z</time>
      </trkpt>
      <trkpt lat="45.92686" lon="4.72866">
        <ele>169</ele>
        <time>2017-11-22T11:24:51Z</time>
      </trkpt>
      <trkpt lat="45.92682" lon="4.7287">
        <ele>169</ele>
        <time>2017-11-22T11:24:52Z</time>
      </trkpt>
      <trkpt lat="45.92676" lon="4.72875">
        <ele>169</ele>
        <time>2017-11-22T11:24:53Z</time>
      </trkpt>
      <trkpt lat="45.92671" lon="4.72878">
        <ele>170</ele>
        <time>2017-11-22T11:24:54Z</time>
      </trkpt>
      <trkpt lat="45.92666" lon="4.72882">
        <ele>169</ele>
        <time>2017-11-22T11:24:55Z</time>
      </trkpt>
      <trkpt lat="45.9266" lon="4.72886">
        <ele>169</ele>
        <time>2017-11-22T11:24:56Z</time>
      </trkpt>
      <trkpt lat="45.92655" lon="4.7289">
        <ele>169</ele>
        <time>2017-11-22T11:24:57Z</time>
      </trkpt>
      <trkpt lat="45.92651" lon="4.72895">
        <ele>169</ele>
        <time>2017-11-22T11:24:58Z</time>
      </trkpt>
      <trkpt lat="45.92646" lon="4.72899">
        <ele>169</ele>
        <time>2017-11-22T11:24:59Z</time>
      </trkpt>
      <trkpt lat="45.92641" lon="4.72904">
        <ele>169</ele>
        <time>2017-11-22T11:25:00Z</time>
      </trkpt>
      <trkpt lat="45.92636" lon="4.72908">
        <ele>169</ele>
        <time>2017-11-22T11:25:01Z</time>
      </trkpt>
      <trkpt lat="45.92631" lon="4.72912">
        <ele>169</ele>
        <time>2017-11-22T11:25:02Z</time>
      </trkpt>
      <trkpt lat="45.92627" lon="4.72915">
        <ele>169</ele>
        <time>2017-11-22T11:25:03Z</time>
      </trkpt>
      <trkpt lat="45.92621" lon="4.72919">
        <ele>169</ele>
        <time>2017-11-22T11:25:04Z</time>
      </trkpt>
      <trkpt lat="45.92617" lon="4.72923">
        <ele>169</ele>
        <time>2017-11-22T11:25:05Z</time>
      </trkpt>
      <trkpt lat="45.92612" lon="4.72927">
        <ele>169</ele>
        <time>2017-11-22T11:25:06Z</time>
      </trkpt>
      <trkpt lat="45.92608" lon="4.72932">
        <ele>169</ele>
        <time>2017-11-22T11:25:07Z</time>
      </trkpt>
      <trkpt lat="45.92603" lon="4.72938">
        <ele>169</ele>
        <time>2017-11-22T11:25:08Z</time>
      </trkpt>
      <trkpt lat="45.92599" lon="4.72944">
        <ele>169</ele>
        <time>2017-11-22T11:25:09Z</time>
      </trkpt>
      <trkpt lat="45.92593" lon="4.7295">
        <ele>169</ele>
        <time>2017-11-22T11:25:10Z</time>
      </trkpt>
      <trkpt lat="45.92588" lon="4.72956">
        <ele>169</ele>
        <time>2017-11-22T11:25:11Z</time>
      </trkpt>
      <trkpt lat="45.92584" lon="4.72961">
        <ele>169</ele>
        <time>2017-11-22T11:25:12Z</time>
      </trkpt>
      <trkpt lat="45.9258" lon="4.72966">
        <ele>169</ele>
        <time>2017-11-22T11:25:13Z</time>
      </trkpt>
      <trkpt lat="45.92574" lon="4.72971">
        <ele>169</ele>
        <time>2017-11-22T11:25:14Z</time>
      </trkpt>
      <trkpt lat="45.92571" lon="4.72974">
        <ele>169</ele>
        <time>2017-11-22T11:25:15Z</time>
      </trkpt>
      <trkpt lat="45.92566" lon="4.72978">
        <ele>169</ele>
        <time>2017-11-22T11:25:16Z</time>
      </trkpt>
      <trkpt lat="45.92562" lon="4.72983">
        <ele>169</ele>
        <time>2017-11-22T11:25:17Z</time>
      </trkpt>
      <trkpt lat="45.92558" lon="4.72988">
        <ele>169</ele>
        <time>2017-11-22T11:25:18Z</time>
      </trkpt>
      <trkpt lat="45.92553" lon="4.72993">
        <ele>169</ele>
        <time>2017-11-22T11:25:19Z</time>
      </trkpt>
      <trkpt lat="45.92548" lon="4.72998">
        <ele>169</ele>
        <time>2017-11-22T11:25:20Z</time>
      </trkpt>
      <trkpt lat="45.92543" lon="4.73002">
        <ele>169</ele>
        <time>2017-11-22T11:25:21Z</time>
      </trkpt>
      <trkpt lat="45.92538" lon="4.73008">
        <ele>169</ele>
        <time>2017-11-22T11:25:22Z</time>
      </trkpt>
      <trkpt lat="45.92533" lon="4.73013">
        <ele>169</ele>
        <time>2017-11-22T11:25:23Z</time>
      </trkpt>
      <trkpt lat="45.92528" lon="4.73017">
        <ele>169</ele>
        <time>2017-11-22T11:25:24Z</time>
      </trkpt>
      <trkpt lat="45.92523" lon="4.73021">
        <ele>169</ele>
        <time>2017-11-22T11:25:25Z</time>
      </trkpt>
      <trkpt lat="45.9252" lon="4.73024">
        <ele>169</ele>
        <time>2017-11-22T11:25:26Z</time>
      </trkpt>
      <trkpt lat="45.92514" lon="4.73027">
        <ele>169</ele>
        <time>2017-11-22T11:25:27Z</time>
      </trkpt>
      <trkpt lat="45.9251" lon="4.73031">
        <ele>169</ele>
        <time>2017-11-22T11:25:28Z</time>
      </trkpt>
      <trkpt lat="45.92505" lon="4.73036">
        <ele>169</ele>
        <time>2017-11-22T11:25:29Z</time>
      </trkpt>
      <trkpt lat="45.92503" lon="4.73039">
        <ele>169</ele>
        <time>2017-11-22T11:25:30Z</time>
      </trkpt>
      <trkpt lat="45.92498" lon="4.73043">
        <ele>170</ele>
        <time>2017-11-22T11:25:31Z</time>
      </trkpt>
      <trkpt lat="45.92494" lon="4.73047">
        <ele>170</ele>
        <time>2017-11-22T11:25:32Z</time>
      </trkpt>
      <trkpt lat="45.92489" lon="4.73051">
        <ele>170</ele>
        <time>2017-11-22T11:25:33Z</time>
      </trkpt>
      <trkpt lat="45.92485" lon="4.73055">
        <ele>170</ele>
        <time>2017-11-22T11:25:34Z</time>
      </trkpt>
      <trkpt lat="45.9248" lon="4.73059">
        <ele>170</ele>
        <time>2017-11-22T11:25:35Z</time>
      </trkpt>
      <trkpt lat="45.92475" lon="4.73065">
        <ele>170</ele>
        <time>2017-11-22T11:25:36Z</time>
      </trkpt>
      <trkpt lat="45.9247" lon="4.73069">
        <ele>170</ele>
        <time>2017-11-22T11:25:37Z</time>
      </trkpt>
      <trkpt lat="45.92465" lon="4.73074">
        <ele>170</ele>
        <time>2017-11-22T11:25:38Z</time>
      </trkpt>
      <trkpt lat="45.92461" lon="4.73078">
        <ele>170</ele>
        <time>2017-11-22T11:25:39Z</time>
      </trkpt>
      <trkpt lat="45.92456" lon="4.73082">
        <ele>170</ele>
        <time>2017-11-22T11:25:40Z</time>
      </trkpt>
      <trkpt lat="45.92451" lon="4.73086">
        <ele>170</ele>
        <time>2017-11-22T11:25:41Z</time>
      </trkpt>
      <trkpt lat="45.92446" lon="4.7309">
        <ele>170</ele>
        <time>2017-11-22T11:25:42Z</time>
      </trkpt>
      <trkpt lat="45.92441" lon="4.73094">
        <ele>170</ele>
        <time>2017-11-22T11:25:43Z</time>
      </trkpt>
      <trkpt lat="45.92435" lon="4.73098">
        <ele>171</ele>
        <time>2017-11-22T11:25:44Z</time>
      </trkpt>
      <trkpt lat="45.92429" lon="4.73103">
        <ele>171</ele>
        <time>2017-11-22T11:25:45Z</time>
      </trkpt>
      <trkpt lat="45.92424" lon="4.73107">
        <ele>171</ele>
        <time>2017-11-22T11:25:46Z</time>
      </trkpt>
      <trkpt lat="45.92419" lon="4.73112">
        <ele>170</ele>
        <time>2017-11-22T11:25:47Z</time>
      </trkpt>
      <trkpt lat="45.92413" lon="4.73116">
        <ele>171</ele>
        <time>2017-11-22T11:25:48Z</time>
      </trkpt>
      <trkpt lat="45.9241" lon="4.73123">
        <ele>171</ele>
        <time>2017-11-22T11:25:49Z</time>
      </trkpt>
      <trkpt lat="45.92407" lon="4.7313">
        <ele>171</ele>
        <time>2017-11-22T11:25:50Z</time>
      </trkpt>
      <trkpt lat="45.92407" lon="4.73137">
        <ele>171</ele>
        <time>2017-11-22T11:25:51Z</time>
      </trkpt>
      <trkpt lat="45.92407" lon="4.73143">
        <ele>171</ele>
        <time>2017-11-22T11:25:52Z</time>
      </trkpt>
      <trkpt lat="45.92407" lon="4.73151">
        <ele>171</ele>
        <time>2017-11-22T11:25:53Z</time>
      </trkpt>
      <trkpt lat="45.92407" lon="4.73158">
        <ele>170</ele>
        <time>2017-11-22T11:25:54Z</time>
      </trkpt>
      <trkpt lat="45.92407" lon="4.73165">
        <ele>170</ele>
        <time>2017-11-22T11:25:55Z</time>
      </trkpt>
      <trkpt lat="45.92407" lon="4.73173">
        <ele>170</ele>
        <time>2017-11-22T11:25:56Z</time>
      </trkpt>
      <trkpt lat="45.92407" lon="4.7318">
        <ele>171</ele>
        <time>2017-11-22T11:25:57Z</time>
      </trkpt>
      <trkpt lat="45.92407" lon="4.73188">
        <ele>171</ele>
        <time>2017-11-22T11:25:58Z</time>
      </trkpt>
      <trkpt lat="45.92407" lon="4.73195">
        <ele>171</ele>
        <time>2017-11-22T11:25:59Z</time>
      </trkpt>
      <trkpt lat="45.92408" lon="4.73203">
        <ele>171</ele>
        <time>2017-11-22T11:26:00Z</time>
      </trkpt>
      <trkpt lat="45.92409" lon="4.7321">
        <ele>171</ele>
        <time>2017-11-22T11:26:01Z</time>
      </trkpt>
      <trkpt lat="45.92408" lon="4.73218">
        <ele>171</ele>
        <time>2017-11-22T11:26:02Z</time>
      </trkpt>
      <trkpt lat="45.92409" lon="4.73226">
        <ele>171</ele>
        <time>2017-11-22T11:26:03Z</time>
      </trkpt>
      <trkpt lat="45.92411" lon="4.73236">
        <ele>171</ele>
        <time>2017-11-22T11:26:04Z</time>
      </trkpt>
      <trkpt lat="45.92411" lon="4.73244">
        <ele>171</ele>
        <time>2017-11-22T11:26:05Z</time>
      </trkpt>
      <trkpt lat="45.92412" lon="4.73253">
        <ele>171</ele>
        <time>2017-11-22T11:26:06Z</time>
      </trkpt>
      <trkpt lat="45.92413" lon="4.73261">
        <ele>171</ele>
        <time>2017-11-22T11:26:07Z</time>
      </trkpt>
      <trkpt lat="45.92413" lon="4.73268">
        <ele>171</ele>
        <time>2017-11-22T11:26:08Z</time>
      </trkpt>
      <trkpt lat="45.92414" lon="4.73277">
        <ele>171</ele>
        <time>2017-11-22T11:26:09Z</time>
      </trkpt>
      <trkpt lat="45.92415" lon="4.73285">
        <ele>171</ele>
        <time>2017-11-22T11:26:10Z</time>
      </trkpt>
      <trkpt lat="45.92416" lon="4.73293">
        <ele>171</ele>
        <time>2017-11-22T11:26:11Z</time>
      </trkpt>
      <trkpt lat="45.92416" lon="4.73301">
        <ele>171</ele>
        <time>2017-11-22T11:26:12Z</time>
      </trkpt>
      <trkpt lat="45.92416" lon="4.73309">
        <ele>171</ele>
        <time>2017-11-22T11:26:13Z</time>
      </trkpt>
      <trkpt lat="45.92417" lon="4.73317">
        <ele>171</ele>
        <time>2017-11-22T11:26:14Z</time>
      </trkpt>
      <trkpt lat="45.92418" lon="4.73326">
        <ele>171</ele>
        <time>2017-11-22T11:26:15Z</time>
      </trkpt>
      <trkpt lat="45.92419" lon="4.73334">
        <ele>171</ele>
        <time>2017-11-22T11:26:16Z</time>
      </trkpt>
      <trkpt lat="45.92419" lon="4.73342">
        <ele>171</ele>
        <time>2017-11-22T11:26:17Z</time>
      </trkpt>
      <trkpt lat="45.9242" lon="4.7335">
        <ele>171</ele>
        <time>2017-11-22T11:26:18Z</time>
      </trkpt>
      <trkpt lat="45.92422" lon="4.73359">
        <ele>171</ele>
        <time>2017-11-22T11:26:19Z</time>
      </trkpt>
      <trkpt lat="45.92423" lon="4.73367">
        <ele>172</ele>
        <time>2017-11-22T11:26:20Z</time>
      </trkpt>
      <trkpt lat="45.92424" lon="4.73375">
        <ele>172</ele>
        <time>2017-11-22T11:26:21Z</time>
      </trkpt>
      <trkpt lat="45.92425" lon="4.73382">
        <ele>172</ele>
        <time>2017-11-22T11:26:22Z</time>
      </trkpt>
      <trkpt lat="45.92426" lon="4.7339">
        <ele>172</ele>
        <time>2017-11-22T11:26:23Z</time>
      </trkpt>
      <trkpt lat="45.92426" lon="4.73396">
        <ele>172</ele>
        <time>2017-11-22T11:26:24Z</time>
      </trkpt>
      <trkpt lat="45.9243" lon="4.73403">
        <ele>172</ele>
        <time>2017-11-22T11:26:25Z</time>
      </trkpt>
      <trkpt lat="45.92434" lon="4.73409">
        <ele>172</ele>
        <time>2017-11-22T11:26:26Z</time>
      </trkpt>
      <trkpt lat="45.92439" lon="4.73413">
        <ele>172</ele>
        <time>2017-11-22T11:26:27Z</time>
      </trkpt>
      <trkpt lat="45.92443" lon="4.73417">
        <ele>173</ele>
        <time>2017-11-22T11:26:28Z</time>
      </trkpt>
      <trkpt lat="45.92449" lon="4.73421">
        <ele>173</ele>
        <time>2017-11-22T11:26:29Z</time>
      </trkpt>
      <trkpt lat="45.92454" lon="4.73424">
        <ele>173</ele>
        <time>2017-11-22T11:26:30Z</time>
      </trkpt>
      <trkpt lat="45.92457" lon="4.73429">
        <ele>173</ele>
        <time>2017-11-22T11:26:31Z</time>
      </trkpt>
      <trkpt lat="45.92462" lon="4.73435">
        <ele>173</ele>
        <time>2017-11-22T11:26:32Z</time>
      </trkpt>
      <trkpt lat="45.92465" lon="4.73443">
        <ele>173</ele>
        <time>2017-11-22T11:26:33Z</time>
      </trkpt>
      <trkpt lat="45.92465" lon="4.73451">
        <ele>173</ele>
        <time>2017-11-22T11:26:34Z</time>
      </trkpt>
      <trkpt lat="45.92466" lon="4.73458">
        <ele>173</ele>
        <time>2017-11-22T11:26:35Z</time>
      </trkpt>
      <trkpt lat="45.92467" lon="4.73467">
        <ele>173</ele>
        <time>2017-11-22T11:26:36Z</time>
      </trkpt>
      <trkpt lat="45.92468" lon="4.73477">
        <ele>173</ele>
        <time>2017-11-22T11:26:37Z</time>
      </trkpt>
      <trkpt lat="45.92468" lon="4.73485">
        <ele>173</ele>
        <time>2017-11-22T11:26:38Z</time>
      </trkpt>
      <trkpt lat="45.92469" lon="4.73492">
        <ele>173</ele>
        <time>2017-11-22T11:26:39Z</time>
      </trkpt>
      <trkpt lat="45.92468" lon="4.735">
        <ele>173</ele>
        <time>2017-11-22T11:26:40Z</time>
      </trkpt>
      <trkpt lat="45.92468" lon="4.73507">
        <ele>174</ele>
        <time>2017-11-22T11:26:41Z</time>
      </trkpt>
      <trkpt lat="45.92468" lon="4.73514">
        <ele>174</ele>
        <time>2017-11-22T11:26:42Z</time>
      </trkpt>
      <trkpt lat="45.92468" lon="4.73527">
        <ele>174</ele>
        <time>2017-11-22T11:26:44Z</time>
      </trkpt>
      <trkpt lat="45.92468" lon="4.73532">
        <ele>174</ele>
        <time>2017-11-22T11:26:45Z</time>
      </trkpt>
      <trkpt lat="45.92467" lon="4.73542">
        <ele>173</ele>
        <time>2017-11-22T11:26:47Z</time>
      </trkpt>
      <trkpt lat="45.92466" lon="4.73546">
        <ele>173</ele>
        <time>2017-11-22T11:26:48Z</time>
      </trkpt>
      <trkpt lat="45.92466" lon="4.73557">
        <ele>173</ele>
        <time>2017-11-22T11:26:50Z</time>
      </trkpt>
      <trkpt lat="45.92466" lon="4.73563">
        <ele>173</ele>
        <time>2017-11-22T11:26:51Z</time>
      </trkpt>
      <trkpt lat="45.92466" lon="4.73569">
        <ele>173</ele>
        <time>2017-11-22T11:26:52Z</time>
      </trkpt>
      <trkpt lat="45.92467" lon="4.73576">
        <ele>173</ele>
        <time>2017-11-22T11:26:53Z</time>
      </trkpt>
      <trkpt lat="45.92468" lon="4.73582">
        <ele>173</ele>
        <time>2017-11-22T11:26:54Z</time>
      </trkpt>
      <trkpt lat="45.92468" lon="4.73589">
        <ele>174</ele>
        <time>2017-11-22T11:26:55Z</time>
      </trkpt>
      <trkpt lat="45.92468" lon="4.73596">
        <ele>174</ele>
        <time>2017-11-22T11:26:56Z</time>
      </trkpt>
      <trkpt lat="45.92468" lon="4.73603">
        <ele>174</ele>
        <time>2017-11-22T11:26:57Z</time>
      </trkpt>
      <trkpt lat="45.92468" lon="4.73611">
        <ele>174</ele>
        <time>2017-11-22T11:26:58Z</time>
      </trkpt>
      <trkpt lat="45.92468" lon="4.73618">
        <ele>174</ele>
        <time>2017-11-22T11:26:59Z</time>
      </trkpt>
      <trkpt lat="45.92468" lon="4.73624">
        <ele>174</ele>
        <time>2017-11-22T11:27:00Z</time>
      </trkpt>
      <trkpt lat="45.92469" lon="4.73631">
        <ele>174</ele>
        <time>2017-11-22T11:27:01Z</time>
      </trkpt>
      <trkpt lat="45.92471" lon="4.73643">
        <ele>174</ele>
        <time>2017-11-22T11:27:03Z</time>
      </trkpt>
      <trkpt lat="45.92471" lon="4.73649">
        <ele>174</ele>
        <time>2017-11-22T11:27:04Z</time>
      </trkpt>
      <trkpt lat="45.9247" lon="4.73662">
        <ele>174</ele>
        <time>2017-11-22T11:27:06Z</time>
      </trkpt>
      <trkpt lat="45.92469" lon="4.73668">
        <ele>174</ele>
        <time>2017-11-22T11:27:07Z</time>
      </trkpt>
      <trkpt lat="45.92468" lon="4.73679">
        <ele>174</ele>
        <time>2017-11-22T11:27:09Z</time>
      </trkpt>
      <trkpt lat="45.92468" lon="4.73683">
        <ele>174</ele>
        <time>2017-11-22T11:27:10Z</time>
      </trkpt>
      <trkpt lat="45.92466" lon="4.73692">
        <ele>174</ele>
        <time>2017-11-22T11:27:12Z</time>
      </trkpt>
      <trkpt lat="45.92466" lon="4.73696">
        <ele>174</ele>
        <time>2017-11-22T11:27:13Z</time>
      </trkpt>
      <trkpt lat="45.92465" lon="4.73709">
        <ele>174</ele>
        <time>2017-11-22T11:27:28Z</time>
      </trkpt>
      <trkpt lat="45.92464" lon="4.73709">
        <ele>174</ele>
        <time>2017-11-22T11:27:29Z</time>
      </trkpt>
      <trkpt lat="45.92464" lon="4.7371">
        <ele>174</ele>
        <time>2017-11-22T11:27:59.975Z</time>
      </trkpt>
    </trkseg>
  </trk>
</gpx>